GFSNGP_sfc_wetblb_000.txt.gz
Wetbulb
32.83 33.95 33.73 32.49 32.91 34.47 32.83 31.77 28.87 30.23 30.39 34.16 36.52 36.37 37.34 38.00 37.57 37.26 36.98 36.75 36.11 34.39 32.34 34.24 35.05 33.41 33.08 32.56 33.08 32.91 32.22 32.00 32.96 34.00 34.07 33.90 33.81 33.90 34.06 34.32 35.96 33.26 32.70 29.58
30.68 33.75 32.89 31.36 33.07 33.01 33.16 33.02 33.07 32.13 32.48 37.62 37.70 37.88 37.32 37.49 37.22 36.49 36.43 37.18 37.07 34.98 34.81 34.19 33.34 32.29 32.14 32.19 32.30 32.74 31.90 31.90 33.98 34.26 34.19 33.65 33.75 33.61 34.04 36.31 32.71 29.30 26.79 27.78
23.18 28.98 27.70 24.55 31.17 32.69 32.60 33.65 33.95 30.16 34.84 37.26 36.67 37.51 37.64 36.95 37.19 36.63 36.52 37.67 36.42 35.80 33.50 32.92 32.18 32.14 31.31 31.50 32.06 31.66 31.72 32.64 33.64 33.81 33.48 32.99 33.29 32.99 32.83 32.05 30.57 29.19 27.58 27.56
21.54 21.93 17.04 31.59 34.68 35.64 34.85 35.79 36.92 35.61 36.45 38.01 37.84 37.70 38.56 38.30 37.83 36.77 36.56 36.95 35.97 34.43 31.78 31.14 31.25 31.19 31.09 30.72 30.75 30.70 31.25 31.66 33.10 32.85 32.36 32.22 32.04 32.13 31.80 31.65 30.52 25.41 25.96 26.22
21.07 19.86 26.75 31.10 36.14 35.48 34.30 33.86 38.15 36.82 36.56 37.33 37.05 36.97 37.02 38.83 37.99 37.49 36.75 35.90 35.97 34.44 31.02 30.19 30.45 30.70 30.02 29.91 29.87 30.28 30.74 30.92 31.82 32.34 31.57 31.47 31.50 30.78 30.74 30.65 28.06 27.07 27.04 25.75
17.41 16.40 15.96 29.66 34.84 39.05 37.64 29.72 38.61 38.28 36.69 36.46 36.08 29.36 37.44 38.15 37.97 37.16 36.99 35.25 33.75 31.44 31.07 29.73 30.02 30.01 29.76 29.99 29.95 29.59 30.81 31.04 31.83 31.92 31.09 30.81 30.42 29.42 29.04 26.00 27.01 26.61 25.18 23.32
16.09 14.61 24.46 32.41 37.79 39.10 29.21 31.20 38.95 38.89 38.12 36.11 35.10 37.41 37.54 37.29 37.14 36.72 34.84 32.76 32.52 31.70 30.82 30.54 30.72 31.27 30.16 29.61 29.34 30.70 31.17 30.95 31.11 31.03 30.27 29.67 28.31 27.42 25.34 25.06 24.60 23.50 23.77 22.19
21.61 15.81 21.65 36.32 37.64 33.10 37.14 36.25 38.99 39.13 38.52 38.42 37.61 36.71 37.67 38.70 34.48 32.46 32.07 31.99 31.72 30.89 30.97 31.31 31.08 30.17 29.21 28.48 30.33 30.41 30.35 30.10 30.00 29.76 29.97 29.45 26.53 24.65 25.10 23.56 22.28 20.66 14.37 17.51
28.50 28.34 35.34 37.80 37.85 39.35 39.44 38.51 39.41 39.37 39.95 40.75 37.65 37.94 39.54 33.60 33.14 31.67 31.81 31.66 31.15 31.09 31.25 31.13 30.33 29.69 28.65 29.72 30.35 30.03 29.68 29.59 29.58 29.47 28.96 28.23 25.31 23.62 22.91 21.68 18.54 18.82 20.64 15.25
32.26 36.19 37.04 38.52 39.89 40.85 41.49 40.39 41.01 41.08 40.83 40.36 39.03 39.15 33.96 31.32 31.47 31.14 30.90 31.15 30.69 30.00 28.82 28.85 30.06 30.07 29.99 30.17 29.77 29.18 29.48 29.12 28.73 28.06 28.29 28.08 26.26 25.74 23.65 18.92 17.67 20.99 19.55 18.35
32.87 37.39 37.70 39.83 41.00 41.76 42.05 42.27 41.74 41.84 41.33 40.91 38.33 33.50 33.00 32.15 31.57 31.32 31.37 30.91 30.47 29.44 28.61 28.98 29.64 29.98 30.11 29.38 28.99 29.10 29.80 29.74 28.66 26.90 27.34 27.46 25.63 25.28 24.65 23.74 22.59 19.91 19.18 17.97
31.42 38.58 37.82 38.18 40.32 42.02 42.10 42.16 42.22 41.00 38.70 35.09 34.23 33.07 32.95 31.69 32.06 31.62 30.47 30.05 29.58 29.27 28.69 29.13 29.16 28.67 28.54 28.97 28.97 28.12 29.82 30.24 28.70 29.79 31.22 28.48 26.19 26.41 29.06 28.81 28.10 28.54 27.66 18.83
38.51 39.21 39.70 40.06 41.86 42.43 42.51 42.24 41.88 38.73 34.19 33.54 34.06 33.79 33.07 32.32 31.86 31.64 30.44 30.04 29.13 28.84 29.12 28.96 28.14 28.12 28.43 28.68 28.52 29.41 30.31 30.71 30.18 30.56 30.48 27.40 24.66 23.62 20.80 22.85 28.06 29.45 29.94 29.03
42.54 41.41 39.60 40.24 41.34 41.83 42.15 39.65 36.13 34.24 34.87 33.98 33.34 33.52 32.80 31.37 31.14 30.88 30.04 30.37 29.94 29.32 29.07 28.27 28.15 27.85 29.34 29.38 29.27 30.59 30.86 29.57 28.86 28.05 26.96 27.46 25.20 23.69 21.71 16.70 15.34 16.64 22.65 27.69
42.15 42.31 40.86 41.28 37.16 33.73 34.21 33.95 32.79 32.73 33.32 32.75 34.21 33.34 31.56 29.84 29.81 30.13 30.69 30.14 29.77 29.04 28.74 28.45 27.90 28.19 29.37 29.00 29.31 30.92 31.54 29.85 28.06 26.14 17.56 19.06 20.74 19.34 20.60 19.21 19.63 16.80 13.92 18.58
39.97 40.45 38.64 34.01 32.96 33.30 33.75 33.89 32.74 31.87 32.10 34.37 34.66 30.98 30.34 30.38 30.47 30.33 30.26 29.75 26.64 26.62 28.34 22.91 23.21 27.76 29.01 29.04 30.24 31.51 32.06 29.80 27.51 25.58 24.01 18.58 17.53 21.27 21.18 19.43 20.53 18.13 14.28 14.87
36.83 33.80 32.61 32.32 32.95 34.56 33.94 33.41 33.10 33.90 35.83 34.31 31.33 29.31 30.04 28.78 26.88 28.61 28.33 25.58 22.20 21.98 23.40 22.47 24.66 27.99 29.03 29.72 31.17 32.11 32.27 30.83 26.09 21.12 24.44 26.45 23.98 19.20 19.07 17.42 21.21 19.40 16.15 10.98
36.03 36.33 37.06 36.68 35.15 34.43 33.72 33.64 34.24 34.04 32.06 31.17 28.53 25.32 24.03 22.01 25.15 24.67 22.93 20.63 17.56 21.56 24.06 25.45 25.51 27.24 28.57 30.58 30.92 29.57 30.63 29.44 27.03 26.54 25.79 25.02 24.91 22.52 17.97 16.87 17.74 18.87 19.84 11.02
36.54 35.93 36.18 36.46 36.83 35.12 33.79 31.70 29.69 29.20 26.04 25.26 23.82 24.89 24.60 23.47 20.59 23.69 19.82 16.85 17.42 20.25 26.69 25.03 26.57 25.52 29.40 30.37 29.14 29.35 29.43 28.86 27.40 24.90 25.61 21.18 14.38 17.53 17.42 14.60 16.12 18.12 19.30 18.09
35.31 35.59 34.06 30.52 29.72 28.71 28.95 28.19 27.48 28.62 29.36 25.65 23.60 21.10 23.56 23.80 17.98 16.29 19.39 24.40 25.26 26.37 25.34 25.57 24.77 24.61 27.86 30.16 29.48 29.77 30.81 30.41 28.80 24.67 23.28 18.04 15.28 15.59 16.11 15.21 17.18 19.74 18.95 19.19
30.69 29.38 28.27 28.32 28.04 27.19 26.70 26.59 25.19 26.76 26.92 22.52 22.89 23.96 22.02 23.75 21.02 28.08 27.55 26.60 27.33 24.14 25.49 23.42 24.64 26.37 28.60 30.83 30.47 31.21 31.48 31.15 29.02 25.82 24.18 23.75 24.47 23.15 22.61 22.05 22.33 21.95 22.12 22.27
29.91 28.00 26.59 25.65 24.54 26.13 25.44 24.07 25.86 25.66 24.66 22.12 20.78 21.01 19.95 24.45 24.57 22.61 27.15 30.10 31.32 27.13 24.18 22.99 24.54 24.55 27.51 30.19 30.69 31.27 31.49 31.34 30.45 28.76 27.08 27.06 26.68 26.43 26.39 25.65 25.14 25.48 25.51 24.04
30.31 28.81 28.00 24.92 24.74 26.57 25.99 24.18 22.36 22.00 21.74 22.42 22.91 23.41 20.93 25.90 23.57 24.83 29.17 27.96 28.24 24.09 23.32 24.63 27.81 28.71 29.57 29.04 31.23 31.70 31.39 31.31 30.83 30.65 28.96 28.17 28.12 28.10 27.54 27.26 27.23 26.98 26.40 26.04
29.30 29.99 27.46 24.78 23.50 25.05 27.20 29.52 27.11 25.37 20.46 22.99 22.99 22.01 21.68 24.05 26.98 26.26 29.23 29.67 26.78 31.45 30.05 30.22 30.29 30.29 26.56 30.60 30.70 31.36 30.86 30.32 29.33 29.20 28.01 26.98 28.06 27.80 27.61 27.23 26.32 26.54 26.71 27.00
26.36 27.69 25.57 25.52 26.50 27.13 27.33 27.84 26.42 26.36 27.19 28.80 29.80 30.02 27.45 24.16 29.56 31.68 32.15 31.37 29.35 30.10 30.44 28.37 28.42 29.65 25.58 23.96 18.68 23.15 22.45 24.82 24.42 23.97 24.88 26.21 26.98 26.80 26.43 25.88 25.57 26.00 26.84 27.17
28.32 27.01 26.66 27.72 26.98 26.65 26.16 26.70 26.43 27.94 28.85 28.31 29.30 30.29 29.82 27.95 26.24 25.24 28.73 28.89 28.60 30.01 30.47 30.37 21.81 19.81 17.81 14.73 11.40 10.68 11.07 13.78 11.11 10.54 9.57 10.89 12.40 14.11 17.07 19.67 24.48 26.44 26.33 26.84
27.54 26.57 26.10 25.11 24.98 24.99 23.75 23.71 23.61 23.92 25.35 26.69 27.36 28.93 28.55 28.98 30.02 30.63 31.43 32.17 32.11 29.59 24.17 21.02 17.60 15.09 13.08 12.32 11.24 9.50 8.66 8.11 7.13 7.64 5.71 6.28 7.21 7.35 7.82 8.64 10.20 15.11 23.96 26.76

GFSNGP_sfc_wetblb_003.txt.gz
Wetbulb
35.92 36.25 37.07 36.89 37.20 36.83 36.29 36.52 35.52 36.37 35.13 39.41 41.85 42.01 41.27 41.55 41.33 40.88 40.70 40.55 39.86 38.52 38.30 39.01 38.70 39.46 39.22 38.90 38.69 38.70 38.03 37.77 38.52 39.65 39.74 39.48 39.17 39.01 39.23 39.68 40.30 39.08 38.01 35.21
34.60 35.58 35.26 35.43 36.85 37.02 36.95 36.81 36.08 36.27 36.97 42.01 41.73 41.87 40.51 40.76 40.57 40.38 40.64 40.98 40.42 39.32 38.22 38.13 38.82 39.22 38.12 37.83 38.15 38.00 37.52 37.57 38.43 38.94 39.13 38.84 38.47 38.56 39.08 39.49 39.65 37.01 36.33 34.92
29.56 31.21 31.65 30.89 34.79 36.51 36.83 37.84 39.51 35.53 41.36 41.37 40.00 40.16 41.19 41.15 41.25 40.95 41.43 41.60 40.25 39.10 38.61 38.22 38.80 38.48 38.03 37.81 37.52 36.90 36.82 37.19 37.58 37.92 38.11 38.12 37.72 37.49 37.96 38.53 38.94 37.93 34.51 33.92
30.83 27.44 27.51 36.91 39.08 38.69 37.69 38.04 39.31 39.08 40.34 41.60 41.60 41.53 42.44 43.74 42.38 41.85 41.83 41.79 40.95 40.52 39.35 38.41 38.49 38.05 37.45 36.84 36.40 35.66 35.87 36.54 37.14 37.66 37.30 37.49 37.06 36.86 37.82 38.03 37.00 36.67 33.93 33.22
30.89 28.42 31.20 35.97 36.10 37.89 37.62 38.63 41.54 40.46 41.05 40.32 40.25 42.00 42.70 43.49 43.73 44.35 43.60 43.01 41.86 41.45 40.02 37.32 37.28 37.37 36.30 35.85 35.44 35.15 35.59 36.41 37.05 37.25 36.79 36.64 36.43 36.94 36.98 35.89 35.88 34.97 33.43 31.57
27.31 28.58 26.26 35.03 37.75 42.52 42.09 35.30 42.13 42.22 40.48 39.42 41.44 39.55 43.61 44.39 44.08 43.09 43.27 42.03 40.35 39.39 36.36 35.86 35.99 36.07 35.29 35.67 35.56 35.72 36.19 36.51 37.12 37.18 36.89 36.35 36.56 36.45 35.83 34.96 32.52 32.97 30.22 29.25
23.19 30.28 31.24 36.58 40.36 42.21 34.13 37.02 41.56 42.14 41.84 40.27 40.82 44.87 43.81 42.71 41.50 43.33 41.25 36.42 35.48 35.67 35.51 36.51 36.63 36.36 36.06 35.35 35.11 36.05 36.21 36.51 36.70 37.00 36.27 36.53 36.29 35.40 33.96 32.83 31.76 30.57 28.45 28.04
25.04 26.42 28.62 38.48 41.07 37.95 43.06 42.44 42.59 42.81 42.88 42.10 44.16 41.06 41.53 40.52 38.89 37.87 35.70 35.36 35.97 35.83 36.11 35.89 36.70 36.03 35.05 34.61 36.30 36.06 35.98 35.72 35.85 36.32 35.73 35.13 34.98 34.32 32.02 31.49 30.07 28.49 27.78 27.34
33.37 34.67 40.19 40.79 42.73 44.00 43.12 42.91 43.81 43.47 44.07 43.61 42.03 40.78 40.77 38.01 36.15 35.44 35.48 35.32 36.09 36.33 35.75 35.42 35.37 35.13 34.35 35.49 35.37 34.89 34.85 34.84 35.11 35.25 35.11 34.62 33.56 32.43 30.62 30.11 29.38 28.51 27.62 27.76
36.08 39.58 38.49 40.39 43.03 43.41 44.23 44.49 44.65 44.84 45.44 43.70 43.06 41.49 38.32 34.83 34.53 34.62 34.92 35.29 35.23 34.78 33.40 33.35 34.60 34.04 34.27 34.60 34.62 33.80 33.43 33.69 34.51 33.86 33.54 33.93 33.18 32.14 30.58 29.61 29.53 28.65 28.93 28.06
36.43 39.56 40.73 42.23 43.34 45.39 45.52 44.51 44.47 45.14 44.89 44.09 43.23 39.54 36.06 34.64 32.86 32.57 33.52 33.81 34.21 33.00 32.65 33.01 33.83 33.57 34.17 33.89 33.32 32.58 32.69 32.88 32.12 32.53 33.11 33.29 32.32 32.06 30.64 31.18 31.41 30.73 30.00 29.04
37.19 42.44 42.67 42.65 43.99 44.63 44.87 45.40 46.24 44.88 42.30 41.01 39.94 36.30 34.99 33.46 34.96 36.84 35.61 33.46 32.52 32.69 32.78 32.56 32.74 32.91 33.16 33.10 32.87 32.38 31.80 32.90 32.66 32.18 32.30 33.05 32.89 32.09 30.05 30.23 28.20 29.01 28.76 28.42
42.78 43.46 43.28 44.27 44.07 45.72 45.49 46.35 45.52 44.00 39.74 36.50 36.09 35.32 35.33 35.05 34.98 34.37 33.26 32.85 32.67 32.83 32.89 32.60 32.48 31.79 32.60 32.44 32.32 31.90 31.84 32.63 33.26 32.08 31.83 32.38 32.45 31.62 30.59 30.49 28.80 29.95 30.76 30.70
44.32 44.09 43.57 44.16 44.74 44.28 42.67 37.71 36.75 36.01 35.84 36.00 36.75 37.02 35.36 34.56 34.27 33.03 32.77 33.16 33.21 32.67 32.30 32.25 31.77 31.36 32.55 32.91 32.85 32.32 32.87 31.91 33.23 32.94 33.00 32.82 33.09 32.69 31.31 30.06 30.22 30.75 29.77 28.42
43.55 44.49 44.09 39.34 36.82 35.38 35.92 36.08 34.92 35.33 36.69 37.26 36.99 35.91 35.08 33.44 32.19 32.51 33.06 33.03 32.45 32.36 32.00 31.88 31.18 31.71 33.21 33.26 32.49 32.57 33.47 34.43 33.93 33.23 32.40 30.44 29.87 30.05 30.94 30.11 29.82 29.65 30.45 27.21
38.11 36.12 35.66 34.31 33.84 34.74 35.13 34.66 33.97 34.16 35.87 36.18 35.57 36.23 36.09 33.77 32.71 32.92 32.96 32.77 30.18 30.90 32.91 29.75 28.47 31.90 32.75 32.75 32.67 33.39 34.29 32.72 32.79 33.54 32.00 30.53 30.53 30.60 30.82 31.27 30.98 30.25 29.64 29.79
39.14 33.81 33.81 33.71 33.18 33.63 34.42 35.96 35.33 35.28 36.34 36.93 36.56 34.18 33.34 31.36 30.77 31.77 31.60 29.90 29.74 28.85 29.52 28.59 29.34 32.56 31.90 32.46 33.07 34.09 34.10 33.48 31.65 32.28 31.76 31.77 30.90 30.64 30.99 31.12 30.11 30.11 30.29 31.69
37.26 37.15 37.22 36.37 35.15 34.53 34.97 35.75 35.97 36.49 36.32 36.01 31.53 30.78 29.75 28.84 30.50 30.05 28.95 27.67 25.89 25.74 28.57 30.16 30.25 30.73 31.39 33.01 33.62 33.02 32.09 31.97 31.99 31.23 30.61 30.92 31.58 31.96 31.14 30.17 29.60 29.14 29.80 30.96
38.28 37.43 37.39 36.88 37.50 37.05 36.52 35.95 33.80 32.18 30.90 30.05 29.36 30.36 28.81 28.44 28.26 27.98 27.78 26.03 25.42 27.00 30.96 31.42 30.10 30.08 30.97 31.55 31.71 32.49 31.96 31.67 31.51 30.89 30.64 29.91 30.38 30.30 30.16 29.62 29.05 28.93 28.74 28.86
36.50 36.80 35.15 32.91 31.57 30.33 31.21 31.05 30.83 31.03 30.99 29.49 28.15 28.64 28.81 29.22 27.08 26.26 27.34 27.10 29.15 31.63 31.59 30.95 30.71 30.52 30.71 31.30 30.27 33.04 32.77 32.11 32.02 31.77 31.93 30.61 29.56 29.25 29.63 27.53 28.24 29.00 29.05 29.04
31.81 31.30 30.28 29.40 29.04 29.05 29.15 28.99 28.12 29.82 29.15 27.04 27.12 27.97 26.77 28.41 27.81 25.93 29.75 29.57 32.92 31.34 30.94 28.70 30.32 31.90 32.52 31.38 32.47 32.86 32.47 32.29 32.29 32.08 31.38 31.19 30.25 29.40 29.50 30.26 29.99 29.80 29.99 30.16
32.44 30.34 27.88 27.22 26.16 28.72 28.11 28.33 28.85 28.52 28.41 27.57 25.97 24.23 23.77 26.84 28.53 27.88 27.72 30.50 34.88 30.46 32.49 33.38 32.93 31.55 31.43 30.42 32.22 32.11 32.35 32.34 32.25 32.16 31.72 31.57 31.02 31.01 31.01 31.20 31.02 31.20 31.02 31.02
31.81 30.29 29.74 28.05 27.46 28.81 28.64 28.57 26.56 26.90 25.89 26.72 26.26 27.73 28.62 29.69 30.40 29.78 30.94 34.27 32.97 33.57 32.79 33.57 32.25 30.52 30.84 31.38 31.93 32.47 32.47 31.75 32.02 31.83 32.28 32.11 31.57 31.17 30.38 29.98 30.76 30.90 30.26 29.90
30.90 30.34 28.97 27.20 26.75 28.31 27.13 28.31 28.26 29.00 28.95 29.59 30.45 30.54 29.12 28.42 29.55 32.00 32.39 31.38 31.56 32.17 32.56 33.11 33.05 32.64 31.18 32.65 32.47 32.83 31.93 29.88 27.59 26.84 27.22 26.83 26.96 27.37 28.12 27.64 27.42 28.56 28.79 27.87
28.85 29.15 28.21 27.33 26.04 25.51 25.51 25.47 26.26 26.83 27.02 27.48 28.30 29.56 30.36 30.23 28.51 29.63 29.97 30.60 30.95 31.36 31.41 31.85 32.62 32.40 30.72 28.73 26.60 24.19 22.89 20.88 18.19 17.80 16.96 17.03 16.80 16.37 16.81 16.70 15.85 16.74 18.21 22.79
27.61 26.89 26.72 25.54 24.77 23.05 21.65 21.43 20.72 22.68 22.76 23.46 24.82 27.20 27.72 28.01 28.74 29.22 30.06 30.44 31.88 31.66 32.67 28.42 25.80 24.00 22.67 21.02 19.52 17.84 17.01 15.83 14.94 14.41 13.45 13.49 13.48 13.45 13.02 12.60 12.51 12.65 12.85 13.64
24.44 21.99 21.99 21.92 20.07 18.99 17.25 16.99 16.46 17.43 19.54 19.75 19.28 21.81 22.33 23.98 25.27 25.22 26.08 27.32 29.38 28.13 23.33 20.59 17.68 16.94 16.46 15.70 14.70 13.91 13.47 12.85 10.99 10.69 10.97 10.79 10.63 10.75 10.61 10.63 11.17 11.86 12.81 13.14

GFSNGP_sfc_wetblb_006.txt.gz
Wetbulb
41.83 41.86 41.76 42.17 43.00 43.01 41.73 43.00 39.19 41.15 41.47 44.02 46.42 48.13 49.95 50.06 49.98 49.40 48.37 47.78 47.51 46.95 47.01 46.37 46.08 46.78 46.18 45.51 44.64 44.28 42.95 43.01 42.91 43.52 43.76 43.30 42.65 42.36 42.40 42.70 42.66 43.11 41.47 40.59
39.29 40.89 40.86 40.04 42.72 43.82 43.78 43.81 42.74 43.17 42.64 48.27 49.07 48.95 48.87 48.09 47.95 47.32 47.11 47.41 47.62 47.30 47.16 46.19 45.56 45.77 45.34 44.34 43.83 43.79 42.99 42.67 42.97 42.81 42.72 42.53 42.07 41.78 41.86 41.78 42.16 42.28 41.86 40.73
36.93 37.87 38.37 36.41 40.79 42.87 43.47 45.03 44.31 41.11 45.63 48.00 46.84 47.19 48.37 48.49 47.57 47.31 47.73 47.76 47.73 48.07 47.29 45.93 44.99 45.61 44.40 43.94 43.64 42.59 42.08 41.91 41.41 41.69 41.52 41.67 41.47 41.44 40.82 41.00 41.63 41.10 41.10 40.32
37.88 34.09 32.42 41.42 43.79 43.40 43.70 44.68 45.88 45.57 46.20 47.05 47.41 48.84 49.06 50.39 49.44 48.27 48.59 48.57 49.18 48.91 47.62 44.56 45.66 45.51 44.97 43.23 42.06 41.53 40.87 40.81 41.31 41.19 40.74 41.03 41.13 40.81 40.95 41.00 40.43 39.70 39.64 39.63
37.36 35.69 39.08 40.52 40.50 40.96 41.40 41.99 46.51 45.69 46.80 46.76 46.70 47.44 49.09 49.86 50.69 50.82 50.35 50.42 50.62 50.01 48.21 46.58 44.19 44.77 42.74 41.52 41.45 40.43 40.18 40.51 40.17 40.28 40.36 40.36 40.08 40.73 41.17 40.46 39.69 39.29 39.09 38.23
35.54 36.29 34.09 40.34 42.21 46.49 45.92 39.04 46.36 46.74 46.81 46.51 46.48 44.42 46.86 51.31 50.80 50.31 51.01 50.96 50.06 49.01 46.71 45.07 44.01 42.37 40.84 40.54 40.84 40.12 39.93 39.51 40.24 40.55 39.97 39.69 40.29 40.61 41.11 40.38 38.93 38.01 36.71 36.59
36.36 37.22 39.23 42.85 44.32 46.36 36.38 39.69 47.30 47.91 48.21 47.58 46.64 49.34 50.14 49.81 50.81 51.03 50.92 50.07 49.11 45.53 44.11 43.27 42.52 41.37 39.87 40.51 39.79 39.43 39.71 40.09 39.92 40.11 39.85 40.29 40.61 41.03 40.51 39.65 38.11 36.67 34.17 34.48
34.77 35.34 33.58 43.68 44.66 41.20 46.60 49.02 48.48 48.67 49.61 49.18 50.30 49.77 48.14 47.50 47.44 48.68 49.00 46.76 44.80 42.70 41.09 39.71 41.42 41.19 40.39 39.02 39.62 39.69 39.85 39.32 39.48 39.65 39.37 39.29 39.48 39.84 39.47 38.21 36.43 34.88 33.46 33.42
40.96 42.40 45.30 46.83 48.69 49.91 48.66 48.50 49.28 49.25 50.05 49.78 49.41 49.40 48.46 46.53 45.52 45.82 45.33 42.92 40.52 38.60 38.73 39.78 40.10 39.47 38.07 38.68 39.22 39.08 38.85 38.55 38.57 38.78 38.54 38.76 38.38 38.52 37.66 37.18 35.57 34.46 33.36 33.48
40.83 44.59 45.56 46.69 48.48 49.07 49.38 48.96 50.35 50.68 50.23 50.17 49.23 49.78 48.54 46.31 43.35 42.61 41.90 39.89 39.16 36.86 36.19 35.38 37.24 37.14 38.09 38.63 38.76 38.02 37.09 37.24 37.67 36.59 35.53 37.61 38.29 37.96 37.18 36.32 35.39 33.80 33.53 33.23
42.73 45.58 46.81 47.62 48.49 49.18 49.59 50.90 50.54 51.25 50.81 50.24 49.70 49.30 47.96 43.62 41.62 40.45 37.13 37.49 37.36 36.38 36.38 37.15 37.28 36.90 37.93 37.40 37.24 35.93 36.25 35.99 36.12 36.21 34.71 34.02 35.20 37.46 36.26 37.21 35.80 35.25 34.89 33.88
42.56 47.07 47.12 47.63 49.14 49.88 49.41 50.09 50.54 49.92 49.85 48.14 47.39 46.48 44.42 40.81 39.04 41.03 39.12 34.90 34.49 35.92 34.90 35.07 35.89 36.19 36.86 37.01 35.96 35.59 34.66 35.69 36.47 36.32 35.64 33.93 33.89 34.33 32.55 31.21 30.41 30.23 29.97 31.33
46.03 47.97 48.01 49.08 50.04 50.15 49.58 47.34 47.70 46.40 45.67 42.67 42.38 41.49 39.47 38.12 36.48 35.34 36.00 36.27 36.69 35.24 35.86 35.08 34.94 35.07 36.07 35.84 35.22 34.36 34.87 35.59 36.04 35.17 35.54 34.92 34.89 32.83 33.69 32.59 30.97 30.81 30.89 30.89
48.53 48.48 47.63 47.33 45.27 44.44 43.32 41.68 41.27 41.68 41.59 41.16 40.18 39.60 37.64 35.18 34.93 34.94 35.28 35.94 35.44 35.02 34.72 34.69 34.94 34.96 35.86 35.98 35.53 35.37 35.88 32.60 36.02 36.76 36.96 35.41 34.45 34.78 34.49 33.79 33.89 33.71 31.57 30.69
43.82 46.31 46.17 43.17 40.71 39.32 41.19 42.46 40.26 37.77 36.91 36.15 37.00 35.88 36.03 35.87 36.84 37.15 37.35 36.25 35.04 34.64 35.14 35.52 35.49 35.55 36.43 36.87 36.50 35.67 35.44 36.31 36.94 36.67 36.34 35.87 35.45 35.21 34.68 33.33 33.09 32.94 33.14 30.66
41.36 42.18 40.66 37.61 37.01 37.02 37.47 37.25 35.89 35.60 36.21 36.33 36.91 37.71 38.48 38.34 37.33 35.83 35.68 35.62 33.39 33.97 35.59 35.13 34.32 35.24 37.38 37.45 36.56 36.63 36.72 33.40 33.49 33.97 33.46 34.61 35.39 34.80 33.50 33.44 32.75 33.10 32.40 33.02
41.47 38.44 37.26 36.46 37.07 37.17 36.43 37.03 37.17 37.13 38.07 38.56 39.05 39.54 39.73 37.61 34.10 34.21 34.98 35.19 34.32 33.15 34.18 33.86 34.26 37.19 36.67 36.61 36.95 37.25 37.46 36.61 32.81 34.78 34.40 33.31 34.81 33.93 33.82 33.80 33.83 33.65 34.49 34.84
41.15 40.35 39.72 38.03 36.85 37.34 37.41 38.57 38.89 38.85 38.42 37.37 33.15 32.97 32.79 32.25 32.91 34.41 34.47 34.06 32.43 32.25 33.27 34.23 34.88 35.46 36.53 37.73 37.18 37.47 37.01 36.24 35.39 34.42 34.42 34.70 33.59 33.87 34.09 33.96 34.17 33.27 34.75 34.18
40.51 39.14 39.54 39.71 40.09 39.55 38.58 36.64 34.23 33.51 33.56 33.52 32.87 32.79 32.79 32.43 33.11 33.09 32.92 31.42 31.33 31.91 35.94 37.16 32.79 32.35 35.05 35.77 34.54 36.80 35.88 35.10 34.16 34.54 34.24 33.36 33.47 32.18 32.56 33.34 33.56 33.52 34.31 33.72
39.23 38.71 36.93 35.49 34.98 34.13 33.85 33.44 33.88 34.65 34.43 32.69 32.07 32.79 33.15 33.34 32.61 31.70 32.25 31.07 34.26 35.70 36.54 36.08 35.33 35.14 35.48 35.66 32.27 35.25 36.40 33.88 33.92 33.96 34.06 34.46 33.11 31.84 31.92 31.70 32.42 32.41 32.43 32.97
35.74 34.80 34.58 33.07 33.23 32.79 32.25 32.25 32.43 32.43 33.32 31.81 30.62 31.15 30.76 31.89 32.79 32.07 32.85 35.11 37.58 38.03 36.94 34.03 35.27 36.57 37.83 36.25 35.73 35.78 35.51 33.52 33.31 33.46 32.79 32.97 32.25 32.01 32.07 32.25 32.25 32.07 32.07 32.43
36.98 34.87 33.70 33.75 33.15 33.19 32.79 32.76 32.54 31.69 31.33 30.94 30.75 30.63 30.17 31.05 30.92 31.88 33.08 33.60 36.28 33.11 34.12 34.25 34.29 34.33 35.77 33.24 35.56 34.87 34.39 32.87 33.28 33.67 32.25 32.79 32.61 32.25 32.43 32.25 31.89 32.07 32.25 32.07
35.13 34.31 33.53 31.80 31.34 32.44 31.38 29.62 29.71 29.63 29.15 29.59 29.42 29.77 29.63 29.34 29.66 28.37 27.82 32.59 31.18 30.80 31.39 30.85 31.88 32.12 32.38 33.14 32.41 32.43 32.07 32.61 33.34 32.25 30.35 30.70 32.25 32.07 31.89 32.04 31.56 31.31 31.16 30.93
33.66 32.59 30.78 30.39 29.68 29.13 27.69 27.79 28.01 28.82 28.37 29.30 29.47 29.01 29.51 30.55 31.09 31.65 32.27 31.06 29.58 29.96 31.04 31.83 31.64 31.44 31.65 32.43 32.43 31.83 32.79 31.34 29.83 28.12 26.79 24.96 26.18 25.82 25.79 25.55 24.84 25.52 25.34 25.13
29.89 29.11 28.83 28.39 27.74 27.03 25.70 25.47 26.01 26.39 25.63 26.24 26.16 26.95 26.98 27.68 26.52 28.70 30.05 29.07 28.36 29.23 31.02 30.27 28.01 27.94 28.35 27.29 27.92 29.01 28.02 25.30 23.36 24.12 22.37 21.67 21.45 21.12 21.63 21.45 20.82 20.99 20.37 21.02
28.41 28.24 27.75 25.22 24.56 24.57 23.73 23.81 22.97 24.12 23.44 23.35 24.01 24.87 25.07 25.46 26.16 26.44 26.49 25.79 24.73 24.41 23.31 23.03 20.64 21.77 22.02 21.28 20.13 18.97 20.64 20.14 20.34 19.05 18.05 18.05 17.81 17.91 17.87 17.67 18.00 18.73 19.01 19.38
24.42 23.88 25.12 24.48 23.35 22.14 21.06 20.64 20.53 20.26 21.22 21.05 19.56 22.30 22.81 22.75 22.77 21.89 21.05 21.53 20.84 20.55 20.25 19.14 17.81 15.99 16.10 16.67 15.24 15.78 16.11 16.26 13.33 13.66 14.54 14.19 13.92 14.39 13.98 14.02 14.80 15.70 16.43 17.34

GFSNGP_sfc_wetblb_009.txt.gz
Wetbulb
46.75 45.96 45.17 44.92 44.85 45.43 43.67 44.08 41.59 42.94 42.12 44.91 47.03 48.16 49.76 51.65 52.31 53.16 54.20 54.46 54.54 53.50 53.36 53.04 51.49 49.93 49.34 49.45 47.86 46.91 45.87 45.44 45.64 46.04 45.67 45.02 44.33 43.90 43.32 42.94 42.97 43.19 42.54 42.68
42.97 45.88 44.92 43.23 45.04 44.65 45.03 45.10 44.18 44.26 43.61 48.60 50.17 50.39 50.06 50.48 51.42 51.60 52.63 53.30 53.50 52.97 52.49 51.36 50.37 49.27 49.12 48.44 46.64 46.66 45.28 44.93 45.35 45.07 44.26 43.92 43.66 43.27 42.78 42.36 42.43 42.49 41.90 41.32
38.53 42.15 42.54 37.62 43.01 44.91 45.23 46.36 45.63 42.53 46.48 49.73 48.66 48.45 49.53 50.35 51.09 51.20 51.88 52.41 52.43 52.18 51.65 51.14 50.52 49.54 48.39 46.93 46.51 45.28 44.84 44.50 43.93 43.67 42.65 42.73 42.99 42.34 41.86 42.05 42.26 41.74 41.40 40.90
39.40 36.25 31.17 43.26 46.84 45.99 45.32 46.66 47.76 47.15 47.74 48.47 48.55 50.40 51.29 52.25 51.85 51.68 51.74 52.15 52.52 52.71 51.98 51.91 51.58 49.37 48.69 46.61 45.55 44.66 43.36 42.75 42.91 42.67 41.94 42.17 42.03 41.70 41.96 42.35 41.73 40.98 40.41 40.33
39.02 37.53 41.05 42.48 43.66 43.26 42.85 43.13 47.70 46.91 47.49 48.34 49.62 50.27 50.59 52.87 52.94 52.88 52.96 53.41 53.59 53.68 53.23 52.85 50.67 48.85 46.56 45.57 44.75 42.77 41.62 41.85 42.65 41.66 41.03 41.27 40.88 41.03 41.72 41.77 41.35 40.93 40.42 39.40
38.34 35.69 32.85 42.79 45.47 48.54 47.78 40.04 47.43 47.54 47.30 47.23 48.73 44.45 47.37 52.57 52.45 52.61 53.07 53.72 53.55 53.98 53.50 52.11 49.80 47.58 45.93 43.79 43.04 42.23 42.23 42.40 41.64 41.44 40.94 40.44 40.62 40.59 41.40 41.63 40.69 40.37 39.32 38.78
38.97 38.14 41.38 45.87 46.48 48.33 37.82 41.57 48.45 49.10 48.61 48.75 47.08 48.94 51.96 52.91 52.54 53.30 53.50 53.48 53.98 53.67 52.43 51.25 49.29 46.28 43.80 44.41 41.66 42.52 40.97 40.81 41.05 41.07 40.74 40.74 40.62 40.78 40.59 40.39 40.47 39.87 37.38 37.50
40.59 35.75 34.01 46.74 46.66 42.37 48.41 50.10 49.84 50.22 50.27 50.08 50.79 51.38 51.81 52.31 51.58 51.66 52.05 52.96 52.19 51.32 48.51 47.61 45.60 44.09 41.85 40.09 42.27 40.75 40.74 40.24 39.76 40.22 40.22 40.00 39.47 39.90 39.97 39.73 38.89 37.79 36.03 36.00
43.49 43.94 48.49 49.24 48.30 50.39 50.88 49.89 49.99 50.07 50.67 51.07 50.40 50.42 51.30 51.40 51.32 50.02 50.65 50.34 48.48 44.47 41.49 41.90 42.06 41.81 40.00 38.39 40.03 39.77 39.49 38.92 39.18 39.23 38.90 38.53 38.57 38.50 38.74 38.85 37.23 36.19 34.94 34.83
43.51 46.11 47.28 48.58 50.15 50.62 50.78 50.54 51.62 52.10 52.02 51.83 50.92 51.52 51.41 51.65 50.25 47.49 48.11 45.24 43.64 41.68 39.56 38.93 39.44 39.29 38.90 39.80 39.44 38.19 37.46 37.58 37.66 36.87 36.47 36.71 37.64 38.53 38.54 37.56 36.79 35.25 34.69 33.78
45.11 47.27 47.89 48.80 49.88 50.55 51.14 52.16 52.16 52.97 52.52 52.06 51.18 50.73 51.17 49.56 46.10 44.74 41.90 40.07 40.85 39.56 39.05 37.71 38.94 38.42 38.16 37.68 38.37 36.69 35.81 36.23 36.38 36.85 37.17 37.34 37.19 36.94 37.73 38.33 36.45 36.29 35.85 35.84
43.20 48.44 48.51 48.80 51.30 51.94 51.06 51.04 51.27 50.59 50.31 49.11 48.92 48.46 48.07 43.99 43.14 41.57 39.36 37.47 36.49 37.04 36.90 37.34 37.32 37.24 37.52 38.14 36.95 35.42 34.80 35.55 36.74 37.04 37.33 37.20 36.33 35.16 35.00 34.04 32.89 31.81 31.05 33.68
47.82 50.67 50.51 51.11 51.23 49.60 47.62 46.93 46.60 45.74 45.31 43.33 43.73 43.44 41.81 38.30 38.08 36.32 36.91 37.33 36.83 36.48 37.17 37.47 37.00 36.24 37.45 37.63 36.46 35.37 35.09 35.89 36.50 35.27 36.85 36.82 35.22 33.58 32.69 35.61 32.18 31.18 30.94 30.86
49.61 50.49 49.46 46.93 45.33 46.09 45.43 45.25 43.65 42.82 42.12 41.14 39.57 38.36 36.98 36.26 36.51 36.54 36.50 37.58 38.58 37.84 37.06 36.61 36.42 36.20 38.31 38.34 37.63 36.44 35.72 33.14 36.50 37.02 36.99 36.61 36.16 35.14 35.07 34.72 34.51 35.37 31.98 30.93
46.10 48.38 46.21 45.26 44.62 43.56 43.31 40.93 38.53 37.56 37.37 37.61 38.65 39.08 39.10 37.94 37.85 38.60 39.35 39.35 38.26 36.79 36.86 37.44 37.11 37.26 39.22 38.18 37.06 37.00 37.25 37.38 37.59 38.26 37.21 35.34 35.92 36.02 35.29 33.84 32.90 33.67 34.91 31.42
44.99 44.73 43.68 41.54 40.30 39.40 38.90 38.34 36.51 36.72 38.82 39.33 39.16 38.82 39.11 39.43 39.20 39.20 38.83 38.27 35.57 35.59 37.33 34.64 35.80 37.68 38.87 38.94 38.62 38.47 38.25 34.62 34.28 36.28 35.83 33.99 33.53 34.08 34.84 35.05 34.48 34.58 33.73 33.58
41.87 40.31 40.72 39.88 38.51 37.98 37.41 38.50 38.85 39.36 39.08 39.33 39.48 36.09 36.84 36.86 35.96 37.07 36.90 37.52 36.72 33.42 35.17 35.16 35.44 38.55 38.55 39.60 39.06 38.74 39.70 38.94 34.54 35.56 35.41 34.26 33.83 34.44 34.44 34.99 34.29 34.16 35.07 35.55
43.87 42.75 41.48 39.77 38.76 38.13 38.50 39.18 38.57 37.16 36.39 35.86 32.65 32.15 32.15 31.97 32.57 34.02 35.08 35.95 33.24 33.42 35.47 36.75 37.05 37.61 38.25 39.25 39.39 39.74 39.50 38.44 36.77 35.57 35.80 35.70 34.86 35.09 34.38 33.99 33.79 33.67 34.36 34.84
41.44 40.47 39.88 39.67 39.82 37.43 36.30 35.32 34.38 34.17 33.14 32.33 31.71 31.24 31.60 31.78 33.55 34.33 34.61 32.69 31.97 33.46 37.71 38.96 33.53 34.73 37.28 36.83 35.65 39.07 38.14 36.89 36.33 35.11 35.23 34.07 34.80 34.90 34.13 34.17 33.64 34.07 34.16 33.76
39.89 39.20 38.02 36.29 35.86 36.14 34.69 32.65 34.03 35.84 36.34 33.16 31.97 31.78 31.60 32.30 32.15 31.97 32.48 32.45 35.28 37.38 37.41 36.40 35.53 36.73 37.61 37.73 34.47 37.38 36.56 36.81 36.41 35.57 34.58 35.55 34.64 33.60 33.70 33.34 32.46 32.75 32.87 32.86
36.97 36.10 35.20 33.83 32.83 32.51 32.48 33.01 32.46 31.71 33.42 31.57 30.54 29.98 30.12 31.36 31.67 31.32 31.57 30.93 33.94 34.37 32.58 31.85 32.54 33.25 33.49 33.09 33.68 34.29 34.65 34.50 34.14 34.44 33.75 33.04 32.87 33.33 32.51 33.42 32.87 32.33 32.51 32.51
38.07 34.92 33.96 34.74 33.39 31.67 30.90 31.16 31.01 30.83 30.57 30.89 30.87 30.13 29.54 30.77 31.48 32.55 33.13 31.63 33.86 31.19 31.48 30.56 31.50 31.42 31.61 30.66 32.25 32.34 32.51 33.13 33.26 33.01 32.49 32.69 32.69 31.99 32.27 32.51 32.15 31.97 32.15 32.15
36.89 35.23 33.25 31.46 31.56 30.93 30.86 29.75 31.31 29.99 28.44 28.51 28.74 27.81 28.35 29.37 30.12 28.30 27.39 30.04 30.28 29.62 29.61 30.91 30.23 27.91 28.51 31.41 32.33 31.90 32.13 32.38 32.10 32.28 32.15 31.06 30.60 30.37 29.62 29.12 29.14 29.59 29.50 29.19
34.73 32.12 31.05 31.17 31.35 29.95 28.83 28.53 29.00 28.78 27.88 29.09 28.85 27.81 26.88 26.31 27.09 28.66 28.87 27.77 27.24 25.71 27.08 27.17 24.29 22.21 25.17 27.90 26.74 25.25 24.03 22.81 24.38 28.23 28.03 27.22 26.89 25.95 25.99 25.58 25.02 25.27 25.14 24.79
31.25 30.98 30.92 30.33 30.00 29.64 28.18 27.88 28.30 28.18 26.93 26.89 26.80 26.77 26.16 26.91 25.40 25.76 25.97 25.26 23.62 23.41 23.73 22.84 20.51 19.25 22.57 22.36 21.94 21.53 21.42 21.41 20.96 20.33 21.80 21.74 21.85 21.42 22.19 22.00 21.60 21.70 21.42 22.31
31.80 31.58 29.33 27.53 27.34 27.35 26.67 26.19 25.01 26.00 24.54 24.56 24.37 25.42 25.92 25.71 24.55 23.70 23.00 22.44 21.87 21.31 21.11 20.93 19.94 18.63 18.71 18.49 18.06 17.47 17.39 16.89 15.08 15.88 16.64 17.23 17.20 17.62 17.85 17.58 17.67 18.26 18.62 18.99
27.19 27.88 28.85 28.08 26.40 25.18 24.11 23.65 23.22 22.55 23.76 22.22 21.09 24.24 23.84 23.00 22.27 21.39 20.90 20.69 20.06 19.60 19.22 19.40 18.99 17.37 16.13 16.08 16.13 15.73 15.32 15.38 13.96 12.91 13.67 13.29 14.00 14.07 14.04 14.21 14.89 15.56 15.99 16.95

GFSNGP_sfc_wetblb_015.txt.gz
Wetbulb
41.82 44.08 44.38 42.68 42.93 42.54 38.97 39.42 33.18 36.77 39.13 42.19 42.13 42.66 43.35 45.85 46.36 46.44 47.11 48.56 49.95 49.16 49.07 50.93 50.97 50.38 49.39 48.16 46.31 45.49 43.45 42.71 43.45 44.52 43.97 42.48 41.74 41.24 40.32 40.58 39.58 39.54 39.20 39.09
36.82 43.29 42.26 39.61 41.82 41.88 41.74 41.48 39.78 39.89 38.88 43.12 44.89 44.39 44.47 44.99 45.73 46.16 46.66 47.37 48.26 50.55 50.21 50.17 49.84 49.29 49.12 47.34 45.77 44.09 42.93 43.27 44.47 43.50 42.49 41.16 41.03 40.83 40.69 40.43 39.71 39.06 38.34 38.27
31.44 37.12 36.40 29.44 37.19 40.77 41.82 42.69 40.79 35.29 40.40 43.35 43.05 44.32 43.31 43.84 45.58 45.82 46.61 47.45 48.65 49.26 50.10 49.78 49.62 50.02 47.33 45.90 44.81 43.05 41.83 43.34 42.83 41.19 40.66 40.29 40.39 40.70 40.24 39.85 38.98 38.21 38.08 37.92
29.43 29.75 21.33 37.99 44.32 43.09 41.95 42.27 42.07 42.23 42.89 43.08 42.76 43.85 46.26 46.59 45.25 45.93 47.21 47.79 48.00 48.24 49.20 49.48 48.90 47.81 45.77 45.32 43.48 41.68 42.01 40.55 40.42 40.09 40.34 40.52 40.29 39.96 38.34 38.20 37.57 37.05 37.21 37.30
27.28 27.62 34.14 38.56 41.56 41.03 38.75 38.00 42.85 41.58 42.71 43.61 44.73 43.32 44.53 47.98 47.65 46.42 46.36 46.53 46.67 47.45 48.37 48.26 47.54 47.08 45.19 42.77 41.49 40.66 39.78 40.10 40.78 39.98 39.57 39.91 38.49 37.23 37.65 37.12 36.38 35.91 36.64 36.10
29.07 25.69 21.16 35.88 42.75 45.55 44.02 31.71 43.84 43.82 42.95 43.35 42.82 32.54 40.25 46.88 48.02 47.41 47.58 47.24 45.27 43.45 43.32 45.95 46.08 44.25 42.65 40.69 39.81 39.40 38.37 39.27 39.40 39.73 39.46 38.13 37.39 37.24 36.89 36.01 36.05 36.24 35.61 34.74
25.42 23.48 31.14 43.61 44.45 44.89 30.61 33.05 44.16 44.60 43.90 43.41 40.93 42.11 45.45 47.14 47.72 47.48 43.77 41.50 40.46 40.09 39.09 39.87 42.79 41.34 38.75 38.40 37.95 39.81 40.49 39.78 39.65 40.07 39.13 38.11 37.31 36.58 35.19 34.78 34.71 32.83 31.57 30.77
31.68 28.91 27.02 44.79 43.03 35.68 41.13 43.69 44.55 43.97 43.69 43.71 44.44 46.22 47.17 47.73 46.19 42.90 39.51 38.80 38.78 37.13 37.01 37.93 39.42 39.43 38.31 37.88 38.88 38.76 38.69 38.86 39.03 39.20 38.28 38.01 35.35 34.53 34.31 33.83 31.81 31.27 29.25 28.99
35.96 33.82 42.85 43.62 43.47 46.33 45.52 44.25 43.95 44.48 46.17 46.95 46.22 46.49 46.30 39.35 39.41 38.54 37.99 37.06 38.69 37.65 37.68 37.93 38.86 38.97 37.18 37.48 38.51 39.28 39.21 38.94 37.70 37.36 37.23 36.17 34.39 33.12 31.85 31.45 28.56 30.85 29.72 28.63
37.62 41.65 43.45 44.37 45.04 46.40 46.94 46.66 48.02 46.57 46.00 46.27 45.27 44.47 38.91 38.18 37.74 37.40 37.48 37.43 37.70 36.73 35.81 35.81 37.34 38.16 38.38 38.97 38.46 37.22 35.56 35.38 35.71 34.86 34.58 34.32 34.36 33.77 31.95 28.02 27.46 28.63 28.51 28.42
39.44 42.07 45.03 46.34 46.90 47.91 46.90 47.10 44.40 43.14 42.02 42.36 40.52 39.44 38.60 37.35 36.73 36.34 35.89 36.71 37.31 36.48 35.89 35.61 36.59 36.21 36.53 36.11 35.51 34.11 34.02 34.03 33.58 31.94 33.01 32.92 33.50 32.64 30.47 30.69 30.21 27.58 27.15 28.18
32.00 44.68 43.61 43.31 45.13 45.47 43.68 42.79 43.18 41.11 39.50 39.85 39.71 37.82 37.61 36.39 36.79 36.85 37.09 36.09 35.95 35.40 34.84 35.65 36.01 35.34 35.32 35.59 34.74 33.12 32.50 31.84 30.54 30.06 29.95 31.63 31.04 30.90 33.17 32.87 32.65 33.41 32.81 29.76
44.13 46.37 44.02 43.17 42.47 42.74 40.85 40.57 40.61 39.80 39.49 37.50 37.67 37.01 36.41 35.39 35.44 35.53 34.88 35.36 35.26 35.61 35.71 34.24 33.98 33.29 34.29 34.50 33.77 32.17 30.31 30.09 29.00 29.85 28.64 28.89 29.30 28.92 27.14 29.37 33.04 33.37 33.41 33.44
46.21 44.41 41.47 42.49 39.64 40.90 39.50 38.97 39.25 38.43 38.11 37.26 36.52 36.14 34.61 34.17 34.88 35.28 35.47 36.38 35.96 34.89 34.10 33.64 33.08 33.00 34.25 34.88 34.23 32.13 30.69 30.40 29.69 29.26 29.02 30.19 29.93 28.90 25.48 25.34 27.07 28.65 30.97 32.60
42.92 43.69 41.72 40.94 39.87 38.81 38.86 38.16 36.50 35.46 36.60 36.70 37.36 36.60 36.40 36.53 36.39 35.70 34.99 34.86 34.31 33.82 33.62 33.03 31.37 31.28 33.59 34.85 34.72 32.30 31.24 29.41 30.30 30.57 30.54 30.45 29.87 29.76 31.74 31.52 29.06 28.61 28.50 26.67
42.26 41.42 40.22 38.72 38.41 38.13 36.95 35.81 35.88 35.70 36.04 35.21 33.51 32.90 33.10 34.02 33.67 33.68 33.96 32.49 29.30 28.62 29.85 28.98 29.70 31.94 34.62 34.84 34.24 33.67 32.49 29.79 29.72 31.25 31.28 31.01 32.87 32.85 32.43 31.46 29.33 28.21 28.30 28.93
37.24 36.24 36.96 36.98 36.78 36.84 36.61 36.98 35.97 33.84 32.83 30.48 30.01 29.74 30.47 29.80 30.18 30.64 30.50 30.70 29.98 29.68 30.76 30.83 29.48 32.04 32.91 34.20 33.53 32.10 30.80 31.39 30.27 32.13 32.28 31.91 32.67 32.88 32.30 30.97 29.62 28.74 28.70 29.03
41.29 40.11 38.79 37.63 36.66 35.35 33.54 33.04 30.62 29.73 29.26 30.52 30.20 30.55 29.83 28.99 27.94 28.30 26.90 27.44 29.19 30.12 29.97 29.16 28.71 28.82 29.35 30.03 28.99 28.58 27.95 27.52 27.10 26.95 28.14 28.52 29.83 31.16 31.18 31.69 31.98 31.72 32.14 31.73
39.15 38.21 38.09 37.00 35.63 32.99 31.39 30.72 30.01 29.85 29.97 30.34 29.70 28.12 24.60 23.05 24.75 25.24 25.48 21.50 23.99 24.83 26.11 26.73 26.26 25.25 24.43 24.34 22.76 22.59 23.04 23.41 24.35 25.37 26.09 26.17 26.78 27.46 29.02 30.15 31.57 31.76 31.72 31.28
35.83 35.40 34.37 32.93 32.62 31.93 31.33 31.67 30.23 29.71 29.71 27.43 23.73 21.92 22.78 20.75 19.83 18.58 20.58 23.17 24.77 24.32 24.67 24.44 22.61 20.17 20.34 20.84 19.42 22.22 22.92 23.09 21.84 21.76 22.00 22.52 25.40 27.93 28.81 29.59 29.81 31.09 32.08 31.31
32.11 31.61 30.88 30.49 29.72 30.10 30.11 30.03 27.00 26.41 27.86 23.41 21.76 17.39 16.05 19.46 18.61 14.86 20.17 21.70 23.44 21.66 22.43 21.04 19.28 17.42 18.27 17.33 20.15 18.53 18.84 17.10 16.38 16.56 18.09 18.99 19.68 20.52 23.40 26.08 28.42 30.04 29.15 26.66
31.70 30.33 29.84 29.49 28.81 28.59 28.15 27.43 26.56 25.08 23.99 19.84 14.84 14.39 13.79 21.23 16.87 19.20 15.73 20.52 22.32 14.71 18.86 20.40 18.05 11.97 15.38 15.28 17.34 15.29 15.92 12.81 12.08 13.46 14.20 15.14 15.59 16.59 17.10 17.32 18.41 19.17 20.48 22.00
32.03 31.42 30.23 29.07 27.09 27.34 27.21 24.79 22.14 20.91 18.46 16.37 14.67 15.93 17.25 20.78 21.24 17.86 17.13 21.29 20.54 16.37 19.33 18.65 10.90 8.32 8.28 13.53 13.48 11.98 11.84 11.16 8.96 10.65 11.44 12.01 13.15 13.69 13.11 13.01 13.93 14.66 15.73 16.27
30.91 30.58 30.14 29.41 26.77 26.06 24.96 26.08 25.83 23.66 17.29 20.99 14.71 11.68 19.78 13.13 10.99 20.09 18.53 14.71 9.41 9.38 10.58 14.02 13.26 9.15 5.61 4.90 11.00 11.17 9.74 11.10 9.66 7.98 9.55 9.64 10.75 10.95 10.96 11.01 10.79 12.09 12.81 13.33
30.29 30.00 28.37 26.42 25.49 23.89 24.29 24.85 24.20 23.35 23.00 22.44 21.72 22.93 21.62 20.58 11.72 12.77 9.54 9.90 13.15 11.26 7.42 7.22 8.61 6.91 1.99 0.65 5.06 9.78 9.59 6.21 8.59 5.03 5.88 5.69 7.31 6.92 8.22 8.78 9.39 10.51 11.02 11.74
28.66 25.06 24.85 24.76 23.44 22.24 22.38 22.17 19.84 19.80 19.28 14.11 13.69 8.90 12.82 12.78 12.90 12.79 9.78 9.31 10.34 9.75 5.99 1.91 2.79 4.88 5.21 2.23 2.31 -1.11 5.15 4.75 5.72 4.14 1.60 2.31 3.90 3.17 4.60 5.60 7.11 7.42 8.01 9.60
26.70 25.62 23.59 22.14 22.52 22.04 19.89 19.04 14.76 11.68 12.06 6.30 6.71 6.62 16.32 10.79 5.86 8.75 4.49 3.13 2.86 2.26 0.64 1.24 -0.05 2.74 7.74 2.98 -1.09 -2.16 -2.69 -0.92 2.15 2.32 -6.50 -1.08 0.93 1.30 2.52 2.84 4.08 4.53 6.33 5.87

GFSNGP_sfc_wetblb_018.txt.gz
Wetbulb
39.26 41.44 41.57 40.20 40.00 39.95 37.86 37.02 32.24 35.88 36.34 40.27 41.56 40.78 42.30 43.50 44.33 46.03 48.00 48.66 48.58 47.55 46.60 48.56 48.89 49.55 49.56 45.38 45.28 44.90 43.92 43.19 43.43 44.56 44.46 42.30 39.09 38.37 38.30 38.01 38.19 38.88 38.24 38.97
35.56 39.72 39.82 37.35 39.60 39.35 39.77 39.50 38.36 37.90 37.38 40.27 41.82 42.02 42.56 43.23 44.62 44.09 44.02 45.57 46.57 48.19 47.44 48.65 48.73 48.22 48.24 46.09 45.74 44.55 43.40 42.83 44.47 44.05 41.71 40.30 38.37 38.03 38.41 39.08 39.84 38.50 38.70 37.97
30.79 34.46 34.56 29.26 35.65 38.67 39.80 40.42 40.21 33.97 38.10 40.85 40.97 42.51 41.60 41.75 43.90 43.82 44.79 45.13 46.39 47.96 47.91 47.60 47.74 48.28 47.82 46.45 45.28 43.31 41.90 43.89 43.51 41.42 39.87 39.76 39.42 38.10 38.80 39.15 39.33 39.01 38.04 37.55
27.76 28.44 22.00 37.72 41.87 41.80 39.35 39.19 40.03 39.90 39.93 42.07 42.57 42.72 43.69 43.28 42.95 43.37 44.11 44.60 44.48 44.90 47.77 47.60 47.84 48.41 47.44 45.29 42.27 40.47 40.52 41.10 40.63 40.35 39.37 39.63 38.80 38.58 38.60 38.55 36.76 35.91 35.72 36.16
26.36 26.55 32.68 37.55 39.60 38.39 37.02 36.03 40.68 39.55 40.85 42.11 43.47 43.03 42.86 45.35 45.27 44.19 43.94 43.15 41.15 40.39 40.84 44.69 46.63 45.43 42.45 40.68 39.40 38.96 39.29 39.66 40.18 39.77 38.61 38.40 37.76 37.93 37.59 37.09 36.06 34.57 35.45 35.82
28.27 24.64 21.62 34.13 40.81 43.35 41.57 31.23 42.01 41.93 41.23 41.68 40.57 31.99 38.90 44.75 45.04 41.65 39.30 39.06 38.74 39.38 39.81 39.91 40.23 41.61 39.48 38.83 38.21 37.72 38.31 38.37 38.81 38.42 38.58 38.13 37.84 37.63 37.22 35.17 35.17 35.28 34.48 34.27
22.26 22.13 28.64 38.89 42.94 42.10 29.63 31.43 42.71 42.62 41.95 41.37 39.57 40.09 43.11 41.94 38.86 38.57 38.54 38.26 38.49 37.73 37.25 37.42 38.84 39.39 38.16 38.20 37.79 38.97 39.27 39.72 39.85 40.09 39.52 38.85 38.27 37.14 35.59 33.99 33.00 31.87 31.48 31.77
30.35 24.28 25.32 43.36 41.14 35.21 37.57 41.55 42.72 42.26 42.44 42.43 43.30 41.71 39.28 38.57 37.37 36.83 36.77 37.40 37.70 36.64 36.26 37.31 38.04 37.72 37.06 36.84 38.66 39.33 39.52 39.86 39.86 39.84 39.12 37.89 35.20 34.44 33.42 32.33 30.33 30.41 29.01 29.61
33.41 32.31 41.08 42.09 42.55 44.52 43.91 42.52 42.10 43.97 44.31 45.42 42.55 37.89 37.37 35.92 36.19 37.03 36.71 36.46 37.59 37.43 37.21 36.88 37.59 38.63 36.85 36.84 38.37 39.56 39.27 38.69 38.70 37.01 36.02 35.42 33.00 32.14 30.88 31.07 27.54 28.09 27.12 24.99
36.60 40.30 41.24 42.00 44.58 44.97 45.70 44.75 43.76 44.14 44.80 43.58 38.07 37.13 36.29 36.80 36.40 36.30 36.09 35.78 35.66 35.27 34.68 35.27 37.22 37.37 36.54 36.96 36.98 35.89 34.52 34.11 33.81 32.98 33.00 33.14 33.15 32.51 30.19 27.15 26.16 28.41 27.43 26.64
37.05 41.17 44.10 44.43 44.42 44.08 41.99 41.48 40.27 40.47 39.89 38.36 37.76 36.57 36.30 35.49 34.97 34.91 34.74 35.04 35.05 34.12 33.78 33.95 35.29 34.88 35.15 34.68 34.41 32.78 32.40 32.42 32.34 29.78 30.67 30.82 31.05 30.75 30.02 29.88 29.15 28.38 27.72 27.04
32.89 42.04 41.07 41.26 42.11 42.80 41.16 40.07 39.79 38.47 37.39 37.99 37.37 36.13 36.16 35.47 35.86 35.37 34.64 34.70 34.17 33.97 33.75 33.95 33.85 33.14 33.63 34.22 33.50 32.28 31.46 30.65 28.71 27.84 27.76 29.29 29.83 30.31 32.67 32.87 32.72 32.81 32.74 29.71
43.06 44.10 41.60 40.28 40.53 40.91 38.88 38.58 38.48 37.59 37.21 35.78 36.28 36.08 35.61 34.47 33.96 34.70 33.53 33.66 33.70 33.75 33.17 32.85 32.44 32.13 32.64 33.02 32.63 31.56 30.14 30.21 28.65 28.40 28.17 28.08 28.58 28.47 28.37 31.58 32.23 32.80 33.25 33.44
42.91 42.29 39.48 40.18 36.74 38.66 38.07 37.65 37.98 37.13 36.68 36.36 35.45 34.63 33.19 32.91 33.46 33.09 32.62 33.30 33.14 32.67 32.09 31.25 31.06 31.02 32.25 33.80 33.19 31.11 30.27 29.42 28.65 28.94 29.07 29.38 28.89 29.32 29.41 29.53 30.63 31.95 30.33 32.27
40.90 41.56 39.85 38.47 37.94 36.93 37.14 36.60 35.19 34.58 34.82 33.95 33.50 33.25 33.20 32.28 32.08 31.88 32.05 31.74 31.68 31.07 30.71 31.00 30.26 30.23 32.96 33.59 32.58 31.07 30.73 29.53 29.64 29.55 31.07 31.62 31.46 31.55 31.72 31.61 31.92 32.12 31.73 27.37
39.15 38.62 37.88 36.19 35.98 35.75 35.17 34.77 34.02 32.98 31.65 31.05 30.57 31.02 31.89 32.32 31.46 30.91 30.92 30.42 29.73 29.11 29.64 27.84 27.29 28.86 30.82 29.86 28.30 27.95 27.51 26.31 25.47 26.51 26.11 26.18 27.51 28.38 28.82 30.61 31.91 32.28 31.47 30.20
35.72 34.47 35.27 35.20 35.68 35.97 35.28 35.00 33.21 31.58 30.09 29.08 29.31 30.13 30.12 29.45 28.16 27.83 27.82 29.35 30.23 29.01 26.96 25.35 25.08 27.28 27.33 25.42 23.26 22.60 22.46 23.35 22.53 24.09 23.99 24.37 24.51 24.32 25.08 25.36 25.90 27.39 29.21 31.43
39.60 38.39 37.49 36.43 35.34 33.48 31.46 30.97 29.93 29.80 29.99 31.07 29.73 25.83 24.13 23.62 24.40 24.78 24.93 24.85 26.69 23.24 24.00 24.79 23.18 22.62 22.48 22.41 22.28 21.89 21.60 21.85 22.82 21.61 21.38 20.77 21.36 22.19 22.52 24.05 25.53 25.83 26.59 28.54
38.13 36.86 36.96 35.51 33.96 31.49 29.62 29.23 29.76 30.02 29.69 28.16 24.28 23.32 22.36 21.94 23.53 23.87 23.72 20.71 19.22 19.91 22.01 22.26 21.31 19.49 19.64 20.09 20.13 20.08 18.65 16.54 17.02 16.99 16.73 17.46 17.54 18.21 18.86 19.42 18.94 21.28 24.42 27.42
35.01 34.48 33.44 32.21 32.04 31.01 29.82 29.61 29.88 29.16 27.65 24.35 21.78 21.11 22.04 19.20 17.69 19.31 21.34 19.23 19.62 20.25 22.97 20.07 18.71 17.71 18.02 18.49 15.71 16.66 16.09 11.31 11.98 12.53 12.84 12.97 13.06 13.50 15.39 14.82 15.13 15.65 16.82 19.15
30.93 30.43 30.22 30.36 29.77 30.43 28.76 27.43 26.68 25.37 24.59 21.05 20.28 16.74 16.66 19.42 18.42 14.48 18.49 20.05 20.09 19.80 21.39 18.30 16.60 15.67 16.50 14.28 14.89 8.65 11.17 6.59 7.47 8.50 9.20 8.96 9.57 10.68 10.65 11.16 12.32 13.18 13.98 14.67
30.14 29.58 29.20 29.33 28.34 27.20 26.35 26.51 25.87 23.41 21.79 18.50 14.65 13.78 16.78 20.69 16.79 18.10 13.94 18.15 19.97 11.22 16.72 17.82 15.81 6.64 11.43 8.20 13.50 4.06 9.03 10.22 4.63 6.08 7.17 7.12 7.29 7.98 7.55 8.24 8.79 10.05 11.71 12.36
30.13 29.68 28.74 27.07 26.44 26.11 25.00 23.76 22.84 21.11 18.44 16.02 14.17 15.46 19.30 20.49 19.44 13.56 13.30 19.36 18.76 12.43 16.91 11.51 6.77 3.54 2.52 -0.65 -1.15 -1.14 -2.77 0.25 1.19 2.64 3.54 4.10 5.08 5.18 5.51 6.21 6.87 8.33 9.08 9.94
30.26 29.53 28.01 27.15 26.20 24.55 22.98 23.88 24.21 22.42 18.80 19.82 14.98 12.08 19.31 12.90 8.74 18.02 16.44 9.74 4.10 3.35 3.37 3.55 3.21 3.01 -0.43 -4.04 -4.95 -4.40 -4.04 -4.95 0.38 -5.85 0.55 -2.16 1.90 1.43 1.95 3.17 3.70 6.04 6.92 7.71
30.38 29.41 26.54 25.43 24.41 23.70 25.32 24.17 23.19 23.07 21.75 20.52 19.76 21.81 20.50 18.36 10.01 10.09 5.01 5.80 8.97 6.71 1.88 -1.14 1.58 0.86 -5.49 -8.03 -8.57 -8.93 -8.03 -8.57 -5.13 -4.58 -9.66 -4.72 -1.58 -1.78 -1.12 0.17 0.69 2.07 3.11 5.55
26.74 24.60 23.75 23.58 22.91 23.01 22.35 21.54 19.17 19.18 17.63 13.14 11.93 3.39 10.98 12.80 10.79 8.84 4.46 3.28 5.04 4.05 -0.62 -6.21 -6.94 -6.40 -6.21 -4.58 -8.39 -10.75 -9.30 -6.81 -6.40 -3.68 -12.74 -8.60 -5.43 -3.70 -2.17 -1.40 -1.29 -0.39 -0.01 2.24
24.19 23.43 22.71 21.74 21.80 21.17 20.02 18.31 14.68 13.39 10.52 6.16 6.94 5.25 9.08 3.11 0.06 3.07 -2.78 -3.34 -2.41 -4.40 -7.12 -6.76 -8.75 -6.40 -6.23 -2.77 -3.15 -8.39 -9.48 -10.57 -9.84 -7.66 -15.64 -14.37 -10.06 -6.76 -3.56 -2.94 -3.52 -2.49 -1.49 0.46

GFSNGP_sfc_wetblb_021.txt.gz
Wetbulb
36.77 38.43 40.26 38.94 38.57 37.59 36.57 35.64 31.48 34.96 34.81 39.34 39.09 40.11 40.02 41.59 42.16 46.31 46.74 47.62 47.18 47.45 47.43 48.54 48.92 49.28 48.58 46.49 44.57 45.27 43.99 43.57 42.42 43.58 42.50 42.52 41.35 40.27 39.44 39.02 38.75 38.52 38.47 38.84
33.67 37.85 37.80 36.30 38.93 38.51 38.12 37.47 36.73 35.74 35.56 38.59 39.74 39.42 40.42 41.26 42.04 41.97 43.21 45.05 45.83 46.73 47.40 47.40 47.69 47.60 47.14 45.41 45.05 45.21 43.33 42.92 43.28 42.88 43.50 41.31 39.83 39.26 39.11 38.97 38.76 38.71 39.19 38.14
29.92 32.89 33.21 28.99 34.45 37.55 38.02 39.12 38.74 33.57 38.21 40.01 39.52 40.43 39.78 40.65 42.11 42.14 42.69 43.43 43.82 44.95 47.05 46.44 46.38 46.87 46.22 44.66 45.05 43.47 42.52 42.52 43.53 42.98 40.49 39.33 39.31 38.94 39.02 38.96 39.61 39.71 37.96 37.05
26.85 28.22 21.39 36.24 39.95 39.73 37.61 37.19 37.98 37.77 39.07 40.38 40.18 40.40 41.36 41.03 41.97 42.10 42.63 42.14 41.04 40.43 41.51 44.47 46.22 45.95 45.82 43.46 41.98 40.27 40.41 40.09 40.63 40.06 38.53 38.65 38.76 38.56 38.44 38.62 37.76 36.83 36.33 35.84
28.09 26.95 31.74 36.47 37.77 37.41 36.16 34.89 38.58 38.55 39.88 41.10 41.80 41.23 41.24 43.96 42.80 40.84 39.12 38.45 37.96 37.96 37.96 39.43 42.75 41.95 39.68 38.35 38.46 38.56 38.28 38.61 39.34 39.40 38.55 38.71 38.12 38.43 38.71 38.09 37.56 35.83 34.81 34.53
26.54 26.48 23.42 34.44 38.95 41.32 40.43 30.26 39.89 39.75 40.05 40.38 38.68 30.81 37.44 41.30 38.95 37.31 37.26 36.99 36.60 36.96 37.28 37.20 37.35 38.34 37.54 37.17 36.90 36.30 37.39 37.69 39.23 39.50 39.57 39.26 38.91 38.49 38.44 37.22 35.33 34.71 33.51 32.95
23.56 23.32 28.95 37.03 40.95 40.77 30.34 32.07 40.92 41.12 40.62 39.41 37.96 38.34 38.38 37.40 36.45 36.71 36.75 36.58 37.21 36.81 36.13 36.55 37.93 38.15 36.64 36.85 36.38 38.42 39.75 39.66 40.29 40.65 40.16 39.56 38.96 38.46 37.18 34.76 32.85 30.49 29.94 30.39
25.18 22.05 25.92 40.58 39.84 34.31 36.88 39.53 41.66 40.93 41.07 40.83 39.52 37.99 36.60 36.03 36.20 36.51 35.71 36.13 36.57 35.64 35.27 36.14 37.01 37.20 36.09 36.13 38.14 39.89 40.36 40.51 40.64 40.57 40.03 39.15 37.29 35.25 33.75 31.49 29.56 29.42 28.20 28.60
33.13 31.88 39.24 40.73 39.30 41.19 41.91 41.53 40.77 41.67 42.76 41.98 37.39 35.83 35.70 35.75 35.69 35.58 35.35 35.12 35.83 35.33 35.42 35.96 36.62 36.81 35.56 36.32 38.00 38.78 38.51 39.05 38.69 37.99 36.50 35.13 32.57 31.68 30.69 30.32 27.62 27.97 28.00 27.33
34.96 38.48 39.79 40.25 42.53 43.17 42.43 42.41 43.50 43.70 43.70 39.50 35.52 35.61 35.12 35.54 35.20 34.35 33.66 33.21 33.96 34.24 33.85 33.61 34.93 35.34 35.26 35.41 35.98 35.01 33.37 32.64 32.52 31.85 32.20 31.93 32.02 31.69 30.39 27.66 26.56 28.19 27.79 28.12
35.81 39.73 41.52 41.93 41.52 40.28 39.85 39.72 38.84 38.47 37.58 36.79 36.41 35.43 35.02 34.08 33.77 33.78 33.32 33.75 33.92 33.27 32.59 32.43 33.28 32.98 33.02 32.73 32.66 31.32 31.28 31.11 30.71 28.93 30.15 30.22 30.11 30.18 30.08 29.98 30.01 29.67 29.22 28.94
32.87 41.74 40.02 40.87 40.53 40.85 39.17 37.85 37.97 37.08 36.13 36.65 36.25 34.81 34.98 34.22 34.61 34.12 33.25 33.03 32.56 32.24 31.96 31.38 31.29 31.17 31.92 32.46 31.63 30.43 30.43 29.68 28.46 28.07 28.14 28.91 29.02 29.68 32.31 32.60 32.62 32.98 32.82 31.79
40.86 41.57 40.53 39.35 38.94 39.32 37.82 37.38 37.45 36.75 36.45 35.21 35.79 35.43 35.16 33.71 32.83 33.56 32.24 32.32 31.00 30.34 30.49 30.51 30.55 30.30 31.07 31.42 30.97 30.39 29.07 29.36 28.78 28.56 28.59 28.30 28.71 28.21 27.40 30.70 32.92 32.93 32.93 33.02
40.51 40.23 37.25 37.87 36.02 37.82 37.21 37.03 37.25 36.15 36.09 35.48 34.33 33.62 32.40 31.66 30.75 30.48 30.25 30.86 31.11 30.67 30.22 28.64 28.47 28.45 30.27 30.57 29.00 28.60 27.93 27.57 26.36 26.41 26.42 26.71 26.04 27.38 28.57 28.16 28.11 29.67 32.16 32.44
38.54 39.91 38.71 37.25 36.51 35.58 35.85 35.20 33.87 33.02 32.64 32.38 34.08 33.40 32.55 30.53 29.58 29.40 30.49 30.94 30.97 29.88 27.03 26.56 26.13 26.18 27.86 26.45 25.86 25.80 25.01 24.37 24.43 23.06 22.48 22.72 23.55 23.55 23.88 23.58 23.43 24.32 25.75 27.54
37.26 37.01 36.48 34.90 34.53 34.56 34.09 33.68 32.04 31.11 31.54 31.91 31.77 31.81 31.29 31.04 30.07 29.67 30.61 30.84 28.12 24.39 23.95 21.30 23.81 23.74 25.00 23.16 22.43 22.02 21.53 21.40 20.37 21.94 21.92 21.08 21.23 21.14 21.18 20.82 20.99 21.77 22.84 23.80
34.63 33.18 33.71 33.10 33.24 33.52 33.52 34.29 32.61 30.78 30.14 30.12 29.85 29.32 28.65 27.85 28.07 28.23 29.23 27.11 23.38 22.68 23.81 21.37 20.25 21.57 22.51 21.65 21.18 20.57 20.04 20.10 19.23 19.95 18.33 18.14 18.05 17.34 18.92 18.43 18.86 17.95 17.93 18.76
39.00 37.55 36.51 35.21 33.89 31.97 31.05 30.71 30.25 30.19 29.68 29.73 26.40 25.01 24.06 24.94 23.58 24.52 25.58 24.00 21.08 20.93 21.45 20.66 19.88 19.89 20.43 20.05 20.02 18.58 17.36 14.90 14.67 14.62 15.29 14.80 14.27 15.39 14.64 15.39 14.69 14.65 14.79 16.61
37.37 36.20 35.59 34.66 33.09 31.29 29.86 29.70 29.87 29.62 27.51 25.99 25.67 24.03 22.69 22.13 23.45 21.98 20.32 16.55 15.50 18.58 20.13 19.30 19.66 18.04 17.76 18.19 16.29 15.67 15.16 8.54 9.44 11.54 11.31 9.63 9.84 10.69 11.52 10.60 10.91 11.77 12.54 13.28
35.20 34.30 32.84 31.22 30.80 29.61 29.19 29.82 29.03 27.21 26.60 24.60 21.99 20.94 20.69 19.25 19.81 18.31 18.36 17.47 18.44 20.22 20.51 18.08 17.10 16.29 15.81 15.98 11.36 13.36 11.09 3.83 7.64 7.34 7.18 7.09 5.71 6.24 7.71 7.10 7.91 8.11 8.84 10.42
31.81 31.27 30.36 29.65 29.07 29.50 29.26 27.09 24.89 24.28 24.59 21.22 20.99 18.86 18.85 19.60 17.26 14.84 17.95 18.12 18.97 19.42 19.36 16.79 15.45 14.46 14.42 11.77 12.83 1.42 2.92 0.54 -0.81 2.62 0.15 2.68 2.39 4.20 3.60 4.30 4.49 5.18 6.41 7.77
30.61 29.70 29.03 28.59 27.06 26.12 25.55 24.47 23.24 21.85 20.58 17.69 15.95 16.76 16.86 17.95 16.03 16.37 13.58 17.21 19.02 11.77 16.69 15.74 14.26 5.65 8.81 5.05 9.43 -1.10 2.74 1.82 -0.02 -4.18 -2.77 -1.28 -1.16 0.63 -0.87 1.03 1.55 2.38 4.26 5.28
29.86 29.74 28.65 27.33 26.20 25.53 24.36 22.76 21.25 19.84 17.62 16.97 16.86 17.52 18.62 19.05 18.10 13.87 14.38 18.15 17.76 11.21 14.70 7.58 4.52 0.72 -1.46 -5.99 -6.35 -8.53 -8.35 -8.71 -5.99 -7.08 -9.80 -10.70 -8.17 -5.08 -3.40 -2.39 -1.05 -0.58 0.79 1.66
28.76 28.27 27.08 25.39 24.46 24.12 22.96 22.62 22.42 20.37 17.37 18.73 14.27 13.55 18.61 13.63 11.73 17.13 15.96 9.41 3.96 0.35 1.25 -1.82 -2.36 -1.46 -4.90 -9.25 -10.16 -11.61 -10.89 -13.79 -12.70 -12.70 -10.89 -10.71 -13.60 -10.34 -9.62 -5.89 -3.66 -3.11 -2.07 -1.89
27.53 26.66 25.60 25.12 24.48 23.37 23.58 23.44 21.95 21.44 20.30 20.82 20.82 20.43 18.97 17.37 11.37 11.24 5.62 4.85 7.06 4.46 -0.39 -5.63 -2.91 -4.90 -10.52 -12.88 -13.24 -14.15 -14.15 -15.42 -15.96 -14.87 -18.32 -18.14 -12.73 -11.82 -10.92 -8.04 -6.46 -5.17 -4.48 -3.64
26.39 24.14 23.80 23.87 23.34 22.85 21.89 21.67 19.80 18.49 16.28 11.20 11.64 9.88 9.66 10.68 10.74 8.49 3.69 1.97 3.12 1.04 -2.55 -10.34 -11.43 -12.15 -12.34 -8.53 -9.25 -13.06 -13.97 -12.34 -15.24 -13.97 -17.96 -18.14 -15.61 -12.94 -12.05 -8.49 -8.96 -7.51 -7.00 -5.90
23.42 22.96 22.03 21.18 21.28 19.75 18.56 18.09 17.14 15.41 12.16 9.78 10.64 10.95 9.37 6.10 3.63 3.83 -4.54 -6.35 -6.72 -9.07 -9.62 -11.97 -13.06 -10.52 -10.89 -13.24 -10.52 -7.26 -11.43 -14.69 -15.60 -14.15 -20.68 -21.04 -18.87 -18.87 -15.82 -11.35 -9.87 -9.49 -8.85 -8.13

GFSNGP_sfc_wetblb_024.txt.gz
Wetbulb
35.50 37.27 38.00 37.75 37.59 36.21 35.10 34.71 31.49 34.31 33.24 38.01 38.89 39.55 39.48 39.55 41.06 44.59 45.52 46.89 46.97 47.69 48.20 48.80 49.10 48.79 48.34 46.79 46.19 45.59 44.81 44.57 43.86 42.87 42.99 41.89 39.35 39.75 39.95 39.50 39.25 38.96 38.66 38.58
32.77 36.61 36.74 35.02 37.29 36.53 35.81 35.24 34.66 34.62 34.53 38.70 37.86 37.50 38.16 39.57 41.13 41.78 42.67 43.26 44.12 45.41 45.84 46.18 47.48 48.04 47.23 45.41 44.11 44.50 44.05 43.74 43.73 42.58 40.80 39.75 38.86 39.41 37.48 38.47 38.14 37.08 37.75 39.65
30.58 31.53 32.63 29.13 33.91 36.35 36.31 37.08 37.60 32.85 37.55 38.39 37.23 38.61 38.06 39.76 40.86 40.34 40.22 40.09 40.19 40.14 41.58 43.49 44.50 45.45 45.78 44.47 43.24 42.52 42.22 41.95 41.35 40.32 38.90 39.25 38.97 38.36 38.28 38.81 39.78 39.49 39.91 38.66
25.89 27.80 21.49 35.78 38.24 38.26 37.12 36.92 37.31 36.45 36.84 38.61 38.92 38.60 39.87 40.33 40.14 39.74 38.75 38.31 37.61 37.11 38.47 39.71 43.40 43.82 42.56 42.15 40.93 39.76 39.27 39.23 39.06 38.62 38.81 39.21 38.89 39.14 39.20 39.73 40.09 39.77 38.47 37.80
27.22 26.52 30.85 34.77 36.78 36.54 35.63 35.03 37.91 36.54 38.13 38.90 39.72 40.05 39.30 39.27 38.09 37.05 36.62 36.24 35.41 35.58 35.95 36.57 36.95 37.64 37.85 37.37 37.65 37.93 37.43 37.37 38.20 39.06 39.28 39.15 39.02 39.10 39.57 39.49 39.10 38.34 37.37 35.33
25.44 24.08 22.75 33.64 39.22 39.85 38.91 30.44 38.66 39.48 39.25 39.46 38.22 30.21 36.03 37.17 36.78 35.56 35.36 35.60 35.54 36.16 36.53 36.41 36.10 36.84 36.12 35.63 35.95 35.58 36.97 37.72 39.51 40.30 40.12 39.40 39.56 39.28 39.33 38.74 37.65 35.93 34.89 34.61
21.98 23.13 29.74 37.35 39.18 39.74 30.42 32.79 39.16 40.98 40.20 38.72 36.71 36.26 36.51 36.11 35.42 35.72 35.58 35.54 35.88 35.40 34.85 35.22 36.54 36.96 35.89 36.22 36.14 38.05 39.14 39.43 40.63 41.03 40.38 40.24 39.41 38.95 38.00 36.97 35.39 31.95 30.55 30.31
25.24 22.49 27.23 39.04 38.30 34.58 37.65 37.41 39.55 40.38 39.96 39.05 36.86 35.19 35.18 35.59 35.01 34.88 34.29 34.69 35.30 34.62 34.42 35.25 36.30 36.90 35.92 35.81 37.52 38.50 38.87 38.95 39.59 40.30 40.19 39.48 37.84 36.85 33.86 30.95 29.45 28.96 27.11 29.13
33.57 33.16 39.17 39.47 38.56 40.13 40.15 39.93 40.04 40.30 40.80 39.84 35.58 34.46 35.28 34.10 34.18 33.91 33.71 33.67 34.58 34.55 34.49 34.89 35.40 36.22 34.81 34.74 36.60 36.67 35.87 35.09 34.40 34.23 33.72 32.65 30.96 30.22 29.50 28.62 25.78 27.74 27.90 28.19
34.35 37.56 38.08 39.65 40.47 40.37 40.62 40.12 41.13 41.72 41.20 39.13 35.06 35.20 34.14 33.82 33.30 32.75 32.20 32.47 33.34 33.45 32.53 31.84 32.82 32.81 32.42 32.67 32.52 32.12 30.85 30.57 30.48 30.04 30.25 29.84 29.81 29.79 28.76 26.82 26.46 28.48 28.33 28.36
34.34 38.11 39.75 41.17 40.99 40.07 39.25 39.37 38.31 37.64 36.64 35.91 35.53 34.46 33.93 32.89 32.54 32.21 32.20 32.71 32.62 31.93 31.28 30.29 31.32 31.57 31.66 31.26 31.09 30.53 30.35 30.02 29.09 28.00 28.29 28.91 29.13 28.89 28.77 28.66 28.95 29.07 29.29 28.76
34.39 40.02 39.17 39.10 39.71 39.68 38.41 36.96 37.12 36.20 34.98 35.57 35.67 33.95 33.75 32.84 33.13 33.18 32.13 31.81 31.20 30.27 30.03 30.46 30.79 30.28 30.79 30.54 29.78 28.76 28.01 27.66 26.78 26.31 25.78 27.11 27.44 26.67 30.45 31.53 32.05 32.57 32.74 31.84
40.97 41.30 38.53 37.64 37.71 37.96 36.63 36.22 36.55 35.74 35.52 33.95 34.50 34.50 34.11 32.54 31.90 32.89 31.38 30.78 29.80 29.51 30.02 28.73 27.82 27.09 27.55 27.97 28.16 27.20 25.65 25.96 25.10 25.00 24.46 23.68 23.40 23.23 21.48 24.52 27.72 28.33 28.69 28.71
39.70 39.79 36.83 37.13 35.85 36.42 36.13 35.89 36.26 35.25 35.09 34.72 33.77 33.38 32.42 31.44 31.42 30.90 30.27 30.49 30.24 28.06 27.00 26.46 25.99 25.02 24.62 24.67 25.05 23.89 23.54 23.41 22.22 22.30 21.34 21.40 20.11 20.97 21.15 20.61 19.20 19.80 23.69 24.68
37.55 38.62 38.60 36.40 35.64 34.69 35.17 34.71 33.29 32.13 32.51 32.24 32.86 32.28 32.35 30.67 30.07 30.31 30.74 29.92 27.00 25.80 25.15 24.25 22.88 22.48 23.06 23.53 22.49 21.87 21.69 21.02 20.62 18.92 18.63 19.03 19.02 19.21 18.74 18.60 18.73 18.50 18.87 18.95
36.20 36.31 36.03 34.36 33.48 33.59 33.25 32.57 31.41 30.97 31.66 31.79 31.61 31.65 30.98 30.63 30.30 29.94 30.59 28.59 24.92 22.69 21.39 18.05 20.04 21.39 22.22 21.96 21.15 20.24 19.51 18.69 17.70 18.12 17.22 16.59 16.45 15.37 16.14 15.04 15.60 15.08 14.78 14.79
33.95 32.64 32.90 32.27 32.44 32.51 31.88 32.17 31.72 31.22 31.46 31.42 30.46 30.01 29.20 29.43 29.18 26.47 24.26 23.92 22.64 20.78 20.53 18.92 18.92 20.86 21.09 20.67 19.32 18.26 15.56 15.32 13.73 14.92 14.28 13.93 12.58 12.70 12.87 12.89 11.49 11.43 11.95 12.49
39.14 37.56 36.73 34.94 33.34 32.03 31.15 30.59 30.63 30.89 30.38 30.19 27.68 26.92 26.94 27.22 26.32 23.99 22.05 21.48 20.32 19.36 19.49 18.69 18.92 19.65 19.25 18.08 16.93 16.17 12.83 11.80 12.20 11.73 11.72 9.77 9.11 10.40 9.87 9.12 8.61 7.97 8.59 9.88
37.02 35.53 34.74 33.61 32.73 31.10 30.36 30.02 29.80 28.73 27.12 26.63 26.43 25.13 24.50 24.03 23.17 21.08 19.36 17.14 17.16 18.96 18.06 18.38 19.31 16.97 16.63 16.56 14.40 13.23 11.40 5.47 7.08 8.74 6.49 4.95 4.36 5.18 5.81 4.85 5.34 5.12 5.55 6.55
33.39 32.71 31.89 31.10 31.33 30.46 29.17 28.94 28.06 27.20 26.93 25.45 24.18 23.42 22.00 20.26 18.60 17.20 17.80 17.02 19.02 19.89 19.11 17.17 16.13 15.21 14.47 14.53 10.31 10.95 7.70 0.94 4.87 3.35 0.63 2.04 -3.93 -4.12 -1.45 0.05 2.48 2.32 1.44 3.38
31.29 30.68 29.68 29.10 28.36 28.55 28.00 27.56 26.79 25.19 24.60 23.85 22.58 21.18 20.51 19.47 17.48 16.49 17.15 16.75 18.20 19.49 17.76 15.60 14.73 13.74 13.28 10.76 11.12 -0.89 -2.00 -5.19 -5.37 -4.83 -10.81 -10.08 -11.00 -6.84 -8.09 -7.06 -3.23 -2.21 -1.71 0.55
29.81 28.58 27.76 27.71 26.53 25.19 25.09 25.20 24.67 23.10 21.52 19.86 19.52 19.08 17.77 17.30 15.68 15.73 12.97 17.04 18.14 13.29 14.94 14.34 13.46 5.28 8.45 5.77 7.34 -3.93 -0.22 -3.26 -4.83 -9.00 -11.35 -12.08 -13.17 -12.80 -10.27 -11.90 -7.11 -4.81 -4.03 -3.00
29.51 28.78 27.86 27.08 25.72 23.81 23.36 22.57 21.77 21.06 19.92 19.35 18.74 18.84 19.29 19.16 18.25 15.08 14.56 17.35 16.60 10.83 13.87 8.41 7.46 0.82 -1.75 -6.82 -9.36 -11.17 -11.17 -12.44 -12.44 -11.90 -16.07 -19.51 -18.97 -18.61 -14.62 -10.30 -8.39 -7.96 -6.83 -5.64
28.49 27.49 26.24 25.72 24.20 22.83 21.08 21.52 21.75 20.63 19.82 20.11 17.35 16.80 18.12 14.18 10.54 16.31 14.78 8.75 4.03 1.33 1.63 -1.02 5.14 1.88 -3.92 -10.45 -12.80 -14.25 -14.62 -16.97 -17.70 -17.88 -15.70 -16.25 -21.87 -21.33 -17.16 -15.73 -12.16 -8.75 -8.30 -8.20
26.50 25.71 25.15 24.71 23.95 23.22 22.57 21.92 21.58 21.37 21.14 20.48 19.83 19.06 17.92 16.37 10.81 10.41 5.54 6.22 8.51 5.59 1.10 -4.46 -2.71 -5.55 -12.44 -14.98 -15.16 -15.89 -16.97 -18.97 -19.87 -19.69 -21.51 -23.32 -21.33 -20.78 -18.62 -17.01 -15.57 -13.17 -10.43 -10.18
25.11 24.00 23.51 23.90 22.92 22.98 22.77 21.83 19.15 18.11 16.99 14.60 14.38 10.99 9.61 11.39 10.87 10.22 5.01 3.64 4.22 2.15 -0.11 -9.00 -11.72 -14.44 -15.70 -13.35 -14.62 -15.52 -13.35 -13.53 -17.88 -17.88 -20.96 -22.59 -23.86 -19.55 -19.90 -16.71 -15.82 -14.18 -13.12 -11.77
22.25 22.15 20.88 19.47 19.61 19.46 19.67 19.48 18.04 15.74 14.30 13.98 13.64 11.57 9.06 7.31 3.76 5.43 -2.49 -4.83 -6.64 -9.90 -10.63 -11.35 -14.07 -12.80 -14.07 -16.79 -16.25 -13.53 -11.17 -14.98 -18.06 -15.34 -23.50 -26.04 -25.68 -24.59 -22.07 -20.64 -17.80 -16.01 -14.25 -13.54

GFSNGP_sfc_wetblb_027.txt.gz
Wetbulb
38.48 39.27 40.22 40.35 39.86 39.05 38.89 39.88 37.68 40.05 37.56 42.85 44.98 45.42 45.28 44.56 46.51 48.21 48.79 49.59 50.80 52.32 53.36 53.85 53.80 53.69 53.48 53.13 51.48 50.84 50.24 50.14 49.83 49.66 48.59 47.32 44.47 42.41 41.95 41.36 41.23 41.19 40.55 41.71
36.71 38.89 38.99 38.85 40.24 40.16 39.94 38.59 39.13 39.22 38.47 44.38 44.56 43.90 43.41 43.92 45.94 45.59 45.19 45.68 46.57 47.76 48.61 48.88 49.96 52.15 52.01 51.42 50.37 49.51 48.86 48.73 48.35 47.64 45.55 43.82 42.48 41.75 40.85 40.93 39.95 41.57 40.27 41.68
34.13 35.59 37.47 33.74 37.70 39.50 40.24 41.00 41.97 37.95 43.36 43.23 42.74 42.77 42.92 44.46 44.19 43.27 42.56 42.69 43.02 43.63 44.84 46.97 48.09 49.04 49.76 49.58 48.15 47.68 47.28 46.92 46.13 45.18 43.71 41.80 41.26 40.38 39.14 39.72 40.49 41.60 42.48 42.35
32.76 32.76 29.75 40.60 41.91 42.57 41.60 41.44 42.17 41.42 42.65 42.97 43.46 42.79 43.63 44.97 44.15 41.90 41.51 41.08 40.78 41.92 42.50 43.00 44.38 44.78 45.44 46.27 45.58 44.91 44.20 43.61 43.62 43.59 42.20 41.22 40.88 40.28 41.26 41.84 41.75 41.50 40.96 41.95
32.76 32.58 35.50 38.12 40.11 40.54 40.03 41.07 43.09 42.44 42.09 42.40 43.07 43.98 41.34 40.66 41.73 40.87 39.89 39.63 39.84 40.66 40.91 41.40 41.79 42.40 42.56 41.97 42.28 41.79 41.26 41.36 41.84 42.25 41.69 41.89 41.78 41.24 41.51 41.28 40.95 41.57 42.12 40.25
30.84 31.41 29.76 39.44 42.59 43.11 43.59 36.41 43.28 42.62 42.09 41.95 42.88 41.03 42.88 39.82 39.64 38.83 39.22 39.70 39.55 40.01 40.39 40.58 40.56 41.53 40.78 40.27 40.37 39.83 40.81 41.48 42.42 42.56 42.40 41.68 42.29 41.74 42.42 42.68 41.38 40.00 37.63 37.58
29.96 34.02 35.87 41.20 42.23 43.51 35.95 39.93 43.71 43.82 43.87 44.00 42.28 43.49 42.54 39.44 38.37 38.87 38.89 38.43 39.17 39.61 38.94 39.56 40.79 41.18 39.88 40.31 39.80 41.45 42.66 42.94 43.01 43.28 42.99 43.24 41.95 40.46 39.36 38.19 37.32 36.75 36.89 37.99
32.39 33.33 32.97 42.33 40.28 39.12 44.68 43.02 44.05 44.83 45.26 43.73 39.61 38.37 38.74 38.19 37.39 37.36 37.48 37.92 38.70 38.26 38.18 39.58 40.80 40.81 39.84 39.41 41.51 42.12 42.21 41.14 40.25 39.82 38.86 38.45 38.67 38.07 37.89 37.57 36.48 36.22 35.41 35.92
39.21 40.00 45.04 43.19 45.61 45.20 44.42 44.90 43.65 45.64 44.47 41.84 38.79 38.22 37.93 36.65 36.70 36.93 37.22 37.41 38.28 37.80 37.32 37.65 38.46 39.45 37.22 36.74 37.86 37.08 36.54 35.80 35.74 35.96 35.71 35.76 35.92 35.56 35.50 35.62 34.87 34.53 34.09 34.48
40.59 42.74 42.12 43.37 44.16 45.09 44.65 44.92 44.67 46.59 45.02 42.22 39.41 38.13 36.60 36.15 36.00 36.14 36.82 36.62 36.78 35.68 34.21 33.52 34.96 35.00 35.36 35.68 36.29 35.48 34.17 33.40 33.32 33.20 33.40 33.54 33.88 33.65 33.05 32.60 32.02 31.89 31.58 31.32
39.13 40.84 43.14 44.55 44.70 45.55 43.34 44.03 42.91 42.86 42.72 40.68 38.74 37.13 36.44 35.50 35.61 35.96 35.65 35.24 35.14 33.73 33.29 32.82 33.53 32.88 33.13 33.48 33.84 31.91 31.28 30.42 30.06 30.31 29.71 29.90 30.17 29.82 29.42 30.57 30.16 29.20 29.61 29.14
38.64 44.19 44.85 44.50 45.70 43.28 42.24 42.10 41.63 39.65 38.37 39.30 38.72 36.57 36.29 35.22 35.75 35.11 33.92 33.73 33.21 32.70 31.61 30.49 30.20 29.51 30.06 30.67 30.55 29.97 28.37 28.24 27.33 28.02 27.65 27.41 26.78 26.79 27.07 26.67 27.12 26.99 26.62 26.54
44.27 43.87 40.93 39.77 40.37 41.10 39.98 39.94 39.34 39.27 38.56 36.61 36.90 36.49 35.89 34.97 34.59 33.28 33.26 33.04 31.91 30.22 28.71 28.70 27.38 26.24 27.24 27.88 27.78 26.73 25.76 25.46 25.88 25.39 25.23 24.34 23.94 23.72 22.86 25.10 24.88 24.52 24.31 24.20
41.56 42.18 39.99 39.62 39.57 39.07 38.70 37.89 37.87 37.03 37.11 36.61 35.97 35.93 34.96 33.38 32.85 32.38 31.58 30.94 29.47 28.28 28.35 27.26 25.32 23.86 25.52 26.25 25.36 24.67 24.39 22.69 24.12 23.71 23.03 22.58 22.38 22.16 21.93 20.99 20.07 21.16 22.54 21.43
40.34 39.85 41.36 38.58 37.19 36.39 36.50 36.51 34.93 34.15 34.31 34.35 35.23 34.27 33.58 32.16 31.36 30.52 29.83 28.47 27.97 27.24 25.90 25.10 23.79 22.98 24.87 25.16 23.75 22.61 22.27 21.19 22.02 21.72 21.15 20.14 20.29 19.91 19.97 19.14 18.65 18.46 19.11 19.39
37.18 37.41 37.58 36.70 35.50 35.22 35.38 35.00 33.61 33.28 33.75 33.65 33.18 32.96 32.88 32.09 30.81 28.52 27.25 27.77 26.12 23.18 22.50 20.55 21.28 22.72 23.63 23.61 22.43 21.48 20.21 18.09 18.28 19.29 18.75 17.85 17.59 17.05 16.89 16.65 16.05 15.56 15.32 15.26
35.03 33.60 34.18 33.89 34.01 34.13 34.24 34.92 34.51 33.74 33.14 32.34 31.32 31.48 31.13 29.14 27.31 25.75 24.99 23.66 21.99 21.11 20.76 20.54 20.83 22.26 21.75 21.36 20.69 19.84 18.36 17.43 14.86 16.86 16.24 15.16 14.50 14.27 14.11 14.14 13.03 13.15 13.29 13.52
40.26 37.70 37.64 36.45 34.51 33.05 32.78 33.41 33.47 33.04 31.90 31.04 30.19 29.72 28.27 27.39 24.94 24.12 22.98 21.58 20.53 19.58 19.69 19.63 20.38 20.63 19.43 18.88 18.21 17.48 15.24 14.22 14.75 13.73 13.83 12.59 11.18 11.98 11.89 10.89 10.55 10.53 10.94 11.17
37.66 35.59 35.38 34.50 33.86 32.67 31.98 31.57 30.40 29.04 28.66 28.96 28.65 27.71 27.02 25.49 24.39 23.06 22.42 20.88 19.46 18.76 18.30 19.44 19.06 18.14 17.57 16.70 16.05 15.24 13.02 11.55 12.07 11.70 10.65 8.68 9.16 8.52 8.42 8.37 8.24 8.72 8.37 7.99
32.77 32.73 32.60 31.88 31.93 30.58 28.56 28.56 28.66 27.91 27.90 26.96 26.15 24.95 23.42 22.15 21.44 20.77 21.49 20.65 21.10 20.40 19.47 18.10 17.35 16.13 15.65 14.56 13.40 13.31 11.87 10.41 9.94 9.42 7.80 6.71 5.73 4.88 5.93 4.59 4.69 5.90 6.10 5.88
30.68 30.45 29.59 28.92 28.24 28.89 28.89 29.07 28.27 26.59 26.78 26.98 25.28 23.69 22.24 20.67 19.90 19.56 18.92 18.10 19.45 19.63 18.28 17.02 16.39 15.48 15.11 14.24 13.37 11.16 10.32 9.47 8.74 7.00 4.68 3.77 3.21 3.65 3.74 3.47 3.65 3.70 4.10 4.22
29.03 28.09 27.58 27.70 26.93 26.62 27.23 27.17 26.31 24.92 23.89 22.74 22.15 21.32 20.00 19.09 18.84 18.39 19.29 19.33 19.93 18.27 17.55 16.80 15.52 10.76 12.33 11.05 12.10 10.92 9.68 7.71 7.40 6.29 4.78 3.39 3.00 1.64 1.45 1.62 1.15 1.88 2.55 2.71
28.99 28.67 27.92 26.58 25.22 24.51 24.61 24.13 23.54 22.80 21.71 21.23 20.68 20.93 20.87 20.24 20.07 18.26 16.75 18.17 18.63 16.14 16.62 15.01 10.12 6.81 5.45 11.05 10.22 8.89 7.70 5.78 5.04 4.70 3.55 2.19 1.39 0.28 -0.35 -0.72 -1.16 -0.03 0.36 0.79
27.48 26.21 25.02 25.10 25.02 23.97 21.87 22.11 22.28 21.87 21.63 21.12 19.86 20.29 19.77 17.80 17.68 18.89 18.39 14.64 13.05 14.20 13.64 11.42 10.59 6.20 4.42 9.34 8.26 7.35 6.55 5.59 4.21 3.88 3.15 -3.90 1.08 -0.95 -1.12 -2.62 -3.14 -1.59 -1.81 -1.62
26.51 26.20 25.81 24.64 22.92 22.11 22.02 22.24 22.09 21.77 21.47 20.72 20.25 19.96 19.27 18.74 18.82 16.72 16.23 14.96 13.44 13.05 12.49 4.93 3.43 1.89 7.67 7.51 6.91 5.51 5.21 4.88 4.24 2.45 2.00 0.56 -0.61 -2.05 -2.37 -2.94 -4.59 -3.94 -4.25 -3.20
23.34 22.49 22.54 23.20 23.20 23.17 22.85 22.25 19.99 20.05 19.77 18.36 17.27 16.74 16.38 16.53 15.53 14.82 13.74 11.89 11.94 9.24 11.01 8.32 7.07 6.01 6.01 5.78 5.05 3.92 4.04 4.42 3.10 2.18 -0.46 -0.50 -1.86 -3.00 -4.06 -5.32 -6.14 -5.82 -5.41 -4.93
20.62 20.71 19.76 18.69 19.44 19.46 19.56 19.86 18.73 17.38 17.96 18.42 17.24 15.26 14.17 13.52 12.54 12.25 9.28 10.46 9.77 8.21 7.47 7.08 6.33 4.73 5.62 4.37 3.98 4.26 3.79 3.76 0.34 1.30 0.30 -1.77 -3.31 -4.11 -6.26 -7.15 -7.35 -7.37 -7.35 -7.01

GFSNGP_sfc_wetblb_030.txt.gz
Wetbulb
44.05 44.60 44.58 43.78 43.57 44.52 43.06 43.91 40.93 42.89 43.81 46.68 48.63 50.39 51.46 50.60 50.52 51.67 53.21 54.61 56.22 57.84 58.95 59.60 59.48 59.28 59.17 59.15 57.96 57.70 57.10 57.05 56.56 56.65 56.24 55.07 54.15 53.67 52.15 49.58 46.23 43.14 42.81 42.39
41.92 44.55 43.69 42.18 44.14 44.47 44.38 44.47 44.20 44.99 44.92 50.04 51.24 51.32 49.78 48.98 50.80 51.31 51.88 52.74 53.63 54.19 54.30 54.22 55.29 56.82 56.49 56.44 55.63 55.88 54.77 54.13 53.84 53.34 52.44 51.44 49.57 47.29 44.94 43.52 42.70 41.42 42.23 41.65
38.08 42.57 41.88 37.07 42.48 44.10 44.84 46.08 45.57 43.03 47.60 50.42 49.53 49.64 50.04 50.49 51.02 50.25 49.69 50.05 50.37 51.26 52.17 53.00 53.36 54.33 54.15 53.57 54.01 53.36 52.59 51.89 51.30 50.66 49.31 48.40 47.16 44.87 42.78 41.08 41.49 40.74 42.20 42.98
39.10 37.54 33.03 44.11 47.46 47.96 45.92 46.74 48.65 48.20 48.97 49.75 49.92 50.39 49.98 51.88 50.62 48.69 48.31 48.31 48.98 49.75 50.20 50.97 51.80 51.70 51.90 51.65 50.92 50.11 49.34 48.95 49.11 48.68 47.02 46.27 45.14 43.41 41.17 42.14 42.25 43.18 42.95 43.05
38.55 37.53 41.95 42.55 44.27 45.17 44.97 45.43 49.73 48.73 49.56 49.54 48.79 48.45 46.58 49.54 50.43 48.92 48.33 48.27 48.31 49.12 49.13 49.41 49.15 49.58 49.36 48.71 48.36 47.57 46.61 46.52 46.92 46.98 46.52 46.14 45.02 44.37 45.01 44.86 44.53 43.24 42.49 42.85
37.46 35.89 34.64 44.27 48.54 50.11 48.86 41.51 50.37 49.96 49.49 48.52 48.24 44.54 48.11 46.85 46.68 46.38 47.06 47.47 47.18 47.45 47.78 47.73 47.83 48.50 47.54 46.67 46.39 45.54 45.79 45.86 46.55 46.55 45.91 45.34 45.50 44.63 44.93 44.44 43.62 42.40 40.69 39.50
39.46 39.00 42.48 47.89 48.24 49.18 40.26 43.86 50.99 51.17 50.52 49.46 47.47 50.08 49.33 46.93 45.90 46.47 46.07 45.58 46.66 46.82 46.15 46.52 47.50 47.51 45.93 45.53 44.43 45.32 45.86 45.47 45.16 45.39 44.44 44.03 43.61 41.67 39.62 38.77 38.73 39.88 40.83 41.77
41.23 38.69 36.62 48.79 46.20 44.76 50.54 51.73 51.58 51.54 51.66 50.50 49.52 47.55 45.92 45.47 44.38 44.17 43.90 44.52 45.28 44.90 44.86 46.14 46.92 46.29 44.53 43.47 44.59 44.89 44.41 43.35 42.42 41.26 40.38 41.10 41.30 41.34 41.06 40.69 39.66 39.28 39.65 39.17
44.28 44.46 51.15 49.92 51.48 52.50 52.84 51.90 50.71 51.65 51.54 51.59 46.72 45.73 45.16 44.09 44.15 43.95 44.15 44.41 44.67 44.02 43.36 44.37 44.86 44.38 42.35 42.55 42.79 41.78 40.65 39.77 39.60 39.73 39.85 39.85 39.72 39.26 39.44 39.10 38.14 37.10 35.98 36.01
44.00 48.87 49.29 50.04 51.71 50.66 50.90 51.33 51.20 52.13 51.82 49.42 46.85 45.81 44.55 43.90 43.33 43.36 43.87 43.62 43.33 41.75 40.41 39.55 40.74 40.79 40.56 40.46 40.39 39.62 38.25 37.75 37.87 36.50 36.89 36.76 37.42 36.18 35.59 34.55 33.29 32.43 32.15 32.09
46.43 48.85 46.57 49.35 51.27 52.00 50.12 50.09 49.82 51.73 50.97 49.33 47.38 45.46 44.45 43.21 42.73 43.11 42.89 42.02 41.78 40.34 39.00 38.10 38.72 38.47 38.93 38.89 38.74 36.81 35.80 34.72 34.66 34.10 33.65 33.75 33.22 32.56 31.35 31.94 29.21 29.01 29.50 29.13
45.08 50.64 50.54 51.88 53.11 52.29 50.08 49.05 49.97 50.21 48.69 48.79 47.52 45.20 44.35 42.92 43.09 42.11 40.80 40.31 39.41 38.40 37.24 36.45 36.21 35.59 35.72 36.28 36.32 35.06 32.87 32.30 31.27 32.27 32.28 31.91 31.43 32.03 26.55 26.26 25.62 25.40 24.81 25.46
48.94 49.43 51.15 47.48 48.99 51.67 50.02 49.92 49.59 49.45 49.16 46.74 46.52 44.89 44.05 42.19 41.81 39.03 39.60 38.92 37.66 36.25 34.98 34.43 33.44 32.38 32.67 32.79 32.46 31.56 30.67 30.13 30.42 29.75 29.81 28.92 29.24 28.76 27.69 28.51 25.23 24.14 23.25 22.85
47.51 46.67 46.02 45.94 47.63 47.29 48.29 47.91 46.38 48.23 47.36 45.91 44.22 43.92 42.67 40.81 38.55 38.77 38.13 37.74 36.04 34.41 32.41 31.89 30.28 29.70 30.49 31.02 30.47 29.39 28.04 24.98 29.40 28.95 28.52 28.38 27.66 26.89 27.02 25.21 24.11 25.28 24.51 22.19
46.06 45.00 44.91 46.42 45.71 44.59 45.10 43.93 42.91 42.60 42.46 41.94 42.52 41.34 40.20 37.40 37.29 37.36 36.24 34.61 33.33 31.91 31.05 29.81 28.25 28.16 29.76 29.66 28.38 27.34 27.31 27.14 27.23 27.23 25.75 24.36 25.48 25.23 24.66 23.69 23.08 22.76 23.43 23.12
43.01 43.06 42.54 42.52 42.21 41.84 41.93 42.53 41.73 40.16 40.29 39.92 39.50 38.52 38.60 38.12 36.21 34.73 33.44 31.79 28.67 27.25 28.26 25.20 25.73 27.39 28.44 27.92 27.14 26.58 24.36 20.69 22.13 25.03 24.94 23.67 23.42 22.57 22.19 21.79 21.32 20.97 20.77 20.27
40.57 38.88 39.23 39.18 39.46 39.20 39.78 40.27 39.99 38.78 38.70 38.37 38.04 37.65 35.82 33.66 31.80 30.60 27.81 25.53 24.71 24.54 24.95 24.81 24.57 25.95 25.47 25.82 25.96 25.52 25.49 23.24 18.54 23.66 22.45 21.47 20.95 20.58 20.22 19.97 19.14 18.75 19.11 18.91
44.22 43.72 43.41 42.05 40.02 39.21 38.99 38.39 38.56 38.12 36.88 35.23 31.91 30.43 29.32 27.10 24.42 23.47 23.15 23.34 22.82 22.26 22.47 23.03 23.65 23.27 23.14 23.00 23.12 22.22 21.45 20.71 20.72 19.63 20.14 19.54 17.47 18.27 18.35 17.65 17.00 16.47 17.12 17.10
41.63 41.00 40.70 40.36 39.67 38.89 37.54 34.45 33.51 32.21 31.52 30.95 29.77 27.47 27.11 26.94 25.45 23.91 23.37 21.73 21.37 20.37 20.27 21.59 20.63 21.32 20.59 18.88 19.73 20.30 19.17 18.71 18.96 17.86 17.49 14.70 16.87 16.45 16.01 15.65 14.97 14.91 15.17 14.81
34.99 36.51 34.13 33.21 33.46 31.75 29.84 29.78 29.76 29.36 29.44 29.26 28.45 26.35 24.31 24.54 25.01 24.16 24.91 23.62 23.68 22.25 21.48 20.30 19.65 18.95 17.96 16.70 16.26 18.57 18.17 17.99 16.57 16.51 15.46 14.15 14.88 13.50 13.89 11.86 11.81 13.27 13.77 13.89
31.33 30.99 29.51 29.10 29.18 29.87 30.08 30.47 30.26 29.74 30.15 30.13 28.23 25.74 23.90 23.63 23.59 23.17 21.88 19.87 19.87 20.88 19.94 19.21 19.30 18.93 18.84 18.10 18.11 18.70 17.50 16.93 16.19 15.03 13.76 13.16 12.38 12.21 11.96 12.19 12.18 12.08 12.17 12.31
29.02 28.51 28.45 28.80 28.27 28.54 29.59 29.37 28.43 27.28 26.09 25.06 24.15 23.54 22.45 21.75 21.66 21.21 22.51 21.65 21.20 20.20 20.42 20.02 18.93 15.08 16.30 13.52 17.45 17.28 16.26 14.52 14.08 13.69 13.10 12.00 11.04 10.46 10.42 10.37 9.71 10.08 10.25 10.63
28.19 27.94 27.49 27.02 26.40 25.67 26.08 25.86 25.82 25.51 24.45 24.40 24.19 24.25 23.38 23.06 23.05 21.61 19.41 20.50 21.25 19.05 20.04 19.45 14.13 12.47 10.39 16.76 16.90 15.68 14.60 12.65 12.20 12.03 11.49 10.95 10.29 9.61 8.70 8.31 7.94 7.46 8.12 8.26
27.46 26.97 26.73 27.05 26.68 25.07 22.99 23.60 23.70 23.06 23.19 22.80 22.54 23.16 23.03 22.41 21.80 21.96 21.27 19.01 17.68 18.47 18.01 16.49 14.94 9.26 10.17 15.93 14.65 13.91 12.70 13.19 12.04 11.79 11.21 6.75 9.63 8.81 8.07 7.14 6.02 6.62 5.98 5.42
26.88 26.51 26.01 25.11 23.82 23.54 23.65 23.88 23.58 23.48 23.12 22.68 22.36 22.14 22.15 22.67 23.41 21.03 20.93 18.73 16.16 16.59 18.16 10.71 8.08 7.26 13.87 14.15 13.41 12.02 11.85 12.57 11.94 10.77 10.04 9.41 8.48 7.44 7.30 6.89 4.79 4.84 3.37 3.55
23.39 22.78 23.00 23.60 24.06 24.25 24.19 24.15 22.76 23.49 23.34 22.16 21.75 22.01 21.55 21.00 19.93 19.55 18.56 16.68 16.35 13.87 16.58 16.31 14.84 13.78 13.46 12.77 11.81 11.10 10.81 11.07 10.55 9.89 8.49 7.61 7.70 6.62 5.67 4.57 3.26 3.11 3.03 2.85
20.75 21.43 21.10 20.01 20.91 21.22 21.71 21.78 21.66 20.83 21.54 22.08 20.79 21.02 20.37 19.92 18.47 17.71 15.82 17.36 16.94 15.37 15.08 14.56 14.22 12.46 11.77 11.61 11.20 10.97 10.65 10.33 8.85 7.92 6.92 7.08 6.48 5.73 4.52 3.15 2.32 1.67 0.81 -0.05

GFSNGP_sfc_wetblb_033.txt.gz
Wetbulb
44.83 45.90 45.65 44.47 44.50 45.38 44.58 45.38 41.72 44.62 44.68 47.49 49.53 50.60 51.00 53.52 53.40 53.03 53.79 55.81 57.37 59.18 60.65 61.36 61.60 62.04 62.50 61.86 61.65 61.46 60.94 60.69 59.96 59.32 59.11 57.56 56.43 55.12 53.50 51.18 49.22 47.15 44.38 43.51
42.72 45.25 44.82 43.06 44.75 45.31 45.67 45.96 45.84 46.16 45.49 50.41 51.37 51.97 51.28 51.91 52.27 53.18 54.57 55.81 57.60 59.34 60.03 59.91 60.49 60.43 59.66 58.87 58.48 58.89 57.94 56.97 57.06 56.64 56.02 55.23 54.02 52.15 50.93 49.85 47.89 45.55 43.77 44.63
38.89 43.96 43.60 39.79 43.79 44.96 45.52 46.62 46.33 43.27 47.31 50.18 49.60 50.93 51.65 51.94 53.09 53.64 54.30 55.13 55.69 55.75 55.84 56.38 56.83 56.90 55.94 56.09 56.72 55.84 55.01 54.46 54.06 53.48 51.97 51.12 50.16 48.64 47.33 46.26 45.39 43.36 42.87 42.64
40.37 41.47 33.40 44.13 49.15 48.44 46.70 47.32 48.31 47.89 48.63 50.06 51.27 52.37 52.92 53.51 54.11 53.55 53.45 53.55 53.73 53.76 53.83 54.48 55.09 54.70 54.75 54.41 53.70 52.89 52.25 51.95 51.91 51.06 49.64 49.20 48.08 46.38 44.63 44.25 43.76 43.90 43.87 44.29
38.85 37.96 41.74 44.00 46.94 46.95 45.81 45.54 49.65 48.99 50.16 51.38 52.23 52.01 51.30 53.92 54.96 53.59 52.87 53.18 53.27 53.63 53.14 53.16 52.87 53.07 52.30 51.57 51.18 50.58 49.71 49.66 49.75 49.82 48.52 47.86 46.80 46.62 46.64 46.14 45.61 45.05 45.09 44.15
41.30 36.26 33.54 44.13 49.06 51.51 50.52 42.97 50.53 51.10 50.96 50.91 51.43 46.23 49.80 52.89 53.30 52.32 52.27 52.12 51.60 51.99 52.20 51.82 51.80 52.08 50.72 49.75 49.21 48.37 48.65 48.73 49.12 48.90 47.95 46.75 45.22 44.76 44.68 44.85 44.38 44.65 42.95 42.19
40.55 39.05 42.37 48.43 50.39 52.18 41.75 44.11 51.66 51.92 51.89 51.48 49.81 51.72 53.52 52.37 50.92 51.46 51.23 51.04 51.21 51.37 50.77 50.72 51.32 50.84 49.04 48.46 47.23 48.11 48.35 48.24 47.59 46.98 45.42 44.99 44.88 44.27 43.27 43.49 43.10 42.74 41.99 42.81
42.05 39.03 36.80 50.79 50.39 45.70 50.42 53.49 53.72 53.86 53.05 52.35 53.10 52.79 51.19 50.31 49.78 49.82 49.45 49.25 50.36 49.46 49.24 50.10 50.48 49.49 47.78 46.63 47.47 47.23 46.36 45.48 44.86 44.49 43.52 44.05 43.73 42.92 42.10 41.81 41.13 40.83 40.24 40.08
44.89 44.49 51.46 52.79 51.99 53.94 54.31 53.92 54.66 54.00 53.63 53.61 52.78 50.89 50.10 49.23 49.02 48.78 48.71 49.19 49.57 48.76 48.06 48.72 49.04 48.44 46.41 46.14 46.32 45.22 43.70 42.31 41.62 41.66 41.54 41.88 41.31 40.69 40.84 39.89 38.55 37.18 35.94 35.82
46.62 49.48 50.83 52.92 53.86 54.85 55.41 54.98 55.38 55.14 54.27 54.42 52.47 50.99 49.74 49.09 48.59 48.42 48.99 48.45 48.61 47.33 46.26 45.62 46.55 46.24 45.37 44.56 44.16 42.98 41.25 40.52 40.15 39.60 38.70 39.21 39.01 37.74 36.85 35.65 34.31 33.23 32.79 32.36
46.37 48.95 51.05 52.38 53.72 54.75 54.55 54.50 53.87 53.66 54.28 54.18 52.57 50.60 49.68 48.61 48.30 48.57 48.26 47.83 46.75 45.30 43.88 43.12 43.68 43.01 43.11 42.79 42.18 39.94 38.93 38.08 37.38 36.66 36.52 35.75 34.98 33.62 33.26 30.62 29.02 29.59 29.93 29.55
44.90 49.84 51.73 52.10 54.31 55.75 54.42 53.22 52.91 52.70 53.12 53.55 52.52 50.41 50.00 48.73 48.52 48.07 46.83 46.12 45.05 44.00 42.84 41.70 41.32 40.69 40.89 40.94 40.14 38.07 35.98 35.38 34.87 34.83 34.45 34.38 34.02 31.70 26.93 27.17 25.89 25.31 24.40 24.82
49.11 52.19 52.45 54.02 52.85 53.71 54.37 54.46 53.85 53.02 53.39 51.86 51.98 51.16 49.86 48.15 47.95 44.14 45.21 44.63 43.32 41.83 40.87 39.86 38.67 37.54 37.84 37.81 37.53 36.01 34.46 33.09 31.40 32.48 32.42 31.56 31.86 31.13 30.88 26.85 26.15 25.49 23.97 22.66
52.54 50.79 48.46 50.30 50.53 51.80 52.74 53.41 51.45 52.98 53.24 52.31 51.46 50.66 49.07 47.32 45.05 44.34 43.19 43.15 42.16 39.90 38.21 36.90 35.36 33.39 34.39 34.82 33.42 31.90 30.78 27.63 32.06 31.67 31.07 31.06 30.22 29.33 29.30 27.80 26.54 27.80 25.36 23.59
50.81 50.21 49.60 49.32 49.43 48.74 50.37 49.95 49.30 49.93 50.56 49.81 49.78 48.15 46.82 44.63 42.99 42.76 42.59 40.76 38.50 36.64 34.85 31.74 29.92 29.55 31.76 32.47 31.54 30.71 30.74 30.20 30.18 29.63 27.95 26.64 28.03 27.62 27.12 26.20 25.58 24.92 25.81 25.73
48.53 47.40 47.12 47.19 47.17 46.47 46.58 46.65 47.13 46.93 47.33 46.64 46.13 45.62 44.76 43.36 41.82 38.55 37.64 36.48 32.89 30.35 27.22 26.70 26.79 28.67 29.98 30.31 29.19 27.88 25.01 23.40 25.32 27.45 26.84 26.13 26.04 25.21 24.49 23.84 23.42 23.26 22.95 22.78
45.52 45.59 45.34 44.82 44.87 44.19 44.58 45.37 45.22 44.58 44.75 44.04 43.39 42.35 41.36 36.66 32.25 28.23 26.40 27.66 26.09 25.33 25.49 25.67 25.17 26.32 27.13 28.09 27.96 27.26 26.93 24.52 20.73 25.41 24.65 24.01 23.27 22.61 22.30 22.12 21.55 21.16 21.31 21.33
46.45 46.40 46.88 46.70 44.88 43.25 42.79 43.24 42.96 42.39 40.84 38.78 33.88 32.56 29.51 27.01 25.92 24.93 24.00 23.77 23.17 22.78 23.76 24.11 23.70 23.96 24.38 24.65 25.30 24.57 24.42 23.55 23.03 22.18 22.00 21.61 19.99 20.53 20.69 20.05 19.76 19.46 19.79 20.47
44.35 43.92 44.20 43.25 43.77 42.11 40.13 36.36 33.91 32.16 31.58 30.94 29.77 27.42 26.28 25.36 24.09 23.73 24.13 22.86 21.71 21.01 21.40 22.44 22.17 22.55 21.44 20.53 22.30 22.49 21.15 20.81 20.58 20.36 19.95 17.53 19.42 19.60 18.95 19.09 18.11 17.72 17.82 17.82
33.04 33.68 32.92 32.29 32.92 31.91 30.66 30.82 30.62 29.37 29.08 28.48 27.61 26.11 24.32 23.99 24.54 25.11 25.82 24.23 24.44 22.35 22.28 21.27 21.17 20.19 19.00 18.18 18.75 19.99 19.71 19.84 18.97 18.75 18.77 16.03 17.72 16.89 17.45 16.02 16.12 16.74 16.95 16.94
29.56 29.82 29.30 29.33 29.60 30.54 30.93 31.11 30.25 29.37 29.65 28.62 27.03 25.77 25.37 25.47 24.86 24.42 22.50 19.47 20.62 21.47 20.78 20.76 20.87 20.12 19.86 19.59 19.56 20.53 19.58 18.84 17.94 17.41 16.94 16.66 16.08 16.73 16.15 16.21 15.91 15.63 15.39 15.29
28.61 27.67 27.36 27.86 27.42 27.49 28.62 28.78 27.78 26.49 25.73 24.85 24.64 24.17 23.62 22.75 22.67 22.92 24.55 21.06 21.06 21.69 22.10 21.40 19.62 16.20 17.46 16.12 19.57 19.23 18.23 17.49 16.81 16.77 16.39 16.11 15.27 14.35 14.19 14.17 13.52 13.67 13.27 13.25
28.17 27.75 27.16 26.07 25.50 25.33 25.77 25.83 25.97 26.03 25.36 25.36 24.82 24.54 24.23 24.29 24.89 22.12 19.56 21.94 21.81 21.06 21.30 20.05 15.70 14.27 13.09 18.44 18.74 17.88 17.14 16.02 15.66 15.33 14.95 14.79 14.17 13.17 12.77 12.12 11.95 11.26 11.10 11.13
27.88 27.37 26.91 27.35 27.05 25.92 23.94 24.13 24.25 23.88 23.85 23.95 24.41 25.37 24.45 22.60 21.76 21.94 21.76 20.07 19.71 21.04 20.19 18.14 16.47 12.09 12.10 17.38 17.10 16.49 15.72 15.79 15.28 15.27 14.86 12.92 13.29 12.88 12.01 11.15 10.19 10.78 9.87 9.14
26.68 26.82 26.92 26.52 25.20 25.03 25.37 25.54 24.85 24.50 23.91 23.60 23.56 23.77 23.80 24.27 24.11 22.96 22.32 19.76 18.02 19.28 20.12 13.60 12.49 11.51 15.76 16.26 15.92 14.78 14.58 14.48 14.48 13.19 11.81 11.50 11.54 11.03 10.84 10.38 9.49 8.94 7.69 6.72
24.21 23.55 23.98 24.31 24.95 25.27 25.26 24.53 23.51 24.42 24.25 22.89 22.80 23.41 23.23 22.95 22.23 21.82 20.42 18.97 18.50 17.07 17.87 17.85 16.68 15.51 15.64 15.55 14.79 13.73 13.62 13.30 12.87 12.55 11.44 10.68 10.64 10.32 9.78 9.15 8.51 7.48 6.87 6.56
22.89 23.24 23.04 22.14 22.39 22.23 22.37 22.19 21.71 20.55 21.19 23.16 21.90 22.21 21.76 21.92 20.30 19.76 18.18 19.26 18.43 17.55 17.37 17.25 16.66 15.21 13.85 13.04 12.46 13.16 12.98 12.42 11.84 10.81 9.87 9.18 9.24 8.88 8.28 7.74 7.08 6.05 4.69 3.92

GFSNGP_sfc_wetblb_036.txt.gz
Wetbulb
44.49 45.20 45.45 44.65 44.17 44.44 43.45 45.34 41.74 43.23 44.03 48.03 49.99 49.56 50.66 52.86 53.87 53.09 53.33 54.04 55.38 58.32 59.55 60.15 60.51 61.14 61.79 61.81 61.63 61.84 60.84 60.10 58.24 58.51 57.90 56.99 55.40 53.39 51.07 48.34 46.52 45.62 44.92 44.62
41.14 45.03 44.41 42.63 44.78 45.06 44.70 44.82 44.47 45.42 45.09 50.45 51.92 51.77 50.72 50.85 52.29 52.37 52.93 54.33 55.99 57.69 60.11 60.04 60.52 60.52 60.31 59.56 59.37 59.74 58.62 57.45 57.87 57.61 56.77 55.32 53.32 52.22 50.73 48.70 47.95 45.14 43.78 42.81
37.59 43.59 41.97 37.11 42.91 44.41 45.26 46.53 46.06 42.35 47.23 50.50 49.86 50.03 50.46 51.85 51.90 51.97 53.92 55.35 56.89 58.60 59.09 59.64 59.12 58.60 56.86 56.84 57.20 55.77 54.88 54.93 54.34 53.50 51.58 50.46 49.46 47.98 46.55 45.33 44.50 42.59 42.57 42.14
37.91 38.80 30.63 43.09 48.14 47.02 45.29 46.26 47.68 47.48 48.20 49.36 49.67 50.85 53.35 53.40 53.51 53.32 54.61 55.51 56.31 55.86 56.16 56.28 56.23 55.52 55.23 55.03 54.00 53.16 52.48 52.06 51.77 50.71 49.26 48.17 46.52 44.28 43.06 42.49 41.67 41.44 41.55 42.21
36.27 36.27 40.62 42.76 45.90 45.73 44.96 44.51 48.73 47.69 49.16 49.81 50.23 50.98 52.08 54.39 55.20 54.89 54.78 55.01 54.65 54.69 54.43 53.98 53.52 53.58 52.62 51.64 51.28 50.70 49.97 49.59 49.37 48.76 47.25 46.00 44.56 43.85 43.90 43.08 43.16 43.50 43.06 42.80
39.73 34.31 31.63 42.86 48.08 50.18 49.55 40.21 49.81 49.90 49.89 49.98 51.17 45.91 49.87 53.39 55.04 54.08 54.13 53.88 53.12 53.15 52.72 51.99 51.77 51.62 50.29 49.28 48.84 48.13 48.55 48.56 48.79 48.27 46.95 45.38 44.62 43.72 43.95 44.02 43.01 42.90 42.06 41.13
37.73 36.44 40.95 47.36 49.07 50.22 39.56 42.08 52.13 52.44 51.40 52.15 50.90 52.41 54.08 53.81 53.38 53.52 53.07 52.46 52.59 51.90 50.72 50.88 51.14 50.44 48.49 48.05 47.03 48.15 48.46 48.05 47.39 45.85 44.63 44.44 43.98 43.80 42.45 41.65 41.32 39.16 39.03 39.74
39.70 35.47 33.41 50.63 48.71 43.91 48.88 53.97 54.21 53.49 54.34 55.11 53.85 53.24 52.67 52.51 51.79 51.66 51.04 51.01 51.19 50.17 49.71 50.35 50.42 49.11 47.44 46.19 47.39 47.04 46.28 45.75 44.99 44.62 44.02 43.70 42.37 42.36 42.01 40.30 38.29 36.59 35.29 34.80
40.28 41.86 50.06 50.22 49.46 52.99 54.96 54.51 54.36 54.86 55.01 54.50 53.43 52.00 51.74 50.52 50.47 50.53 50.37 49.85 50.66 49.26 48.67 49.26 49.30 48.64 46.21 45.93 46.15 45.50 44.67 43.38 42.58 42.33 42.03 41.59 39.72 38.58 37.68 37.23 34.18 31.41 30.76 31.00
39.84 45.83 47.49 51.28 53.04 53.81 54.60 54.41 54.40 55.27 55.18 54.99 53.31 52.15 50.78 50.32 49.94 49.51 49.58 49.27 49.63 48.40 47.52 46.95 48.02 47.75 46.32 45.97 45.29 43.13 40.85 40.06 39.54 38.24 37.97 37.68 36.85 35.91 34.25 30.80 30.11 29.65 29.54 28.16
42.63 44.30 44.50 48.23 50.99 53.29 54.42 55.11 55.31 55.08 54.75 54.35 54.08 51.90 50.57 49.48 49.16 49.01 48.94 49.07 48.60 47.12 46.28 45.82 46.02 44.75 44.64 43.88 43.03 40.63 39.19 37.68 36.31 35.94 35.01 33.32 30.23 30.23 28.36 26.35 26.99 27.24 26.25 26.35
40.50 47.66 48.13 49.28 51.67 53.65 52.69 52.03 54.37 53.41 52.90 53.88 54.47 52.02 51.23 49.48 49.08 48.93 48.39 48.05 46.93 45.92 44.50 43.29 42.78 42.03 42.34 42.19 40.47 37.93 35.95 34.74 33.07 32.46 31.70 32.67 29.97 27.51 28.60 26.86 26.40 25.89 24.89 24.04
46.76 50.98 51.73 51.94 52.07 53.55 51.90 52.36 53.93 53.87 53.32 53.03 53.85 52.41 51.04 49.13 48.89 45.79 47.53 46.25 44.71 43.32 42.40 41.41 40.30 38.99 39.25 39.04 37.77 35.52 32.28 32.44 30.61 30.64 30.13 29.26 28.84 28.65 24.27 25.46 26.46 25.82 25.04 23.77
51.05 50.49 49.20 50.63 49.52 51.90 51.56 52.11 53.10 53.20 53.31 53.68 52.12 51.27 50.07 48.56 46.68 46.32 44.90 44.48 43.45 41.16 39.42 37.36 35.01 33.35 34.22 33.40 31.85 30.00 29.40 30.47 30.58 29.39 29.15 29.40 27.91 27.48 27.21 26.67 25.07 24.36 24.58 24.44
49.84 51.37 50.30 49.27 48.94 49.43 49.92 50.55 50.51 50.32 51.16 51.36 51.46 49.75 48.50 45.89 44.59 44.22 43.57 42.38 39.98 37.58 34.69 32.24 30.52 30.23 32.22 32.14 30.73 29.64 29.36 28.48 28.87 27.65 25.76 25.70 27.00 26.81 26.36 25.54 25.07 24.18 24.18 23.37
47.17 48.07 48.04 47.29 47.57 48.15 47.32 47.01 47.00 48.94 49.84 48.73 47.68 46.87 45.97 44.87 42.36 40.08 38.87 37.01 32.67 29.26 27.92 25.95 26.62 28.56 29.68 28.48 26.62 24.78 24.37 24.97 26.45 26.70 25.50 25.53 25.55 24.36 23.84 23.49 23.18 22.73 22.17 21.55
43.46 43.10 44.43 45.23 46.77 46.21 45.23 46.50 47.04 46.93 46.14 45.23 43.38 40.39 32.39 28.70 27.37 26.58 26.16 26.38 25.73 24.99 24.97 24.56 24.14 25.85 26.70 27.42 27.26 26.37 24.55 22.44 21.36 25.02 23.70 22.67 22.23 22.15 21.72 21.47 21.08 20.58 20.17 16.24
43.27 43.91 43.63 44.79 45.78 44.28 42.86 39.36 36.18 35.23 33.11 30.72 29.37 28.36 27.18 25.52 24.00 23.57 23.50 23.75 23.17 22.56 23.27 23.82 23.89 23.39 23.16 23.79 23.92 23.82 23.09 22.71 22.19 21.23 21.27 21.29 19.19 19.42 20.09 19.58 19.38 18.71 18.80 18.44
36.40 35.81 35.39 35.43 36.06 34.54 32.66 31.64 31.19 30.43 29.07 28.13 26.21 24.52 24.19 23.79 23.25 22.60 22.91 22.00 20.96 19.63 20.99 23.14 22.99 21.08 19.94 20.77 22.28 21.65 20.91 20.78 20.33 19.93 19.53 17.87 18.93 19.54 18.74 18.19 17.46 16.75 16.68 16.63
30.15 30.85 30.73 30.00 30.40 29.59 28.18 28.45 28.25 27.13 26.73 25.80 25.07 23.79 22.59 23.59 24.10 23.38 22.96 20.83 21.50 21.16 22.39 21.60 20.53 19.21 18.36 18.41 20.02 20.09 20.20 19.87 18.63 18.89 19.06 16.02 17.29 16.78 16.06 16.27 16.19 16.03 15.39 15.11
27.50 27.78 27.02 26.36 25.87 26.65 27.69 27.72 26.29 25.37 26.20 25.86 24.30 22.97 22.59 23.02 22.80 21.88 19.62 17.87 20.59 21.74 21.86 21.26 20.20 19.90 18.78 18.98 19.63 20.45 19.76 18.78 17.88 17.68 17.04 16.76 16.23 15.90 15.50 15.30 14.88 14.04 13.55 13.35
26.67 25.72 25.20 25.34 25.10 25.19 26.12 26.05 25.42 24.57 24.00 23.60 23.48 23.10 22.26 21.45 21.27 20.91 21.40 19.37 21.33 22.06 21.42 19.71 17.19 16.03 16.22 16.00 19.29 19.60 18.57 17.68 16.86 16.52 16.14 15.79 14.88 13.86 13.18 13.11 12.29 12.11 11.33 9.41
26.78 26.04 25.26 24.15 23.42 23.34 24.12 24.14 24.03 23.75 22.92 22.94 22.79 22.97 22.69 23.39 23.65 20.51 18.24 22.14 21.95 21.71 19.47 16.46 15.42 15.00 13.95 18.08 18.65 17.95 17.24 15.81 15.63 15.82 15.00 14.60 13.97 13.04 11.52 11.04 10.12 8.98 8.95 9.24
26.66 26.43 26.04 26.22 25.66 24.42 22.84 23.92 24.20 23.87 23.29 23.61 23.55 24.91 23.79 21.02 20.43 21.32 20.85 20.68 19.99 18.85 17.54 16.85 14.18 13.37 11.77 17.40 17.19 16.29 15.45 14.75 14.38 14.57 13.92 11.54 12.17 12.15 11.54 10.21 9.24 8.96 8.33 7.13
25.13 25.67 26.03 25.53 24.58 24.40 25.05 25.08 24.58 24.34 23.81 23.16 23.03 23.03 22.11 23.18 21.88 21.49 20.34 19.00 18.35 19.50 15.11 13.41 12.50 11.82 16.11 16.44 15.43 14.29 13.85 13.54 13.06 10.79 11.10 10.63 10.32 9.93 9.51 9.66 8.11 7.79 5.99 2.78
23.41 22.40 22.27 22.49 22.85 23.86 24.27 23.19 21.22 22.78 23.37 21.47 21.98 22.52 22.53 22.47 21.87 20.53 19.50 18.25 17.75 16.96 17.23 17.61 15.40 14.36 14.94 13.61 12.15 12.01 12.38 12.69 11.91 11.50 9.98 9.39 8.37 7.59 7.34 8.03 6.98 6.51 4.82 4.03
20.65 21.36 20.73 20.30 21.06 20.92 20.02 19.59 19.46 18.12 19.55 21.98 20.56 21.30 21.10 21.37 20.18 19.32 18.77 18.12 17.48 17.39 16.51 15.92 15.91 14.15 13.61 12.10 11.83 11.59 11.21 11.00 10.48 9.45 8.41 7.83 6.98 6.39 6.22 6.00 5.06 3.91 2.59 1.08

GFSNGP_sfc_wetblb_039.txt.gz
Wetbulb
40.92 42.49 43.60 42.93 42.86 42.89 41.01 41.59 37.74 39.88 41.18 44.38 46.94 48.02 49.24 49.32 49.71 50.48 50.58 49.65 52.43 53.35 53.82 55.33 56.50 57.35 57.86 57.59 58.06 59.77 59.12 57.56 56.40 56.08 55.84 54.44 52.80 50.62 48.57 48.36 47.25 46.30 45.59 45.43
37.30 42.10 42.86 40.74 42.95 43.13 42.56 42.04 43.55 43.67 42.31 48.14 49.80 48.66 48.18 48.59 49.38 48.73 49.17 50.10 51.48 55.28 56.03 56.79 56.87 56.66 56.78 56.11 56.34 56.98 56.04 55.88 56.29 56.08 55.17 54.30 52.15 49.73 48.36 46.35 45.44 44.83 44.13 44.13
33.25 39.32 39.12 33.05 39.85 42.05 42.87 44.46 43.69 39.07 43.81 48.59 47.54 48.08 48.76 48.59 49.66 48.71 49.04 50.43 52.08 55.74 56.28 56.61 56.59 56.07 54.39 53.94 53.58 53.53 53.32 52.80 51.38 50.52 49.00 47.91 48.69 48.85 47.13 44.93 41.65 40.45 40.16 39.70
30.61 35.12 28.22 39.86 45.22 44.89 42.51 43.95 44.89 44.08 44.55 44.97 46.48 47.67 48.50 50.91 49.47 48.00 50.57 52.35 54.11 53.91 53.55 54.32 54.09 53.50 52.34 52.06 51.49 50.77 50.00 49.49 49.02 47.77 46.15 44.31 42.79 41.05 40.08 39.80 39.19 38.99 39.30 40.32
31.23 32.85 36.99 40.25 43.00 42.44 40.99 40.66 45.66 44.53 44.90 45.68 46.45 46.57 45.79 49.27 49.65 50.19 51.30 51.30 50.75 51.11 51.47 50.72 51.17 50.68 50.79 49.30 49.04 48.92 48.07 47.74 47.08 45.59 43.18 42.15 40.84 39.53 39.57 39.38 38.81 38.84 39.56 39.25
33.42 30.43 27.98 38.23 44.69 47.08 46.18 35.39 45.89 46.43 45.90 45.49 45.13 38.25 42.53 48.06 50.50 50.17 50.66 51.25 50.43 50.04 49.70 49.32 47.60 48.56 47.67 46.62 46.46 46.12 46.32 46.03 45.48 44.56 43.60 42.15 41.17 40.46 40.02 39.91 40.15 41.59 40.49 40.67
30.49 29.34 33.64 43.94 46.61 48.21 35.83 36.04 47.69 47.62 47.48 47.03 43.87 45.02 47.29 49.15 48.76 50.18 50.26 49.40 48.85 48.61 47.26 46.08 46.79 46.95 44.72 44.36 44.05 45.67 46.18 45.29 44.25 43.56 42.53 42.07 41.34 40.36 39.80 38.76 38.05 36.02 36.43 36.69
33.75 29.65 28.96 44.56 45.82 40.98 42.32 46.81 48.59 47.87 47.06 47.08 48.01 48.13 49.13 49.20 48.43 48.56 47.75 48.04 47.91 46.84 45.97 45.65 46.03 45.68 43.63 43.01 44.30 44.33 43.70 43.11 42.74 42.31 42.58 42.00 40.20 39.61 39.94 38.45 35.62 32.78 31.27 29.95
37.65 35.51 43.43 44.85 45.73 47.12 49.19 48.71 49.65 47.32 50.27 49.86 48.11 47.94 47.94 47.43 47.34 47.43 47.43 46.93 46.87 45.74 44.93 45.02 45.27 45.24 42.78 42.53 43.79 43.28 42.43 41.80 41.36 41.71 41.49 40.77 38.28 35.38 34.24 33.67 29.58 28.27 29.73 28.95
37.42 40.52 42.76 44.19 47.05 48.67 50.39 49.92 51.55 51.31 50.96 49.85 48.15 47.85 46.59 46.76 46.19 46.10 46.04 45.44 45.97 45.43 44.34 43.11 44.51 44.24 43.31 43.44 43.33 41.78 39.67 37.70 36.22 35.07 33.76 32.42 33.60 31.33 28.75 26.39 26.33 27.09 26.41 25.74
39.14 41.93 44.17 46.18 47.78 49.53 50.10 50.86 50.72 51.17 50.30 49.73 48.67 47.81 47.90 46.23 45.62 45.52 45.64 44.71 45.57 44.38 43.22 41.94 43.25 42.66 42.87 41.53 39.98 37.46 35.61 34.28 32.91 31.01 28.78 27.29 27.85 25.96 23.98 25.29 26.42 24.20 23.31 24.67
35.35 43.58 43.86 45.58 48.98 49.52 47.98 50.36 50.86 50.81 49.86 49.46 49.26 47.44 47.13 45.44 45.39 45.46 43.86 44.23 43.58 42.25 40.60 40.29 40.22 39.53 39.30 39.43 37.53 34.53 32.65 31.16 28.55 27.98 27.62 26.78 25.90 25.08 27.30 27.00 27.14 26.93 26.59 24.79
43.17 45.97 45.27 46.57 49.03 50.35 49.64 50.06 50.25 50.26 50.86 48.86 48.76 47.38 46.43 44.85 44.24 41.93 43.71 43.04 41.53 39.53 38.68 36.67 32.87 31.27 33.97 34.83 33.66 31.85 29.56 29.94 28.36 27.65 28.01 27.23 26.18 24.51 22.44 25.40 26.80 26.27 25.51 25.15
46.75 46.69 45.12 46.47 45.49 47.65 47.81 48.34 48.75 48.76 49.80 49.82 48.66 47.00 45.54 44.58 43.17 43.08 41.32 40.28 38.91 34.86 32.01 30.58 29.56 28.49 30.07 30.82 30.09 29.13 28.77 28.77 27.89 27.40 27.03 26.40 25.62 26.11 25.38 24.21 22.97 23.08 24.96 23.93
44.01 45.73 45.11 45.76 46.36 45.83 46.26 45.75 45.36 45.06 46.47 45.94 45.93 44.99 43.93 42.04 40.52 39.13 38.33 34.64 31.65 29.69 27.77 26.91 26.32 26.26 27.44 27.80 27.31 27.19 27.77 26.76 25.40 24.48 24.67 25.38 25.61 25.58 25.53 24.78 24.13 23.52 23.44 22.52
42.67 43.36 43.58 43.14 43.96 43.81 43.44 42.73 42.96 41.96 42.71 42.88 39.13 35.39 34.30 32.76 31.95 31.31 30.37 28.23 24.84 22.85 24.01 23.72 24.94 26.56 27.23 26.25 25.30 25.10 25.40 25.59 25.94 25.41 24.93 24.59 24.18 23.51 22.90 22.54 22.44 21.89 21.49 20.14
37.32 35.95 37.44 37.75 40.74 35.70 35.07 34.76 33.34 32.47 31.43 29.55 28.85 28.76 27.64 25.55 24.37 23.54 23.47 23.80 22.79 22.46 22.91 22.81 23.12 25.29 26.59 26.91 25.97 23.87 23.03 23.81 24.14 23.71 22.35 21.94 21.62 20.92 21.03 20.85 20.22 19.74 18.73 15.78
37.04 36.08 35.80 35.72 34.78 33.12 30.97 30.14 29.32 28.54 26.99 26.80 25.80 24.45 23.21 22.19 21.39 21.39 21.71 22.22 21.73 20.97 21.48 21.93 22.69 23.22 23.88 24.09 24.01 23.36 22.63 22.11 21.36 20.53 21.34 19.59 18.38 18.91 19.66 18.76 18.64 17.50 17.12 16.01
31.89 31.34 31.52 31.10 30.65 29.38 28.07 26.97 26.11 25.58 25.06 24.56 23.15 21.95 22.24 22.16 22.22 21.77 21.55 20.19 18.94 18.30 19.53 21.18 22.04 21.09 21.51 22.57 22.04 21.65 20.93 20.29 19.85 19.69 19.07 17.73 17.86 18.34 16.65 16.36 15.43 15.33 15.42 15.52
26.97 26.94 26.70 26.31 27.10 26.97 25.59 25.54 25.57 24.95 25.18 24.51 23.05 20.88 19.68 19.93 20.08 19.49 19.34 18.08 19.59 20.08 21.51 21.07 20.56 19.18 19.30 20.17 20.84 20.41 19.76 18.71 18.57 18.17 16.64 15.78 14.81 13.04 13.45 14.55 14.89 13.79 11.16 10.85
24.59 25.08 24.40 23.95 23.54 24.03 23.88 24.26 23.26 22.39 23.26 23.46 21.88 20.76 20.07 20.50 20.45 19.80 18.15 16.70 20.01 21.67 20.64 19.39 19.62 17.73 17.49 17.90 19.75 19.16 18.06 16.87 16.26 15.80 13.70 12.58 11.39 12.23 11.44 10.71 10.04 8.49 7.67 6.69
23.15 22.57 22.24 22.50 22.18 22.22 23.54 24.05 23.97 23.45 22.92 22.37 22.05 20.95 19.73 18.99 19.12 19.13 19.97 18.72 21.24 19.53 17.94 16.51 16.00 15.15 15.17 17.76 18.45 17.27 16.74 15.43 14.18 13.39 11.15 8.97 7.20 5.17 4.42 2.55 2.04 2.09 -0.84 -4.53
24.00 23.69 23.22 22.20 21.77 21.74 22.69 22.89 22.95 22.71 21.95 21.44 20.38 19.86 20.53 21.12 21.07 18.03 16.29 20.97 18.66 16.93 15.98 14.77 14.08 13.08 13.05 16.35 15.29 13.85 12.44 10.97 10.69 9.69 10.62 9.86 9.21 6.88 3.34 3.14 3.50 -2.54 -4.89 -0.58
24.51 24.24 23.78 23.90 23.42 22.37 20.97 22.27 22.68 22.38 21.94 21.32 21.19 21.77 20.40 17.92 18.47 19.44 18.95 17.41 15.53 15.10 14.02 12.42 12.29 11.64 10.69 11.09 9.94 8.41 7.58 5.90 5.55 3.44 2.63 0.45 -3.81 -4.35 -0.01 -2.90 -2.36 1.89 -0.24 -2.73
20.96 20.82 21.57 21.99 21.26 20.84 22.33 22.93 21.84 21.21 20.55 20.17 20.40 20.75 20.12 20.23 17.60 17.70 16.87 16.18 16.43 13.53 10.17 9.36 9.29 8.83 9.47 7.22 5.39 4.07 3.43 6.21 6.16 3.51 4.54 0.15 -3.62 -6.53 -7.43 -4.71 0.68 0.29 -1.50 -3.27
20.04 19.03 18.94 19.13 18.24 18.55 19.35 18.69 16.81 19.36 19.39 17.84 18.30 17.77 17.72 18.32 17.40 17.06 15.17 13.39 13.96 13.14 14.00 8.55 8.68 9.98 3.74 0.67 -1.94 -3.14 -3.28 -1.71 2.82 2.48 -3.81 -6.89 -8.88 -7.98 -5.08 -1.68 -1.30 -2.36 -7.07 -11.42
17.24 17.74 17.38 17.24 17.45 15.94 14.94 14.70 14.36 13.44 15.38 15.86 14.68 15.27 15.40 15.61 14.32 13.19 10.84 11.25 12.44 8.88 5.79 5.49 7.45 8.63 4.90 1.76 3.10 1.83 -3.99 -5.44 -5.08 -2.72 -6.16 -10.15 -11.78 -12.51 -6.34 -6.71 -8.88 -13.41 -14.50 -14.86

GFSNGP_sfc_wetblb_045.txt.gz
Wetbulb
36.73 37.24 38.29 37.14 38.46 39.51 37.38 37.76 34.04 35.88 36.66 40.83 43.05 44.41 44.67 46.40 45.42 45.84 45.21 46.90 48.03 48.34 49.05 50.36 51.65 53.40 54.72 55.56 56.54 57.35 57.26 57.29 57.50 58.07 58.60 58.44 58.21 58.44 58.16 57.79 57.33 54.43 52.67 51.08
32.01 38.01 36.61 34.62 37.16 38.07 39.46 38.87 37.23 38.06 37.00 43.70 45.67 44.82 44.47 45.55 46.15 45.58 46.38 46.50 48.08 49.47 49.91 50.91 53.07 54.22 54.72 53.84 53.92 56.31 56.69 56.89 57.38 55.95 56.45 56.73 56.09 54.36 53.06 51.67 51.09 51.57 49.55 47.60
27.29 33.08 34.13 28.91 34.99 37.36 39.61 41.25 40.32 36.34 40.72 44.12 43.68 44.90 45.27 46.65 46.33 46.42 46.87 46.63 46.76 48.46 51.53 52.33 54.62 55.04 54.63 54.02 55.56 55.99 55.86 55.81 55.60 55.43 55.31 53.36 52.22 51.16 49.78 47.94 46.64 46.33 45.76 46.14
28.56 30.17 22.51 33.91 39.50 39.98 39.36 41.47 42.78 42.59 42.98 45.08 44.66 45.63 46.66 48.26 48.33 47.56 47.55 46.76 46.41 47.64 50.35 52.70 53.67 52.57 52.52 53.99 55.13 55.81 55.93 55.33 54.79 53.50 50.96 49.83 48.87 47.61 45.11 45.16 44.20 43.66 43.23 43.62
24.79 25.58 30.64 32.95 38.10 38.32 35.55 36.55 42.99 42.26 43.50 44.61 45.53 43.16 41.97 46.02 47.40 48.35 48.67 49.13 48.87 48.32 50.51 53.05 52.71 51.93 51.98 50.99 52.32 53.05 51.88 51.50 51.10 50.68 49.02 47.45 45.24 43.40 41.80 41.48 41.09 40.76 41.27 40.70
30.15 22.28 19.53 32.27 39.72 43.99 43.56 34.20 42.82 44.83 42.58 43.80 43.99 37.46 40.60 45.25 46.39 46.72 46.69 46.28 48.52 50.30 51.66 52.12 50.53 51.30 50.02 48.64 49.07 49.51 49.23 47.82 48.44 48.21 46.63 44.00 40.97 40.48 38.08 38.33 37.90 38.24 35.97 35.38
30.07 28.14 29.01 37.89 41.87 44.79 33.07 33.47 43.67 46.31 44.92 43.91 39.88 44.58 45.89 45.20 44.69 46.23 46.74 48.77 50.09 50.76 50.91 50.65 49.91 49.89 47.89 47.13 46.16 45.62 45.08 44.19 44.32 44.37 42.66 40.12 38.31 38.21 37.17 36.77 35.66 34.64 32.38 32.17
30.95 28.47 25.53 41.83 43.11 37.06 41.09 43.95 45.40 46.92 45.80 44.44 45.00 43.92 45.10 45.10 45.84 46.78 47.12 47.91 49.15 48.40 46.65 47.71 48.48 48.18 45.67 43.88 43.64 43.17 42.64 41.24 40.77 40.44 39.89 38.90 37.72 37.41 37.16 35.63 33.22 30.85 28.88 27.39
31.61 30.84 40.34 44.77 44.30 45.76 45.82 45.26 46.36 46.51 47.36 46.59 45.03 44.31 45.22 44.99 45.39 46.28 46.67 46.51 47.31 45.73 43.75 43.78 44.97 46.12 42.54 42.22 42.30 41.66 40.88 39.99 39.50 39.18 38.83 38.23 37.04 35.74 33.91 33.50 31.67 29.77 27.92 25.87
34.15 38.36 40.20 42.33 44.89 45.95 47.31 47.32 47.91 47.78 47.29 46.98 45.41 45.25 43.77 44.18 44.26 44.21 43.77 43.68 44.13 44.27 42.66 41.39 42.41 42.64 42.23 42.41 41.71 40.91 39.15 37.03 35.32 33.30 31.14 31.47 31.27 32.63 31.41 31.66 30.86 28.56 26.75 24.64
35.24 39.55 41.90 43.41 44.48 45.84 46.88 48.13 47.10 48.70 47.49 47.50 47.27 45.71 44.13 44.31 44.04 43.67 43.32 43.56 43.20 42.29 40.90 39.99 41.10 40.74 41.18 41.14 40.24 35.51 32.62 31.40 29.48 28.09 27.83 27.09 27.30 28.28 27.55 27.70 29.65 27.86 25.66 23.98
31.51 40.46 39.73 41.30 44.05 46.13 46.01 45.98 47.69 47.43 47.12 47.51 48.16 47.91 45.98 44.06 44.23 43.62 42.25 42.01 40.39 39.98 39.47 38.23 37.92 36.71 36.74 37.30 35.29 32.00 29.34 28.51 27.00 25.91 25.35 25.30 24.73 24.91 28.76 28.97 29.13 28.90 27.82 25.79
38.12 39.31 40.46 42.78 45.47 44.19 44.93 45.16 47.38 47.36 45.69 44.76 46.30 47.82 45.08 42.42 43.15 39.49 37.35 34.83 34.29 33.59 33.48 33.01 32.00 31.01 31.80 32.31 31.68 29.83 27.86 27.47 26.32 26.14 25.38 24.28 24.36 24.22 22.45 25.69 27.64 26.96 26.34 25.69
38.41 39.57 41.11 41.82 39.43 38.69 38.89 40.90 38.57 36.77 35.33 37.10 42.76 43.79 41.43 36.95 33.91 32.68 31.33 30.53 30.44 29.51 28.76 28.87 28.59 27.87 29.67 30.00 29.40 28.52 28.14 28.21 27.39 27.09 26.61 26.01 25.42 25.37 25.33 23.95 22.60 23.23 25.66 25.00
36.26 38.82 38.28 38.75 36.76 34.01 34.81 34.66 31.93 30.32 29.88 28.63 30.07 31.15 30.69 27.90 26.24 26.60 27.58 27.92 27.37 26.49 26.41 26.32 25.99 26.11 28.00 28.01 27.18 26.75 26.36 25.84 26.18 26.10 26.12 26.14 26.05 25.79 25.51 25.17 24.68 23.57 23.39 23.20
35.09 37.71 37.00 34.98 32.55 30.98 30.06 29.19 27.74 26.38 26.64 25.81 24.82 24.17 23.97 24.47 24.22 24.24 24.81 25.60 24.65 23.68 24.83 24.71 24.81 26.37 27.78 27.55 26.81 26.18 25.61 25.60 25.34 24.92 24.43 23.92 24.11 23.52 23.15 22.81 22.12 21.98 21.42 19.91
32.33 32.19 31.49 32.37 30.48 28.44 27.42 27.53 26.67 25.26 24.74 24.13 23.68 24.21 23.50 22.57 22.10 21.47 21.41 22.00 21.70 21.48 22.46 22.58 22.58 24.53 25.06 25.20 24.70 23.96 23.46 23.28 22.95 22.21 21.28 20.95 20.90 20.60 20.40 19.90 19.55 18.63 16.90 17.35
31.08 29.55 28.76 28.59 27.46 26.13 25.39 25.36 25.05 24.80 23.81 23.54 22.50 21.64 20.86 20.22 19.21 19.23 19.29 19.79 19.10 18.83 20.26 21.08 21.93 22.42 22.42 22.79 22.70 22.30 21.58 21.19 20.15 19.11 19.19 18.90 19.23 18.58 18.03 17.65 17.07 16.55 16.69 16.70
25.92 25.37 25.63 25.39 24.92 24.03 23.32 22.58 22.30 22.36 22.24 21.77 20.27 18.93 19.31 18.84 18.48 18.27 18.57 17.22 16.37 15.41 17.15 20.27 22.40 21.06 20.88 21.46 20.79 20.35 19.55 18.71 17.92 17.61 17.70 17.24 16.07 16.15 15.77 15.48 14.53 13.84 13.57 12.40
23.72 24.02 23.36 22.77 23.42 23.29 21.98 22.24 22.08 21.21 21.55 20.51 19.42 17.94 16.75 17.00 16.78 15.85 15.48 13.76 15.25 16.49 18.62 18.95 19.71 19.55 19.15 19.23 19.08 18.00 17.09 16.56 16.52 15.41 15.18 14.60 13.85 12.65 12.78 12.41 11.26 8.75 6.49 6.51
21.35 21.60 20.98 20.45 20.09 21.14 21.34 21.19 19.96 18.60 19.24 19.31 17.94 16.97 16.81 17.40 17.35 16.55 14.20 12.40 14.93 16.76 17.06 17.42 18.15 17.82 18.03 17.25 16.64 15.64 14.89 14.06 12.66 11.50 9.82 8.79 7.83 7.29 5.56 5.08 5.45 3.87 0.51 -1.31
20.81 19.86 19.59 19.79 19.05 18.99 20.27 20.08 19.62 19.09 19.10 18.73 18.94 17.81 15.71 14.81 14.19 13.79 14.46 13.22 14.80 15.35 15.76 15.50 15.10 14.35 13.92 14.14 13.46 12.25 11.18 9.93 8.95 8.53 6.93 6.08 4.11 1.69 -0.57 -2.05 -3.25 -4.34 -7.06 -8.69
21.21 20.81 20.27 19.35 18.80 18.86 19.39 19.17 18.72 18.40 17.24 16.55 15.85 15.66 15.41 16.30 15.93 12.66 10.28 14.19 14.79 14.49 14.01 12.24 10.99 9.90 9.23 9.24 8.26 7.05 5.80 4.55 3.38 2.02 -0.30 -3.63 -5.25 -8.15 -9.42 -9.42 -9.96 -12.13 -11.05 -5.43
19.50 19.43 19.58 20.37 19.90 18.25 16.49 17.95 18.02 17.37 16.61 16.71 15.11 14.87 15.00 12.05 12.12 13.40 12.43 10.11 9.03 9.28 8.03 6.80 5.14 3.27 2.45 2.34 0.74 -1.19 -3.11 -6.70 -9.96 -11.95 -9.78 -13.59 -19.21 -19.39 -18.66 -19.02 -15.04 -16.30 -15.76 -14.85
16.87 16.49 16.40 16.49 15.64 16.36 16.85 16.61 15.71 15.02 14.44 14.03 14.25 15.22 14.83 14.55 10.77 11.17 10.63 9.80 9.98 7.04 5.51 0.81 -0.57 -3.61 -5.44 -8.15 -9.96 -13.04 -14.85 -15.22 -15.94 -17.21 -18.48 -19.21 -20.11 -20.66 -20.66 -18.84 -19.57 -19.21 -19.93 -21.20
14.87 13.20 12.84 13.46 13.55 13.59 13.82 13.54 11.13 11.09 10.80 9.05 8.93 8.52 8.01 10.24 10.36 9.29 6.72 4.19 4.11 1.86 -1.04 -7.06 -8.33 -8.15 -9.05 -10.14 -15.94 -17.03 -15.40 -10.14 -13.95 -15.40 -18.66 -20.29 -20.29 -18.30 -20.11 -19.21 -21.74 -22.29 -23.92 -25.19
11.94 12.19 11.57 10.51 10.20 9.48 8.80 8.42 7.35 5.64 0.64 -2.38 2.58 3.98 5.84 6.87 4.26 2.68 -3.43 -4.22 -6.35 -8.87 -12.68 -14.67 -15.04 -12.14 -14.67 -17.75 -15.94 -16.12 -15.58 -16.30 -16.67 -16.49 -22.29 -22.29 -21.20 -21.20 -21.20 -23.01 -25.19 -26.46 -27.00 -27.36

GFSNGP_sfc_wetblb_048.txt.gz
Wetbulb
37.94 38.43 36.98 36.01 35.01 35.71 33.71 34.77 30.68 33.96 34.72 38.27 41.09 42.76 44.67 44.99 44.82 44.61 45.01 44.19 45.87 45.95 48.51 49.94 51.19 53.07 54.13 54.77 55.18 55.09 53.97 53.64 53.86 54.73 55.45 55.48 55.69 56.09 56.85 56.88 56.84 57.48 57.16 55.43
31.59 37.33 36.76 33.44 35.30 35.75 36.62 36.88 35.92 36.47 36.09 41.10 43.87 43.17 42.79 44.41 44.72 44.92 44.86 45.54 45.51 47.67 47.36 47.93 50.23 51.68 53.35 54.03 54.63 55.54 55.18 54.83 55.23 55.34 55.70 55.91 56.07 56.17 56.84 57.02 57.29 57.05 55.15 51.41
27.05 32.87 32.79 27.33 31.89 35.45 35.92 37.00 36.99 32.63 37.60 42.52 42.32 42.95 43.36 44.53 44.70 44.97 45.85 45.90 45.85 46.61 48.95 49.23 49.55 50.78 51.43 52.90 52.38 54.35 54.92 55.36 55.51 55.57 55.59 55.95 57.03 57.09 56.47 55.41 52.61 51.53 49.55 48.98
26.66 28.31 21.77 31.04 37.47 37.95 35.47 37.67 38.88 38.36 39.10 42.27 43.71 45.53 45.46 45.75 45.58 45.60 46.21 46.68 46.08 45.75 46.28 49.03 50.03 51.67 51.71 52.89 52.70 52.69 53.51 53.58 53.89 54.60 55.55 55.53 53.44 52.55 49.07 48.79 49.37 46.97 46.28 46.10
22.62 24.81 29.01 31.68 34.51 35.29 35.41 34.28 39.21 38.24 40.77 43.99 44.56 42.00 42.76 44.60 45.69 46.64 47.31 47.38 48.11 48.77 47.15 48.18 51.15 51.77 52.61 53.58 52.97 53.11 53.19 54.53 54.63 53.99 50.71 50.02 48.63 47.22 46.15 46.19 45.34 44.49 43.72 43.17
28.64 21.58 17.12 28.46 37.23 42.66 40.48 29.22 40.58 42.21 42.86 43.19 44.01 35.16 41.91 45.02 44.85 45.15 45.45 45.43 45.44 45.23 47.75 50.02 50.60 52.15 51.70 53.00 54.55 53.11 52.21 51.27 51.07 50.40 49.01 47.26 44.17 42.76 41.59 41.49 39.38 38.79 36.90 37.65
28.56 27.36 27.86 35.25 38.99 42.62 28.36 29.18 41.81 41.86 41.95 42.92 40.88 42.31 44.88 47.39 46.76 45.45 45.65 45.19 47.68 49.44 49.52 49.70 50.54 51.48 49.40 50.85 51.07 48.72 48.28 48.14 47.54 46.76 44.55 42.11 40.45 40.13 39.07 36.92 34.73 32.92 31.58 31.56
30.04 27.49 22.95 38.31 40.97 34.19 38.02 42.20 41.85 42.28 43.71 43.35 44.76 45.83 46.37 45.27 44.07 43.99 45.26 45.39 46.65 47.80 46.90 47.55 49.54 49.22 47.08 44.42 44.39 44.82 44.32 43.16 41.98 41.40 40.87 40.03 39.01 38.25 36.70 34.29 31.90 30.18 28.69 27.50
30.14 29.43 36.76 41.50 42.24 44.43 44.39 41.97 43.39 43.45 44.67 44.99 44.54 45.15 45.87 43.82 44.05 43.79 44.30 44.78 45.76 44.55 43.40 44.30 45.75 46.12 42.21 41.47 42.93 43.29 42.44 40.27 39.51 38.77 38.61 38.58 36.74 35.78 34.12 32.98 31.21 29.97 28.45 26.32
32.24 35.15 37.74 39.19 41.30 42.61 44.99 44.81 46.66 45.83 46.05 46.21 45.55 45.92 45.93 43.56 43.00 42.56 42.20 42.47 43.53 42.99 41.74 41.59 43.05 42.88 42.68 43.38 42.19 40.77 37.51 35.40 34.41 33.94 32.92 32.60 32.68 33.79 33.29 31.67 30.27 29.46 27.96 25.52
33.56 36.02 38.57 40.31 41.46 43.04 44.11 45.56 46.72 46.72 46.87 45.74 46.79 46.10 45.69 44.06 42.52 41.99 41.20 41.56 41.94 40.58 39.84 39.69 40.86 41.14 41.62 41.02 38.45 34.75 32.70 31.44 30.57 29.93 29.37 27.93 27.81 29.16 29.98 30.84 31.99 30.13 27.91 25.84
29.29 36.92 37.69 38.20 41.70 39.98 41.69 41.38 43.08 45.91 45.81 46.65 43.64 43.66 44.76 41.48 41.45 41.61 39.95 39.23 37.58 36.82 35.80 35.24 35.48 35.64 35.99 36.07 34.99 32.68 30.07 29.60 28.96 28.36 27.98 28.03 27.28 26.24 29.90 30.14 29.76 28.51 27.53 25.96
37.00 37.73 37.38 38.62 40.63 38.03 37.16 37.39 38.01 37.37 35.04 34.25 39.34 41.09 39.87 36.56 34.65 34.38 34.13 33.50 32.88 31.03 30.54 30.08 29.58 29.28 30.71 32.19 31.84 30.34 27.91 27.54 27.11 27.18 26.30 25.61 25.25 24.74 22.56 25.97 28.22 28.07 27.65 27.04
38.45 37.60 37.86 38.42 36.07 35.05 34.46 34.94 35.11 32.55 30.98 29.63 30.98 31.38 29.84 29.28 28.75 27.99 27.74 28.67 29.10 28.75 27.55 27.40 27.02 26.95 28.84 29.39 28.92 28.14 27.69 27.80 27.02 26.36 26.33 26.10 25.36 25.02 24.99 23.72 22.43 23.47 26.14 25.63
34.64 35.53 37.46 36.69 33.45 31.35 31.89 31.24 28.88 27.00 26.21 25.88 26.58 26.26 26.06 25.02 25.12 26.00 27.02 27.37 27.10 26.55 26.83 27.34 26.75 26.84 28.61 28.79 28.02 27.49 27.08 26.59 26.54 26.35 26.58 26.40 26.36 25.99 25.77 24.69 23.21 22.32 22.91 22.71
32.15 34.55 34.58 33.82 29.76 28.74 28.16 27.37 26.03 24.78 25.24 24.52 24.05 23.60 23.54 23.64 23.29 23.07 23.54 24.18 22.99 22.20 23.44 23.31 23.91 25.71 27.12 26.98 26.11 25.38 25.01 24.92 24.83 24.21 23.77 23.59 23.60 23.02 22.61 22.13 21.83 21.49 20.18 18.72
28.65 28.83 28.42 29.27 27.56 25.91 25.20 26.12 25.49 24.52 24.07 23.54 22.99 23.60 22.75 22.09 21.16 20.37 20.32 20.70 20.30 19.84 20.70 20.87 21.21 23.48 23.97 24.11 23.63 22.78 21.88 21.51 21.38 21.09 20.74 20.62 20.47 19.77 19.90 19.21 17.95 17.05 16.06 17.42
27.99 27.22 26.70 26.02 25.00 23.97 23.25 23.61 23.05 22.48 21.41 21.38 20.70 19.72 18.36 17.76 16.85 17.31 17.79 18.60 18.12 18.01 19.59 20.42 21.10 21.38 21.37 21.95 21.86 21.06 20.12 19.57 19.17 18.66 18.48 17.39 17.23 17.34 16.78 16.39 16.37 15.69 14.32 13.06
24.86 23.96 24.28 24.14 23.90 22.67 22.18 21.35 20.95 20.81 20.05 19.28 17.65 15.99 15.98 15.79 15.60 15.85 16.64 15.93 15.47 14.95 17.04 19.40 20.99 19.63 19.47 20.22 19.63 18.65 17.72 17.09 17.16 16.84 15.95 15.13 14.78 14.62 13.56 12.69 11.68 11.36 11.07 10.50
21.94 22.37 22.09 21.13 21.47 20.89 19.62 19.97 20.21 19.31 19.27 18.21 16.86 15.70 14.42 14.55 15.07 14.48 14.35 12.56 14.45 16.23 18.28 18.39 17.86 17.09 17.09 17.46 17.92 16.71 15.93 15.29 14.46 13.42 12.80 11.36 9.60 8.48 9.13 8.45 7.75 4.52 0.37 -0.14
19.75 20.01 19.55 18.77 18.14 19.03 19.43 19.63 18.70 17.16 16.92 16.27 14.59 13.29 12.93 13.69 14.56 14.67 12.63 11.02 14.47 16.45 16.00 15.39 15.32 14.83 14.85 14.82 14.32 12.98 12.10 10.57 9.22 7.89 6.74 5.03 3.00 1.51 -2.13 -6.08 -6.80 -9.52 -10.43 -9.70
19.26 18.81 18.34 18.29 17.64 17.26 18.19 18.17 17.68 17.15 16.81 16.45 15.76 14.84 13.52 12.58 12.46 12.36 13.21 12.39 13.87 13.50 13.01 12.21 11.68 11.19 11.26 11.63 10.35 8.62 7.54 5.90 3.72 2.31 -0.78 -3.06 -7.00 -10.43 -14.96 -15.87 -15.50 -16.05 -16.41 -13.69
19.45 19.18 18.64 17.58 16.69 16.42 17.20 16.65 15.96 15.53 14.66 14.51 13.26 13.10 13.02 13.37 13.30 10.63 8.63 12.62 11.86 9.97 9.34 7.12 5.53 4.54 3.13 2.96 0.90 -1.01 -1.71 -3.11 -4.49 -7.18 -11.51 -14.96 -18.22 -19.49 -17.86 -17.50 -18.59 -18.77 -18.04 -15.14
18.27 19.01 18.74 18.88 18.41 16.56 14.48 15.39 15.80 15.54 14.78 14.54 12.51 12.42 12.16 9.51 9.53 11.41 9.64 6.39 3.54 2.27 1.66 -0.35 -1.11 -2.28 -4.27 -5.39 -6.46 -8.43 -10.61 -12.78 -15.50 -18.40 -16.59 -19.67 -24.57 -23.84 -22.75 -22.39 -18.59 -21.67 -21.49 -20.58
16.23 15.89 16.12 15.67 15.22 14.36 14.67 14.06 12.91 12.61 12.01 11.42 11.70 12.36 12.30 12.05 7.56 8.14 6.83 5.24 5.99 1.39 -3.22 -6.62 -6.44 -9.16 -12.42 -15.50 -16.23 -16.77 -17.68 -19.13 -21.12 -21.49 -22.39 -23.12 -23.84 -23.66 -24.21 -24.02 -24.21 -24.02 -24.93 -25.84
13.91 12.54 12.14 12.40 12.15 12.04 11.54 10.57 7.90 8.59 9.51 6.72 5.98 5.41 5.61 6.74 6.00 4.25 1.11 -0.99 -1.08 -5.25 -8.63 -16.05 -17.86 -17.86 -18.77 -17.32 -20.76 -20.22 -18.59 -16.06 -18.77 -19.49 -22.75 -22.75 -22.75 -21.12 -22.94 -22.39 -25.47 -25.84 -27.47 -27.83
10.21 10.78 10.32 9.03 8.37 7.55 7.02 6.14 3.93 0.42 -3.91 -5.00 -1.08 1.77 2.38 -0.92 -3.92 -3.14 -10.61 -11.88 -13.87 -16.23 -19.85 -20.22 -19.85 -16.95 -18.59 -19.49 -18.22 -19.31 -18.77 -19.49 -20.76 -20.04 -25.84 -24.75 -24.21 -25.84 -26.38 -27.11 -28.92 -29.46 -30.19 -30.01

GFSNGP_sfc_wetblb_051.txt.gz
Wetbulb
37.50 38.35 38.33 37.43 36.51 36.93 35.37 36.57 33.14 36.57 37.88 41.82 44.31 45.92 47.27 48.69 49.20 49.05 49.79 50.22 49.22 50.28 52.66 54.47 55.71 56.48 57.13 57.06 56.38 55.90 54.65 54.57 54.58 55.43 55.95 56.35 56.94 57.45 57.51 57.49 57.76 58.34 58.40 58.55
33.59 37.99 37.65 34.64 36.53 37.09 37.11 37.57 37.75 38.47 37.93 44.89 46.73 46.54 45.59 46.70 48.09 48.07 49.40 50.45 50.49 49.60 50.84 52.18 53.64 55.52 56.61 57.21 57.36 56.64 55.76 54.92 55.60 55.95 55.85 56.31 56.57 56.92 57.64 57.74 57.72 58.19 58.03 57.89
28.96 33.70 33.47 29.57 34.24 36.06 37.43 39.35 39.00 34.91 39.92 44.29 43.82 45.11 46.90 47.57 48.05 48.41 49.44 50.17 50.50 50.63 50.39 51.58 52.68 54.15 55.95 56.89 57.65 56.98 56.36 56.39 56.44 56.77 56.45 56.90 57.00 56.80 57.21 57.81 58.36 58.28 57.96 57.05
29.20 30.64 22.64 34.09 38.87 38.94 37.45 39.10 40.75 40.81 42.15 43.15 44.12 47.23 48.59 49.53 48.02 48.54 49.68 50.25 51.00 51.43 51.78 52.57 53.72 54.06 55.20 56.43 56.63 56.63 56.81 57.00 57.16 57.08 56.71 57.19 57.17 57.19 57.79 57.82 56.87 55.20 53.03 51.02
27.81 27.56 31.28 34.18 36.75 36.49 35.34 35.80 40.88 41.21 43.90 45.18 46.26 46.72 47.21 48.44 48.23 49.01 49.46 50.12 51.42 52.87 52.55 52.75 52.44 54.00 53.62 54.17 54.78 55.63 56.07 56.60 57.02 57.38 57.15 57.05 56.46 52.60 49.35 48.29 46.37 45.28 45.27 45.05
30.17 24.99 22.23 32.18 40.02 44.31 42.78 32.39 43.58 43.84 43.51 43.58 45.13 40.08 44.82 49.68 49.74 49.81 50.68 51.30 50.34 50.72 50.75 50.83 52.28 54.38 54.35 54.40 54.31 53.88 54.91 55.85 56.53 56.58 53.56 51.76 48.36 45.90 43.39 42.50 39.95 38.87 37.45 38.61
30.37 27.92 31.05 37.80 40.32 43.20 31.43 34.62 43.14 44.44 44.87 44.39 43.04 44.93 47.17 49.06 49.16 50.28 48.92 49.29 49.55 49.76 49.77 51.76 52.93 54.28 54.02 55.23 55.01 53.33 52.68 52.39 52.01 51.62 48.50 44.79 42.30 41.56 39.43 36.87 35.09 33.42 32.19 32.54
31.20 28.11 25.09 40.06 42.78 36.79 41.18 45.02 45.05 45.29 46.10 45.66 46.21 46.26 47.34 48.40 48.87 48.11 47.25 48.17 50.33 50.94 50.73 50.71 52.92 53.15 52.79 49.79 48.40 48.04 46.88 45.29 44.07 43.43 43.86 42.01 39.64 37.83 36.41 34.58 32.18 30.72 29.59 28.54
33.49 33.52 39.75 42.15 43.01 46.33 45.27 44.46 45.56 45.70 46.92 47.13 45.99 45.95 46.91 47.79 48.20 46.24 46.07 46.46 47.31 47.98 47.70 48.76 50.03 48.62 45.08 44.52 45.60 44.25 42.56 41.53 42.22 41.84 39.45 39.10 36.76 35.22 33.94 33.60 31.94 30.66 29.24 27.17
33.97 38.19 39.83 41.76 42.97 43.36 43.04 43.84 44.87 46.42 47.45 47.39 46.46 46.45 46.17 46.70 46.23 44.75 45.16 44.60 45.43 45.33 44.38 43.17 45.19 46.48 45.55 44.69 43.76 41.53 38.62 37.19 36.60 35.37 34.67 35.19 35.27 34.55 33.33 32.39 31.45 30.28 29.22 26.66
35.54 38.76 40.07 42.03 42.22 40.39 41.08 41.83 41.65 42.36 44.77 40.40 41.11 41.42 43.36 44.36 41.17 41.31 41.81 41.55 41.84 40.62 39.42 39.48 40.06 40.38 41.41 41.43 40.15 36.81 34.88 34.03 33.35 32.45 31.13 30.20 30.40 31.55 31.65 32.82 34.50 33.04 30.44 28.54
33.78 36.89 36.52 37.93 41.68 39.84 38.16 37.72 38.44 37.36 38.05 36.09 35.85 35.90 37.81 34.31 34.93 33.94 34.66 36.11 35.45 34.92 35.00 34.73 35.74 35.24 35.85 37.19 36.98 35.95 34.27 33.72 33.09 32.51 31.89 30.77 29.05 27.81 30.19 29.81 29.26 28.66 27.81 26.83
36.51 38.20 38.84 40.04 40.70 36.22 35.10 34.85 35.87 33.57 32.40 31.08 32.50 32.09 32.21 30.40 30.29 30.72 30.55 30.65 29.84 28.86 29.26 29.84 31.39 30.57 31.58 32.28 33.28 32.17 31.09 30.62 29.96 30.00 29.41 27.95 26.95 25.73 24.05 26.89 28.62 28.45 28.19 27.94
37.68 36.91 38.28 38.12 35.00 34.24 33.52 33.21 32.53 30.65 29.47 28.56 29.33 29.69 29.05 28.25 28.56 27.87 27.20 28.14 28.65 28.31 28.07 28.07 28.20 28.31 29.77 30.12 29.77 28.48 28.12 28.38 28.09 27.39 27.14 26.68 26.31 26.19 26.56 25.58 24.89 25.37 27.19 26.87
32.43 34.34 34.64 36.84 33.12 30.72 31.40 30.96 28.55 26.93 26.82 25.98 26.37 26.14 26.00 24.43 23.98 24.25 25.59 25.77 25.38 25.11 25.34 25.71 25.71 26.10 28.15 28.92 27.89 28.05 27.42 26.77 27.08 27.14 27.49 28.15 28.36 27.77 26.74 25.86 24.51 23.08 22.77 22.72
29.98 32.42 33.40 31.82 28.88 27.65 28.01 27.75 26.47 25.19 25.38 25.07 24.02 23.26 22.77 22.29 21.76 21.69 22.28 22.49 21.23 20.56 22.12 22.07 22.52 24.30 25.88 25.60 25.28 25.20 24.77 24.72 25.16 25.78 25.27 24.55 24.92 24.96 24.46 24.00 23.54 22.26 21.00 20.30
26.87 27.77 26.75 26.90 25.84 24.84 24.56 25.14 24.68 23.96 22.98 22.10 21.68 21.76 20.73 19.75 19.18 18.94 19.41 20.09 19.65 19.42 20.06 20.20 20.50 22.58 23.26 23.83 23.57 23.41 23.70 22.70 22.14 21.83 21.51 21.72 21.73 21.02 20.85 20.13 19.50 18.79 17.81 18.22
26.78 25.88 25.76 25.74 24.58 23.27 22.38 22.44 21.99 20.92 19.74 19.94 19.78 18.89 17.76 16.86 15.60 16.55 17.82 19.09 18.24 17.55 19.04 20.59 21.24 21.44 21.30 22.12 22.37 22.10 21.75 20.75 20.25 19.70 19.76 19.75 19.73 19.52 19.19 18.60 17.65 15.91 15.33 14.66
24.02 23.54 24.06 23.74 23.46 22.68 21.83 20.53 19.83 19.20 18.62 18.05 16.72 15.27 15.40 15.40 15.76 16.20 17.05 16.37 15.67 15.06 16.51 19.05 20.13 19.52 19.96 20.25 20.72 20.79 20.02 18.93 18.43 17.69 17.24 16.36 16.54 16.27 15.60 14.83 13.91 13.83 13.53 12.66
21.16 21.54 21.07 20.57 21.09 20.34 18.74 19.18 18.67 17.48 17.99 17.18 16.29 15.30 14.44 14.93 15.61 15.18 14.73 12.75 13.91 15.19 16.76 17.22 17.12 16.98 16.70 16.58 17.48 17.57 17.30 16.57 14.97 14.16 13.76 13.41 13.11 12.74 11.78 10.25 10.88 10.98 10.99 10.34
19.67 19.60 18.62 17.90 17.48 18.37 18.56 18.19 16.98 15.36 15.68 15.40 13.55 12.61 12.62 13.70 14.64 15.15 13.26 10.89 13.10 14.39 14.23 13.77 14.47 14.25 14.34 14.77 14.56 14.27 13.47 12.44 11.43 10.91 10.36 9.87 9.31 8.57 8.30 8.49 8.17 7.91 7.75 7.51
18.94 17.81 17.11 16.91 16.15 15.86 16.96 17.50 17.21 16.51 16.15 15.61 15.29 14.72 13.90 13.18 12.23 10.87 11.34 10.52 11.32 11.44 11.89 11.63 11.14 8.59 10.29 11.22 11.59 10.85 9.96 9.26 9.09 8.89 7.98 7.77 7.12 6.03 5.30 5.27 4.85 4.78 4.91 4.87
18.94 18.36 17.65 16.38 15.64 15.71 16.32 15.78 15.29 14.83 13.25 12.74 11.99 11.92 11.40 11.65 12.54 10.11 7.43 10.50 10.85 9.48 9.75 8.23 5.83 4.88 5.78 8.50 8.23 7.42 6.30 5.90 5.54 4.84 4.87 4.57 4.52 4.20 3.83 3.35 2.87 3.04 2.61 2.32
18.47 18.30 17.62 18.18 17.58 15.93 13.81 15.23 15.54 14.99 14.09 13.41 12.30 12.47 12.22 9.81 10.22 11.02 9.92 6.96 5.46 5.82 5.65 4.79 3.09 1.52 3.77 5.69 5.01 4.39 4.77 4.38 3.96 4.11 2.85 -0.86 1.89 1.62 1.67 0.76 0.95 1.30 0.42 -0.79
16.39 16.14 15.97 15.58 14.71 13.95 13.86 13.79 13.15 12.35 11.49 10.92 11.30 11.51 11.56 11.39 9.38 8.54 8.17 6.58 5.79 4.99 4.14 -1.37 -2.18 -1.49 3.56 4.30 3.88 2.94 2.99 3.05 2.06 2.52 1.62 1.17 0.31 -0.41 0.20 -0.24 -1.61 -1.56 -2.29 -2.81
14.11 12.88 12.63 12.74 12.67 12.42 12.03 11.85 10.23 10.72 10.62 8.36 7.75 8.14 7.88 7.83 7.02 6.80 4.75 3.49 3.20 1.07 1.56 1.15 0.01 1.66 2.16 1.83 1.24 0.87 1.99 2.20 2.05 0.79 -0.43 -0.64 -0.68 -0.66 -2.02 -2.99 -4.20 -4.73 -5.53 -6.38
11.15 11.71 11.48 10.08 9.33 9.01 8.95 8.43 8.00 5.77 4.87 6.09 5.13 6.62 5.25 4.70 3.49 3.67 -0.29 2.24 1.80 0.78 0.59 0.18 0.27 -0.53 1.41 2.07 1.80 1.11 1.21 0.73 -4.70 -0.54 -1.63 -1.38 -2.52 -3.25 -5.53 -6.41 -6.73 -7.08 -7.80 -8.68

GFSNGP_sfc_wetblb_054.txt.gz
Wetbulb
38.77 39.25 39.30 39.18 39.77 40.04 38.66 39.78 36.55 39.88 40.11 43.73 45.69 46.49 49.29 51.16 51.60 52.00 52.63 53.39 54.69 55.30 56.47 58.35 60.05 60.80 61.13 61.21 61.14 60.94 60.09 59.58 59.85 60.74 60.08 59.91 59.62 59.64 59.73 59.81 59.54 59.43 59.70 59.65
34.76 37.96 38.80 36.96 39.30 39.84 40.08 39.92 40.11 41.19 41.46 47.25 47.58 48.45 47.66 48.27 49.45 50.58 52.00 53.17 54.26 55.30 55.68 55.47 57.49 59.71 60.66 60.98 60.85 60.68 59.71 59.55 60.07 59.87 59.74 59.59 59.44 59.65 59.32 59.39 59.33 59.58 59.28 59.37
30.91 36.55 36.30 32.01 37.42 39.36 40.82 42.79 41.62 38.02 42.44 45.15 44.75 45.78 47.16 47.92 49.67 50.78 51.93 52.54 53.38 54.11 55.39 56.18 56.53 57.76 59.02 60.62 61.78 60.66 59.69 59.65 59.70 59.66 58.98 59.20 59.45 59.05 58.90 59.34 59.94 59.37 59.32 59.41
32.80 33.89 24.92 37.32 42.01 41.27 40.11 41.52 42.75 42.26 43.09 45.48 46.85 49.16 50.43 51.91 51.44 51.01 51.64 52.74 54.37 55.40 55.56 56.50 57.45 57.30 58.80 59.87 60.74 60.86 59.81 59.40 59.37 59.17 58.85 59.21 59.00 58.54 58.83 59.36 59.46 59.72 58.77 58.97
30.51 31.05 34.95 36.91 39.15 39.08 38.34 37.82 43.18 43.33 44.80 46.37 47.51 48.80 49.01 52.44 52.06 51.99 52.62 53.43 54.15 55.57 56.56 57.03 56.29 56.76 56.11 58.10 59.69 60.23 59.94 59.69 59.98 59.94 58.87 59.25 58.80 59.21 59.69 58.79 58.21 54.87 53.59 52.49
32.65 26.87 24.40 36.60 41.95 44.98 44.35 34.95 45.18 45.25 45.49 45.89 47.35 42.54 46.21 50.89 52.13 53.01 53.75 53.84 53.11 53.77 54.99 55.33 55.81 56.22 55.76 55.75 56.91 58.16 59.27 59.71 60.53 60.22 59.76 59.51 59.60 59.02 52.89 49.47 42.19 40.29 38.36 39.36
31.16 30.43 33.66 41.12 42.81 44.57 34.53 37.22 45.67 46.11 46.40 46.30 45.28 47.93 50.23 51.47 51.91 53.22 52.56 52.34 52.67 53.21 53.98 55.53 55.94 56.03 55.17 55.92 55.55 57.59 58.34 58.45 59.17 59.93 59.06 56.22 51.38 46.30 41.72 38.28 36.27 34.45 33.24 33.93
32.72 28.71 27.03 43.62 42.45 37.67 44.56 47.04 46.56 47.12 47.35 47.37 49.34 49.58 50.11 50.64 50.82 51.42 50.75 50.64 51.54 51.47 52.32 54.13 55.18 56.06 55.85 55.72 55.33 55.61 54.47 52.13 50.14 48.57 46.28 44.97 42.09 40.09 39.78 36.45 34.36 32.33 31.04 29.98
36.08 35.97 43.20 45.62 45.68 46.98 47.28 46.14 46.95 47.11 48.15 49.44 49.41 49.25 48.49 48.70 49.32 48.71 48.83 48.69 48.16 47.64 47.57 47.06 49.40 53.70 53.60 49.68 49.27 47.64 45.57 43.64 42.04 41.21 40.44 40.28 40.90 38.73 35.46 34.67 32.85 31.05 29.19 27.63
38.42 41.38 43.00 44.55 46.55 46.18 46.22 45.79 46.20 46.47 47.14 48.16 47.70 48.82 47.61 47.80 45.81 44.75 42.02 43.75 41.72 41.06 40.23 39.12 40.24 41.74 45.26 45.05 44.42 41.57 39.31 38.27 37.79 37.25 37.38 37.57 36.60 35.86 34.27 32.79 31.53 29.97 28.41 26.65
38.86 41.60 43.26 44.47 44.98 44.71 44.09 45.11 44.24 44.83 43.94 43.81 42.68 44.47 42.38 43.00 40.40 38.65 34.80 34.97 36.20 35.15 34.67 35.53 37.19 37.47 38.84 39.67 38.92 36.35 35.46 34.58 34.21 32.81 31.37 30.16 30.20 31.38 31.45 32.91 33.16 30.34 28.79 27.64
36.27 41.41 41.40 41.73 44.55 42.54 42.54 41.81 41.95 40.77 40.79 40.72 39.88 38.91 38.85 37.36 36.27 33.33 32.03 31.86 31.63 31.50 31.18 30.97 31.16 33.63 35.88 38.02 37.81 35.06 32.96 32.92 31.73 30.44 29.80 29.18 27.83 27.34 29.95 29.91 29.49 29.16 28.89 27.75
39.84 41.28 42.04 43.37 44.19 40.19 39.60 39.26 38.78 37.67 37.04 35.67 37.01 36.47 35.74 33.60 31.40 30.45 29.56 29.19 29.03 29.30 29.54 29.51 29.47 29.79 30.86 33.23 32.86 31.82 30.39 30.36 30.11 29.24 28.77 28.22 27.89 26.43 24.52 27.42 29.06 28.98 28.79 28.83
37.85 36.50 38.88 37.82 37.05 36.80 35.84 35.51 35.16 35.44 34.56 33.51 33.73 33.93 32.06 29.78 28.62 27.43 25.51 26.14 26.31 26.04 26.32 27.00 26.73 26.81 30.06 30.56 29.88 29.33 28.94 28.60 28.19 28.24 27.70 27.70 27.32 27.20 27.37 26.32 24.78 25.46 27.76 27.65
33.80 34.93 33.92 35.63 34.03 31.97 32.97 32.97 33.20 31.05 31.08 29.94 28.90 28.38 26.83 24.81 23.95 22.99 24.65 25.68 25.19 23.93 23.94 24.48 24.62 25.29 27.84 27.91 27.48 27.64 28.79 28.97 29.05 29.23 29.46 29.57 29.47 28.35 27.82 26.17 24.32 23.31 23.12 23.68
32.47 34.72 33.71 31.59 29.54 28.32 29.00 28.30 29.10 26.47 26.04 25.54 24.43 23.80 22.33 22.44 22.41 21.47 21.41 21.73 20.11 19.41 21.16 21.28 21.87 23.63 26.47 27.66 27.33 27.11 27.15 26.77 27.33 26.77 26.63 26.97 27.48 26.27 25.35 24.21 23.43 22.83 22.34 22.90
29.20 30.57 29.43 28.84 27.75 25.37 24.67 25.12 23.98 22.92 22.52 22.02 21.93 22.73 22.55 21.34 20.48 19.57 19.91 19.93 19.65 20.65 22.12 22.08 22.03 24.86 26.43 27.29 27.38 26.05 25.71 25.13 25.31 25.81 25.37 25.39 25.35 24.90 24.20 23.20 21.25 19.87 19.05 19.92
27.44 27.39 27.56 27.33 26.86 24.89 23.49 23.38 22.61 21.91 20.77 21.02 20.38 19.84 18.77 18.77 18.29 18.94 19.40 19.92 19.44 18.31 19.84 21.76 23.30 23.76 24.91 26.02 26.51 26.19 25.10 24.03 23.89 23.26 23.24 23.19 22.66 22.78 22.14 21.30 20.50 19.18 18.24 17.72
25.92 25.50 25.53 25.24 25.12 23.90 22.69 21.19 20.42 20.35 20.17 19.87 18.54 17.31 17.58 17.19 17.19 17.25 17.94 17.62 17.30 16.91 18.01 20.24 21.00 21.15 21.45 23.01 24.20 24.13 23.45 22.69 22.08 21.32 21.10 20.31 20.22 20.01 19.61 19.17 18.50 18.03 17.86 16.99
22.71 22.73 22.49 22.08 22.33 21.05 19.49 19.97 19.84 18.69 19.24 18.67 18.02 17.41 16.62 16.89 17.01 16.39 15.86 14.06 14.60 15.62 17.22 18.64 19.19 19.06 19.07 19.41 20.78 21.31 20.86 19.84 18.66 18.28 18.82 18.81 18.75 17.64 16.29 14.71 16.17 16.40 16.22 15.29
20.27 20.02 19.10 18.82 18.81 19.35 18.80 18.99 17.75 16.52 17.19 17.31 15.78 14.45 13.67 13.80 15.26 16.42 15.36 12.94 13.50 15.35 15.99 15.22 16.27 17.38 17.53 18.69 19.08 19.01 18.38 17.60 16.80 16.39 16.09 15.57 15.20 14.74 14.56 14.57 14.07 14.13 13.67 13.29
19.68 18.57 18.05 18.02 17.45 17.23 18.06 18.08 17.66 16.96 16.55 16.18 16.40 16.02 14.79 13.70 12.84 12.20 12.31 12.86 14.11 13.04 14.03 13.60 13.09 11.61 14.46 14.87 16.05 15.54 14.89 14.71 14.78 14.55 13.67 13.65 13.24 12.63 12.02 11.91 11.29 11.44 11.55 11.55
19.63 18.86 18.20 17.49 17.19 17.46 17.39 16.67 16.37 16.09 14.92 14.53 13.83 14.17 14.29 14.86 15.80 13.97 11.13 13.21 14.20 12.15 12.78 10.96 9.11 10.01 11.00 13.59 13.61 13.10 12.45 11.89 11.61 11.31 11.05 10.82 11.30 10.79 10.21 9.52 9.65 9.45 9.14 8.54
19.95 19.78 19.40 19.82 19.64 18.27 16.66 17.42 17.35 16.40 15.00 14.73 14.09 14.83 16.06 14.80 14.08 14.88 13.80 10.34 9.04 9.71 9.08 8.70 8.31 8.65 10.46 12.37 11.69 11.32 11.59 11.11 10.57 10.41 9.22 7.26 9.60 8.65 8.45 7.46 7.19 8.44 7.08 5.82
19.28 19.44 19.62 19.14 18.27 17.35 17.02 16.70 15.99 15.38 14.83 14.66 14.37 14.38 14.23 15.08 13.32 12.73 12.50 10.54 8.60 10.29 9.95 5.80 6.05 7.69 11.15 10.68 9.80 9.40 9.56 8.60 8.28 9.33 8.81 8.19 7.67 7.16 7.64 7.09 5.42 4.95 4.10 4.23
17.98 17.08 16.90 16.94 17.16 17.54 17.64 17.50 16.16 16.20 15.48 13.30 13.40 13.82 13.65 13.52 12.91 12.48 10.60 8.85 8.96 8.23 9.28 9.12 7.86 9.86 9.74 8.96 8.66 7.79 8.55 8.55 8.53 7.36 6.55 7.05 6.19 6.14 4.70 3.63 3.04 3.06 2.61 1.94
17.06 16.91 16.98 16.00 16.03 15.48 15.75 15.68 15.27 13.50 14.09 13.77 11.91 12.52 12.40 12.45 10.97 10.83 8.99 10.14 9.81 9.00 8.80 8.88 8.91 7.36 8.05 8.46 8.00 7.95 8.08 8.13 2.02 5.46 6.09 5.62 4.57 4.63 2.58 1.58 1.95 1.45 0.76 -0.26

GFSNGP_sfc_wetblb_057.txt.gz
Wetbulb
40.79 41.75 41.78 41.99 42.20 42.42 41.40 42.63 38.97 41.62 42.58 45.83 47.61 48.45 49.18 50.17 49.98 50.19 51.88 53.94 54.85 55.84 56.87 57.80 59.96 62.05 62.69 63.08 63.81 63.63 62.76 61.90 62.01 62.58 63.00 62.78 62.94 63.12 63.22 62.97 62.53 62.47 62.11 62.16
37.25 40.30 39.91 38.92 41.51 42.39 42.48 42.29 41.90 42.79 42.28 48.05 49.55 49.67 48.40 48.82 48.49 48.83 50.28 52.72 54.33 55.63 56.40 56.54 57.52 58.56 61.53 62.46 63.46 63.96 62.94 63.02 63.18 63.01 62.01 62.43 62.46 62.67 62.64 62.39 62.42 62.22 61.39 61.35
30.97 38.12 37.81 33.62 39.05 41.15 42.32 44.04 43.48 40.37 44.72 46.78 46.00 45.90 47.20 48.82 49.80 50.19 51.71 52.66 53.52 55.05 56.05 56.84 57.71 58.82 58.64 61.20 63.06 62.96 63.16 63.06 62.85 63.19 62.33 62.37 62.48 61.95 61.74 61.64 62.06 61.31 61.20 61.13
33.01 35.06 25.44 39.26 43.71 43.29 42.50 43.57 45.14 44.02 44.24 45.53 46.72 48.39 49.57 50.43 52.06 51.80 52.40 53.41 54.25 55.14 55.50 56.36 57.34 58.08 59.23 59.04 60.35 61.94 62.03 62.15 62.55 62.60 62.23 62.26 61.96 61.54 61.41 61.47 61.07 61.24 61.03 61.25
31.42 32.13 36.71 38.74 40.81 40.65 39.58 39.82 43.67 43.23 45.19 46.50 48.18 48.88 49.07 52.22 52.32 52.52 53.44 53.85 54.25 54.96 55.20 55.84 56.43 57.88 58.03 57.80 58.18 59.31 61.12 62.02 62.08 62.29 61.67 61.77 61.35 61.15 61.47 61.29 61.08 60.68 60.73 60.32
34.22 28.54 26.73 37.73 43.30 45.87 44.43 36.04 46.09 46.21 46.06 46.16 47.43 42.92 47.03 51.65 52.57 52.94 53.53 53.89 53.05 53.65 54.53 55.11 55.73 56.99 57.59 57.06 56.96 57.13 60.00 61.91 62.56 61.98 61.54 60.96 61.20 61.13 61.24 60.73 57.28 47.06 41.41 40.96
32.40 30.70 34.95 41.94 44.51 44.72 34.80 37.87 46.50 46.51 46.83 46.78 45.13 46.87 50.62 52.07 52.39 53.08 52.99 52.37 52.63 51.71 51.00 50.41 50.21 51.07 53.27 56.59 56.96 57.63 58.68 59.91 61.82 62.16 61.54 61.65 61.69 61.20 52.56 45.90 40.15 36.74 34.55 34.64
32.69 29.83 27.83 44.89 43.52 38.32 43.95 46.84 47.34 47.11 47.73 47.82 49.41 50.01 50.45 51.41 51.42 51.71 50.84 50.19 50.21 48.31 46.89 45.22 42.92 43.41 45.91 52.47 56.34 58.15 58.81 58.65 54.85 54.56 52.88 50.99 47.31 44.23 42.18 38.53 34.92 33.08 32.13 31.77
36.22 36.30 44.28 46.43 46.59 47.75 48.05 46.64 47.07 47.21 47.99 48.43 48.13 48.66 50.25 50.58 50.98 49.24 48.30 46.88 46.17 44.96 42.10 39.06 36.65 38.46 39.55 43.26 47.86 49.52 50.03 46.82 43.83 42.78 42.65 42.06 40.36 38.52 36.53 35.64 33.77 32.36 30.71 28.53
38.06 42.53 43.15 45.01 47.71 48.03 47.67 46.95 47.43 47.56 47.20 47.07 46.52 47.46 47.49 46.79 46.80 45.33 44.26 42.73 41.91 39.99 37.98 33.57 33.10 34.00 35.41 39.68 41.12 40.50 38.72 38.25 37.23 36.30 35.87 36.15 36.27 36.70 35.41 33.62 32.82 31.19 28.82 26.87
39.43 42.71 44.06 45.53 47.09 46.40 46.15 47.00 46.27 46.59 46.29 45.72 44.57 44.48 44.37 44.17 41.48 39.52 38.13 36.85 37.68 34.88 34.71 30.94 31.34 31.83 33.03 36.28 37.04 34.81 33.66 32.86 31.64 31.16 30.24 29.20 29.66 31.12 30.85 31.80 31.58 29.36 27.98 27.35
37.65 43.54 43.85 44.43 45.69 45.72 43.94 43.86 43.99 43.22 42.84 42.82 42.60 40.86 41.06 39.03 35.63 32.92 32.66 31.12 31.04 29.42 30.58 28.78 29.02 30.16 31.35 33.16 33.48 32.97 31.03 30.56 29.94 28.86 28.57 27.98 27.08 26.79 30.03 29.75 29.85 29.30 28.82 27.67
41.55 42.92 43.26 44.47 45.39 43.64 42.09 41.32 40.43 39.90 39.09 38.12 39.52 38.77 36.49 32.93 31.03 29.62 29.28 28.03 27.18 26.44 26.76 27.53 27.49 26.80 29.69 31.23 31.59 31.36 30.53 30.21 28.64 28.72 27.87 27.04 26.15 24.77 23.30 27.13 29.23 29.57 29.59 29.04
40.71 40.43 40.53 40.10 38.99 38.99 39.10 38.99 38.88 37.86 36.65 34.97 34.17 33.61 31.45 28.38 27.35 26.16 25.73 25.31 25.48 24.50 25.16 25.90 26.19 26.25 28.49 29.86 30.10 29.71 29.69 29.45 28.56 28.42 28.27 28.04 27.30 26.29 25.66 24.47 22.75 23.24 27.27 27.37
37.64 38.54 38.36 38.71 36.39 34.41 34.97 34.62 33.89 31.21 30.02 28.66 27.82 26.41 25.59 24.15 22.78 22.76 24.31 24.77 24.36 23.74 23.82 24.52 24.75 25.77 28.32 29.36 27.77 28.40 28.68 29.24 29.97 29.70 28.67 28.07 26.94 25.76 24.92 23.71 23.00 23.05 23.63 24.09
35.29 37.61 36.01 33.58 32.81 32.86 32.41 31.65 30.13 27.28 26.90 25.38 23.77 22.99 22.57 22.53 21.84 21.84 22.25 22.28 21.20 20.58 22.65 22.94 24.10 26.73 28.99 28.86 28.29 27.60 27.75 28.10 28.14 27.52 27.66 27.55 26.79 25.58 24.26 23.77 23.53 23.40 23.02 24.21
30.98 32.37 30.14 30.94 29.79 28.56 27.72 27.62 26.79 25.41 24.36 23.38 23.52 24.42 23.95 22.91 22.15 21.65 21.75 21.44 20.64 20.99 21.65 21.80 22.63 25.27 27.38 28.60 27.88 28.00 27.16 27.08 26.74 27.47 27.75 27.08 26.42 24.86 23.38 22.12 20.44 19.40 19.71 21.50
28.90 28.50 28.24 28.67 29.04 27.50 25.31 25.15 24.53 23.88 22.54 22.61 22.32 21.31 20.08 19.40 19.14 19.56 20.18 20.86 19.99 19.37 20.26 21.29 22.07 23.12 24.22 26.30 26.80 26.38 25.49 24.80 24.52 24.55 24.58 24.26 23.79 23.56 22.72 21.46 20.27 18.79 18.43 19.13
26.97 26.05 26.24 26.37 26.13 24.87 23.64 22.61 21.94 21.85 21.42 20.97 19.65 18.07 18.22 18.35 18.11 17.80 17.93 17.48 17.26 16.16 17.51 20.91 21.53 21.34 21.73 23.19 24.20 23.89 23.69 22.94 22.84 22.08 21.98 21.18 21.35 21.06 20.35 20.19 19.37 19.25 18.65 17.67
23.35 23.69 23.36 22.58 22.95 21.73 20.34 21.16 21.35 20.46 20.97 20.41 19.34 18.24 17.21 17.82 19.13 18.04 16.65 14.07 14.94 15.83 16.79 17.76 19.82 19.56 20.20 20.66 22.00 21.68 21.55 20.82 19.28 19.15 19.85 20.33 19.93 18.93 17.70 16.89 17.85 17.33 16.88 16.27
21.38 21.28 20.62 20.07 19.78 20.15 19.90 19.96 19.04 17.69 17.99 17.91 15.98 14.71 14.19 14.31 14.33 17.66 17.01 14.32 14.54 16.35 16.61 15.70 15.88 18.43 19.15 20.01 20.46 20.29 19.84 19.04 18.59 18.11 18.02 17.83 17.48 16.72 16.53 16.54 16.20 16.33 15.76 15.29
21.02 19.66 19.20 19.12 18.52 18.25 19.13 19.17 18.78 18.03 18.06 18.06 18.12 18.06 17.52 16.75 15.50 13.97 14.12 14.84 15.45 14.60 15.34 14.67 14.83 13.82 16.40 17.24 18.10 17.47 16.81 16.65 16.58 16.69 16.37 16.23 15.60 14.80 14.32 14.58 13.96 13.98 13.76 13.77
20.99 20.30 20.02 19.05 18.25 18.19 18.38 18.18 17.99 17.48 16.22 15.94 15.52 15.39 15.04 15.34 16.07 14.47 11.03 13.30 14.36 12.76 13.79 12.10 11.39 12.87 14.22 16.91 16.88 16.18 15.35 14.67 14.28 14.15 14.12 13.91 13.69 13.31 12.25 11.37 12.33 12.13 11.51 10.61
22.09 21.88 21.61 22.23 22.43 20.94 18.81 19.11 19.09 17.88 16.56 16.31 15.48 16.18 18.34 16.92 15.68 16.61 15.23 12.55 11.72 11.70 9.66 10.04 11.01 12.12 13.36 15.16 14.47 13.94 13.93 14.10 13.72 13.62 13.27 11.25 12.45 11.78 11.22 9.96 9.70 10.92 9.73 8.95
22.17 22.28 22.10 21.53 20.51 19.54 18.94 18.90 18.57 18.11 17.56 17.22 16.67 16.52 16.11 16.76 14.87 14.22 14.71 13.51 10.56 13.58 13.34 9.28 9.98 11.36 13.54 13.45 12.60 12.90 12.59 11.35 10.09 12.11 11.52 11.16 10.81 10.26 10.08 9.57 8.57 7.47 6.95 7.55
21.02 20.29 20.04 20.26 20.57 21.25 21.03 21.08 19.92 19.87 19.12 16.84 16.36 16.50 16.51 16.61 16.18 16.31 14.20 12.28 12.18 12.38 13.03 12.88 10.80 13.03 13.00 11.87 11.89 10.68 11.68 11.35 10.88 10.21 9.30 9.93 9.11 9.06 7.99 6.79 6.54 6.72 6.29 5.63
20.66 20.59 20.55 19.46 19.09 18.60 19.08 19.03 18.92 17.26 17.14 16.92 14.81 16.02 15.76 15.54 14.38 14.62 12.65 13.82 13.69 12.91 13.06 12.75 12.58 10.10 10.15 10.28 11.09 11.00 10.98 11.01 6.34 7.13 8.54 8.54 7.83 7.76 6.58 5.44 5.48 5.15 4.62 3.78

GFSNGP_sfc_wetblb_060.txt.gz
Wetbulb
39.53 40.95 40.60 40.58 40.37 41.65 40.25 40.22 36.84 40.23 41.44 44.26 46.50 47.73 49.36 49.89 49.34 48.90 49.82 52.13 53.53 54.12 55.05 56.22 56.68 57.40 60.75 62.22 62.99 62.09 60.74 60.54 59.83 60.70 61.10 61.18 60.68 60.59 60.72 60.57 61.08 60.72 60.29 59.72
35.73 40.64 40.65 38.49 41.30 40.87 40.74 42.54 42.19 42.37 40.44 47.82 48.94 49.06 48.19 48.23 48.52 49.17 50.70 51.65 52.84 54.03 54.94 55.00 55.49 55.88 56.81 58.55 62.20 63.23 61.67 60.94 61.27 60.60 60.86 60.84 60.77 60.82 61.10 60.68 60.76 60.90 60.25 59.90
31.32 37.51 37.66 33.77 38.53 40.65 40.80 43.06 42.49 38.56 43.51 46.61 46.09 46.35 46.79 48.19 49.05 50.52 51.05 51.99 52.32 52.88 53.69 54.41 54.81 55.81 55.78 56.95 57.96 60.65 62.09 61.95 61.79 61.46 60.68 60.41 60.75 60.54 60.24 60.06 60.38 59.74 59.63 59.67
30.79 33.97 25.94 38.35 43.74 43.35 41.99 43.16 44.52 44.70 45.25 45.49 46.26 47.90 48.78 51.07 50.13 49.94 50.54 51.44 51.88 51.81 52.34 53.91 55.15 55.35 55.46 56.90 57.76 57.35 59.06 61.51 62.17 61.82 61.41 61.07 60.41 59.86 59.77 59.97 59.47 59.21 58.97 58.85
30.07 30.20 34.44 38.15 40.73 40.02 39.44 39.69 44.49 43.06 44.66 46.38 47.89 47.88 48.60 51.14 51.46 51.06 51.24 51.47 50.93 51.61 51.53 52.07 50.75 49.96 50.23 52.12 54.61 56.20 57.14 57.04 61.23 61.78 61.18 61.04 60.20 59.72 59.85 59.31 59.07 58.68 58.80 58.05
32.57 27.28 25.31 37.56 42.90 45.59 44.06 35.37 45.43 46.24 45.70 45.45 46.27 41.96 44.29 50.57 51.40 51.37 51.77 50.81 49.27 49.42 49.76 48.33 45.99 45.40 45.94 48.13 49.92 52.48 54.21 57.38 58.08 60.10 61.12 60.45 60.10 59.59 59.54 59.30 58.13 53.94 42.20 40.81
30.73 29.22 34.14 41.22 43.79 44.94 33.62 36.26 45.75 46.32 46.03 45.82 43.94 45.95 48.85 51.28 51.22 51.63 50.78 48.90 47.50 46.96 45.85 43.89 41.16 40.63 41.41 42.75 44.08 44.48 48.33 53.40 51.99 52.73 58.65 60.13 59.52 58.87 58.21 49.12 40.09 36.42 34.37 34.04
31.62 28.62 26.76 43.63 43.57 37.68 43.20 45.60 45.60 45.89 46.95 46.57 47.13 47.63 48.28 49.57 49.56 48.30 46.87 45.93 44.36 43.00 42.23 41.08 38.49 37.45 37.00 37.32 39.54 41.95 44.85 48.86 46.50 45.49 47.19 47.65 46.98 43.86 42.63 39.71 35.96 33.56 32.04 31.09
34.78 33.94 44.33 46.48 45.66 47.17 47.37 45.38 44.67 45.51 46.25 46.22 46.06 45.87 47.01 46.09 45.66 44.14 42.39 40.82 40.28 38.82 38.48 36.87 36.01 35.67 33.99 35.24 38.54 38.90 39.15 38.89 38.78 38.80 38.80 40.31 40.48 38.70 36.86 35.60 33.68 31.72 30.23 28.68
37.29 40.97 42.36 45.34 46.90 46.81 46.72 45.60 45.73 45.45 45.30 45.30 43.55 44.56 43.90 43.91 40.23 38.11 36.90 34.27 34.82 33.30 32.54 31.19 32.64 32.53 33.15 34.16 36.24 34.97 33.33 32.67 32.13 30.91 31.35 33.31 35.79 36.60 35.33 33.11 31.20 29.97 29.41 27.29
38.99 41.35 41.65 42.80 44.59 44.63 44.73 44.43 43.23 44.15 43.18 41.96 41.96 41.14 40.54 36.89 35.06 33.55 32.20 31.27 30.93 29.28 29.22 28.74 29.88 29.84 32.14 32.75 33.59 31.90 30.93 30.44 29.83 29.34 28.89 28.32 28.58 29.09 28.87 30.06 30.90 29.11 27.38 27.68
36.47 41.15 41.56 40.24 42.27 43.90 41.92 40.96 40.86 40.15 39.43 39.92 39.13 37.32 36.74 32.40 31.17 29.94 28.36 28.21 27.11 26.58 26.59 27.19 28.31 29.14 30.69 31.71 32.04 30.51 28.86 28.57 28.23 27.63 27.44 27.45 26.96 26.95 30.21 30.03 30.09 29.96 29.53 28.60
38.75 41.07 42.54 42.53 41.17 41.01 40.14 39.71 39.87 38.36 36.37 34.57 34.21 33.91 32.17 28.92 27.89 27.26 26.18 25.58 25.39 25.31 26.02 27.07 27.62 27.62 28.97 30.79 31.09 30.03 28.85 29.01 27.93 27.21 26.62 25.81 25.11 24.44 22.89 26.40 29.02 29.31 29.19 29.23
39.57 40.09 40.63 38.74 36.08 37.25 37.54 38.11 38.23 34.96 32.81 30.34 29.94 29.45 28.24 26.26 25.29 24.49 23.91 24.54 24.81 24.67 24.82 25.83 26.36 26.84 29.04 29.11 28.91 29.20 29.00 28.63 27.82 26.89 26.32 25.29 24.63 23.72 23.31 21.99 20.83 22.56 26.84 27.18
36.38 38.89 37.30 37.63 36.59 35.26 35.70 35.45 31.89 29.87 28.78 27.16 26.71 25.33 24.46 22.22 21.66 21.41 22.86 24.38 24.45 23.31 22.87 23.24 24.28 26.05 28.54 28.97 27.51 27.39 27.37 27.30 27.75 27.23 26.67 25.93 25.14 24.40 23.56 22.70 21.62 21.67 22.20 22.65
34.55 37.02 36.02 33.87 33.13 32.05 31.28 30.74 28.95 26.91 26.01 25.54 24.00 23.43 23.02 22.57 21.61 21.30 21.34 21.33 19.70 19.09 20.60 20.93 21.79 24.85 27.55 27.56 26.87 26.51 25.82 26.06 27.16 26.37 25.19 24.24 23.38 21.75 20.60 20.06 19.89 20.49 21.24 21.11
29.70 28.51 29.42 29.70 29.77 27.64 26.65 26.94 26.15 24.59 24.15 24.19 24.45 24.88 23.58 22.19 21.04 20.18 20.07 20.11 19.48 19.20 20.16 19.97 20.46 22.83 25.60 26.61 26.17 25.10 24.42 24.50 24.82 24.51 23.99 23.65 22.28 20.60 19.82 18.91 18.14 18.46 18.56 19.69
28.72 28.02 27.50 27.40 27.30 25.46 23.87 23.60 23.09 22.55 21.16 20.86 20.57 19.80 18.26 17.25 16.30 17.09 18.04 18.30 17.57 16.08 18.30 19.66 21.05 21.54 22.96 24.18 24.56 24.71 23.77 22.83 22.24 21.51 21.70 21.23 20.93 21.01 20.33 19.35 18.45 17.55 17.25 17.24
26.56 25.35 25.48 25.34 24.91 23.51 22.21 21.08 21.01 20.85 20.48 20.27 18.95 17.79 17.82 17.05 16.31 15.50 15.97 14.77 14.04 12.75 14.02 18.27 20.69 20.59 20.65 21.94 22.78 21.90 20.86 20.29 20.26 20.61 19.49 17.83 16.96 18.45 18.57 17.83 17.00 16.25 15.90 15.10
22.58 22.65 22.17 21.45 22.04 21.13 19.99 20.46 20.39 19.24 19.40 18.68 17.65 15.54 14.02 14.82 18.25 16.10 14.56 12.50 13.77 14.73 16.14 15.79 18.52 18.27 19.15 19.75 20.42 20.06 19.39 19.06 18.31 17.36 16.81 16.63 16.70 16.24 15.94 15.37 15.66 15.05 14.44 13.76
20.59 20.48 19.70 19.32 18.60 18.98 19.07 19.29 17.86 16.58 17.24 17.48 15.63 14.16 13.58 13.82 13.50 15.11 14.90 11.64 13.40 15.56 15.30 15.24 14.88 16.66 17.88 17.88 17.55 17.46 17.08 16.58 16.18 16.09 15.72 15.18 14.58 14.15 13.99 13.84 13.17 12.95 12.49 12.15
20.29 19.41 18.80 18.40 17.99 18.08 19.06 18.93 18.40 17.63 17.06 16.85 16.83 17.69 17.00 14.82 13.34 11.89 11.56 12.44 13.18 13.14 13.01 13.20 13.98 13.32 15.74 16.24 16.43 15.55 14.81 14.41 14.01 14.04 13.19 13.20 12.74 11.70 11.23 11.32 10.90 10.91 10.34 10.38
20.97 20.18 19.38 18.73 18.17 17.75 18.42 18.06 17.58 17.54 16.35 15.96 15.73 15.36 14.80 14.37 14.16 11.39 8.57 12.03 12.09 10.90 11.57 11.24 10.94 12.32 13.26 14.77 14.69 14.36 13.68 12.78 12.24 11.46 12.00 11.15 10.59 10.32 9.17 7.75 9.70 9.14 7.79 6.66
22.25 21.81 21.36 21.61 21.84 20.28 18.05 18.36 18.16 17.11 16.18 16.13 14.46 14.10 16.80 15.65 14.54 14.90 13.12 11.25 11.07 9.35 8.92 9.81 9.52 10.73 12.28 13.45 13.34 11.89 10.19 9.79 11.61 11.26 11.41 8.65 9.93 9.81 9.49 6.06 6.92 7.27 5.41 4.96
22.24 22.40 22.39 21.88 19.96 18.40 18.63 18.83 18.53 18.35 17.93 16.89 16.52 16.51 15.85 15.38 13.47 12.59 13.70 12.71 9.98 12.84 12.44 6.89 8.98 10.40 12.23 11.98 10.38 10.63 11.39 9.55 8.41 8.95 9.32 8.87 8.27 7.97 7.13 6.23 4.59 3.70 3.40 3.72
21.36 20.34 20.03 20.39 20.68 21.04 20.93 20.95 19.38 18.89 18.65 16.13 15.75 16.38 16.41 16.27 15.67 15.39 13.65 11.90 12.60 11.87 12.92 12.34 9.86 10.45 10.94 10.90 10.66 9.67 10.17 9.88 7.51 7.57 7.54 7.79 6.56 6.81 5.37 3.99 3.10 3.49 2.87 1.12
20.95 21.01 20.07 18.84 18.50 17.77 17.63 17.26 18.33 16.62 16.68 16.43 14.53 15.93 15.45 15.46 13.95 13.95 12.06 13.62 13.72 12.62 13.08 12.83 12.62 9.23 8.55 8.69 9.71 9.41 9.53 9.11 4.38 4.95 5.65 6.29 5.45 5.32 3.60 2.24 1.55 1.33 0.18 -0.65

GFSNGP_sfc_wetblb_063.txt.gz
Wetbulb
36.53 37.63 39.43 37.51 37.11 39.33 37.64 38.04 35.77 38.74 39.58 43.13 45.13 45.96 47.65 46.31 48.50 49.03 49.71 50.29 50.66 50.28 50.81 51.84 52.50 53.38 54.14 54.64 56.44 59.13 58.41 57.91 57.38 57.30 57.36 57.02 56.66 57.42 57.98 57.68 57.68 57.83 57.54 57.32
33.04 38.35 38.29 37.23 38.67 40.36 39.92 40.44 40.65 40.88 39.65 46.84 46.94 47.81 47.63 47.46 48.37 48.30 48.69 49.47 49.79 49.75 50.54 51.23 51.19 50.95 51.37 51.91 53.04 55.87 58.83 58.51 58.57 58.87 58.04 57.61 57.49 57.38 57.79 57.66 57.65 58.04 57.26 57.70
29.02 34.09 35.07 30.58 37.00 39.18 39.39 40.77 40.78 36.50 42.36 46.37 45.69 46.03 46.11 45.87 47.21 47.57 47.83 47.81 48.22 48.75 49.21 48.90 46.75 46.72 45.91 47.92 51.13 52.49 54.18 56.86 59.14 58.87 58.46 58.66 58.79 58.35 58.00 58.06 58.58 58.07 58.19 58.53
27.91 30.79 24.83 36.59 41.91 42.90 40.35 41.02 42.95 43.31 43.97 44.92 45.41 46.80 46.74 47.33 46.78 46.80 46.42 46.36 46.50 46.97 46.91 45.25 43.73 43.13 44.07 46.03 47.45 49.32 48.86 49.25 52.38 54.73 56.87 58.76 58.70 58.77 58.96 59.02 58.52 58.37 58.46 58.51
26.71 28.12 32.34 35.67 39.75 38.74 38.91 38.72 43.53 42.71 43.92 44.66 46.51 45.52 45.37 48.94 48.81 46.20 45.00 44.93 45.09 45.30 43.93 41.88 39.36 39.91 41.48 42.79 43.26 43.78 43.30 44.53 47.53 51.69 50.44 50.89 56.54 57.81 58.60 58.46 58.43 58.29 58.80 58.60
27.16 25.22 23.87 34.53 41.37 44.62 43.15 33.58 43.42 43.39 43.24 43.09 43.82 37.79 41.34 47.27 46.69 44.82 43.56 43.22 42.38 42.50 41.08 38.06 37.30 37.93 38.58 38.55 39.45 38.74 40.39 42.08 45.13 47.77 46.16 46.42 47.98 51.59 58.57 58.35 57.77 57.68 47.34 41.11
26.42 25.20 30.98 40.36 42.77 44.72 32.31 34.83 43.40 44.24 43.25 42.42 40.32 42.48 44.91 44.65 42.35 41.51 39.43 38.95 39.62 39.17 36.80 35.05 35.62 36.11 35.29 36.18 35.29 37.63 39.27 41.49 41.55 41.32 41.25 42.30 43.40 43.89 53.94 52.08 41.04 37.77 35.69 35.58
26.56 23.97 23.66 42.81 41.00 36.75 40.29 43.18 43.24 42.86 42.84 42.60 43.12 44.21 42.34 40.26 37.50 35.78 34.05 34.46 34.40 34.39 33.19 32.72 32.72 32.42 32.30 32.30 34.33 37.03 37.56 36.52 35.16 34.81 35.38 36.66 39.66 40.64 41.17 40.33 38.38 36.43 34.41 32.44
30.57 29.21 39.83 44.57 43.38 44.51 44.22 42.57 42.48 42.35 42.93 43.08 41.56 40.40 37.89 35.45 34.79 32.86 31.66 31.55 32.29 31.98 30.71 30.48 30.30 30.24 30.31 31.48 33.83 34.81 33.46 31.87 31.18 31.43 31.08 31.67 31.96 34.55 36.43 37.08 35.21 33.55 32.53 30.12
34.97 38.17 39.63 42.14 43.41 43.89 43.11 41.95 42.11 41.84 41.78 41.88 39.48 37.99 35.11 33.39 32.03 30.80 30.13 29.37 29.45 28.90 27.47 27.17 28.76 29.65 30.58 31.62 32.72 32.10 30.12 29.33 29.34 28.83 28.32 28.88 29.66 30.07 30.10 32.56 32.59 31.54 30.10 28.36
36.03 39.50 39.89 39.84 40.33 40.59 40.30 41.58 40.17 40.06 38.88 38.57 37.25 33.95 32.16 30.38 30.00 28.92 27.74 27.50 26.96 26.34 26.61 27.04 28.27 28.30 30.00 31.24 31.40 29.44 28.37 27.98 27.61 27.74 27.46 26.79 27.51 28.12 28.02 29.25 29.84 28.47 29.10 28.62
33.49 38.22 38.75 38.42 40.40 40.26 38.40 38.21 37.54 36.56 33.36 33.60 34.19 31.76 29.85 28.08 26.93 26.21 25.00 25.43 25.00 25.63 26.09 27.02 27.53 27.68 28.49 30.40 30.23 29.09 27.20 26.37 26.42 26.08 26.32 25.92 25.58 25.53 29.41 29.98 30.41 30.50 30.49 29.85
33.13 40.47 37.80 36.46 36.81 38.44 37.58 34.07 33.10 31.43 31.47 29.32 29.94 28.98 27.08 25.57 25.33 25.48 24.31 24.10 23.82 23.65 24.94 26.10 26.19 26.10 27.58 28.69 28.57 27.65 25.50 25.51 25.10 24.55 24.44 24.13 24.19 23.73 21.85 24.90 28.04 29.18 29.97 29.88
37.29 38.44 34.16 34.62 32.48 35.49 35.44 33.30 31.44 28.86 27.93 27.20 26.76 25.52 24.54 23.28 23.71 23.34 23.12 23.03 22.94 22.60 22.42 22.84 23.35 24.25 26.37 26.57 25.57 26.07 25.88 25.90 25.23 24.38 23.74 23.32 22.73 21.97 21.99 20.47 19.36 20.09 25.39 25.98
33.82 35.91 34.62 33.74 31.54 30.70 32.49 30.88 27.11 25.23 24.25 23.23 23.53 22.71 22.02 20.26 19.45 19.63 21.35 21.56 20.73 19.23 18.97 19.42 20.08 22.83 25.65 25.23 24.67 24.39 25.09 25.26 24.63 23.83 23.10 22.13 21.75 21.20 21.60 21.52 20.04 19.54 19.78 20.14
32.45 31.43 31.76 29.21 27.50 27.05 26.85 26.29 24.40 23.70 23.41 22.84 22.07 21.59 20.89 19.82 18.80 18.60 18.95 19.01 17.19 16.26 17.89 17.62 18.77 21.82 23.96 24.12 22.89 23.06 23.41 24.52 24.47 23.38 22.13 21.00 20.23 19.41 19.01 18.86 18.30 18.17 17.81 17.79
26.43 24.88 26.80 25.78 23.96 23.28 23.42 23.78 23.57 21.76 20.40 19.70 21.18 21.75 20.40 18.79 17.69 16.85 16.16 15.65 14.55 14.68 16.21 17.44 17.85 20.68 22.55 22.50 23.98 22.82 22.32 22.03 21.94 21.71 21.70 21.00 19.85 18.90 18.28 17.50 16.82 16.14 16.28 16.77
27.10 26.38 25.51 24.71 23.13 21.52 20.87 20.47 19.83 19.43 18.16 17.87 16.96 15.75 14.53 13.51 12.76 12.98 13.34 13.82 13.52 12.96 13.55 16.64 18.41 19.28 21.17 21.94 21.43 21.16 21.00 20.51 19.49 18.06 17.99 18.86 19.20 19.02 17.96 16.73 15.91 14.65 14.06 14.42
24.00 22.60 23.00 22.52 21.66 20.69 19.68 18.80 18.59 18.42 17.87 16.28 14.38 13.14 12.29 11.54 11.80 12.40 12.60 11.82 10.99 9.87 11.38 14.87 19.47 18.62 17.88 20.13 19.17 19.05 18.05 16.95 17.49 17.64 17.52 16.31 15.52 16.00 15.05 13.64 13.01 13.11 12.86 12.13
20.26 20.20 19.42 18.91 19.54 18.19 16.40 15.40 15.06 14.09 12.43 11.66 11.07 11.30 8.93 10.08 10.55 9.77 10.58 9.62 10.43 11.25 13.18 14.13 15.92 16.70 16.82 17.03 17.20 16.82 16.00 15.12 15.55 14.49 13.85 13.18 12.44 11.85 12.62 12.25 12.24 11.15 10.67 10.46
17.04 17.10 15.91 15.33 14.64 14.61 12.85 10.43 12.19 12.51 12.47 12.07 9.34 5.15 5.65 8.35 8.95 9.18 9.28 7.91 10.07 12.15 12.91 12.92 13.37 14.95 15.73 15.11 15.05 13.70 12.97 12.27 11.49 11.67 11.02 8.91 8.96 9.26 9.18 8.15 7.79 7.29 7.27 6.64
15.81 15.00 12.60 11.11 13.44 13.99 12.04 11.66 12.38 12.23 12.19 11.42 11.50 11.92 10.52 9.23 7.10 8.07 8.44 8.47 10.15 9.35 10.30 10.52 11.58 10.59 12.91 13.52 13.33 11.25 11.07 9.64 9.08 8.05 6.18 5.90 1.26 -0.75 1.18 2.47 -0.57 -2.57 -0.78 4.01
17.28 16.42 14.46 12.03 12.76 13.00 12.61 13.48 12.12 11.35 9.87 9.71 10.71 9.79 10.24 10.87 10.27 5.51 4.05 10.41 9.93 6.11 9.38 6.77 5.82 6.92 8.05 6.37 4.81 4.32 5.43 7.09 4.21 -0.09 -0.02 -5.20 -5.56 -6.83 -6.29 -1.96 3.44 -1.27 -7.94 -1.63
19.11 18.23 17.49 17.46 17.25 17.00 14.40 14.56 15.66 14.72 11.04 13.20 10.10 11.01 14.66 10.38 9.80 11.23 9.33 5.86 5.04 -1.15 -1.06 1.83 4.09 2.19 0.58 -2.41 4.55 -1.33 -6.30 -5.76 -1.79 -3.39 -2.71 -3.94 -8.28 -5.74 -0.98 -10.46 -9.19 -12.09 -11.18 -2.01
21.35 21.42 20.59 19.02 17.97 16.25 16.89 17.15 16.44 16.17 15.24 14.66 14.24 14.36 13.19 12.74 3.74 5.49 3.72 3.28 7.45 8.70 0.05 -1.58 4.42 5.65 -1.88 -2.17 -6.90 -2.68 -1.58 -8.64 -6.84 -7.61 -0.39 -6.65 -10.09 -4.29 -11.91 -12.45 -12.45 -7.74 -6.10 -9.55
20.14 17.84 16.99 16.88 15.85 15.77 16.89 18.53 15.16 15.49 15.01 10.96 7.81 3.33 1.59 5.55 9.52 9.77 8.32 6.49 4.29 4.64 2.14 -3.93 -7.11 -6.60 -7.81 -1.03 -6.48 -7.25 -0.87 -3.89 -8.96 -9.34 -8.10 -7.56 -10.27 -4.12 -9.91 -12.81 -11.91 -10.64 -12.99 -14.81
17.60 17.34 17.12 15.36 15.00 14.41 14.03 13.78 12.72 8.37 2.86 2.59 2.10 3.90 8.27 7.21 3.98 8.36 3.23 -1.05 2.87 -2.47 -2.78 -1.47 1.31 -2.43 -5.46 -6.46 -5.59 -5.57 -4.79 -5.38 -6.19 -5.74 -3.27 -6.67 -9.91 -9.91 -9.37 -13.90 -14.44 -14.44 -14.08 -13.36

GFSNGP_sfc_wetblb_066.txt.gz
Wetbulb
35.50 36.78 36.80 37.07 36.98 37.46 36.59 36.57 33.98 36.78 38.22 43.30 45.59 44.21 46.36 47.55 47.91 47.60 46.86 48.01 48.83 48.46 47.63 47.15 46.65 47.17 47.67 48.67 50.87 52.65 57.08 56.51 56.05 56.24 56.47 56.49 56.35 56.51 57.09 57.04 57.32 57.30 56.63 56.27
31.36 35.85 35.31 34.03 38.18 38.50 37.89 39.27 38.23 39.05 39.24 46.14 47.27 47.49 46.22 47.01 46.93 45.54 45.53 46.64 47.35 46.71 45.05 43.52 43.37 43.52 44.91 46.21 47.44 50.11 49.91 49.41 56.02 57.58 57.44 56.81 56.29 56.17 56.17 56.43 56.75 56.77 56.86 56.65
26.37 33.52 32.69 29.69 35.43 38.01 39.48 41.42 40.73 37.05 41.74 45.83 44.20 44.75 44.78 45.19 44.93 44.30 44.35 45.23 44.91 43.37 41.39 40.07 39.56 40.75 41.60 43.22 45.23 44.74 45.09 45.78 47.44 48.60 52.41 56.79 57.67 56.95 55.98 55.62 56.29 56.41 56.69 56.87
26.39 29.29 21.50 35.20 39.65 40.32 40.33 41.17 42.10 42.16 43.37 45.57 45.08 45.92 47.12 45.57 43.49 42.49 43.11 42.97 41.92 40.24 38.42 37.57 37.71 38.08 39.83 40.42 40.57 40.63 40.85 41.90 43.96 45.43 48.04 48.18 49.19 52.32 56.99 57.04 56.59 56.01 56.07 56.37
23.99 24.88 29.91 33.54 38.99 38.16 38.28 36.64 42.31 40.81 43.94 46.14 46.03 43.52 40.96 43.09 42.37 41.19 40.66 41.02 39.41 37.60 36.17 35.47 35.51 36.61 37.21 36.92 36.84 37.08 38.09 39.09 40.93 42.47 42.83 43.34 44.39 45.71 47.12 47.88 55.78 57.14 57.20 56.87
25.13 23.24 20.62 33.93 40.44 43.25 42.66 33.97 42.67 43.92 43.35 43.88 43.48 35.12 36.49 39.71 38.42 37.26 37.63 37.84 36.75 35.29 33.85 32.92 33.10 34.79 34.97 34.07 34.23 34.51 36.48 37.23 37.68 37.58 37.50 38.48 40.38 41.09 43.44 44.17 45.52 53.26 57.54 57.28
24.18 22.73 27.99 38.54 41.82 43.62 30.32 34.34 42.41 42.56 42.84 42.19 38.77 38.66 37.69 37.10 35.04 35.19 34.46 34.56 35.08 33.03 30.66 30.29 31.07 32.93 32.23 32.72 32.61 35.17 35.85 35.00 33.58 33.44 33.57 35.29 35.21 38.07 40.72 41.18 40.94 41.00 39.52 36.00
26.06 23.64 21.89 40.59 41.27 35.14 39.86 42.99 42.44 41.82 41.91 39.06 37.85 36.99 35.45 34.04 32.60 31.96 31.03 31.16 31.77 30.34 29.11 29.72 30.46 31.35 30.41 30.64 33.21 33.53 32.91 31.84 30.88 30.51 31.06 31.78 32.28 32.87 36.09 36.80 35.76 33.95 32.11 31.16
29.13 27.77 38.33 39.46 39.43 42.16 43.72 41.61 41.52 41.49 41.14 39.21 36.49 34.54 33.73 31.65 30.44 29.75 28.79 28.10 28.94 27.98 27.66 28.10 29.22 30.07 29.27 30.55 31.42 30.79 29.58 28.57 29.13 28.86 28.99 29.87 29.50 29.66 31.04 33.18 32.02 30.91 30.00 28.41
34.68 37.07 37.31 38.09 39.24 39.81 39.98 37.92 38.18 39.70 38.79 37.45 34.83 33.11 31.59 30.41 28.35 26.95 26.23 25.66 27.05 26.75 25.93 26.00 27.82 28.16 29.46 30.17 29.67 28.09 27.19 26.75 27.12 26.75 26.99 27.69 28.62 29.05 28.83 28.99 29.07 28.98 27.74 26.18
36.38 37.37 38.18 38.46 38.52 39.06 37.83 37.66 35.24 34.60 35.09 33.94 31.61 29.71 28.22 26.83 25.80 24.96 24.73 25.05 25.58 25.10 25.09 25.20 26.41 26.79 28.08 29.05 29.53 27.08 26.51 25.85 25.68 25.54 25.54 25.33 26.26 27.46 28.26 29.22 29.33 27.42 27.36 27.50
31.27 37.22 35.04 36.93 38.59 38.88 35.26 32.63 32.92 31.55 29.75 30.43 29.67 27.31 26.23 25.06 24.79 23.50 23.18 23.39 23.02 23.68 24.06 24.23 25.05 25.44 26.00 27.86 26.62 25.09 24.19 23.74 22.81 22.78 22.47 23.13 23.67 23.49 26.44 27.99 29.55 29.92 29.77 28.83
33.16 35.61 33.32 35.14 36.45 35.74 32.16 30.65 29.91 28.74 28.22 26.40 26.68 26.37 25.22 24.03 23.90 23.61 21.86 21.34 20.38 20.15 20.87 22.09 22.95 23.32 25.11 25.07 26.66 25.21 23.86 23.42 22.90 22.51 21.94 21.41 20.96 20.42 19.26 22.84 24.94 26.62 27.16 27.82
37.71 37.68 31.73 32.40 31.27 32.41 29.96 28.09 27.44 25.29 25.14 24.27 23.76 23.52 23.19 22.00 21.68 20.24 19.34 19.93 19.89 19.01 18.69 19.25 20.39 21.35 23.36 22.82 22.01 21.90 21.31 21.31 20.90 20.39 20.03 19.60 19.96 20.91 20.33 18.96 17.76 17.91 21.92 23.53
32.79 32.23 30.23 29.65 29.50 29.39 29.27 27.37 24.36 22.76 22.47 22.12 22.88 21.64 20.93 18.95 18.02 18.35 19.67 19.50 19.39 18.02 17.32 17.68 17.90 19.40 22.23 21.04 19.28 21.05 22.50 20.64 19.25 19.35 19.25 19.55 20.14 19.72 19.21 18.57 17.68 17.03 17.42 17.97
30.56 30.83 28.80 26.61 25.72 26.15 25.60 25.13 23.11 22.19 21.75 20.72 19.63 18.75 18.27 17.54 16.14 15.46 15.88 16.02 15.11 14.57 16.72 15.90 17.46 19.14 20.39 19.79 17.07 18.60 19.41 20.87 19.47 18.93 17.97 17.34 18.58 18.20 17.32 16.82 15.78 14.82 14.14 14.47
26.59 25.97 25.14 23.40 23.26 23.21 23.05 22.77 21.74 20.68 21.81 20.93 19.52 19.24 17.90 16.31 15.09 13.79 13.20 13.69 13.12 11.93 12.18 13.80 14.98 17.52 19.32 18.93 19.17 19.96 18.60 17.53 16.81 18.82 18.85 18.48 17.24 16.26 16.18 15.01 13.88 13.45 13.00 13.80
24.92 23.98 25.59 24.08 21.82 20.57 19.86 20.24 20.06 19.21 17.42 16.89 15.39 13.00 10.63 10.58 9.85 10.21 10.53 11.00 11.07 10.87 10.85 12.37 14.68 14.84 15.74 16.35 16.04 16.30 16.07 16.71 16.43 15.72 15.94 16.04 15.49 15.06 14.30 13.95 13.43 12.21 11.83 11.43
22.69 22.24 22.17 21.18 20.35 19.28 18.60 17.99 17.16 16.53 15.32 14.13 11.95 9.79 10.45 10.27 10.11 9.40 8.78 8.65 7.91 8.30 8.81 11.25 17.66 14.51 14.70 17.53 16.07 15.75 14.70 12.51 13.55 13.83 14.27 12.84 12.45 13.01 11.60 10.71 10.23 9.88 10.22 9.33
18.31 18.70 18.33 17.20 17.72 16.69 14.80 14.05 14.03 12.74 11.74 10.55 8.43 6.90 8.10 2.71 2.60 4.41 4.10 3.96 2.50 5.34 8.97 11.50 13.49 13.96 14.22 13.78 12.77 13.22 11.73 10.76 12.23 10.24 8.81 9.52 8.84 8.02 8.99 7.70 7.42 6.79 7.24 6.43
14.60 14.34 13.48 13.20 12.64 12.57 10.20 9.65 10.23 8.59 6.55 5.21 6.40 4.03 4.06 4.39 2.96 1.21 4.07 5.39 6.55 9.53 10.30 10.40 11.76 12.99 13.15 11.55 11.10 7.45 8.04 7.02 7.06 6.54 4.40 1.69 1.84 3.75 2.38 0.44 2.04 2.26 2.73 0.79
12.17 12.30 11.11 11.06 12.15 11.25 10.74 9.44 9.69 8.82 9.59 8.42 5.57 4.67 5.42 5.46 5.43 6.40 2.84 6.56 8.68 4.17 7.59 8.97 10.32 5.32 7.27 7.66 8.37 5.68 6.40 4.58 3.20 2.50 0.03 -1.26 -2.08 -2.35 -4.70 -7.25 -9.41 -10.32 -9.23 -10.50
14.78 14.89 13.82 13.26 13.41 12.36 12.24 11.06 9.02 8.77 7.77 7.88 6.83 6.84 8.38 9.12 8.58 3.23 3.10 8.40 8.77 4.12 8.06 3.31 0.18 0.59 -0.58 -1.86 -2.94 -2.00 -0.89 -0.45 -1.29 -4.70 -8.33 -10.14 -13.22 -13.58 -11.59 -11.05 -13.95 -14.13 -12.31 -9.41
17.42 17.13 16.04 16.06 15.40 14.90 12.80 13.94 14.57 12.60 8.58 11.26 10.35 10.53 10.98 5.06 0.84 9.49 8.32 2.35 -1.82 -6.36 -3.28 -2.34 0.27 -2.89 -5.06 -5.07 -7.43 -9.23 -9.78 -9.41 -7.78 -9.60 -8.14 -9.60 -13.58 -15.22 -16.67 -17.75 -16.30 -15.76 -13.95 -13.58
20.69 19.73 18.96 18.45 17.63 15.94 16.46 16.49 14.91 14.87 14.01 13.45 12.61 12.32 12.01 10.46 2.52 3.92 0.38 1.67 4.30 2.34 -3.95 -6.34 -2.95 -4.88 -8.33 -12.13 -9.78 -7.24 -11.23 -14.13 -15.22 -10.50 -11.95 -11.77 -11.23 -15.22 -17.93 -17.57 -15.94 -13.76 -16.12 -18.12
18.78 16.44 15.53 15.61 14.76 15.08 16.48 17.07 14.44 14.23 12.61 6.08 4.25 -2.18 -3.08 2.28 5.04 8.31 5.42 5.37 7.67 5.09 -0.40 -7.69 -11.29 -12.54 -12.13 -10.32 -13.22 -10.50 -10.51 -9.49 -12.54 -13.04 -11.77 -14.31 -13.40 -13.58 -15.58 -17.03 -17.39 -17.03 -16.67 -16.85
16.38 15.14 14.81 13.66 13.89 13.48 14.21 13.31 9.55 8.48 7.42 4.06 3.01 0.91 1.44 -0.74 -0.37 1.34 -4.34 -5.06 -5.99 -8.33 -9.05 -3.08 -4.53 -4.40 -5.81 -7.42 -8.40 -10.50 -11.05 -10.86 -12.13 -10.86 -15.03 -14.85 -15.03 -12.50 -16.48 -17.39 -18.66 -19.75 -19.93 -19.93

GFSNGP_sfc_wetblb_069.txt.gz
Wetbulb
33.48 34.18 34.72 35.39 34.82 37.15 36.51 37.03 33.83 34.89 35.97 41.33 43.17 44.65 45.02 47.14 45.89 45.85 45.04 44.30 42.78 41.98 41.88 42.85 43.16 44.50 46.15 46.24 47.21 48.07 51.77 52.08 53.98 55.98 56.49 56.93 56.57 56.16 56.42 55.96 55.75 55.55 55.29 54.84
29.29 34.30 32.91 30.82 34.35 37.45 38.24 37.96 38.25 38.09 37.10 45.95 45.45 46.02 45.64 46.30 44.85 44.08 43.72 42.45 40.86 39.76 39.09 38.52 39.28 40.38 41.74 42.14 43.07 43.45 43.99 44.93 46.98 48.77 53.03 54.86 56.63 56.73 56.63 56.66 56.81 56.60 55.50 55.40
25.32 30.86 29.67 26.79 33.37 35.01 38.59 38.95 38.18 36.15 40.17 45.65 44.87 44.36 45.64 44.12 43.98 42.93 41.89 40.72 38.88 37.75 37.04 36.67 36.67 38.53 37.96 38.70 40.09 40.41 40.48 41.65 42.97 44.28 45.24 46.10 47.33 48.82 54.37 55.83 56.48 56.31 56.50 56.36
24.72 27.34 18.40 31.36 37.54 39.13 37.34 40.31 41.94 41.61 43.17 44.81 44.69 45.39 44.39 44.79 43.23 41.72 40.33 38.03 36.62 36.34 35.56 35.20 35.71 36.90 37.35 36.74 36.75 38.09 37.83 38.63 39.31 39.44 39.79 41.17 42.90 43.89 44.38 46.39 47.43 51.26 55.67 56.32
21.46 22.39 27.26 31.05 37.75 36.89 35.36 35.99 41.58 40.81 43.27 44.79 43.20 39.86 37.33 39.91 39.90 39.09 37.84 36.07 34.60 33.87 33.35 32.94 33.30 35.36 34.82 34.55 35.28 35.64 35.23 35.26 35.06 35.60 35.68 37.30 38.31 38.44 39.82 42.98 43.90 44.96 47.09 47.85
25.22 21.63 17.60 29.31 38.24 42.80 41.32 31.85 41.48 42.35 43.62 41.98 42.34 36.64 34.49 36.96 36.49 35.95 35.66 34.08 32.43 32.03 31.46 31.03 32.05 33.55 32.76 32.60 33.25 32.67 32.80 32.17 32.07 31.75 32.58 33.73 34.20 34.99 36.62 39.00 40.86 42.10 40.16 36.46
24.52 22.05 25.89 34.79 39.50 41.92 29.20 32.88 40.84 42.36 45.38 42.30 39.80 38.64 35.48 35.27 33.95 33.71 33.75 32.64 32.24 30.79 28.97 29.90 32.02 32.32 31.29 31.83 30.88 31.40 31.51 31.03 29.98 29.85 31.29 31.74 31.95 32.78 33.92 35.57 36.85 34.91 32.61 31.44
25.74 23.50 20.22 37.17 39.22 33.17 38.14 41.51 40.70 39.42 37.58 35.47 35.05 34.79 33.73 32.83 31.41 30.58 29.52 29.50 29.81 28.37 28.14 29.57 30.57 31.04 29.85 29.06 30.48 30.34 29.82 28.97 27.90 28.08 29.46 30.08 29.91 30.95 31.88 32.72 31.91 30.80 29.40 28.50
28.31 27.28 36.29 37.36 36.42 39.89 42.22 41.23 40.89 39.66 38.28 37.12 34.91 32.94 32.14 29.85 28.11 26.98 26.59 27.08 27.77 27.07 27.36 27.74 28.47 29.75 28.25 27.97 28.57 28.39 27.67 26.91 26.85 26.63 27.16 28.65 28.16 28.24 28.65 29.62 29.09 28.27 27.68 26.87
34.26 36.07 36.14 36.30 36.91 37.00 36.31 36.12 38.47 39.06 38.00 36.38 32.73 31.48 29.26 27.20 26.29 25.13 25.24 25.38 26.65 26.39 25.63 25.82 27.18 27.86 28.11 28.90 27.78 27.21 25.83 25.51 25.65 25.94 24.98 25.07 26.51 26.87 26.49 27.05 27.09 27.34 26.69 25.98
35.06 36.67 37.56 38.04 37.08 36.05 35.05 33.95 32.64 33.15 32.99 31.80 30.26 27.85 26.93 25.30 24.43 24.14 23.88 24.61 25.21 24.58 24.12 24.53 25.45 25.91 27.34 26.24 26.74 25.01 24.06 24.10 23.44 23.64 24.02 24.04 24.76 25.11 25.05 26.45 26.67 24.77 24.69 25.52
30.34 35.55 35.44 34.70 36.27 36.29 32.84 31.21 31.27 29.40 27.83 28.75 27.90 25.89 25.03 23.21 23.12 22.51 21.58 21.62 21.48 22.11 22.65 23.12 23.97 24.28 25.11 26.94 26.08 24.68 23.50 22.90 22.14 22.25 22.10 21.96 22.22 22.50 25.73 25.92 26.81 27.41 27.35 25.20
32.26 34.05 33.53 33.15 32.07 31.66 28.90 28.75 28.36 27.13 26.87 25.25 25.66 24.92 23.78 21.95 21.78 22.06 20.08 19.91 18.23 17.99 19.67 20.56 21.06 21.58 22.47 22.90 23.80 23.26 22.18 22.46 21.16 20.70 20.69 20.51 19.33 18.75 16.80 19.66 23.57 24.27 24.89 25.41
35.36 34.99 30.88 31.69 28.04 28.52 26.83 26.08 26.11 24.42 24.18 23.22 22.76 22.82 22.02 20.50 20.13 18.86 18.42 19.40 19.07 18.24 17.65 18.09 19.06 18.85 20.52 18.28 19.79 19.09 17.78 18.28 17.69 17.56 17.52 17.22 16.69 16.33 16.19 15.03 13.83 14.63 19.62 21.47
29.49 30.22 29.15 29.39 28.49 27.45 27.26 25.74 23.23 22.02 21.82 20.33 20.77 20.26 19.81 17.72 16.56 16.48 18.00 18.91 18.55 17.11 16.27 16.81 16.85 17.57 18.68 16.19 17.75 20.33 18.44 16.96 15.23 15.85 15.84 15.83 15.66 15.57 14.63 13.37 12.55 12.41 13.12 14.49
29.53 28.42 27.78 26.06 25.16 24.91 24.59 23.61 21.86 20.44 20.04 19.15 18.23 17.46 16.82 16.06 15.19 14.85 14.97 14.88 13.21 11.62 13.64 14.14 15.28 15.66 16.49 14.68 13.89 15.21 15.40 17.45 15.92 15.70 15.39 14.77 14.37 13.46 12.88 12.15 11.09 10.24 9.98 10.45
26.96 25.19 24.94 23.70 23.16 22.67 21.52 21.86 22.06 21.37 19.70 18.55 17.70 17.79 16.33 15.23 13.86 12.65 11.28 10.66 7.71 6.86 8.79 10.57 10.60 12.19 14.02 13.54 12.97 13.12 13.12 14.16 13.14 15.64 14.87 14.53 13.61 12.89 12.29 11.19 9.92 8.92 8.17 8.91
23.09 22.93 23.04 22.70 21.36 20.30 19.98 20.02 19.23 18.04 15.97 14.79 12.56 11.13 9.54 8.98 8.39 8.03 7.58 5.60 5.31 6.80 7.62 7.66 9.92 10.99 12.68 12.72 14.16 14.10 13.86 14.51 14.69 13.60 13.48 12.21 12.13 11.67 10.27 9.97 9.36 8.02 7.12 6.35
22.50 21.48 21.32 20.60 19.54 18.57 17.69 16.47 15.29 14.33 12.73 11.02 9.63 7.55 8.01 7.29 8.13 4.98 1.35 2.19 2.26 4.15 7.26 7.51 16.40 12.68 12.27 15.72 13.45 12.88 11.39 9.34 10.83 10.69 10.94 7.14 7.63 8.86 6.80 6.07 5.24 4.54 4.89 4.09
17.89 17.67 16.93 15.75 15.96 14.93 13.13 11.84 11.92 9.81 8.25 7.16 6.14 6.08 5.27 4.05 3.42 -0.04 -2.64 0.34 1.77 5.63 8.93 10.22 12.16 11.90 12.13 11.22 10.22 9.95 7.88 6.19 8.60 6.29 4.62 4.82 1.32 -1.28 0.67 2.09 2.75 -0.56 -4.18 -2.19
13.76 14.06 13.25 11.83 10.63 11.17 11.03 10.28 9.79 7.98 7.73 7.88 7.09 4.77 2.46 -1.30 -3.31 -3.48 1.39 4.39 6.58 9.04 9.67 9.87 9.34 9.98 10.11 8.26 8.17 3.90 3.65 1.76 1.52 -0.72 -4.20 -5.99 -4.39 -4.75 -6.54 -7.99 -5.81 -9.26 -9.98 -8.35
11.88 11.66 11.52 11.85 11.43 11.20 11.91 11.86 11.75 10.49 8.49 4.98 1.55 -3.05 -1.85 -0.14 -1.36 0.21 -3.46 3.48 8.19 3.87 7.43 7.78 7.17 -0.49 3.68 4.59 5.06 1.05 2.23 0.32 -2.47 -3.38 -5.82 -7.63 -9.26 -11.79 -16.33 -16.33 -15.96 -16.33 -17.78 -18.50
14.19 13.98 13.80 13.29 12.89 12.10 12.97 10.41 8.47 9.09 7.41 5.23 0.74 0.56 4.82 7.29 7.19 2.42 1.89 7.84 8.40 4.51 7.45 3.22 -0.54 -3.82 -5.17 -5.03 -5.72 -6.74 -6.36 -6.36 -7.63 -10.34 -13.97 -17.23 -17.60 -17.96 -16.33 -16.69 -18.14 -17.96 -19.59 -17.78
16.11 16.61 15.75 15.92 15.49 14.27 12.07 12.82 13.74 12.26 8.34 10.62 5.22 2.16 8.70 0.61 -1.85 8.38 6.85 1.28 -2.60 -4.38 -3.65 -5.09 -5.09 -4.36 -6.17 -10.16 -10.89 -12.70 -14.88 -16.15 -14.70 -16.33 -12.52 -15.42 -20.50 -21.04 -20.50 -21.22 -17.78 -18.14 -17.23 -17.42
18.37 17.83 16.90 16.20 16.69 15.45 15.08 15.07 13.78 13.47 12.53 12.21 12.29 12.17 11.27 9.79 2.32 3.89 0.38 1.11 3.23 0.55 -4.19 -8.93 -6.36 -8.89 -13.61 -15.42 -13.97 -14.70 -16.51 -17.78 -18.14 -17.78 -17.78 -17.23 -18.32 -19.77 -21.40 -21.22 -20.86 -19.77 -21.95 -23.22
19.38 17.28 16.25 15.94 14.85 14.78 15.49 15.67 12.47 12.17 11.44 6.09 4.62 -4.36 -4.02 -0.24 4.01 4.12 1.64 0.61 2.05 0.11 -3.94 -11.46 -13.62 -15.24 -15.60 -13.25 -14.70 -15.24 -14.70 -12.55 -15.42 -15.24 -17.05 -16.33 -18.14 -17.78 -19.59 -19.23 -21.04 -20.13 -21.40 -21.95
14.82 13.58 13.55 12.41 12.58 13.19 13.78 13.05 10.87 9.61 7.77 4.68 3.24 -3.30 -2.57 -6.36 -5.27 -0.77 -4.36 -5.45 -8.17 -11.25 -9.80 -8.17 -9.62 -4.20 -9.44 -12.34 -13.25 -11.61 -11.79 -11.43 -13.79 -13.61 -17.96 -19.05 -19.23 -17.42 -19.41 -19.59 -20.32 -22.49 -24.85 -24.85

GFSNGP_sfc_wetblb_072.txt.gz
Wetbulb
31.67 32.89 33.63 33.19 33.15 34.22 33.82 34.84 32.42 34.82 36.17 40.09 42.87 44.04 45.26 44.28 43.75 41.38 39.51 39.27 39.80 40.01 40.63 42.12 42.13 43.08 42.53 43.37 43.78 46.15 48.02 48.08 48.64 51.77 56.48 56.63 56.44 56.58 56.59 55.82 55.49 54.79 53.83 53.21
28.21 32.14 31.06 29.31 30.46 31.40 33.68 36.88 36.78 36.92 36.07 43.07 46.26 46.44 45.98 44.09 42.61 40.42 38.68 38.05 37.46 37.38 37.19 37.64 38.43 37.95 38.66 39.71 40.64 42.14 42.03 42.60 43.52 45.03 46.96 46.98 47.67 49.23 54.95 56.50 56.45 56.11 55.34 54.83
24.84 28.41 28.09 24.45 30.08 30.54 33.44 38.90 38.09 33.18 38.29 44.09 43.84 44.54 44.44 43.81 41.93 39.54 37.88 36.95 35.86 34.94 34.58 34.93 35.94 36.42 35.75 37.16 38.95 38.38 38.10 38.13 38.35 39.57 40.54 41.23 43.79 44.73 44.11 45.32 47.63 48.92 52.89 55.31
24.94 26.46 16.56 28.55 35.14 36.19 36.42 38.39 40.58 41.13 42.86 43.66 42.36 44.58 44.80 44.66 41.70 38.71 36.74 35.16 33.94 33.36 33.10 33.55 35.10 35.10 35.66 36.07 36.00 35.16 34.14 34.15 34.67 35.51 36.27 38.02 38.59 38.27 39.50 41.95 43.95 44.92 45.55 45.87
20.84 21.77 25.43 28.67 35.12 34.84 34.42 33.54 40.06 41.15 42.67 39.65 38.76 38.72 36.19 39.22 39.02 36.51 35.02 33.38 32.31 32.09 31.81 32.70 32.81 33.87 34.26 33.29 32.88 32.06 31.07 30.82 31.05 32.70 33.87 34.39 34.38 35.24 37.12 38.63 40.75 41.02 37.95 36.44
24.94 20.29 15.33 27.15 35.48 38.84 38.66 28.71 39.35 40.05 41.04 38.72 41.19 34.81 34.18 36.73 36.38 34.15 33.28 32.33 30.92 30.91 31.16 31.24 31.54 33.19 32.51 30.41 29.86 29.27 29.68 28.84 29.68 31.80 32.03 31.59 32.53 33.60 35.57 37.21 37.10 36.33 32.66 31.64
23.99 20.65 25.00 32.24 36.33 39.29 26.55 28.69 37.36 38.14 42.17 40.64 39.26 38.10 35.80 34.10 32.60 32.32 31.62 30.86 30.62 30.01 28.98 29.62 31.46 31.39 29.42 29.06 28.11 28.86 28.97 28.44 28.27 29.65 30.38 30.74 31.23 32.46 33.25 33.49 32.40 31.30 29.63 29.50
26.42 23.65 19.86 35.41 36.55 30.47 35.84 38.21 36.88 36.33 37.28 33.89 33.64 33.12 31.65 30.67 29.43 28.88 27.90 27.96 28.69 27.93 27.86 28.95 29.90 29.77 26.57 26.52 28.28 28.40 27.90 26.80 26.05 27.05 28.64 28.90 28.89 29.73 29.59 30.85 29.63 28.83 28.52 28.22
28.47 27.00 35.26 35.80 34.44 36.23 41.02 39.75 37.27 35.86 35.31 34.15 32.14 30.77 29.63 27.67 27.00 26.62 26.55 26.89 27.78 27.30 26.84 27.47 28.08 28.13 26.98 26.42 27.49 26.92 26.22 26.01 25.54 25.72 26.07 26.89 26.46 26.91 27.36 27.23 26.95 26.65 26.82 26.29
32.57 34.86 34.64 35.42 35.22 34.70 34.48 33.99 36.63 35.48 34.93 33.13 30.46 28.80 26.99 26.52 25.67 25.35 25.71 25.69 26.42 25.89 24.92 24.92 26.58 26.69 26.12 26.83 26.09 25.61 23.94 24.20 25.24 24.75 24.63 25.55 25.84 26.27 25.73 25.12 24.20 24.58 23.71 23.19
33.54 35.69 36.58 36.45 36.08 35.08 32.92 32.13 31.42 31.42 31.23 30.07 28.32 26.66 25.55 24.42 23.90 23.46 23.70 24.09 24.50 24.08 23.74 23.61 24.79 24.90 26.26 25.84 25.49 24.08 23.68 23.61 22.97 23.26 24.00 23.47 24.22 24.44 24.39 25.65 25.48 22.89 23.54 24.07
29.09 33.58 33.82 31.67 33.16 33.04 30.26 29.68 29.38 27.78 26.78 27.20 26.41 24.23 23.91 22.14 22.20 21.11 20.35 20.98 20.72 21.21 21.31 21.58 22.42 22.33 22.67 24.49 25.67 24.12 22.52 21.80 20.79 21.33 21.01 21.25 22.01 21.49 24.98 25.30 25.94 26.58 26.42 24.62
32.09 33.34 31.01 30.26 29.63 29.83 27.61 27.08 27.12 26.83 26.90 24.88 24.65 23.76 22.61 21.13 21.37 21.51 19.90 19.46 18.00 17.58 19.06 19.23 18.88 18.81 19.56 21.21 21.60 21.19 19.89 20.41 19.53 19.32 18.82 17.90 16.90 16.40 13.89 17.50 21.64 23.09 23.92 24.56
32.47 35.00 29.85 28.69 25.72 26.95 25.08 24.29 24.72 23.31 23.21 22.88 22.28 22.21 21.14 19.53 19.29 18.52 18.36 18.94 18.39 17.29 17.11 16.96 16.74 16.38 17.67 16.56 18.09 16.23 14.92 15.43 15.09 15.43 14.74 13.48 10.86 10.80 10.42 10.19 9.49 11.16 17.28 19.55
28.33 29.52 28.29 27.65 26.43 25.46 25.54 23.63 21.78 20.36 20.00 19.51 20.53 19.74 18.66 16.69 15.71 15.82 17.91 18.02 17.45 15.44 14.71 14.72 13.88 14.08 15.84 13.87 12.99 12.97 13.82 11.75 9.10 8.71 9.90 9.36 8.47 9.47 9.90 9.09 8.07 7.76 8.76 10.27
27.82 27.31 26.80 25.15 24.36 23.92 23.28 21.73 19.61 18.93 19.08 18.28 17.29 16.61 15.98 15.29 13.95 13.62 13.58 14.06 12.82 11.34 12.05 10.91 12.53 11.98 13.70 11.84 10.65 9.66 9.74 14.44 12.03 10.88 9.95 10.20 10.31 9.85 9.25 8.00 6.96 6.12 5.99 6.49
27.24 25.28 24.89 23.09 22.35 21.20 20.74 21.60 20.60 19.08 18.40 17.39 16.68 16.78 15.74 14.06 12.82 11.00 9.68 9.35 8.45 7.04 6.92 8.32 8.20 8.27 10.11 9.95 9.81 8.77 7.74 10.30 10.87 12.27 11.46 10.94 10.05 9.63 9.20 7.74 6.32 5.45 4.33 3.78
22.53 22.11 22.44 22.48 21.31 19.96 19.46 19.20 18.11 16.72 14.63 13.75 12.07 10.97 9.26 8.31 6.02 5.19 5.10 6.43 5.55 4.51 5.60 5.65 5.44 8.15 9.85 9.79 11.25 10.97 10.32 12.03 12.36 11.01 10.53 9.09 8.99 8.47 6.90 6.24 5.62 4.25 3.65 2.34
21.60 20.73 20.48 19.75 18.91 18.09 16.96 15.11 14.11 13.14 11.41 9.39 7.38 5.90 6.19 4.94 4.02 1.76 -1.42 1.26 0.50 1.75 5.37 6.12 15.26 10.71 10.32 13.93 11.41 10.49 8.60 6.55 8.17 8.17 7.75 3.58 3.54 5.43 3.05 1.78 0.36 -1.04 0.78 0.14
16.64 16.32 15.23 14.39 14.61 14.08 11.93 10.89 10.55 8.02 6.77 6.49 3.31 2.12 0.86 -3.47 -5.26 -3.85 -2.06 0.88 1.91 4.72 7.56 8.05 10.21 9.89 10.41 8.83 7.95 7.60 5.38 3.02 7.03 3.16 1.42 0.82 -4.76 -7.25 -3.28 -1.49 -1.17 -6.53 -10.34 -9.99
12.14 12.18 10.84 10.14 8.84 8.26 5.96 4.30 7.49 7.18 6.63 5.05 3.67 0.04 -1.10 -3.46 -4.19 -4.55 0.67 3.70 5.77 7.06 8.12 7.20 7.10 7.87 8.13 6.11 5.78 -0.14 0.30 -1.75 -2.82 -2.66 -6.00 -10.70 -9.98 -9.24 -11.96 -15.59 -14.14 -16.32 -14.86 -14.86
8.94 11.36 11.04 11.13 10.64 10.77 11.06 11.04 10.22 7.55 4.91 2.66 1.04 -0.56 1.14 1.76 -0.33 1.60 -1.46 4.67 7.61 1.58 5.06 5.59 4.71 -3.21 1.90 2.40 2.92 -2.10 0.63 -1.65 -5.84 -6.37 -9.25 -11.61 -13.60 -18.13 -20.12 -20.48 -18.85 -20.30 -21.39 -22.12
11.59 12.42 12.27 11.51 10.85 10.66 10.47 9.74 8.67 8.34 6.23 4.60 2.89 3.54 5.58 7.34 6.72 2.80 1.57 6.93 7.63 2.79 5.55 -0.65 -4.44 -6.89 -8.16 -8.39 -9.79 -10.34 -9.25 -10.33 -12.15 -12.15 -16.50 -20.12 -20.48 -21.21 -18.85 -18.13 -19.76 -19.58 -19.76 -18.31
14.58 15.30 14.47 14.60 14.72 13.97 11.79 12.79 13.50 11.64 7.70 10.37 5.00 1.77 8.78 2.52 0.61 7.64 5.39 -0.95 -4.21 -6.89 -5.26 -6.34 -5.62 -7.25 -9.43 -14.14 -15.23 -16.50 -16.86 -17.77 -17.58 -17.77 -15.05 -18.85 -23.75 -24.11 -22.30 -23.02 -19.76 -22.48 -22.48 -21.75
16.66 16.48 15.66 15.26 15.20 14.41 14.52 13.96 13.07 12.61 12.12 11.76 11.57 11.23 10.38 9.13 2.13 3.53 0.40 0.04 1.98 -0.62 -5.60 -10.88 -9.06 -11.06 -16.86 -17.77 -17.77 -18.31 -19.22 -20.30 -19.58 -19.40 -18.49 -19.94 -20.30 -21.94 -23.57 -23.93 -23.02 -21.94 -23.57 -24.11
18.01 16.99 16.40 16.22 14.58 13.76 14.10 13.95 10.83 10.96 10.79 5.45 5.11 -3.10 -3.66 -0.94 3.11 2.37 -0.49 -1.89 -0.60 -1.84 -5.99 -13.23 -15.95 -17.40 -16.86 -15.05 -16.86 -17.58 -17.22 -14.51 -17.40 -18.31 -20.12 -18.85 -21.21 -19.76 -21.94 -20.85 -22.84 -21.94 -23.57 -24.84
13.17 12.00 12.29 11.32 11.87 12.26 13.02 13.53 11.16 9.41 9.00 5.45 1.71 -5.26 -4.35 -8.34 -9.06 -3.08 -5.08 -5.98 -8.88 -12.33 -13.96 -15.59 -14.32 -9.24 -11.78 -15.05 -15.95 -14.68 -13.41 -14.50 -15.59 -15.23 -20.30 -21.39 -21.94 -21.57 -21.03 -19.03 -21.21 -24.11 -26.65 -27.01

GFSNGP_sfc_wetblb_075.txt.gz
Wetbulb
33.58 34.36 34.38 32.69 32.80 33.52 31.88 34.37 31.09 34.36 34.26 38.79 42.65 43.61 44.15 42.25 39.82 38.30 37.08 36.97 37.01 37.25 38.41 39.77 40.71 43.10 43.71 43.84 44.82 46.10 46.45 46.04 46.16 47.97 49.16 51.07 53.33 55.42 57.04 57.05 56.99 57.09 57.34 57.20
29.90 34.02 31.97 29.94 32.57 33.26 33.84 33.94 35.15 36.92 36.53 43.47 45.20 46.98 43.82 41.64 39.81 37.73 36.41 35.62 35.23 35.19 35.75 36.46 37.39 38.46 40.59 40.25 39.95 40.64 39.37 39.32 41.14 42.48 43.67 44.69 46.37 47.34 47.89 47.93 49.12 53.47 54.93 54.65
25.59 30.67 30.26 26.47 30.87 31.88 34.11 37.35 38.16 34.43 39.42 44.54 44.22 44.85 43.23 41.68 39.61 37.19 36.27 35.48 34.32 33.77 34.18 35.38 36.09 37.56 37.13 37.55 38.20 37.17 36.24 36.90 37.41 39.30 39.92 40.29 41.47 42.25 42.58 44.31 45.84 46.12 45.14 44.98
26.95 28.39 18.60 30.71 36.41 36.83 36.97 39.09 39.81 40.06 42.19 42.51 40.40 38.92 42.09 41.78 39.12 36.86 35.11 33.96 32.94 33.21 34.18 34.52 35.56 35.86 35.48 35.12 34.82 34.41 34.15 34.46 35.85 37.44 37.69 38.56 39.75 40.36 41.16 42.95 42.59 39.75 38.16 36.42
24.54 24.51 27.77 30.79 35.08 34.09 34.65 34.63 39.90 39.46 41.92 40.86 39.70 38.71 35.84 36.99 36.34 34.34 33.00 32.76 32.33 33.04 32.90 33.45 34.57 34.74 33.34 33.14 33.19 31.86 31.46 32.37 34.35 34.96 35.19 35.98 36.42 37.28 38.80 39.74 38.25 35.05 34.04 33.22
26.15 21.60 18.39 29.70 36.07 38.96 39.19 29.23 38.75 38.41 39.97 41.09 41.14 36.97 33.68 34.65 33.42 31.82 31.14 31.45 31.22 31.95 31.97 31.92 32.49 33.03 31.74 30.80 30.37 29.19 29.65 30.70 32.58 32.97 33.10 33.28 33.97 35.07 35.55 35.26 33.60 32.82 31.43 31.78
26.72 24.35 27.70 33.59 36.71 39.41 26.43 29.37 37.45 37.18 40.15 42.08 39.14 35.44 32.21 32.17 30.38 30.43 30.28 30.37 30.86 30.47 29.34 30.57 30.70 30.99 29.45 29.50 28.43 29.08 29.51 29.78 30.24 31.01 31.28 32.49 32.68 33.42 33.35 32.53 31.86 31.21 30.48 30.68
26.99 23.90 20.91 35.93 37.31 30.92 35.07 37.84 35.90 35.29 34.37 32.96 31.37 29.63 29.06 28.68 27.97 28.09 27.94 28.78 29.65 28.56 28.02 29.13 30.58 29.45 27.90 26.85 28.82 29.61 28.83 28.50 28.61 28.85 29.49 30.08 30.73 30.92 31.15 31.30 30.60 30.16 29.38 28.89
30.00 29.42 35.67 36.02 34.58 34.59 39.51 37.82 36.00 34.74 34.05 32.41 29.97 28.19 27.41 26.54 26.35 26.64 26.92 27.49 28.44 27.82 27.33 27.63 28.22 28.38 26.48 26.88 27.71 28.39 28.04 27.30 27.54 28.05 27.92 28.43 28.48 28.09 27.46 27.98 27.97 27.30 26.60 26.20
32.24 34.62 34.52 35.04 34.21 33.61 33.91 33.91 34.33 34.25 32.02 29.66 26.41 26.29 25.37 24.99 25.29 25.15 25.11 25.44 26.60 26.29 25.31 24.97 26.39 26.98 27.24 27.32 28.05 27.32 26.28 26.11 26.30 25.83 26.21 26.90 27.52 27.49 26.71 26.16 26.23 26.08 25.68 25.78
32.49 33.80 34.07 33.04 33.66 33.11 31.66 31.68 30.80 31.32 30.24 28.45 27.36 25.78 25.08 23.71 23.46 23.03 22.70 23.70 24.53 23.97 23.60 23.40 24.60 24.84 25.91 27.36 27.33 25.91 25.66 25.45 25.31 25.61 24.87 24.37 24.99 25.67 25.72 26.86 26.78 25.46 25.34 25.94
27.58 32.00 30.26 28.71 30.40 31.37 29.70 29.03 29.40 28.09 26.99 26.98 26.13 23.63 23.27 21.56 22.18 21.42 20.92 21.71 21.79 21.90 21.66 22.04 22.58 22.79 23.86 25.78 26.59 25.86 24.55 24.02 23.78 24.05 24.19 23.85 23.23 22.11 24.48 25.10 25.56 25.88 25.98 26.17
30.82 30.73 29.04 28.85 29.05 29.33 27.20 26.66 26.93 26.47 26.08 24.15 24.39 23.54 22.68 21.59 21.61 21.86 20.68 20.32 19.27 19.24 20.31 20.20 20.32 20.41 21.61 22.62 23.44 23.06 23.41 23.58 23.35 22.96 22.79 22.18 21.42 21.35 19.54 19.61 21.03 21.97 23.08 23.77
32.28 31.88 27.46 28.55 25.08 26.33 25.09 24.44 25.17 24.35 24.15 23.44 22.89 22.71 21.92 20.56 20.57 19.93 19.39 19.72 19.49 19.14 17.98 17.80 17.80 17.14 18.95 20.69 20.20 19.01 19.79 18.31 21.30 20.83 20.40 19.79 19.18 18.38 17.97 17.39 16.31 15.94 17.25 18.36
28.57 29.23 27.81 27.17 26.32 25.11 25.26 24.14 22.02 21.11 21.22 20.90 21.82 20.64 20.22 18.11 17.30 17.66 19.11 19.15 18.89 17.08 16.20 16.18 15.16 15.55 17.24 17.49 18.48 19.63 20.69 19.62 19.42 19.08 18.08 17.40 17.97 17.34 16.52 15.48 14.54 14.40 15.43 14.82
28.10 27.67 26.92 24.77 24.15 23.39 22.92 22.03 20.65 19.43 19.26 18.80 18.14 17.63 16.93 16.50 15.53 15.02 15.18 15.88 14.71 13.08 13.73 13.33 14.32 13.95 15.43 16.84 18.69 19.54 19.28 16.75 17.94 18.78 18.26 17.79 17.13 16.01 14.68 13.73 12.78 11.99 11.74 11.85
27.00 25.35 24.59 22.95 22.29 22.01 21.34 21.27 20.74 19.40 18.61 17.60 17.13 17.19 16.17 14.64 13.82 12.81 11.95 12.08 11.56 11.46 12.51 12.67 12.38 12.73 14.19 15.47 18.61 19.57 19.50 18.44 15.91 18.29 17.22 16.46 15.91 14.71 13.80 13.01 11.68 10.65 9.65 8.36
22.68 22.57 23.78 23.90 22.24 20.67 19.38 19.21 18.59 17.59 15.75 15.20 13.87 12.46 11.27 11.03 9.96 9.13 9.14 10.13 10.80 10.45 10.71 11.56 13.50 13.52 14.55 15.52 17.34 18.28 18.32 17.78 16.97 15.78 15.49 14.95 14.01 13.62 12.67 11.74 10.98 10.13 9.75 7.72
21.93 20.88 20.75 20.22 19.93 18.53 17.33 16.07 14.83 14.04 12.96 12.27 10.61 8.51 8.09 7.86 8.04 6.72 7.58 7.70 8.00 10.00 9.81 12.10 15.03 13.99 13.83 15.23 15.53 16.44 16.05 15.45 14.77 13.99 13.34 10.80 12.55 11.86 11.06 10.61 9.57 9.13 8.96 7.99
16.78 16.61 16.03 15.49 16.04 15.42 13.32 13.20 13.01 11.58 10.94 9.43 8.02 7.11 5.83 4.21 5.58 5.46 7.87 7.42 8.69 10.43 11.53 12.16 13.09 12.99 12.66 11.15 11.52 13.92 14.04 14.00 12.55 11.81 11.67 10.72 10.48 10.17 9.38 6.57 8.27 7.73 7.56 6.84
13.92 13.97 13.06 12.20 11.53 11.72 11.53 11.67 11.24 9.06 8.56 8.44 8.30 6.43 5.24 5.14 5.20 6.35 8.98 9.00 9.61 10.54 10.53 10.09 10.73 11.68 11.54 11.45 11.66 11.79 11.69 10.87 10.54 9.78 9.28 8.68 8.51 8.13 7.41 7.42 7.55 7.70 7.20 7.09
13.17 12.50 12.02 12.45 12.23 11.97 12.46 12.73 11.18 8.91 7.95 6.44 5.09 5.40 6.21 6.71 6.96 7.37 7.18 9.36 10.76 8.23 10.04 9.95 9.51 3.49 7.82 8.76 10.34 10.32 9.51 8.90 8.63 9.00 7.78 7.94 7.81 7.17 6.56 6.88 6.21 5.43 4.91 4.51
13.56 13.95 13.47 12.82 12.53 12.25 11.97 10.79 9.65 9.44 8.01 7.05 7.36 8.69 9.94 10.35 10.71 8.92 7.19 9.48 11.04 8.46 9.93 8.39 1.88 0.24 0.61 7.99 7.96 7.48 7.26 6.55 6.68 6.34 6.04 6.06 5.96 5.91 6.13 5.75 5.42 4.84 4.64 4.33
15.07 15.41 14.97 15.19 15.17 14.79 13.34 13.84 14.17 12.61 11.46 11.39 9.24 9.14 11.06 9.55 9.60 10.53 9.54 5.60 4.18 6.95 7.43 7.13 5.19 1.10 2.38 6.35 5.89 5.75 5.99 6.17 5.92 5.65 5.70 -3.83 4.75 3.35 4.74 3.73 4.09 4.39 2.57 0.42
16.86 16.62 16.01 16.50 16.16 15.46 15.12 14.83 14.19 13.69 13.38 13.19 13.01 12.55 11.98 11.72 11.01 11.27 10.99 10.09 8.31 7.84 8.39 0.09 -0.68 -2.01 6.87 6.93 6.32 5.73 5.77 6.09 6.10 5.71 5.83 5.65 5.36 4.00 4.31 3.41 1.84 3.41 2.51 1.69
18.08 17.71 17.65 16.82 17.21 17.48 16.71 15.56 14.42 14.11 13.54 11.80 11.82 9.87 9.53 9.97 10.86 11.32 10.25 6.55 8.86 6.42 10.01 8.24 6.28 6.08 6.85 6.95 6.36 5.20 5.61 6.05 4.98 4.68 2.95 4.14 4.16 3.79 3.02 2.97 2.33 2.88 2.89 1.97
16.94 15.47 15.64 15.04 15.00 15.06 15.63 15.69 15.48 14.56 14.19 13.58 12.54 11.22 10.81 9.77 9.19 8.78 4.43 10.29 9.94 8.52 8.22 7.47 6.33 5.46 7.53 7.10 6.47 6.12 5.80 6.19 2.46 5.09 4.52 3.67 3.13 3.83 2.97 2.57 2.56 2.36 0.84 -1.26

GFSNGP_sfc_wetblb_081.txt.gz
Wetbulb
36.17 38.42 38.07 35.51 35.97 39.19 37.41 38.05 33.59 36.54 37.30 41.24 45.31 46.78 46.03 43.72 40.69 37.41 35.39 34.61 34.96 35.81 36.91 38.12 39.21 39.83 41.05 42.59 43.77 46.73 46.92 46.45 46.28 46.95 48.25 49.00 49.52 52.87 55.50 52.98 51.98 52.13 55.63 48.30
29.90 37.59 37.61 34.24 37.14 38.28 38.22 37.69 37.85 38.74 38.63 45.75 47.69 49.06 45.93 41.91 40.13 36.45 35.28 34.13 33.84 34.61 35.18 35.35 36.55 37.72 38.52 39.18 40.41 42.45 42.53 42.60 43.33 43.93 44.76 45.11 46.14 46.99 45.38 44.00 44.34 44.80 40.82 39.58
25.03 36.26 34.80 28.87 35.27 37.37 37.87 39.51 39.12 36.22 41.41 46.18 43.77 45.48 43.04 40.01 38.55 36.27 34.82 34.22 33.70 34.35 33.47 34.03 34.87 35.90 36.82 38.13 40.84 39.73 39.86 40.72 42.55 43.38 43.14 43.70 44.42 42.20 40.79 39.58 39.43 38.82 38.37 36.36
26.10 33.72 23.52 35.02 40.17 40.15 38.08 39.92 42.34 42.01 42.47 43.18 39.36 36.69 36.80 38.52 36.51 34.28 34.61 33.94 33.31 33.11 33.04 33.96 34.56 35.14 36.47 36.45 36.32 37.79 38.58 39.42 41.12 42.22 42.74 43.03 42.18 40.25 38.93 37.57 36.40 36.48 36.60 35.47
27.36 29.70 31.88 35.28 38.14 38.14 37.26 37.02 41.71 40.56 42.05 41.70 37.81 36.56 32.09 34.30 34.13 32.92 32.67 33.40 32.16 33.85 33.79 33.64 33.75 34.35 33.81 33.69 35.04 34.55 34.40 35.91 38.88 40.31 40.64 40.64 39.62 39.39 38.68 37.76 36.37 35.57 35.36 35.76
28.85 25.05 22.91 35.02 40.48 42.82 42.16 33.26 40.07 41.03 40.85 41.27 39.59 36.43 30.58 31.76 31.51 31.21 31.78 32.36 33.19 32.34 32.81 33.50 33.69 34.31 32.35 32.05 32.07 32.15 33.58 35.16 36.34 36.91 37.95 37.24 37.83 37.91 38.21 38.24 36.79 36.46 34.93 34.15
28.63 28.59 32.78 39.36 41.41 43.11 30.49 32.17 40.31 39.76 36.92 34.98 32.53 29.80 29.20 30.46 30.06 31.44 31.97 31.86 32.52 33.19 32.63 33.20 34.10 33.13 31.10 31.54 30.98 31.84 33.26 34.14 34.65 35.52 35.82 36.56 37.68 37.92 37.54 36.97 36.44 35.14 33.68 33.59
31.04 28.02 23.40 39.58 41.05 35.39 36.10 39.67 39.31 37.24 33.99 30.02 28.95 28.49 28.72 29.39 29.84 31.27 31.99 33.56 33.98 32.42 32.28 34.42 35.84 34.59 32.55 31.50 31.77 31.99 32.81 32.22 32.39 33.70 34.55 35.79 36.05 36.03 35.61 36.14 35.40 34.04 32.80 32.41
32.39 31.61 35.78 36.65 35.28 35.90 38.22 36.51 36.32 34.58 32.81 30.90 29.07 28.31 29.32 28.61 29.49 30.35 32.54 32.55 34.00 33.00 32.61 33.60 35.11 35.05 33.10 33.04 33.51 34.13 33.86 32.44 32.10 32.04 32.24 32.57 32.88 33.40 33.82 34.48 33.36 32.34 31.51 30.70
34.92 31.14 31.50 33.32 34.80 34.35 34.37 33.19 32.91 33.14 32.79 31.67 28.67 29.00 27.87 27.92 27.78 28.11 29.65 30.46 32.58 32.13 30.60 30.06 32.57 33.41 33.86 34.51 34.71 32.92 31.30 30.77 31.23 31.30 31.31 31.59 30.22 29.45 28.56 31.11 30.55 30.59 30.33 29.35
30.85 32.08 33.34 33.14 34.51 34.59 33.33 33.03 32.74 33.61 32.76 31.16 30.32 29.03 28.70 27.36 26.87 27.39 28.85 29.83 30.42 29.72 29.09 29.19 30.80 31.57 33.15 33.63 33.69 31.82 31.44 30.65 29.73 29.01 27.28 25.31 25.27 26.89 26.12 26.86 27.02 27.97 27.16 26.92
29.39 32.83 32.24 30.39 32.89 34.35 32.90 32.43 33.55 32.04 30.54 30.15 29.08 26.95 27.42 26.81 27.39 26.97 26.83 27.63 26.50 26.85 26.93 26.87 27.34 27.31 28.90 31.99 33.20 31.94 30.10 30.27 30.63 30.86 29.66 27.90 25.63 23.17 24.52 25.26 25.39 25.39 25.19 26.54
31.06 33.23 31.64 31.92 33.04 33.70 31.78 30.99 31.10 30.74 30.94 29.30 29.76 28.87 27.50 25.98 26.19 25.83 25.16 24.75 24.04 24.46 25.09 25.23 25.01 25.35 26.90 28.11 28.94 29.15 29.52 29.60 29.52 29.37 29.06 28.81 28.85 26.00 22.54 21.71 22.23 22.81 22.90 23.14
34.44 35.14 31.92 33.03 30.03 31.65 32.26 31.85 32.00 31.45 30.90 30.25 29.58 29.17 27.71 26.16 25.76 24.76 23.78 24.19 24.24 23.74 23.48 23.64 23.20 23.21 25.88 27.95 28.00 27.62 27.33 27.28 27.88 27.97 27.80 27.47 27.13 26.45 27.14 26.46 24.19 21.38 19.99 20.41
32.45 34.05 32.67 32.51 32.18 31.64 32.33 32.02 30.25 28.84 28.33 27.83 28.45 27.54 26.90 25.12 24.26 24.48 25.36 25.16 24.50 23.09 22.17 21.72 21.00 21.50 25.04 26.88 25.67 26.35 27.10 26.90 27.03 26.88 26.65 26.43 26.69 26.33 25.98 25.40 24.67 24.17 23.96 23.24
31.94 31.93 32.32 31.00 30.81 30.83 30.83 30.43 28.95 27.33 26.57 25.52 24.87 24.76 24.66 24.14 23.00 21.91 21.48 22.16 21.78 19.62 19.92 19.00 18.64 20.68 23.02 26.30 27.64 27.24 26.00 25.06 26.46 27.16 26.77 26.42 26.01 25.18 24.33 23.90 23.02 21.22 19.15 18.96
30.42 28.26 29.09 28.41 28.55 28.29 27.95 28.72 28.03 26.60 25.19 23.86 23.47 24.18 23.96 22.62 21.06 19.42 18.66 18.90 18.78 19.03 19.94 18.93 19.10 19.70 21.97 23.15 26.83 27.47 27.15 26.01 24.66 26.17 25.27 24.87 24.41 23.57 23.19 22.64 21.32 19.62 16.61 15.70
30.66 30.12 30.06 29.81 27.94 26.60 25.45 25.57 25.11 24.07 21.83 21.20 20.27 19.25 18.26 18.33 17.30 16.90 17.01 17.94 17.05 16.64 18.10 18.61 19.46 20.86 19.89 21.82 24.49 25.85 25.84 25.00 24.51 23.66 23.82 23.14 22.84 22.77 22.16 21.23 20.47 19.83 19.24 16.70
28.10 26.82 26.78 26.11 26.24 24.89 23.49 22.10 20.88 20.08 19.59 19.06 17.80 16.37 16.16 15.83 16.28 16.40 17.71 18.07 18.53 17.73 16.79 18.41 19.39 20.33 20.14 19.56 22.88 25.19 24.56 23.73 23.16 22.48 21.98 21.03 22.11 21.64 21.26 20.76 19.87 19.17 18.64 17.78
23.89 24.44 24.04 23.32 23.45 22.29 20.12 20.10 19.90 18.05 17.73 16.48 15.49 14.65 13.65 13.39 14.67 15.10 16.02 14.42 14.80 16.42 17.57 17.71 19.96 19.68 19.61 19.05 20.32 23.54 23.10 22.50 21.29 20.73 20.10 21.23 20.87 20.19 18.35 14.66 17.32 18.21 17.95 17.51
21.26 20.58 19.44 18.68 18.38 18.88 18.52 18.61 17.62 15.84 15.62 15.80 15.08 13.25 12.99 13.82 13.78 14.82 18.64 19.88 16.80 15.99 16.54 17.21 16.87 18.12 19.08 18.19 21.72 21.83 21.39 20.70 20.18 19.82 19.25 19.42 19.55 18.55 18.21 17.61 17.40 17.19 16.81 16.60
20.39 19.32 18.80 18.86 18.75 18.73 19.32 18.74 16.79 15.28 14.17 12.99 12.67 13.23 13.74 14.52 13.94 14.88 14.66 16.64 18.21 13.88 17.83 18.11 16.10 11.53 14.75 15.39 19.73 19.38 18.74 18.44 18.83 19.17 18.49 18.36 17.97 17.74 17.03 16.46 15.80 15.89 15.86 15.56
20.74 20.49 19.95 19.51 19.51 18.54 17.78 17.15 16.37 15.86 14.55 14.22 14.67 16.39 17.77 18.58 19.29 18.91 18.79 16.69 19.42 14.33 18.29 16.19 11.03 10.52 10.91 17.57 17.85 17.31 16.81 16.20 16.27 16.14 16.59 16.26 16.05 15.58 15.33 14.90 13.59 14.29 14.14 13.75
21.62 21.53 20.76 20.35 19.15 19.38 18.31 18.19 18.97 17.91 16.18 16.53 14.88 14.90 18.02 20.23 20.39 19.79 18.16 13.58 12.31 13.84 14.56 13.79 12.29 10.07 9.19 16.61 16.21 15.66 15.74 15.75 15.74 15.87 15.84 6.91 14.77 14.29 14.21 13.39 12.33 13.13 12.64 11.16
21.83 20.92 20.67 20.68 21.32 22.45 21.15 20.82 20.12 19.28 18.47 19.72 18.78 18.50 17.80 19.72 18.86 19.79 19.54 17.21 11.91 13.02 17.91 9.64 9.56 9.78 14.49 15.93 15.52 14.43 14.52 15.05 14.79 13.61 14.11 13.98 13.71 13.21 13.35 13.15 12.33 11.87 11.79 11.39
22.70 24.31 24.22 23.10 24.17 24.97 24.76 23.56 22.59 23.52 21.94 20.94 20.55 21.56 21.26 20.32 19.70 18.47 17.93 15.19 16.41 15.27 16.51 17.63 16.39 15.32 15.95 15.68 15.20 14.37 14.07 14.21 14.18 13.68 13.13 12.71 13.01 13.12 12.63 12.39 11.92 11.61 11.70 11.70
23.60 23.00 23.41 23.57 24.50 23.81 22.99 22.68 22.06 22.23 22.69 21.64 20.64 21.91 20.30 20.25 19.56 16.59 14.90 18.36 18.09 17.74 17.28 17.20 16.97 15.46 15.58 14.91 14.86 15.25 14.78 14.73 13.79 13.44 13.26 12.94 13.07 12.94 12.59 12.23 12.03 12.07 11.43 10.81

GFSNGP_sfc_wetblb_087.txt.gz
Wetbulb
28.63 30.05 30.99 30.22 30.47 32.82 31.19 33.00 30.77 34.33 34.73 39.99 40.97 40.08 39.39 38.63 37.04 35.26 34.46 33.84 33.64 33.73 33.96 34.64 35.20 36.26 37.44 39.80 42.02 45.53 48.17 48.42 48.64 49.85 49.33 47.89 46.93 46.79 46.03 45.57 45.19 44.76 42.77 41.51
24.36 28.89 29.99 28.71 31.37 33.31 34.27 35.46 36.06 35.57 35.10 41.90 42.13 41.30 38.53 37.33 35.80 33.61 33.15 33.00 32.98 33.28 33.18 33.26 33.65 34.58 35.83 36.85 39.24 42.81 43.77 44.68 45.25 44.49 43.68 43.16 42.20 41.85 41.13 40.14 39.09 38.42 37.32 37.72
20.54 28.20 28.56 24.80 30.77 32.57 35.29 37.68 36.16 32.13 37.39 39.86 35.79 34.84 34.94 34.74 33.79 32.42 32.38 32.04 32.29 32.42 32.74 32.82 33.04 33.80 33.58 35.75 37.45 38.29 41.14 42.23 41.91 41.36 39.72 39.38 39.33 38.88 37.54 36.61 36.21 35.50 35.61 36.16
21.03 25.03 16.04 29.46 37.67 37.59 36.23 36.39 37.62 38.34 36.51 35.93 33.11 31.84 31.75 32.74 31.71 31.17 31.16 31.01 31.70 32.61 32.76 33.47 33.86 33.61 34.33 34.77 35.36 35.48 36.87 39.67 40.18 39.64 38.74 38.20 37.17 36.14 35.71 35.17 33.96 33.59 33.30 34.07
21.34 19.69 26.23 31.84 34.27 33.22 33.92 33.44 36.09 34.67 35.26 35.53 33.21 31.30 28.89 31.17 31.27 30.56 31.98 32.34 31.36 33.05 33.28 32.48 32.63 33.98 33.70 33.40 33.78 33.89 33.46 35.03 37.83 38.50 37.49 36.90 35.59 34.73 34.53 33.55 32.38 31.68 32.14 32.22
25.26 20.21 16.95 30.19 34.14 35.59 35.76 29.60 34.66 33.52 31.79 31.02 35.58 31.67 25.83 30.30 31.19 30.80 31.38 31.93 32.40 32.37 32.01 31.97 31.74 32.49 32.46 31.98 32.29 31.76 32.33 33.02 34.68 35.72 36.37 35.75 34.66 33.90 33.32 31.99 30.90 30.67 30.25 31.27
24.17 20.52 27.19 32.24 32.89 36.42 26.75 27.57 33.17 31.89 29.31 28.23 25.70 27.03 29.03 30.95 30.79 31.35 32.27 32.33 33.08 34.08 31.89 31.83 32.37 32.22 30.32 30.41 29.97 31.89 32.42 32.36 32.84 33.53 33.19 34.30 34.59 33.93 32.46 31.31 30.34 29.21 28.87 29.27
26.47 22.84 21.15 32.42 33.11 28.15 33.44 33.86 32.33 30.54 28.65 26.96 27.48 28.28 28.21 28.29 28.63 31.74 31.50 33.04 33.40 32.36 32.96 34.78 33.98 32.80 30.24 29.58 31.39 31.90 31.84 31.32 30.97 30.90 31.24 32.17 32.52 32.46 32.63 31.44 29.94 29.32 28.69 28.10
27.48 25.59 32.64 32.55 31.07 33.40 34.03 32.62 31.96 30.59 30.00 28.73 26.66 26.09 26.99 26.56 26.89 28.42 31.44 31.35 32.07 31.11 30.91 31.58 32.98 32.51 29.92 31.24 31.87 30.32 28.20 27.02 26.85 28.27 28.13 28.14 27.60 29.10 30.96 30.84 29.00 26.99 26.12 25.30
29.83 29.33 29.34 31.91 33.26 33.13 33.97 31.71 30.87 30.97 29.48 27.11 24.15 24.60 24.24 25.19 25.94 25.37 27.82 29.12 29.16 27.75 26.70 27.12 29.51 30.78 31.76 31.22 30.28 28.76 26.70 26.17 25.99 25.56 25.42 25.90 25.94 25.99 26.11 26.75 26.21 26.26 24.46 23.06
29.51 30.56 30.05 30.67 32.99 34.18 32.93 31.71 30.94 31.15 30.11 28.71 26.88 26.35 26.25 24.86 24.76 25.22 25.57 26.18 26.77 25.97 25.48 25.98 27.28 27.80 29.59 31.93 31.44 28.24 26.82 25.61 24.26 23.91 23.87 23.69 24.19 23.88 24.35 25.84 24.88 23.02 22.94 23.03
24.26 29.64 29.08 29.73 32.46 32.37 30.62 31.85 31.07 28.91 27.77 28.11 26.69 24.75 25.06 23.84 24.25 23.78 23.59 24.29 23.55 23.82 23.98 24.50 25.27 26.51 28.19 29.14 30.12 29.28 28.44 28.09 25.90 24.07 22.98 22.01 21.39 21.40 25.70 25.93 26.39 26.43 25.39 23.58
28.06 31.66 30.44 32.17 32.85 32.40 30.09 30.12 30.02 29.17 28.18 26.27 26.82 25.96 25.03 23.96 24.70 24.90 23.59 22.83 21.84 21.56 22.03 22.36 22.15 23.28 25.75 28.05 27.77 26.92 26.93 27.45 27.31 27.41 26.21 22.35 20.85 19.27 17.45 20.98 24.08 24.79 25.46 26.08
33.58 32.71 29.37 30.91 29.37 31.51 30.32 30.33 30.71 29.29 28.84 28.00 26.71 26.17 24.98 23.79 24.01 23.19 22.17 22.00 21.62 20.75 20.18 20.61 20.75 20.21 22.80 25.52 26.18 25.50 25.06 25.51 25.56 25.60 25.05 24.65 24.02 20.49 19.63 16.94 15.50 14.21 22.06 22.90
32.63 32.53 31.56 32.08 31.71 31.08 32.16 29.57 26.61 24.79 25.27 24.88 25.34 23.77 22.22 20.07 19.15 19.50 22.79 21.75 20.54 18.96 17.75 17.65 17.61 17.65 20.48 22.83 23.23 22.09 24.00 20.69 20.59 19.36 19.82 20.31 20.69 20.67 19.99 17.99 15.68 14.44 14.68 15.79
32.55 32.10 31.47 29.90 28.41 28.29 28.83 26.96 23.99 23.35 23.64 23.79 22.84 21.74 20.66 19.76 18.69 18.41 18.77 19.23 17.00 15.65 16.98 15.62 16.19 16.25 17.67 18.86 21.07 18.10 18.52 20.74 20.67 20.36 19.64 18.26 18.08 18.74 17.13 14.43 11.27 8.84 8.89 8.91
30.75 27.41 29.07 25.77 24.61 23.96 23.64 24.49 23.64 22.08 20.34 19.63 20.75 21.70 20.48 19.15 17.07 15.55 15.35 16.09 14.76 13.15 12.99 12.57 11.19 14.40 15.94 16.11 17.72 19.99 18.19 19.33 18.11 19.52 18.50 17.99 16.93 16.70 16.42 13.34 10.68 8.47 6.07 4.82
28.01 26.84 26.11 25.95 23.49 21.97 21.03 20.47 19.40 18.74 17.56 17.94 15.64 14.26 13.27 13.47 12.42 11.77 12.36 12.42 11.13 12.09 12.62 12.94 14.34 15.05 15.15 16.00 18.43 20.25 18.82 18.86 18.94 16.91 17.43 15.65 17.47 17.29 15.40 14.76 13.06 10.23 8.17 10.17
24.66 23.58 24.42 23.86 22.42 20.50 19.21 18.19 17.25 16.21 13.59 11.05 9.39 6.15 5.26 4.39 5.61 5.25 9.70 11.84 9.15 9.22 10.31 12.86 18.93 16.06 16.00 17.75 17.42 20.43 18.63 17.89 18.43 17.00 18.51 14.62 12.81 13.47 12.74 11.23 9.38 8.58 10.27 10.18
21.11 20.44 19.74 19.11 19.38 18.23 16.33 13.34 13.87 11.44 6.89 7.33 3.25 3.21 1.90 0.69 0.02 2.80 2.45 2.79 4.10 6.89 10.38 13.48 14.67 14.11 15.59 15.29 13.19 18.84 17.75 16.24 16.83 13.42 14.69 14.80 10.81 3.20 2.94 7.27 9.14 5.52 2.07 0.82
16.19 16.57 14.62 12.48 11.55 11.87 10.83 7.68 7.79 4.37 2.10 1.60 3.27 -0.72 0.60 1.47 2.01 2.57 9.61 10.81 6.80 9.82 12.87 11.03 10.39 9.99 12.35 9.73 13.81 10.97 11.54 9.96 7.62 8.81 7.41 5.85 3.84 5.30 4.35 2.89 3.15 2.28 3.55 4.42
12.25 13.14 13.03 12.69 14.02 11.66 6.20 5.61 4.63 2.02 1.60 0.65 -0.72 0.13 1.75 4.57 2.03 4.71 2.45 9.10 11.05 6.40 11.86 9.63 9.31 2.29 7.15 5.44 12.60 6.23 8.37 8.23 7.70 9.90 6.34 5.62 6.94 7.66 5.77 0.95 0.41 1.04 0.79 0.77
13.32 13.96 13.36 11.90 9.80 7.26 5.98 5.39 3.74 4.14 1.73 0.46 0.88 2.97 6.04 10.96 12.16 10.90 7.45 12.03 13.03 8.71 11.05 4.79 1.59 -0.13 -0.49 4.29 1.89 1.07 5.53 1.95 0.56 0.35 1.06 -2.72 -1.38 -3.62 -1.24 -1.67 -2.15 -1.96 -2.46 -3.26
16.42 16.19 12.02 11.84 12.97 14.89 13.69 13.53 14.90 14.26 6.95 10.07 5.96 3.51 12.13 7.52 13.31 14.45 10.58 4.71 1.24 -0.55 1.84 -0.31 -1.54 -0.29 -2.21 4.85 2.44 -0.67 -0.63 -1.62 5.53 0.37 1.55 -1.00 0.09 -0.16 -1.51 -2.72 -4.82 -6.35 -6.61 -2.83
16.31 15.06 15.42 15.34 17.81 18.76 18.75 19.08 18.52 17.55 16.41 17.40 16.42 15.58 15.71 15.92 8.04 8.97 9.33 5.47 5.94 3.40 5.17 1.95 1.28 -0.79 -4.66 -2.68 0.70 -2.79 -2.81 -1.17 0.22 -5.88 -6.55 -6.49 -3.37 -1.70 -0.41 1.17 1.90 -0.77 -4.71 -7.37
19.95 19.59 19.82 20.87 19.01 19.67 20.28 19.84 16.16 18.54 19.03 14.97 13.85 11.98 11.01 9.29 9.35 8.13 5.74 6.31 6.73 6.14 1.42 2.50 -1.60 0.43 -3.42 -2.57 3.85 3.81 -0.96 1.18 -1.39 0.57 2.89 -1.57 -2.39 -0.50 -1.19 1.87 0.20 -2.76 -5.10 -5.92
20.96 17.82 18.78 18.79 18.98 18.28 15.24 14.49 11.62 9.44 8.05 8.08 10.48 16.02 13.81 9.49 5.34 6.50 3.29 2.85 1.32 6.86 4.52 1.23 5.18 8.00 3.33 -1.57 -2.24 -2.23 -2.27 -0.62 3.19 1.72 -4.27 -4.91 -6.43 -7.45 -6.98 -4.63 -2.37 -1.63 0.37 -2.00

GFSNGP_sfc_wetblb_090.txt.gz
Wetbulb
27.32 28.39 28.63 27.77 27.46 28.80 28.11 29.21 27.33 31.96 33.08 37.64 39.10 38.20 37.23 36.70 35.49 34.12 33.03 32.41 32.68 32.11 32.85 33.62 34.56 35.60 36.59 38.26 41.48 44.97 47.34 48.43 48.93 48.41 48.42 48.27 47.16 46.00 45.01 44.30 44.26 44.45 43.71 42.66
21.91 26.89 27.37 25.18 28.47 29.36 30.34 31.08 32.47 32.71 34.94 36.41 37.90 38.09 35.82 35.08 33.93 32.37 31.62 31.65 31.90 32.06 32.30 32.13 33.14 34.16 35.89 36.56 37.78 41.92 42.27 42.53 44.22 44.78 43.51 42.22 41.65 41.03 40.06 39.35 39.08 39.11 38.60 39.76
17.80 25.84 25.84 21.60 27.35 29.37 30.89 35.06 35.52 31.64 36.65 37.17 33.16 31.65 31.24 32.31 31.70 30.62 30.60 30.99 31.12 31.38 31.17 32.00 32.18 33.85 34.32 35.87 37.48 37.71 40.13 41.25 39.89 39.81 39.74 39.04 38.40 37.45 36.41 35.94 36.22 35.96 36.95 37.12
20.03 23.49 14.34 28.17 35.22 35.58 34.21 34.72 36.37 35.39 36.26 34.28 30.68 30.19 30.28 30.85 30.44 30.28 30.61 30.78 31.30 31.44 31.47 31.86 32.61 32.76 34.57 35.28 35.58 35.84 36.03 37.77 38.05 37.58 36.62 36.45 35.77 34.53 34.09 34.03 33.57 33.84 34.99 35.82
18.34 19.77 24.94 28.71 33.57 30.94 28.55 30.02 33.11 32.73 35.01 32.44 30.31 30.12 27.82 30.63 30.62 30.35 31.67 32.41 31.20 31.99 32.04 31.61 31.68 32.25 32.64 32.96 33.59 33.39 33.07 34.27 35.79 35.41 34.23 33.66 32.22 32.17 32.52 32.10 31.90 32.04 33.17 33.91
23.73 19.07 13.85 26.55 30.85 34.59 34.24 26.38 33.04 31.50 29.71 31.93 31.59 29.68 24.60 29.72 30.81 31.04 31.55 32.12 31.79 31.78 31.49 30.51 30.89 32.23 31.63 30.96 31.17 30.99 31.90 32.31 33.39 34.08 33.22 31.91 31.78 31.28 31.28 30.98 30.33 30.52 30.35 31.56
21.92 20.86 24.82 29.37 32.27 34.13 25.89 24.99 30.03 28.87 27.75 28.97 25.66 26.95 28.79 31.06 30.68 31.58 31.90 31.95 32.76 33.21 31.40 32.00 32.33 31.63 29.85 30.11 29.17 30.55 31.28 31.56 31.38 32.19 32.30 32.39 32.19 31.89 31.13 30.21 29.34 28.75 28.66 29.59
25.80 21.97 19.37 30.46 30.84 26.13 31.11 31.87 29.64 28.20 27.49 25.98 27.08 27.62 27.67 28.06 30.05 30.36 30.26 30.52 30.87 29.45 29.08 32.25 32.69 31.82 30.05 28.22 29.11 28.82 28.58 28.43 28.36 28.72 29.50 30.55 31.69 31.60 31.22 29.87 28.49 27.75 27.62 27.75
25.71 23.58 31.31 31.90 31.16 33.38 33.44 31.21 30.01 28.90 28.64 27.04 25.20 23.86 24.07 23.56 23.72 26.48 28.87 27.94 28.52 27.45 27.32 28.07 30.27 31.67 29.30 29.97 29.68 28.58 27.23 26.37 26.20 26.41 26.67 27.43 27.41 28.11 28.53 28.03 26.73 26.27 26.17 25.97
27.45 28.13 28.86 31.48 32.89 32.06 31.88 29.14 28.81 28.07 26.28 24.70 21.47 22.21 21.35 21.33 22.05 22.52 24.87 25.65 26.33 25.77 25.15 25.57 28.55 29.71 29.55 28.71 28.59 27.30 25.68 25.33 25.73 25.34 25.06 25.48 26.03 26.79 25.69 25.39 25.25 24.78 24.23 23.86
26.35 28.75 29.19 29.45 30.66 32.04 29.84 29.61 29.01 29.13 27.88 26.27 24.84 22.66 22.95 21.90 21.28 21.80 22.63 23.47 24.08 23.66 23.71 24.33 26.60 27.62 29.16 32.16 29.55 26.57 25.72 25.12 24.28 24.21 24.47 24.29 24.82 24.88 24.64 25.07 24.87 23.29 23.22 24.08
20.24 27.98 27.01 28.27 30.60 31.16 30.72 28.49 28.03 26.66 25.69 25.30 23.58 21.62 19.74 20.10 22.01 22.19 21.44 21.89 21.26 21.97 22.05 22.36 23.35 24.64 27.08 28.75 29.57 28.63 26.42 24.79 23.64 22.66 22.16 21.99 21.74 22.58 26.92 26.90 26.43 26.32 26.15 24.98
24.06 30.18 29.71 31.08 30.59 30.88 28.77 27.78 27.02 25.93 25.43 24.06 24.49 24.04 22.83 21.46 22.29 22.99 21.37 20.72 19.85 19.79 20.78 21.26 21.40 21.59 23.56 27.05 27.24 26.83 26.52 26.76 26.45 24.11 22.33 20.67 20.14 19.55 18.43 22.80 26.27 26.89 27.18 27.37
34.36 31.24 28.06 30.28 27.75 30.74 29.69 28.33 28.67 27.78 26.84 25.59 24.48 24.25 23.26 22.20 22.03 20.61 19.73 19.88 19.61 18.83 18.21 18.80 19.17 18.85 20.69 23.81 25.86 24.68 23.19 23.28 23.40 23.79 24.01 21.34 19.29 17.98 17.12 16.77 15.70 15.43 20.26 24.94
31.39 32.54 31.08 31.40 31.73 29.80 27.99 26.05 24.29 23.53 23.64 22.63 22.61 21.26 20.58 19.07 18.38 19.14 20.29 20.12 19.38 18.21 17.43 17.13 16.66 16.29 17.79 19.59 21.43 22.77 24.12 23.42 21.46 19.51 19.57 20.47 20.90 18.89 17.24 15.14 13.50 12.47 14.38 16.26
33.12 31.72 29.30 27.13 27.60 27.70 25.63 23.87 22.38 21.98 21.91 21.24 20.18 19.42 18.85 18.30 17.56 16.95 17.53 17.47 15.46 13.80 15.18 13.87 15.56 15.43 16.84 16.77 18.81 18.21 18.92 20.46 19.27 18.44 18.46 18.87 18.19 15.83 13.82 12.16 11.06 10.38 11.22 8.61
29.71 27.53 25.56 24.68 23.48 23.50 22.97 23.13 21.63 20.64 20.52 20.82 19.81 19.73 18.35 16.57 15.47 14.39 12.75 12.70 11.56 10.02 10.91 11.04 10.93 13.86 15.61 15.30 19.20 17.92 18.63 18.44 16.42 17.33 17.07 16.79 16.50 14.43 12.75 11.40 10.42 11.61 10.78 9.28
27.19 26.65 27.24 24.53 21.80 20.60 19.74 19.61 19.07 18.44 16.61 15.90 13.12 10.76 8.91 8.62 6.50 5.89 6.44 5.14 6.09 7.14 7.71 8.12 9.06 11.79 13.50 16.38 18.36 18.86 18.41 18.53 18.18 17.16 17.54 16.15 16.34 16.30 13.58 12.67 12.64 11.76 11.00 9.04
23.52 22.72 22.61 21.58 20.68 19.41 17.94 16.52 15.09 13.34 10.00 7.73 7.96 3.81 -0.11 -1.33 -0.46 0.64 5.47 2.13 -0.54 2.49 5.66 7.27 16.38 12.98 13.65 15.71 17.14 17.85 16.77 15.50 15.85 16.07 14.91 11.05 12.08 13.47 10.53 9.10 8.74 8.02 8.89 8.44
19.02 19.26 18.97 17.78 17.78 16.14 13.48 9.72 11.01 8.26 3.08 3.95 -0.53 0.02 -0.63 -2.74 -4.38 -2.29 -2.24 0.77 1.14 4.28 6.11 9.00 11.62 12.17 13.34 13.65 12.42 15.71 14.72 11.46 14.17 11.74 12.05 9.82 2.12 -1.60 3.55 6.74 7.29 2.05 -2.75 -2.05
14.08 13.43 11.87 11.21 8.66 7.69 6.72 3.55 4.47 1.48 -2.56 -2.26 0.44 -3.29 -2.80 -3.83 -4.38 -0.39 2.80 7.16 4.45 8.16 10.74 9.12 8.45 8.61 11.21 8.15 11.58 5.19 7.46 6.50 5.61 4.77 3.92 3.93 3.18 3.42 -0.09 -1.84 2.49 1.06 -0.59 -0.99
6.83 8.24 9.16 9.29 8.05 2.33 -0.61 -0.52 0.45 -2.14 -1.82 -2.32 -4.92 -5.65 -2.93 1.38 -0.45 2.30 -0.80 6.44 9.11 5.76 8.73 7.58 7.26 0.41 6.00 4.48 8.84 2.53 5.27 5.09 3.81 6.48 4.55 5.27 6.30 4.34 0.46 2.76 3.13 0.65 0.31 -3.48
11.41 10.41 9.66 7.26 6.71 4.80 1.31 1.95 -0.20 -0.13 -1.28 -2.93 -2.02 -0.65 3.43 8.99 10.28 6.58 5.33 11.49 12.14 5.68 9.61 3.06 -1.06 -2.58 -3.11 -1.85 -4.74 -4.01 -3.14 -4.92 -4.38 -3.49 -4.62 -6.56 -6.37 -4.19 -2.07 -0.84 -3.15 -4.19 -5.11 -2.10
11.42 12.95 10.25 9.03 10.61 13.07 12.31 11.94 12.04 12.17 3.31 7.61 4.94 0.91 11.24 7.03 4.03 12.17 9.18 4.20 0.41 1.04 0.39 -2.08 -3.42 -1.84 -4.05 -3.11 -5.10 -6.73 -6.37 -4.19 -3.58 -6.81 -4.45 -6.01 -8.00 -9.27 -11.27 -11.27 -9.81 -12.35 -12.35 -10.54
15.32 13.57 13.33 13.64 15.68 15.16 17.18 16.57 15.74 16.24 14.60 15.18 15.28 15.27 13.02 14.32 7.64 8.30 4.23 3.62 3.51 1.08 -0.04 -1.41 -0.16 -2.69 -9.35 -9.27 -5.28 -4.19 -6.91 -7.64 -6.27 -8.66 -9.83 -10.54 -5.28 -2.61 -0.96 -1.30 -2.93 -7.67 -9.09 -10.36
18.75 17.63 17.12 18.94 19.06 18.89 18.51 18.28 15.51 14.92 16.43 13.77 11.87 11.13 9.67 9.81 10.78 8.40 5.27 3.52 5.07 3.54 0.56 -2.94 -6.29 -4.94 -7.39 -7.31 -6.55 -4.92 -6.19 -4.25 -4.01 -3.51 -3.67 -6.42 -10.18 -8.55 -8.55 -4.56 -1.16 -0.11 -0.52 -3.83
20.55 17.56 17.67 16.71 17.17 16.00 14.77 14.13 8.76 6.71 3.96 3.78 6.74 8.05 12.64 11.45 6.49 3.01 2.18 -0.32 -1.42 -1.29 1.95 1.40 1.91 6.59 6.23 0.65 -2.61 -1.64 -6.22 -7.10 -5.28 0.69 -2.06 1.53 0.58 -4.56 -10.36 -9.09 -8.00 -7.10 -1.70 0.23

GFSNGP_sfc_wetblb_093.txt.gz
Wetbulb
25.79 26.60 25.80 24.23 24.28 25.73 24.81 25.87 22.18 25.12 27.84 33.46 36.12 35.28 35.05 34.82 34.17 32.71 31.74 31.40 31.67 31.28 31.56 32.44 33.10 34.35 35.98 37.89 39.44 42.80 43.06 43.21 44.67 48.69 50.75 49.51 48.08 47.02 46.23 45.47 45.06 45.22 44.47 43.36
22.13 24.21 24.05 23.05 26.15 26.94 26.92 27.60 27.51 28.61 28.13 37.76 37.07 35.90 33.35 32.41 31.69 30.45 30.59 30.99 31.28 31.26 31.49 31.78 32.36 33.13 34.79 36.21 37.74 40.25 39.41 39.39 40.48 40.90 42.26 41.40 41.23 40.96 40.58 39.88 40.29 40.38 39.15 38.38
17.46 24.50 24.36 19.99 25.79 29.19 27.95 29.81 30.58 25.44 32.82 35.88 32.85 30.21 29.52 30.18 30.23 29.52 29.75 30.21 30.57 30.81 31.17 31.73 31.78 32.69 33.07 34.38 36.11 36.89 37.26 37.10 36.45 37.03 36.78 36.76 36.55 36.56 36.46 36.51 37.71 36.97 36.01 35.62
17.68 21.77 12.60 25.81 32.80 32.39 31.89 32.72 34.48 36.08 34.16 33.65 29.93 29.46 29.57 29.87 29.19 29.52 30.48 29.93 30.20 30.59 30.68 31.10 32.21 32.57 32.68 33.18 33.50 33.59 33.83 35.23 36.09 34.78 33.05 33.62 33.71 33.31 33.56 34.10 34.49 35.01 34.40 34.02
14.01 16.82 22.90 26.95 30.31 28.68 28.16 28.57 32.38 32.88 32.47 30.27 29.94 29.73 27.12 30.38 30.30 30.32 31.07 31.29 30.94 31.50 31.38 31.05 31.07 32.14 31.97 31.48 31.30 31.41 31.47 32.10 33.02 34.25 32.90 32.39 31.19 31.15 31.59 31.52 31.72 32.25 33.37 32.89
23.10 12.49 11.57 22.49 29.38 33.01 33.29 24.59 30.46 30.35 29.43 32.36 30.76 29.36 24.39 29.54 31.11 30.91 31.37 31.75 31.35 31.77 31.87 31.33 31.05 31.21 30.02 28.89 28.71 28.49 29.86 30.43 31.97 32.28 32.06 31.72 31.17 30.68 30.91 30.73 30.14 30.32 30.25 31.19
20.63 18.80 22.34 27.38 30.48 33.24 23.55 23.10 28.97 27.68 27.38 28.72 25.45 26.79 28.92 30.87 30.55 30.64 29.80 30.18 29.60 29.28 29.63 30.79 31.42 29.75 26.56 26.16 25.59 27.60 29.32 29.81 29.87 30.33 31.51 31.66 31.41 31.17 30.63 29.83 29.31 28.94 28.67 29.37
24.09 21.42 18.85 29.65 29.73 24.01 29.02 30.18 28.89 27.51 27.35 26.18 26.54 26.53 26.13 26.16 26.60 27.43 25.45 26.65 26.93 27.30 27.61 29.35 29.75 29.09 26.46 26.03 26.87 27.55 27.60 27.00 26.88 28.04 28.88 29.82 29.43 28.90 28.92 28.60 27.82 27.82 27.67 27.80
23.87 22.42 30.29 30.78 29.52 31.08 32.20 30.16 28.89 27.75 27.43 25.89 23.61 21.55 21.50 22.07 21.52 22.61 24.23 25.07 25.90 25.55 26.18 27.71 28.89 27.89 25.93 27.04 26.99 26.19 25.53 25.63 25.91 26.21 26.45 27.43 26.81 26.95 26.66 26.87 26.23 26.12 26.23 26.14
26.71 27.13 27.63 30.09 30.35 30.82 29.61 27.51 27.73 27.47 25.88 24.41 20.40 20.34 19.16 19.23 19.65 19.63 21.42 22.39 23.65 23.76 23.22 24.23 27.02 28.50 28.17 27.86 27.24 25.99 24.80 24.84 25.46 25.52 25.02 25.77 26.03 25.84 24.82 24.82 24.44 24.63 25.04 25.19
25.70 28.02 28.53 29.11 30.35 29.49 28.60 28.80 28.28 27.81 26.58 24.13 21.94 20.43 21.40 20.98 20.12 19.28 18.80 20.78 21.39 21.17 21.68 22.21 24.45 25.58 27.87 30.22 27.97 26.02 24.88 24.55 24.00 23.82 24.13 24.76 25.30 24.69 24.85 25.79 25.61 24.06 24.53 25.40
20.88 27.91 27.28 27.33 29.63 31.55 28.20 27.05 27.33 25.31 23.71 23.57 22.16 19.70 18.46 18.78 20.51 20.22 18.48 18.76 18.65 19.19 19.45 20.50 21.63 22.60 24.45 27.39 28.71 27.04 24.38 23.72 23.06 22.49 22.70 22.81 23.66 24.64 28.34 28.05 28.20 28.25 28.40 27.67
25.84 30.16 29.76 29.77 30.25 29.71 27.10 26.43 26.09 25.07 24.46 22.54 22.72 21.74 21.04 19.50 20.38 21.22 19.28 17.82 16.37 16.45 17.64 17.08 17.53 18.30 20.24 24.86 26.17 26.15 26.30 26.19 24.07 22.88 21.77 20.84 20.19 20.21 19.05 21.23 24.73 27.48 27.91 28.10
32.93 30.09 27.84 29.62 27.30 30.24 28.24 27.45 27.31 25.81 24.65 23.68 22.34 22.09 21.81 20.31 19.97 18.88 18.30 18.86 18.31 16.68 15.46 15.09 15.04 14.56 15.92 19.16 22.49 22.45 22.49 22.76 22.66 23.13 20.54 19.18 18.44 17.61 17.26 16.24 16.09 16.52 22.26 24.88
31.96 31.87 29.01 29.95 27.77 26.05 25.97 24.79 23.30 22.55 21.93 21.03 21.17 20.16 19.53 17.76 17.26 17.26 18.61 18.57 17.93 15.78 14.23 14.48 13.53 13.08 14.81 16.27 16.46 17.96 19.96 18.94 18.58 19.61 19.67 19.64 17.94 16.86 15.89 14.99 14.54 14.56 15.89 15.99
31.52 30.44 28.49 28.95 27.42 24.86 23.57 23.07 21.48 20.85 20.68 20.05 19.08 18.27 17.91 17.12 15.98 14.90 15.01 15.19 13.29 10.85 11.96 10.07 12.35 12.03 14.10 13.87 15.29 16.83 17.26 19.03 17.79 18.03 18.26 17.75 16.41 14.79 13.96 13.47 12.95 12.47 11.89 11.13
25.84 24.58 25.02 23.71 23.55 23.22 22.37 22.20 21.57 21.19 20.52 19.09 18.35 18.21 16.50 15.38 14.17 12.46 9.31 8.28 5.27 3.15 2.46 5.03 5.86 9.25 12.28 13.62 17.01 15.20 15.45 16.31 15.27 17.02 16.44 15.55 13.75 12.08 12.30 12.04 12.01 11.19 8.88 8.03
26.26 27.01 26.72 24.51 22.49 20.83 19.91 19.98 19.60 18.70 16.18 15.88 12.02 9.35 7.14 6.80 4.87 2.95 1.93 0.03 2.34 4.24 4.07 3.69 6.74 9.51 10.82 13.25 15.75 16.26 15.85 16.37 16.87 15.56 16.14 14.66 14.85 13.85 12.21 11.89 11.58 10.45 8.73 6.43
25.40 24.08 23.58 22.36 21.42 19.31 17.70 16.41 14.13 12.46 8.80 6.52 7.05 2.03 -2.60 -4.42 -2.79 -2.97 -0.65 -2.73 -2.48 0.81 3.91 4.31 15.01 11.56 12.43 14.34 15.58 15.32 13.98 12.57 14.15 14.83 14.79 12.41 11.60 12.26 9.04 7.45 6.42 5.03 6.97 7.15
19.88 19.78 18.90 17.62 16.63 15.36 12.71 8.46 9.34 6.78 0.37 1.87 -2.48 -1.94 -1.88 -5.14 -8.04 -5.16 -4.83 -0.58 0.27 2.89 3.81 7.54 10.25 11.25 12.48 12.55 10.06 13.30 12.24 8.76 12.10 9.40 8.11 8.02 2.77 2.07 6.17 8.86 8.85 3.97 0.17 1.61
13.16 12.53 10.61 9.32 4.80 3.73 2.63 -0.55 3.07 0.37 -4.24 -5.88 -0.83 -5.33 -4.11 -5.87 -7.32 -6.95 1.71 5.22 3.40 6.35 8.76 7.33 7.04 7.91 10.81 7.96 9.27 2.21 4.83 4.01 5.12 4.09 -0.07 0.30 -3.69 -2.42 -3.51 -1.33 -0.79 -4.96 -7.14 -7.32
3.82 6.46 6.01 5.49 4.93 0.30 -3.15 -3.17 0.09 -4.24 -4.42 -5.69 -9.13 -9.49 -5.32 0.39 -1.92 0.75 -2.30 5.41 7.90 4.22 7.06 5.87 5.53 -1.23 5.16 3.52 7.15 -0.56 2.86 3.09 5.26 6.87 5.22 3.62 1.31 -2.08 -4.42 -2.97 -4.42 -3.69 -3.16 -6.77
7.63 6.74 5.14 4.39 4.85 2.75 -0.54 -0.41 -2.86 -2.32 -2.92 -4.05 -2.60 -1.23 2.28 7.26 8.50 5.11 4.50 10.53 11.14 4.89 8.24 2.14 -2.06 -4.01 -3.73 -7.50 -7.68 -8.59 -6.77 -5.69 -4.60 -4.45 -3.51 -4.05 -1.90 -0.83 -0.85 0.03 -2.43 -2.79 -4.42 -4.78
9.72 11.18 8.21 7.57 8.44 11.59 10.81 10.70 10.33 10.90 0.53 5.70 3.59 -0.75 8.29 5.49 2.72 11.19 9.21 3.70 1.54 -1.35 -2.61 -4.29 -5.21 -3.11 -6.00 -9.13 -9.67 -10.22 -9.67 -9.67 -9.86 -12.03 -9.31 -9.67 -11.85 -8.22 -6.05 -6.77 -6.59 -12.21 -14.21 -12.21
14.19 12.95 11.94 11.94 14.09 13.35 15.79 15.35 14.31 14.67 14.04 14.39 14.22 14.57 11.39 13.07 6.45 6.73 2.34 1.19 2.24 0.45 -0.58 -3.05 -1.76 -3.56 -11.01 -11.67 -10.76 -10.04 -10.94 -11.67 -11.49 -13.12 -12.57 -13.30 -12.03 -10.04 -9.49 -11.31 -10.58 -9.32 -13.66 -12.94
17.42 16.27 15.35 16.72 16.31 16.18 16.62 16.69 12.40 12.24 13.82 10.83 11.61 12.25 10.54 8.75 11.53 10.40 7.05 1.82 1.86 2.76 -0.17 -2.15 -9.13 -9.13 -10.59 -9.71 -10.22 -10.22 -9.67 -8.04 -8.41 -8.22 -11.49 -10.76 -13.48 -11.85 -12.76 -11.31 -11.31 -6.59 -6.59 -8.77
18.64 16.90 16.56 15.84 15.82 15.19 14.51 14.13 8.67 6.73 4.04 0.02 1.28 -0.06 3.28 0.12 3.99 8.04 5.44 2.61 1.04 0.84 -0.22 0.92 0.22 -0.39 0.83 1.47 0.36 -0.93 -1.09 -4.08 -7.14 -4.07 -5.50 -4.24 -5.50 -6.95 -6.41 -7.86 -9.86 -10.58 -10.22 -10.04

GFSNGP_sfc_wetblb_096.txt.gz
Wetbulb
25.04 25.73 24.93 24.25 23.10 22.66 21.58 23.17 17.32 22.31 23.27 28.58 33.77 34.83 34.18 33.91 33.07 31.57 31.09 31.05 31.11 30.88 31.26 31.82 32.12 32.87 34.13 35.37 37.05 39.43 38.75 38.24 39.05 40.86 42.31 46.79 51.40 48.75 47.55 46.86 46.37 46.63 45.24 43.47
21.22 24.51 23.29 21.74 23.29 23.89 24.73 25.21 25.19 25.30 24.68 33.53 36.36 34.75 31.77 30.93 30.63 29.68 29.42 30.07 30.42 30.69 30.82 30.98 31.56 32.11 32.89 33.51 34.79 36.55 37.13 37.10 37.26 37.25 37.58 37.97 40.32 41.53 41.24 40.96 40.25 39.91 38.71 38.10
15.95 23.72 22.76 18.23 23.26 27.62 28.37 30.21 30.04 23.31 27.76 34.34 30.92 28.90 28.32 29.02 29.28 29.15 28.98 29.21 29.55 29.95 30.38 30.69 30.98 32.13 31.72 32.42 33.64 33.90 33.86 35.30 36.42 36.26 35.33 33.93 34.36 36.80 36.80 36.88 36.88 35.80 35.36 35.22
16.74 20.34 7.99 23.96 31.92 31.34 28.51 31.07 29.91 31.91 34.42 35.18 29.13 28.76 29.22 29.88 28.82 28.89 29.14 29.19 29.60 30.06 30.37 30.51 31.27 31.20 31.54 31.65 31.69 31.78 31.93 32.49 33.83 34.65 34.22 33.72 32.24 32.50 33.48 34.00 33.93 33.66 33.42 33.61
11.48 15.09 20.45 24.54 28.09 26.30 26.45 26.41 29.90 29.89 31.04 29.44 28.75 27.93 26.91 30.00 30.10 29.79 30.48 30.56 30.33 31.03 30.88 30.62 29.65 29.70 29.58 28.76 29.63 29.73 29.85 30.44 31.60 32.33 32.33 32.22 32.05 31.42 31.46 31.21 31.14 31.24 32.09 32.31
20.74 11.39 8.56 20.86 27.96 32.06 31.77 22.40 28.33 28.31 28.94 29.65 29.65 27.50 23.30 29.06 29.69 28.90 29.54 29.10 28.54 29.61 30.44 29.74 29.63 28.84 27.85 26.78 26.67 26.57 27.96 29.47 30.63 31.21 30.78 30.00 30.32 30.65 30.92 30.96 30.31 30.29 30.18 30.95
18.77 16.01 18.91 26.09 29.00 31.50 21.88 20.56 27.82 27.60 27.38 30.38 24.44 26.23 28.03 28.29 26.73 27.32 27.77 27.72 28.29 28.65 28.35 27.54 28.95 28.24 25.52 24.84 24.64 26.57 27.93 28.15 27.86 29.05 29.57 29.54 29.32 29.47 29.55 29.43 29.34 28.99 28.76 29.45
22.40 18.24 14.49 28.36 28.55 21.84 26.60 29.04 28.65 27.55 26.54 25.25 24.87 24.26 23.27 23.31 23.14 24.02 24.89 25.46 26.35 26.64 26.68 28.59 27.57 26.84 25.04 24.09 25.61 25.72 26.02 25.71 25.88 26.64 27.41 27.56 27.52 27.96 28.20 28.17 27.38 27.35 27.45 27.35
23.16 19.97 28.94 29.51 28.14 29.42 29.58 27.97 27.39 26.39 25.56 24.57 22.08 20.20 20.75 20.42 19.87 20.25 22.20 23.13 24.63 24.53 24.93 25.87 27.90 27.50 25.11 26.01 26.07 25.15 24.39 24.32 24.77 25.02 25.15 25.48 24.79 24.82 25.21 26.25 26.67 26.57 26.26 26.08
25.46 26.80 27.21 29.12 29.23 29.41 28.26 26.50 26.42 25.53 24.01 22.82 19.78 19.13 17.91 16.52 17.23 17.73 19.31 20.82 22.32 22.15 21.85 22.55 24.72 26.41 28.76 27.42 26.80 26.04 24.53 23.87 23.90 24.91 24.23 24.73 25.28 25.49 24.77 24.28 24.76 25.03 25.59 25.44
25.23 27.09 27.71 28.48 28.86 28.94 27.84 27.30 25.34 25.06 24.19 22.74 20.77 19.84 20.15 18.55 17.08 16.71 17.01 18.37 20.19 20.30 20.32 20.76 22.59 23.06 25.21 27.35 26.96 25.11 24.26 23.77 23.27 23.02 23.37 24.35 25.32 24.95 25.35 27.13 26.86 24.63 25.56 26.52
18.44 27.34 26.51 26.66 29.73 29.87 27.17 26.17 25.79 23.69 22.31 22.63 21.58 19.73 19.43 18.35 19.30 18.51 17.21 17.61 16.86 17.56 17.75 18.22 19.57 20.40 21.63 25.07 26.62 25.93 23.85 22.90 22.16 22.42 22.25 22.59 23.19 21.41 27.63 28.73 29.21 29.64 29.90 28.37
22.44 28.90 27.56 28.74 28.65 28.24 25.81 24.97 24.72 23.57 22.70 21.05 21.89 21.36 20.41 19.20 19.46 20.23 18.12 16.70 15.13 14.34 15.47 14.13 14.81 16.15 17.50 21.18 24.10 23.78 24.13 25.02 22.59 21.56 20.74 20.51 19.72 19.38 18.73 22.20 25.20 27.73 28.22 28.12
29.76 28.84 26.47 28.42 25.73 28.03 26.85 26.04 25.64 23.75 22.89 21.75 21.10 21.59 20.60 19.21 19.14 18.02 17.46 18.09 16.72 15.50 13.30 11.49 11.53 12.02 12.88 15.45 18.37 17.51 17.09 18.64 18.32 17.90 17.06 16.46 15.78 16.83 16.79 15.78 15.46 16.29 20.79 23.61
31.24 30.44 28.57 27.75 26.37 25.42 25.49 24.56 22.78 21.41 20.91 19.98 20.52 19.81 19.23 17.03 15.78 15.24 16.26 16.99 16.43 13.90 11.83 11.60 11.60 11.32 12.01 12.41 13.68 14.26 14.28 11.62 10.83 13.83 14.24 14.36 15.35 15.12 15.82 15.87 15.03 14.53 15.13 15.44
30.63 29.69 28.79 26.69 24.84 24.18 23.93 22.75 21.07 20.65 20.24 19.48 18.44 17.72 16.86 15.55 14.10 13.02 12.61 12.41 11.57 8.74 9.54 7.15 10.40 8.61 11.15 10.82 11.61 12.34 12.09 15.00 13.89 13.78 13.38 12.93 13.23 13.86 13.60 13.79 13.29 12.22 11.37 11.46
25.21 24.17 25.94 24.58 23.72 23.56 22.61 22.00 21.65 20.85 19.20 18.14 17.16 16.88 15.71 14.20 12.85 10.72 6.81 5.74 2.13 -0.78 -0.89 1.25 4.27 6.99 9.67 10.85 13.70 11.90 11.85 13.06 12.72 13.84 13.11 12.30 11.03 11.44 12.34 12.16 11.66 10.75 9.73 9.61
26.71 26.14 25.89 25.46 23.75 21.34 20.31 20.43 19.50 18.18 15.71 14.72 10.82 8.09 5.70 5.38 2.62 0.02 -1.43 -2.36 -0.47 1.74 2.04 1.22 4.63 7.92 9.20 11.93 14.07 14.85 13.69 14.41 15.05 13.22 14.07 11.47 12.28 12.95 11.15 11.28 11.46 10.30 9.16 7.31
26.09 24.37 24.09 23.14 21.90 19.33 17.39 15.82 13.49 11.69 8.34 6.55 6.09 0.71 -4.52 -7.05 -6.15 -5.42 -6.87 -4.20 -2.62 0.83 3.43 3.30 13.83 10.41 11.34 13.27 13.83 13.98 12.55 10.64 12.13 12.48 12.42 9.63 8.32 9.54 6.54 6.52 6.85 6.32 9.16 8.68
20.30 20.17 19.00 16.73 16.23 15.05 12.04 7.98 8.93 5.31 -1.10 1.41 -2.06 -4.70 -3.61 -6.69 -10.32 -7.60 -6.71 -1.74 -1.42 1.23 2.63 6.82 8.85 10.13 11.18 10.88 8.42 11.19 9.46 5.77 10.20 8.32 7.33 7.02 -0.01 -0.19 3.94 6.41 5.31 0.33 -1.66 -0.10
13.58 12.23 10.28 8.82 4.46 4.28 2.67 -1.56 2.66 0.90 -6.69 -7.80 -1.65 -5.24 -3.97 -6.87 -9.23 -9.59 0.88 5.23 2.77 5.17 7.60 5.98 6.13 7.29 9.29 7.42 7.72 0.32 3.15 0.16 0.55 0.92 -1.63 -3.07 -4.33 4.56 0.83 0.64 1.38 0.68 -4.16 -4.52
4.04 6.22 4.52 4.27 4.61 -0.53 -5.60 -4.16 1.03 -2.24 -4.35 -6.87 -11.41 -11.41 -7.24 -0.53 -3.50 -1.14 -2.93 5.06 7.06 2.72 5.75 4.86 4.17 -2.04 3.29 1.45 5.49 -2.21 2.06 1.58 -1.08 1.45 3.19 3.38 -0.08 -1.86 -2.93 -2.56 -1.48 -1.63 -2.88 -0.77
5.88 5.16 3.98 3.21 4.87 2.46 -0.66 -1.61 -4.21 -3.45 -4.39 -5.79 -4.70 -3.64 1.13 6.12 6.86 4.77 4.53 9.40 9.75 4.49 7.23 1.92 -2.75 -5.21 -5.79 -8.50 -9.59 -10.50 -9.05 -8.14 -6.87 -6.69 -8.69 -11.04 -9.05 -6.15 -2.18 -0.95 -2.21 -2.20 -7.24 -7.60
8.75 10.27 8.33 7.73 8.10 10.87 9.99 9.48 9.72 9.16 -0.45 4.69 2.21 -1.42 7.33 4.40 3.46 10.20 8.41 3.61 0.31 -3.42 -3.62 -5.25 -5.97 -3.89 -7.59 -11.41 -11.22 -12.13 -11.77 -12.13 -12.31 -13.04 -9.09 -11.41 -16.12 -13.58 -12.13 -10.32 -8.50 -10.50 -12.86 -12.86
13.34 12.03 11.06 11.16 13.68 11.95 14.30 13.87 13.08 13.36 13.52 14.20 13.94 14.03 10.68 10.98 6.99 6.86 2.68 0.61 1.40 1.13 -1.45 -4.97 -4.02 -5.79 -11.95 -13.22 -13.04 -12.67 -13.22 -13.58 -13.94 -13.58 -12.67 -15.03 -13.76 -13.58 -9.41 -9.41 -7.78 -2.22 -3.98 -3.98
16.65 14.98 14.00 15.48 14.58 14.48 14.72 14.99 10.99 10.87 11.45 7.55 6.42 0.55 1.41 7.52 11.48 11.06 8.32 2.72 1.67 3.28 -0.85 -4.57 -8.69 -10.32 -11.41 -9.59 -9.77 -10.32 -9.41 -7.78 -10.86 -11.22 -13.22 -11.41 -15.39 -13.58 -14.67 -12.31 -14.31 -11.04 -3.28 -0.85
16.68 14.59 14.58 14.14 14.49 13.96 12.79 12.34 7.71 6.09 1.83 -1.80 0.25 -2.49 0.34 -2.76 -3.97 3.97 6.89 2.80 0.99 1.91 3.46 2.55 2.94 3.95 3.81 3.10 3.42 0.74 -0.99 -0.81 -4.88 -2.36 -7.60 -7.05 -8.87 -6.87 -9.41 -8.50 -9.77 -12.13 -13.58 -7.42

GFSNGP_sfc_wetblb_099.txt.gz
Wetbulb
26.96 27.37 27.23 26.45 26.00 26.12 23.63 25.00 20.58 24.51 24.95 29.43 32.37 34.71 34.23 33.32 33.37 31.94 30.96 30.99 31.48 31.21 31.36 31.77 32.00 32.30 32.91 33.51 34.20 35.89 36.69 37.78 38.06 39.09 38.98 39.79 44.58 44.58 55.89 53.05 50.98 49.42 47.38 45.31
22.77 26.80 26.58 23.67 26.01 25.80 25.96 26.13 25.95 27.41 27.78 35.21 36.33 35.23 32.36 31.32 30.88 29.99 29.40 30.00 30.30 30.75 30.95 30.57 30.89 31.23 31.54 32.35 32.97 34.26 33.73 34.62 37.03 37.38 37.28 36.11 36.71 38.64 40.02 42.62 41.73 40.73 39.44 39.33
17.37 24.08 23.76 19.63 24.53 25.90 28.07 30.56 30.01 25.13 30.65 35.80 32.06 30.89 29.93 29.47 29.99 29.32 29.20 29.34 29.65 29.89 30.26 30.06 30.17 30.63 30.74 31.02 32.21 32.08 32.43 33.04 34.16 35.82 35.92 36.34 35.23 34.78 33.83 35.47 36.45 35.70 35.71 35.87
18.85 21.35 11.31 26.03 31.14 31.29 27.45 30.15 30.18 30.02 32.29 35.19 31.99 29.49 29.83 30.62 29.96 29.23 29.45 29.02 29.57 29.91 29.93 30.26 30.39 30.22 31.06 30.99 30.74 30.30 30.27 31.03 31.91 32.96 33.82 34.90 34.46 33.05 31.98 31.96 33.10 33.58 33.70 34.63
17.87 18.03 22.19 25.89 27.68 26.21 25.56 25.81 27.95 26.90 30.72 28.60 28.32 28.28 27.69 30.51 30.21 28.78 28.57 28.85 28.98 29.94 29.34 29.92 29.50 29.93 29.57 29.19 29.76 29.16 28.65 28.83 30.38 30.90 30.41 31.42 32.04 31.98 31.81 31.49 31.18 31.63 32.58 32.80
21.05 15.50 13.75 21.95 27.88 30.93 30.81 22.10 27.42 26.93 26.87 28.07 29.02 26.34 24.15 27.98 28.68 27.59 28.12 28.65 28.76 29.56 29.38 28.40 28.96 28.93 27.71 27.46 27.25 26.91 28.20 29.08 29.80 29.99 29.48 28.69 29.35 30.35 31.47 31.34 30.11 30.55 30.20 31.36
20.53 19.72 22.29 26.37 28.61 30.75 21.20 21.28 27.42 26.93 26.24 30.16 23.44 25.08 26.08 26.79 26.07 27.00 27.40 27.94 28.54 28.48 28.01 29.10 29.09 28.32 26.24 26.17 25.33 27.00 28.43 28.29 28.53 29.66 29.14 29.22 29.39 29.78 29.43 29.25 29.33 28.60 28.11 28.54
22.31 19.43 16.63 28.51 27.98 22.39 26.01 29.11 27.59 26.39 25.89 23.86 23.79 23.81 23.30 23.10 22.81 24.02 24.75 25.97 26.93 26.76 26.64 27.97 29.40 28.70 26.52 25.34 27.23 27.18 27.24 27.62 27.29 27.80 28.90 29.66 28.56 28.87 29.64 29.89 28.53 27.81 27.16 26.50
23.66 22.66 29.01 29.25 27.43 29.01 29.23 26.66 26.84 25.53 25.11 24.10 21.92 20.80 21.05 20.81 21.07 21.48 23.16 24.46 25.96 25.80 26.14 26.74 27.41 27.99 26.78 27.33 27.99 27.41 26.72 25.82 27.63 27.64 28.31 29.45 29.22 28.86 29.28 29.58 28.94 28.58 27.96 27.84
25.44 26.88 27.47 28.80 29.24 28.60 28.10 26.20 26.14 25.52 24.58 23.34 20.50 20.31 19.29 19.56 19.60 20.11 21.09 22.28 23.96 24.09 23.75 23.77 25.86 26.64 26.88 28.72 28.43 27.82 26.59 26.35 26.83 27.04 26.97 28.55 28.98 29.15 28.74 29.39 28.77 28.94 29.21 28.08
25.06 27.22 28.17 28.46 28.89 28.25 27.18 26.79 25.32 25.58 24.74 23.15 21.64 20.89 21.04 20.30 19.78 19.93 20.19 20.78 21.81 21.77 22.04 22.28 24.46 25.05 26.23 28.05 29.28 26.82 26.17 26.44 26.24 26.32 26.31 25.98 27.24 28.21 28.83 29.93 29.64 28.31 28.62 28.97
23.17 28.01 27.34 27.40 29.44 29.68 27.17 25.89 25.36 23.72 22.60 22.90 21.99 20.19 20.40 19.62 20.42 20.17 19.10 19.41 19.07 19.14 19.39 20.09 22.17 22.59 23.76 26.72 28.35 27.88 26.69 25.05 24.83 25.79 25.72 25.48 25.44 25.37 26.84 28.84 29.19 28.67 28.43 28.77
27.06 29.93 28.95 28.68 28.62 27.95 25.39 24.64 24.68 23.73 23.41 21.98 22.26 21.92 21.40 20.50 20.80 21.10 19.72 18.40 16.36 15.42 15.95 17.06 18.05 18.22 18.87 22.78 25.32 25.09 24.78 24.51 24.28 24.17 23.95 24.21 24.04 23.47 23.43 24.39 24.43 25.67 26.76 26.62
30.14 29.20 26.42 27.83 25.21 27.20 26.19 25.30 25.05 23.82 23.57 22.84 22.27 22.52 21.72 20.55 19.90 18.60 17.79 18.69 17.82 16.31 15.41 16.21 16.43 15.82 16.58 19.72 22.04 21.37 23.66 20.46 23.26 22.80 22.90 22.95 22.82 22.60 22.56 21.93 20.37 20.32 20.73 22.49
30.12 30.81 30.05 28.45 27.47 26.00 26.32 25.26 22.86 21.68 21.63 21.12 21.78 20.55 19.87 17.60 16.36 15.76 17.36 18.12 17.61 15.92 14.28 14.83 14.67 14.71 15.60 17.06 19.79 20.98 24.21 23.82 23.18 22.70 21.64 20.93 22.23 22.00 21.46 20.41 19.37 19.20 20.15 19.45
29.92 28.66 27.67 26.22 25.24 25.15 24.67 23.62 22.20 21.26 21.13 20.41 19.52 18.36 17.40 16.88 15.57 14.45 14.10 14.22 13.68 11.05 11.39 10.79 13.95 12.79 14.88 17.05 21.11 22.54 22.73 19.85 20.80 22.99 21.81 21.05 20.76 20.62 20.02 19.16 18.20 17.55 16.91 17.28
27.17 26.30 26.79 25.03 24.52 24.07 23.68 23.44 22.89 21.49 20.11 19.20 18.31 18.02 16.96 15.62 14.72 12.75 10.32 9.35 8.18 8.01 8.85 9.81 11.55 12.43 13.65 16.67 20.72 22.24 22.89 22.79 18.49 22.43 20.59 19.93 19.58 19.17 19.21 18.37 17.16 16.24 15.63 14.90
29.47 29.55 30.22 27.91 25.32 23.11 22.01 21.86 21.16 20.14 18.26 17.11 14.13 12.36 10.80 11.51 11.24 8.67 6.96 7.45 9.46 10.35 9.98 9.03 12.28 13.93 14.67 17.23 19.26 21.07 21.58 21.14 20.95 20.73 20.11 19.56 19.29 19.27 18.85 17.96 16.81 15.89 15.21 13.62
28.22 26.73 26.51 25.51 24.20 21.72 20.11 18.44 16.32 14.62 12.53 11.28 10.94 8.44 6.45 5.11 7.36 6.97 6.17 8.76 9.94 12.38 10.98 10.25 14.81 14.92 15.49 15.96 17.47 19.27 19.17 19.41 19.34 19.13 19.58 17.03 18.57 18.21 18.13 17.96 16.76 16.48 15.78 14.57
22.95 22.59 21.52 19.73 19.14 18.39 14.88 12.58 12.46 9.12 7.39 7.67 4.79 6.57 8.14 5.18 3.71 6.03 7.21 10.40 10.26 12.40 10.63 11.90 13.64 14.44 14.46 14.21 12.90 16.88 16.92 17.02 16.50 17.03 16.00 16.88 16.98 17.60 17.72 14.45 16.20 16.15 16.09 15.25
17.94 16.40 14.14 11.66 8.84 8.39 8.01 8.60 8.24 7.48 3.55 4.54 9.76 8.41 8.46 5.74 4.17 3.91 12.57 14.57 12.85 11.95 11.49 10.56 11.55 13.61 14.25 12.68 14.82 15.57 15.40 15.15 14.79 14.24 14.02 13.91 14.59 15.24 16.03 16.36 16.48 16.00 15.67 15.19
12.89 11.16 9.26 9.02 8.45 5.17 4.60 7.59 7.15 4.67 4.98 3.99 0.74 1.86 5.69 10.65 7.80 9.38 8.55 13.79 15.37 7.66 11.96 13.49 12.39 4.52 10.24 8.70 13.50 14.00 13.62 13.35 13.40 13.71 13.47 13.40 13.38 13.19 13.10 13.46 13.79 14.50 14.51 14.51
11.10 10.69 9.51 9.00 10.63 9.29 6.85 7.65 6.03 7.77 6.87 6.88 7.41 9.24 13.10 15.74 16.11 16.20 15.04 14.58 15.55 11.34 14.80 14.71 5.79 2.11 1.74 13.10 13.21 12.62 12.33 11.89 12.07 12.15 12.05 11.40 10.91 11.23 11.40 12.03 12.41 12.52 13.03 12.62
11.53 12.39 11.38 10.93 10.01 11.78 11.92 11.03 11.29 11.66 9.34 11.08 9.66 8.18 13.45 16.71 17.45 17.10 17.54 11.05 6.98 9.40 13.20 13.20 10.05 4.01 -0.28 11.46 11.22 11.75 11.80 12.30 11.48 11.54 11.86 4.06 10.92 9.91 11.10 11.22 11.27 12.72 10.86 8.35
14.21 13.21 12.32 13.10 14.91 15.61 15.45 15.39 15.49 15.91 15.40 16.92 16.87 16.65 14.68 16.17 16.02 17.81 16.90 15.95 8.74 10.21 15.54 5.75 2.23 1.36 10.15 11.03 10.49 9.98 10.66 11.35 11.86 11.01 11.07 10.77 10.72 10.15 11.39 11.60 10.11 11.07 11.22 10.44
16.04 15.57 16.37 17.86 18.28 18.54 18.22 17.98 17.85 17.86 18.19 17.77 16.91 15.23 15.26 14.43 15.81 16.27 16.85 14.00 13.64 10.14 14.58 13.64 11.77 11.37 11.43 11.09 10.62 10.28 10.24 10.40 9.85 9.69 9.30 10.40 10.02 9.23 9.37 9.62 9.50 9.98 10.45 10.69
18.23 16.91 17.57 17.91 19.00 19.40 19.58 18.59 18.49 17.75 14.72 16.30 15.41 14.51 13.49 13.36 13.56 13.56 11.90 15.73 14.82 12.91 13.10 12.86 11.93 10.38 10.65 11.10 11.42 11.59 11.62 11.77 10.05 10.22 10.36 10.34 9.44 9.83 9.63 9.53 10.22 10.40 9.07 7.40

GFSNGP_sfc_wetblb_102.txt.gz
Wetbulb
29.17 29.93 29.80 28.95 29.26 30.02 28.20 29.37 24.85 29.16 28.96 33.01 36.81 39.10 39.86 38.34 37.35 35.67 33.64 33.69 34.65 35.42 35.73 36.80 35.95 35.31 35.13 32.99 33.07 34.43 33.89 33.87 36.66 38.55 39.11 39.06 39.32 41.22 44.94 51.86 57.60 56.66 53.53 51.49
25.81 29.11 29.09 27.20 29.82 30.33 30.03 30.02 29.72 30.23 30.39 38.83 39.54 39.38 35.54 35.48 34.80 33.26 32.89 32.54 33.19 33.99 33.86 34.29 33.44 33.05 33.15 33.63 32.80 32.78 32.48 33.10 34.39 35.29 37.78 38.30 37.17 36.42 37.08 37.63 40.66 44.13 44.77 45.23
22.35 26.64 26.17 23.35 28.25 30.09 30.78 32.18 32.41 28.72 33.52 36.44 35.60 34.77 33.13 33.17 32.12 31.44 31.04 31.17 30.97 31.68 32.36 32.73 32.22 32.53 32.49 32.67 33.76 31.62 31.00 31.87 31.95 32.65 33.89 35.34 36.18 35.38 33.89 34.21 34.59 36.01 38.29 37.82
23.96 24.56 16.18 28.43 33.90 33.02 29.50 32.32 32.19 32.06 32.44 32.92 32.01 31.46 31.82 31.91 30.75 30.36 30.02 29.52 29.40 30.67 31.21 31.86 31.98 32.04 32.81 32.90 32.02 32.16 30.63 30.31 30.87 31.24 31.42 32.51 34.19 33.68 33.00 32.82 32.08 32.10 33.38 35.44
23.52 23.58 26.30 26.84 28.96 28.12 27.25 26.22 29.75 28.68 30.31 29.23 31.02 31.74 28.87 30.79 30.34 29.42 29.52 30.63 30.33 31.01 31.35 30.81 30.61 31.68 31.75 30.97 31.26 30.81 30.50 30.73 30.90 30.39 30.16 30.53 29.93 31.41 32.04 32.15 31.47 30.64 31.42 33.12
25.60 19.41 17.79 27.64 31.09 33.29 30.65 23.57 28.53 28.22 28.32 30.92 31.52 29.76 26.23 28.72 29.48 28.97 29.92 30.44 30.80 31.15 31.07 30.52 30.37 30.99 30.30 29.48 29.20 29.00 29.54 29.82 31.47 32.04 30.67 30.13 31.04 30.34 30.58 30.35 28.94 29.06 28.27 29.98
24.83 23.67 25.75 26.95 31.85 32.71 22.97 23.79 28.31 27.77 27.45 29.90 26.73 27.47 27.29 28.24 27.58 29.25 29.89 30.05 30.95 30.69 29.60 30.47 32.64 31.41 29.30 29.10 27.75 29.02 30.75 30.70 30.63 31.55 31.54 31.73 31.73 31.92 31.73 30.83 29.43 28.19 27.04 26.96
26.34 22.73 19.30 31.46 31.47 26.72 27.44 29.96 28.89 28.20 27.36 26.14 26.31 25.81 25.48 25.44 25.13 26.75 27.97 28.90 29.93 29.37 28.94 30.20 30.81 31.21 29.63 28.37 30.17 30.72 30.59 30.57 30.40 31.07 31.89 32.46 32.28 32.28 31.92 31.73 30.96 29.95 28.63 27.65
26.69 25.55 29.79 30.25 28.40 29.82 31.14 29.54 28.66 27.23 26.81 26.18 24.30 22.99 23.74 23.68 24.09 25.21 26.94 27.99 29.74 29.44 29.12 29.15 29.85 29.68 28.89 30.65 31.69 31.81 30.97 29.95 30.66 31.48 31.49 32.39 31.67 31.49 33.01 32.37 31.95 31.05 30.19 29.18
28.72 29.02 29.33 29.60 29.82 30.13 29.68 28.25 27.90 27.91 26.82 25.69 22.68 22.90 22.62 23.52 23.88 24.34 24.94 25.74 27.94 28.35 27.18 27.18 29.02 29.26 29.65 31.19 32.88 31.70 30.51 30.11 30.01 30.18 30.34 30.25 31.38 31.19 29.25 30.55 30.85 30.06 29.90 29.73
27.49 29.26 29.61 29.76 30.18 29.41 28.36 28.36 27.23 27.23 26.54 25.22 25.00 24.79 24.81 24.24 24.36 24.29 24.31 24.79 25.60 25.30 25.51 25.92 27.71 27.85 29.20 30.21 31.99 31.29 30.17 30.10 30.28 30.03 29.79 29.16 27.65 27.62 28.72 28.76 28.72 29.07 28.84 28.32
28.18 31.13 30.89 29.15 30.24 30.39 27.88 26.72 27.16 25.98 25.27 25.94 25.61 24.14 24.59 23.63 24.10 23.87 22.78 22.93 22.73 22.93 23.40 24.79 25.96 25.63 27.19 29.64 29.98 29.86 28.87 28.43 28.36 29.29 29.44 29.51 29.18 27.22 26.08 26.41 27.10 27.35 27.37 28.10
29.94 32.86 31.26 30.81 30.44 29.83 27.66 26.91 27.10 26.39 26.11 24.84 25.57 25.72 24.99 23.90 23.97 23.25 23.53 22.14 20.82 20.65 21.56 22.38 22.46 21.98 23.37 26.39 27.76 27.31 26.40 27.42 28.24 27.71 27.85 27.57 27.07 26.52 26.06 26.50 24.56 23.63 25.25 25.55
33.30 31.79 27.83 29.40 26.90 28.77 28.45 28.11 28.02 27.44 27.04 26.78 26.30 26.60 25.59 24.52 24.06 23.01 21.76 22.11 22.02 21.33 20.75 20.93 20.41 19.70 21.69 24.38 25.56 26.46 27.61 25.57 27.48 27.32 27.30 27.31 27.05 26.70 26.33 25.30 24.70 24.37 22.55 22.26
32.64 33.80 32.61 30.73 29.81 28.23 28.37 27.84 26.22 25.59 25.54 25.18 26.07 25.32 24.95 22.80 21.10 20.50 22.13 22.26 22.00 20.31 18.91 19.31 18.31 19.13 20.93 22.80 25.62 25.70 26.56 26.92 27.67 27.78 26.64 25.94 26.62 26.28 25.76 25.08 24.27 24.05 24.90 24.06
31.65 32.43 31.27 29.54 28.19 28.28 28.06 27.60 25.95 25.02 24.78 24.31 23.44 22.73 22.34 21.82 20.52 19.43 19.06 18.45 18.10 15.82 16.03 15.28 17.53 17.44 19.76 22.16 25.75 26.76 26.99 24.07 25.35 26.84 26.11 25.61 25.68 25.03 24.52 24.00 23.29 22.66 21.58 20.88
29.13 27.25 28.82 28.18 28.34 27.79 27.71 27.96 27.03 25.35 24.55 23.83 22.40 22.32 22.13 20.36 19.14 17.06 15.73 15.34 14.82 14.95 15.59 15.30 16.78 17.30 18.89 21.55 24.83 26.25 26.64 26.25 24.12 26.17 25.03 25.03 24.81 24.18 23.83 23.32 22.22 21.61 20.36 18.07
33.93 33.50 32.83 31.49 29.06 27.27 25.97 25.74 25.27 24.58 22.99 22.34 19.35 17.84 16.65 16.62 15.06 13.55 13.61 14.99 15.44 15.27 15.01 14.80 17.29 18.61 19.10 20.31 22.85 24.21 24.63 24.45 24.28 23.72 24.08 23.66 23.25 23.28 22.87 22.01 21.35 20.68 20.53 19.10
33.44 33.05 32.06 30.21 29.05 26.98 25.19 23.85 22.50 20.23 17.69 17.10 16.89 15.52 14.49 14.41 15.29 14.24 14.87 15.59 16.29 16.85 14.59 16.14 17.31 18.52 19.25 18.21 20.25 22.79 22.38 22.32 22.51 22.39 22.12 21.13 22.04 21.79 21.29 20.97 20.04 19.86 19.53 19.15
29.61 29.49 28.55 26.84 25.90 24.24 21.60 19.34 18.74 17.14 16.32 15.58 13.32 13.76 14.18 12.44 12.56 13.39 15.53 15.59 15.65 16.96 15.82 16.42 18.00 18.43 18.10 18.17 17.79 21.02 20.61 20.41 19.73 19.96 19.74 20.00 19.78 20.32 20.77 17.70 18.36 18.72 19.05 18.57
25.30 23.75 20.96 18.37 17.37 17.78 17.72 16.61 15.22 14.08 13.80 14.65 16.59 15.57 15.85 14.39 12.99 13.60 18.04 20.73 17.12 16.31 15.86 15.20 16.94 18.55 19.06 17.18 19.60 19.95 19.36 18.76 18.58 18.52 18.21 17.97 17.92 18.15 18.40 18.61 18.58 18.54 18.71 18.31
20.74 17.91 15.62 15.03 15.15 14.47 15.54 17.33 15.15 12.79 13.33 13.01 11.53 11.85 13.65 16.05 14.82 16.22 15.82 18.46 20.42 12.87 17.85 19.71 18.95 12.38 16.02 14.05 18.96 18.52 17.72 17.25 17.34 17.39 16.85 16.62 16.38 16.22 16.31 16.66 16.53 17.07 17.02 17.19
18.47 17.62 16.59 14.83 15.40 15.63 15.13 14.91 14.20 14.96 14.28 13.85 13.91 16.36 20.10 22.26 23.13 22.02 20.92 18.99 21.54 17.40 20.44 20.92 13.54 10.30 10.96 18.59 19.16 18.43 17.68 16.74 16.59 16.56 16.38 16.05 15.78 15.43 15.20 15.06 15.03 15.28 15.39 15.60
18.57 18.74 18.27 17.89 15.75 16.53 16.07 15.91 17.49 17.42 16.87 17.22 16.84 16.07 19.87 22.56 23.13 23.40 23.64 17.93 15.88 16.55 19.80 19.97 16.80 12.19 8.96 18.92 18.96 18.45 17.69 17.98 17.58 17.54 17.07 12.86 16.27 15.66 15.20 14.61 14.23 14.68 14.77 13.87
19.40 18.26 16.95 17.19 19.41 20.87 19.87 19.38 19.53 19.08 18.75 20.51 20.48 20.03 19.55 22.71 22.28 22.70 22.28 22.10 15.49 16.07 20.69 13.16 10.31 11.20 17.49 18.55 17.93 17.24 17.06 17.37 17.49 17.51 17.25 16.74 16.42 15.71 15.74 15.12 14.54 14.56 14.30 14.13
19.88 20.34 21.30 22.35 23.48 23.18 22.84 22.55 22.92 23.23 23.14 22.27 22.09 22.77 22.94 22.66 22.45 22.58 21.87 18.54 19.90 17.60 20.05 19.70 17.68 17.29 17.65 17.10 16.25 15.84 15.67 15.81 15.79 15.76 15.53 16.05 16.75 16.35 15.77 15.32 15.11 15.06 14.60 14.54
22.12 21.99 22.53 22.96 23.96 24.40 24.58 24.09 24.05 22.51 22.51 23.33 21.22 21.96 21.68 21.82 21.11 20.27 17.90 20.07 19.39 18.53 18.03 17.46 16.88 14.79 14.26 14.41 14.90 14.49 14.22 13.95 12.66 12.22 13.55 13.76 14.16 14.51 14.56 14.33 14.40 15.22 15.59 14.25

GFSNGP_sfc_wetblb_105.txt.gz
Wetbulb
32.41 32.57 32.66 32.45 32.76 33.34 31.34 32.22 27.86 30.92 31.38 34.43 38.50 39.38 40.22 40.65 40.13 38.82 36.34 36.38 36.38 36.66 36.90 37.24 37.19 36.86 37.24 36.41 36.43 34.12 32.96 32.83 32.81 34.47 36.62 38.48 39.13 38.77 39.83 39.44 41.23 50.64 56.96 54.52
29.79 31.95 31.58 29.55 32.13 32.67 32.33 32.53 32.43 32.51 31.65 39.14 40.12 40.57 37.67 36.61 35.92 34.86 33.65 33.66 33.98 34.47 34.41 34.24 34.31 34.44 35.31 34.96 35.06 34.58 32.09 31.76 32.73 33.81 33.63 34.52 35.91 37.11 36.39 36.87 35.81 37.43 40.35 43.60
25.92 29.12 28.89 25.86 30.69 32.17 32.97 34.32 33.70 29.66 34.81 37.01 35.31 32.79 32.49 33.49 33.07 32.05 31.62 31.70 31.85 32.03 32.32 32.81 33.00 33.73 33.86 34.33 34.89 33.79 32.38 31.92 32.13 32.09 32.11 31.97 33.57 33.93 34.32 34.78 34.72 33.24 34.10 35.99
27.31 27.17 19.01 30.56 35.98 34.33 32.37 34.11 35.54 34.52 34.66 34.02 31.93 31.84 32.03 32.38 31.29 30.42 30.75 30.24 30.85 31.51 32.40 32.29 33.30 33.46 34.47 34.49 33.08 32.04 31.74 31.77 32.13 31.85 31.50 31.75 31.34 31.15 31.68 32.29 32.29 31.79 31.59 32.79
24.96 25.09 29.34 30.22 31.90 29.58 27.84 29.21 30.83 31.05 32.88 33.14 32.32 32.06 28.61 30.75 30.80 30.04 30.61 31.49 30.99 31.95 32.25 32.45 32.21 32.57 32.98 32.13 31.85 30.81 30.78 31.13 31.90 32.52 32.04 31.88 31.20 30.38 30.16 28.88 28.90 29.04 30.13 30.49
28.12 22.80 19.90 29.51 33.08 36.19 33.20 26.26 30.83 30.27 30.32 30.82 32.64 28.94 26.20 29.60 30.39 30.07 30.96 31.47 31.76 31.94 31.73 32.16 31.98 31.79 30.80 30.36 30.05 29.66 30.62 30.93 32.34 32.77 32.52 31.97 32.15 31.97 31.94 30.91 28.52 27.80 27.67 28.58
27.39 25.69 26.63 30.42 34.33 35.46 23.67 24.73 29.45 29.10 28.29 31.07 30.07 28.37 28.61 29.48 28.65 30.12 30.79 31.25 32.22 31.78 31.22 31.54 33.35 33.03 30.55 30.57 29.67 31.06 32.01 32.00 31.70 32.53 32.67 32.82 33.24 32.70 32.34 31.97 31.76 29.77 27.91 27.17
29.30 25.14 22.64 33.47 33.48 26.72 28.15 31.17 29.51 28.85 29.03 28.14 27.92 27.55 27.01 26.98 27.10 28.40 29.58 30.59 31.86 31.24 30.61 31.57 32.08 32.13 31.60 30.70 32.52 33.47 32.81 31.88 31.34 31.20 32.36 32.66 32.17 33.03 32.88 32.34 31.97 31.60 31.04 29.79
28.53 27.60 30.04 32.13 29.58 30.73 31.93 30.63 29.55 28.94 28.93 28.12 26.43 25.44 25.85 25.43 25.93 26.59 28.36 29.58 30.86 29.85 29.57 30.41 30.94 31.05 30.15 32.53 34.70 34.46 33.67 32.19 32.10 31.71 31.04 31.74 30.59 29.84 29.95 32.23 31.03 30.50 29.64 28.11
30.28 29.30 29.32 29.82 31.15 31.42 31.62 29.79 29.96 30.06 28.52 27.37 24.56 25.20 25.12 25.40 26.07 26.16 26.76 27.28 29.24 29.24 28.50 28.11 29.73 30.36 30.88 32.32 34.41 33.13 31.91 31.93 32.38 31.91 30.63 29.76 29.28 29.23 27.53 26.92 28.79 28.11 27.22 27.59
27.98 29.09 30.53 30.15 30.70 30.47 29.59 29.71 28.60 28.82 28.24 27.57 27.22 26.52 26.59 25.97 25.74 25.79 25.44 26.35 26.95 26.99 27.21 27.08 28.42 28.51 30.21 31.10 32.34 31.60 30.95 30.54 31.32 31.25 31.12 30.04 27.39 26.87 26.55 26.92 26.42 25.54 27.06 25.51
31.06 33.26 32.68 29.77 30.92 30.91 29.23 28.39 28.76 28.20 27.23 28.00 27.81 25.93 26.23 25.50 26.17 25.77 24.73 25.05 24.95 24.78 24.94 25.41 25.89 25.70 27.59 29.66 30.73 29.86 29.50 29.79 29.20 30.07 30.60 29.92 28.96 27.72 26.18 25.71 25.49 25.96 26.03 26.00
32.06 35.03 33.51 31.75 31.73 31.69 29.37 29.02 29.78 29.09 29.04 27.72 28.20 28.02 27.04 25.95 26.23 25.55 25.59 24.48 23.26 22.65 23.46 23.55 23.22 22.79 24.99 27.60 28.62 28.72 27.41 28.51 29.21 28.72 28.68 28.12 28.37 27.68 26.53 26.97 25.03 24.10 24.16 24.16
34.28 33.42 29.00 31.07 28.68 31.46 30.87 30.28 30.02 29.81 29.63 29.30 29.27 29.20 28.40 27.51 27.00 25.60 23.98 24.27 24.17 22.92 22.16 21.96 21.40 20.83 23.77 26.45 27.71 27.39 28.22 27.21 28.34 28.09 27.89 28.01 27.77 27.39 27.56 26.58 25.85 26.63 24.68 23.58
33.20 35.05 33.97 32.96 32.17 31.20 31.36 30.49 28.46 27.88 28.24 27.92 29.25 28.75 28.31 26.14 24.40 23.79 24.95 25.49 24.38 21.91 19.83 19.21 18.80 19.15 23.03 24.76 27.61 27.84 27.24 27.18 29.44 29.14 28.32 27.99 28.16 27.56 27.25 26.37 25.80 25.19 25.19 25.14
33.52 33.68 33.19 31.23 30.51 30.04 30.26 29.59 28.51 27.59 27.56 27.23 26.54 25.81 25.64 25.32 23.60 22.27 21.62 20.43 19.73 17.88 17.87 16.97 18.58 18.99 21.47 23.27 26.24 28.65 29.00 25.82 26.69 27.99 27.49 27.22 27.29 26.65 26.01 25.63 25.06 24.34 22.22 19.58
30.36 29.20 29.97 29.28 29.65 30.07 29.88 30.39 29.93 28.39 27.56 26.58 25.44 25.92 25.50 23.58 22.07 19.62 17.94 18.41 17.66 17.07 17.58 17.30 17.84 20.06 20.60 21.90 24.20 26.70 27.15 27.09 25.57 26.76 26.37 26.00 25.79 25.30 25.17 24.69 23.81 23.40 22.18 19.83
35.32 34.64 34.32 33.00 31.27 30.40 29.66 29.48 28.63 27.84 26.36 25.87 22.54 20.60 18.95 18.48 16.98 16.42 17.03 18.13 18.72 17.71 17.70 17.59 18.96 20.79 20.95 20.15 22.00 25.33 25.32 25.11 25.26 24.95 24.81 24.31 23.74 24.67 23.80 23.13 22.55 21.83 22.00 21.50
35.18 34.14 34.13 32.98 32.07 30.43 28.65 27.43 26.21 24.31 20.89 19.98 19.48 18.26 18.02 17.94 18.27 17.59 18.92 19.11 19.61 19.57 17.19 18.65 19.59 20.77 20.83 19.47 20.45 24.53 23.68 23.30 23.16 23.17 22.95 22.26 23.17 22.80 22.62 22.09 21.85 21.79 21.46 20.50
34.23 33.74 32.30 30.87 30.44 28.51 26.13 23.85 22.13 20.96 20.70 19.55 17.42 17.24 16.71 15.81 16.65 16.69 18.81 17.27 17.50 18.33 18.87 18.69 20.60 21.29 20.63 20.78 20.44 23.25 22.57 22.15 21.31 21.55 21.16 20.72 20.73 20.69 21.45 20.97 20.79 21.06 21.18 20.69
30.28 29.29 27.52 26.11 24.20 23.22 22.34 21.82 19.36 18.19 17.98 18.37 19.34 18.35 18.24 17.44 16.79 17.34 20.20 23.54 19.63 18.38 18.46 18.00 19.66 20.41 20.93 19.28 21.94 21.92 21.09 20.55 20.24 19.55 19.20 18.88 19.09 18.98 19.30 19.97 19.63 20.10 20.42 19.80
26.01 23.71 22.39 21.06 20.27 20.09 20.41 21.47 19.52 17.30 17.64 18.31 16.98 17.10 17.18 18.20 17.41 18.84 18.84 20.81 22.63 15.34 20.50 22.32 21.09 15.16 17.32 14.99 21.43 20.86 20.18 19.41 19.11 19.10 18.41 18.25 17.62 17.30 17.07 17.79 17.70 18.02 18.27 18.58
23.39 22.09 20.85 19.45 19.89 20.74 19.79 18.10 17.30 17.94 16.65 16.04 16.39 18.73 22.61 24.11 24.95 23.53 22.51 21.22 23.83 19.18 21.72 22.69 16.20 14.89 14.77 19.31 21.26 20.63 20.18 19.09 19.04 18.96 18.56 18.50 17.96 17.57 16.85 16.49 16.49 16.41 17.04 16.83
22.97 22.07 20.91 21.99 19.41 18.78 17.74 18.37 20.30 20.21 20.04 20.34 19.99 19.93 22.29 23.97 25.83 25.64 25.29 20.31 18.27 18.85 21.61 21.70 18.99 15.37 13.51 19.56 20.61 19.85 19.12 18.62 18.69 19.36 19.19 18.63 19.00 18.09 17.37 16.70 16.29 16.24 16.59 16.14
23.24 22.58 21.20 19.72 21.40 22.66 21.77 22.16 22.01 21.73 21.51 23.07 22.43 22.10 22.02 25.38 23.51 24.22 24.16 24.24 20.25 18.82 22.62 17.68 16.06 15.84 20.02 19.80 19.15 17.73 17.39 17.53 17.50 17.05 17.23 17.61 17.15 17.91 18.37 17.18 16.83 16.22 15.87 15.58
23.28 23.06 23.23 24.70 26.51 25.11 24.62 24.45 24.20 24.81 24.83 24.06 23.90 24.70 24.62 24.46 24.41 23.77 23.54 20.70 21.55 20.11 21.97 21.23 19.57 17.80 18.47 17.57 16.44 16.83 16.06 15.81 15.43 14.82 13.60 14.51 15.37 15.92 15.87 16.01 16.98 17.20 16.08 16.49
25.20 24.67 25.48 26.00 26.55 26.67 26.29 26.96 25.88 24.62 25.46 25.77 24.18 23.91 23.74 23.65 22.70 21.82 19.66 21.65 21.04 20.07 19.69 18.80 18.19 16.70 15.76 14.55 14.99 14.74 14.18 13.47 12.23 11.42 11.28 11.45 11.54 11.59 11.23 11.02 11.86 12.36 12.90 13.76

GFSNGP_sfc_wetblb_108.txt.gz
Wetbulb
34.78 33.90 33.80 34.01 33.45 34.15 31.99 32.53 28.55 30.92 31.24 34.23 37.18 38.22 38.40 38.83 38.35 36.75 35.22 34.97 34.49 34.12 33.93 34.06 33.87 34.75 35.52 35.62 35.04 34.81 33.72 32.86 32.69 33.76 34.26 34.03 34.48 35.19 36.87 37.82 38.62 38.61 40.58 42.60
30.03 33.84 33.08 30.52 32.51 32.85 33.14 33.22 32.45 32.39 31.43 37.14 36.88 37.32 35.65 35.57 34.90 33.35 32.90 32.54 32.68 32.63 32.51 32.13 32.39 33.22 34.33 34.30 33.89 33.73 32.73 32.55 33.25 33.38 33.17 32.47 32.38 32.15 32.66 33.88 34.76 35.72 35.16 36.41
25.29 31.75 29.64 25.25 30.46 31.86 32.93 34.39 33.93 29.02 32.71 35.74 32.12 31.41 31.09 32.35 32.01 30.87 30.41 30.03 29.97 30.73 31.20 31.10 31.95 33.37 32.84 33.30 33.50 32.88 32.34 32.45 32.72 32.93 32.50 32.39 31.96 30.74 29.92 30.12 31.61 31.93 33.04 33.24
26.22 27.61 18.19 30.84 35.70 34.92 32.09 33.18 34.07 34.15 33.77 33.37 31.40 30.71 30.32 30.96 29.88 28.63 29.11 29.22 29.47 30.53 31.21 31.58 32.85 32.53 32.81 32.56 32.06 31.81 31.46 31.64 32.53 32.48 32.45 32.68 32.23 30.83 29.60 28.80 28.08 28.23 29.43 31.27
23.89 23.67 28.81 30.68 32.22 29.60 28.13 28.64 31.31 31.06 32.57 33.14 31.83 29.79 27.56 29.22 29.31 28.65 29.65 31.01 30.40 31.43 31.90 33.02 31.79 32.72 32.46 31.11 31.08 30.99 30.70 30.79 31.94 32.32 31.79 32.33 31.76 31.61 31.46 29.69 28.33 27.48 27.74 28.01
27.39 22.47 20.26 28.78 33.78 36.72 33.97 24.69 30.13 29.67 28.94 30.25 32.29 26.65 23.87 28.06 29.55 29.51 30.74 31.47 31.06 31.45 31.89 31.67 32.24 33.25 31.31 30.64 30.16 29.77 30.46 30.41 31.39 32.33 31.20 31.09 31.85 31.68 32.15 32.09 30.97 30.11 28.14 28.09
26.70 25.35 25.82 31.77 34.83 36.11 23.70 23.35 28.82 28.04 28.01 31.36 26.81 27.14 27.11 28.01 28.29 30.27 31.04 31.37 32.41 32.00 31.02 31.17 32.39 32.47 31.43 30.84 29.93 31.14 31.74 31.28 30.51 30.80 30.87 30.30 30.70 31.67 31.83 31.86 30.98 29.82 29.10 29.65
28.62 25.70 22.05 33.23 33.92 28.20 28.95 30.88 29.00 27.94 28.67 26.80 27.20 26.08 25.73 26.34 26.65 28.16 29.77 30.96 31.51 30.31 29.95 30.76 31.60 31.47 30.49 31.12 31.97 33.48 32.29 31.61 30.00 29.25 29.81 29.85 28.19 28.49 29.30 29.75 28.67 29.02 27.74 27.28
27.40 26.34 30.06 31.59 29.77 31.59 33.48 30.24 28.87 27.57 27.93 27.68 25.93 24.76 25.79 24.98 25.90 26.80 28.43 29.46 29.90 29.25 28.46 29.33 30.05 30.08 28.49 30.36 32.35 31.96 32.07 31.44 31.37 29.87 28.80 28.40 26.74 25.67 25.69 26.61 26.80 25.14 25.17 24.85
29.52 28.83 28.48 29.54 30.95 31.28 31.43 29.19 29.49 29.38 28.25 27.31 24.76 25.34 25.25 25.54 25.85 25.78 26.69 26.83 28.47 27.92 26.19 25.55 27.48 28.35 29.01 30.57 32.08 31.35 29.16 29.76 30.47 30.20 28.96 27.41 27.28 25.90 24.23 23.83 23.60 23.77 22.62 22.02
28.10 29.50 29.77 29.82 30.30 29.88 29.16 29.66 28.78 29.13 28.15 27.00 26.89 26.51 26.14 25.39 25.22 25.60 25.85 26.33 26.11 25.29 24.33 23.99 24.89 26.02 27.96 29.40 30.21 29.54 29.40 28.18 28.80 28.92 28.80 27.52 25.18 24.88 24.06 23.82 23.76 22.37 22.44 22.95
31.31 32.42 32.39 29.54 30.32 30.87 28.72 28.05 28.90 28.31 27.73 28.30 27.28 25.94 26.34 25.60 25.73 24.86 24.16 24.66 23.85 23.69 22.82 22.70 22.72 23.40 25.62 28.02 28.70 28.11 26.92 27.47 27.09 27.40 27.40 27.47 27.23 25.67 26.81 26.36 26.16 25.53 25.30 24.28
33.57 35.54 32.83 31.51 31.86 31.72 29.81 29.94 30.34 29.51 29.25 27.56 28.30 27.60 26.55 25.74 25.70 25.62 24.62 23.60 21.99 20.90 21.09 20.89 20.33 20.44 23.35 25.40 27.53 26.45 26.19 27.01 26.81 26.48 26.42 26.02 25.99 25.44 24.08 25.98 26.61 26.05 25.96 25.72
34.75 32.76 28.68 30.36 28.56 31.35 31.17 30.90 31.05 30.51 30.09 29.46 29.04 29.13 27.65 26.34 25.88 24.23 22.85 23.12 22.35 20.30 19.03 18.64 17.73 17.69 21.01 22.68 26.11 23.78 25.36 25.91 27.40 26.71 26.40 26.39 26.03 25.54 25.17 23.75 22.61 22.43 23.46 23.56
33.28 35.48 33.11 33.16 32.55 31.40 31.28 30.67 28.86 27.95 28.55 28.58 29.64 28.84 27.63 25.18 23.29 22.72 23.76 24.14 22.30 19.74 18.00 17.82 15.77 16.52 19.48 20.55 22.32 27.75 26.33 24.87 26.35 27.09 26.10 25.42 25.82 25.39 24.71 23.86 22.82 21.68 19.09 18.66
34.07 33.67 32.85 31.63 30.90 30.58 30.29 29.48 28.07 27.48 28.01 27.57 26.81 26.14 25.65 24.06 22.10 20.84 20.15 19.25 18.35 16.12 16.76 14.18 16.96 17.31 18.66 19.24 20.25 25.44 25.97 23.73 23.06 25.46 25.10 24.09 23.91 23.70 22.93 22.57 21.71 21.29 17.84 16.59
31.12 29.67 30.64 29.53 29.56 29.73 29.71 30.44 29.51 28.16 27.55 26.48 25.49 25.86 24.51 22.67 20.81 18.39 17.58 17.75 15.47 14.57 14.86 14.80 14.81 15.52 16.47 17.77 19.71 24.32 24.38 24.11 21.10 24.08 23.35 22.84 22.35 22.35 22.08 21.41 20.43 19.83 19.81 16.22
35.34 34.29 33.77 32.47 30.89 30.27 30.04 30.16 29.14 28.35 26.40 23.93 20.70 18.60 16.30 16.44 15.71 14.42 14.94 16.30 16.00 13.13 15.92 15.17 16.13 17.39 16.88 17.76 19.43 23.18 22.76 22.53 22.55 21.90 21.92 20.74 21.30 21.44 21.42 20.41 20.12 19.77 19.39 19.38
35.38 34.22 33.83 32.53 31.98 30.29 28.98 27.73 24.66 21.75 20.27 19.70 18.39 16.76 16.35 15.67 16.66 16.49 17.57 15.84 15.83 16.11 16.12 16.70 19.50 19.66 19.51 19.20 19.76 22.47 21.48 20.90 20.84 20.53 20.22 18.38 19.34 19.25 19.63 19.51 19.00 19.03 19.56 18.92
33.67 33.49 32.17 31.32 30.36 28.54 24.48 21.89 21.88 20.52 20.39 18.43 16.17 15.18 14.86 13.13 13.78 13.85 16.73 15.38 15.62 16.74 18.65 18.66 20.31 20.71 19.51 19.98 16.16 21.04 20.17 19.51 18.88 18.50 18.36 17.88 17.57 17.20 17.52 16.81 17.60 17.86 18.58 18.89
31.06 28.56 26.73 25.30 23.68 22.94 22.43 21.95 20.02 18.16 17.55 16.53 17.70 15.74 15.36 15.56 14.46 13.49 20.10 20.55 19.10 17.99 19.02 16.35 18.41 17.74 18.86 16.03 17.95 20.50 19.67 18.69 17.80 17.35 17.07 16.60 16.22 15.98 15.71 15.60 15.58 16.16 16.09 16.13
28.22 25.86 23.91 22.58 22.49 21.74 21.23 20.77 19.18 17.31 17.90 16.80 14.45 14.38 14.68 16.58 15.56 17.51 16.09 19.91 20.35 12.12 19.00 21.70 18.92 11.63 14.66 11.88 19.67 20.10 19.26 18.53 18.05 18.17 17.16 16.66 16.03 14.60 14.90 14.47 13.95 13.95 13.95 15.13
24.93 23.58 22.65 21.73 20.75 21.64 21.18 18.36 17.32 17.76 15.88 14.13 14.32 17.64 21.38 22.90 23.63 22.35 20.85 21.28 22.77 14.82 20.74 19.46 12.78 10.89 10.64 16.72 19.11 19.71 18.64 17.43 17.04 16.94 17.45 16.94 17.00 16.57 15.08 13.77 13.58 13.28 14.14 13.27
23.80 22.82 22.11 23.53 20.83 18.80 16.96 18.00 19.41 18.92 17.79 19.06 18.68 17.39 21.78 23.41 25.28 25.02 22.95 17.80 14.81 17.23 20.07 19.49 15.69 11.95 9.28 17.73 19.54 17.36 16.52 16.27 16.01 15.14 14.90 13.29 14.70 14.52 15.29 16.04 14.87 13.53 13.42 12.56
23.53 22.95 21.99 20.36 20.99 20.70 20.52 21.51 21.21 20.84 20.87 22.07 21.26 20.98 22.31 24.18 23.05 22.91 23.18 22.69 20.07 17.09 20.67 16.52 13.48 11.60 17.75 17.45 15.69 15.05 15.53 15.09 14.37 13.43 11.89 11.30 11.56 11.44 11.72 10.67 10.91 10.61 13.25 12.76
23.54 23.04 22.77 24.27 25.09 24.01 23.67 23.34 22.13 22.81 23.48 23.12 23.85 24.53 24.57 24.19 23.59 23.55 22.87 19.32 21.16 18.68 20.29 20.05 17.99 16.37 16.18 14.25 13.41 13.66 12.86 12.65 11.33 10.08 8.58 9.03 8.51 8.44 7.91 7.03 6.82 7.93 8.48 9.62
25.50 24.53 24.44 25.90 25.56 25.32 24.81 25.24 24.90 24.36 26.47 25.61 23.31 24.08 23.57 23.69 21.25 21.00 19.11 20.89 19.82 19.46 18.60 18.09 17.60 15.39 14.29 12.87 12.48 11.36 10.88 10.19 8.28 6.91 7.69 6.61 5.35 4.86 3.59 3.02 3.64 4.39 5.78 6.27

GFSNGP_sfc_wetblb_114.txt.gz
Wetbulb
33.13 34.33 33.70 32.59 30.71 33.02 32.50 31.21 25.46 28.07 29.90 32.51 31.79 30.88 31.03 31.47 31.14 29.59 29.02 29.28 29.18 28.55 29.03 29.81 30.48 30.14 30.94 30.96 32.22 31.92 32.08 32.17 32.05 33.20 33.79 33.47 33.23 33.04 32.09 31.43 31.48 31.49 31.59 32.51
29.10 33.66 32.57 28.83 30.97 30.52 31.25 31.22 30.57 30.51 29.52 33.82 32.87 31.95 30.11 30.02 29.26 27.93 27.73 28.19 28.64 28.39 28.48 28.57 29.44 29.66 29.88 30.17 30.91 31.15 30.32 31.17 31.13 31.26 31.64 32.51 32.59 32.02 31.33 30.52 30.60 30.75 30.22 30.77
25.92 30.70 30.20 24.15 26.94 31.03 30.36 30.55 31.39 25.11 29.72 30.41 27.78 27.84 28.12 28.53 28.45 27.11 26.30 27.40 27.69 28.40 28.86 29.68 30.24 31.26 30.18 30.44 30.83 29.97 29.67 29.95 30.66 30.05 29.92 30.15 31.34 31.12 30.45 29.29 28.26 28.36 29.00 30.21
24.20 27.06 19.23 27.30 34.52 34.48 29.11 28.25 31.28 30.50 30.13 30.06 27.57 27.10 27.65 28.52 27.83 27.54 26.47 26.73 27.90 28.77 30.03 31.07 32.00 31.96 31.69 30.87 30.61 29.09 28.40 28.29 29.27 28.42 28.34 28.91 28.85 29.15 28.28 29.28 27.95 27.51 27.65 28.73
21.45 21.77 25.74 28.48 31.00 28.77 26.72 24.36 28.23 29.43 28.10 26.90 26.39 26.05 25.77 28.26 28.82 27.50 28.40 27.84 28.83 30.17 30.56 30.19 29.78 31.84 31.92 30.91 30.98 30.02 27.91 27.29 27.50 26.87 25.43 26.02 25.60 26.07 27.23 26.45 26.48 26.44 27.00 27.08
23.43 19.27 15.51 23.94 32.19 34.22 30.86 18.02 26.51 27.78 29.26 26.57 25.57 20.46 21.61 28.00 28.67 27.98 27.41 29.76 29.36 26.77 24.33 26.30 28.26 29.66 30.96 30.99 30.28 29.70 29.15 28.04 27.93 27.78 25.31 23.55 22.98 24.21 25.11 24.96 23.83 24.63 24.91 25.78
23.71 20.57 23.73 30.47 34.08 34.72 17.88 19.46 26.75 25.61 23.39 27.20 25.57 20.08 25.26 26.68 27.56 28.13 29.58 28.85 27.57 26.97 26.00 26.53 28.56 29.08 26.85 27.66 26.66 28.77 30.33 28.54 27.26 26.67 26.12 24.81 23.95 23.45 23.17 23.28 23.27 22.81 22.99 24.52
23.91 18.63 17.28 29.84 31.62 25.66 22.96 26.64 26.30 23.16 22.89 22.29 24.23 24.41 23.85 23.68 23.71 25.24 26.81 27.32 26.26 25.00 24.79 26.29 26.74 26.74 25.83 25.44 26.95 27.56 27.87 28.14 26.40 25.99 26.38 25.59 23.69 23.34 22.73 22.19 21.43 21.26 22.31 23.22
23.82 20.21 27.16 29.70 27.15 28.68 28.50 26.05 26.96 23.65 24.14 23.04 21.79 22.39 21.25 20.12 17.54 22.05 24.56 24.41 24.60 23.16 22.67 23.43 24.63 24.84 23.91 25.95 28.23 27.22 26.51 25.74 25.72 25.41 25.12 24.81 23.29 22.91 22.55 22.59 21.92 21.43 21.25 21.74
24.06 26.54 27.27 29.19 30.83 30.90 29.87 27.04 28.53 27.66 26.36 24.80 21.85 18.29 18.86 18.37 19.77 20.41 21.24 21.25 22.10 21.55 20.46 20.83 22.63 23.56 24.27 25.08 27.34 26.67 24.96 25.17 25.59 25.28 24.62 25.00 24.50 24.00 22.26 21.08 21.52 21.62 21.52 20.79
25.53 27.26 27.99 29.03 29.17 29.36 28.61 28.88 27.83 27.10 25.07 22.85 21.55 20.83 21.94 21.05 20.03 17.57 18.23 20.28 21.05 19.69 19.29 19.40 20.95 21.36 22.04 23.46 25.66 25.72 25.71 24.96 24.59 25.12 24.54 23.95 24.57 25.15 23.03 21.83 23.40 22.18 22.85 22.60
21.21 28.21 26.61 26.75 29.28 29.61 27.74 26.50 24.88 24.21 23.65 24.68 24.07 22.39 22.13 20.19 20.95 20.20 18.77 18.70 17.32 17.24 17.05 17.34 18.31 18.37 19.37 21.80 24.06 23.92 23.58 24.28 23.74 23.37 23.06 23.58 22.96 22.43 26.38 24.11 24.40 25.33 25.82 24.69
25.77 30.41 28.49 28.79 29.82 30.08 28.17 26.93 26.27 26.33 25.96 24.06 24.53 23.36 22.61 21.39 21.08 21.10 18.42 16.38 12.83 11.22 12.33 11.95 12.20 13.08 15.31 19.24 22.08 22.33 21.22 22.95 21.96 21.59 21.29 20.62 20.01 19.47 16.58 18.25 22.24 22.77 23.32 23.97
30.18 29.12 26.90 28.35 26.98 29.67 28.68 28.19 29.18 27.14 26.37 25.34 24.86 24.64 23.84 22.61 21.92 19.43 17.15 16.95 16.77 14.51 10.82 7.46 7.90 7.71 9.66 12.62 16.50 15.78 16.41 17.39 16.97 17.16 16.23 15.97 14.42 13.90 11.46 11.69 11.25 11.94 16.96 20.58
30.32 30.80 29.39 30.53 30.10 29.56 29.55 27.96 25.99 25.18 25.01 24.70 25.17 23.92 21.86 19.39 18.64 18.50 18.80 18.79 17.59 15.29 12.52 10.43 7.63 8.72 8.14 9.14 12.67 11.76 15.20 11.97 11.58 12.17 15.02 14.31 16.35 15.04 13.65 9.72 5.87 4.53 6.20 11.78
30.80 29.52 29.21 28.88 28.93 28.58 27.16 26.63 25.45 25.31 25.09 24.54 22.00 20.36 19.47 18.48 17.61 16.74 16.95 17.27 14.64 12.26 11.58 4.31 11.24 7.04 9.13 9.73 13.69 15.73 16.22 16.37 15.46 15.97 16.16 15.86 15.99 16.42 16.87 14.58 14.44 14.19 10.25 8.26
26.95 26.60 27.86 27.72 26.91 26.20 25.94 26.38 26.15 24.82 23.35 21.42 20.04 19.76 18.60 17.26 15.32 13.61 9.80 8.68 7.56 3.52 -0.11 0.84 2.10 5.38 6.95 9.01 16.36 16.01 15.92 16.55 12.94 15.97 15.20 15.00 14.57 14.66 15.01 14.11 13.39 13.88 15.47 14.21
30.45 29.01 28.62 27.78 26.34 25.93 25.51 26.09 25.41 24.21 22.37 21.25 19.02 16.13 13.42 12.00 10.93 7.92 3.41 2.33 3.65 4.23 0.41 -0.50 -0.24 4.93 9.98 11.27 14.97 16.92 15.61 16.31 16.79 15.26 15.86 12.98 13.77 14.93 12.24 11.36 12.29 11.71 10.89 12.97
30.82 28.97 27.66 27.52 27.57 27.61 27.05 25.52 22.94 20.46 18.30 17.16 15.05 11.84 10.05 8.58 7.30 4.12 4.68 5.71 0.75 2.67 4.79 3.88 17.73 11.42 13.58 15.52 14.97 16.29 14.41 11.78 13.67 14.76 12.71 10.37 8.21 10.27 6.41 3.42 4.15 1.81 5.18 8.41
27.79 27.66 27.48 26.52 27.57 26.41 23.16 21.22 20.00 18.05 16.20 14.33 12.17 10.57 8.55 2.65 2.29 4.04 3.58 6.55 5.96 6.42 5.90 10.45 14.83 14.98 14.39 14.37 11.95 14.97 12.12 9.01 12.77 11.54 9.84 9.84 6.05 6.28 7.99 9.01 8.22 3.09 -5.68 -3.15
25.59 24.76 25.23 25.43 23.25 22.67 21.63 20.58 18.67 16.27 15.11 14.82 12.78 10.69 10.33 6.16 3.89 6.23 8.25 11.02 8.29 9.01 14.37 11.58 12.18 11.89 13.00 10.84 14.01 5.86 7.07 5.52 5.51 4.98 0.30 0.12 0.28 4.80 6.47 5.05 5.56 6.32 6.61 4.55
23.25 22.51 22.49 22.02 21.29 19.57 20.30 19.86 18.05 15.49 13.77 12.18 9.29 7.67 8.79 8.16 6.52 6.21 5.93 11.46 13.97 6.91 14.19 13.43 12.23 4.03 7.78 9.61 12.01 5.66 7.60 5.82 4.21 3.51 2.51 1.16 -0.43 -1.16 -1.56 -0.38 2.21 4.71 4.88 6.46
22.23 22.39 21.00 20.27 19.11 17.53 17.75 17.73 17.16 16.09 13.87 12.72 10.32 8.87 12.08 14.42 15.51 14.17 12.09 15.68 15.95 10.50 14.53 9.76 4.61 3.10 3.89 6.30 3.89 1.46 -0.10 -0.86 -3.87 -4.96 -7.31 -9.49 -7.49 -0.33 -1.62 -2.98 -2.38 0.36 3.09 4.35
21.32 21.55 20.28 19.54 18.54 17.51 15.61 16.11 16.99 15.65 13.64 13.28 10.97 9.86 16.69 15.37 12.67 18.00 15.38 9.65 5.76 10.35 8.83 5.13 4.82 3.42 0.90 -0.18 -1.07 -2.05 -3.14 -6.22 -9.13 -12.39 -7.31 -8.94 -9.31 -8.08 -8.06 -11.48 -9.31 -7.25 -4.34 -1.76
21.64 20.57 19.44 19.22 19.11 18.67 18.24 18.67 17.12 16.58 16.48 18.14 18.69 17.24 20.12 20.15 14.62 13.71 11.85 10.21 12.74 10.60 5.57 3.05 2.89 -0.80 -4.06 -6.59 -4.05 -4.77 -9.67 -12.39 -14.93 -14.38 -14.75 -16.01 -16.92 -17.46 -19.28 -16.38 -14.93 -12.75 -9.85 -4.20
21.29 20.09 20.52 21.61 20.42 19.19 18.65 17.95 15.62 16.12 17.49 12.47 10.54 12.06 10.67 14.57 14.69 14.22 12.17 13.33 11.47 8.90 9.99 6.76 1.00 -4.44 -6.59 -4.79 -7.13 -8.58 -11.30 -10.99 -12.93 -13.48 -16.74 -18.73 -19.82 -19.64 -21.63 -17.29 -16.74 -14.20 -9.72 -9.00
22.59 21.83 21.73 20.02 19.12 19.05 18.78 17.80 15.78 15.20 12.58 12.72 13.93 6.74 12.44 11.25 13.91 14.31 10.21 8.83 6.74 4.17 3.82 1.91 -1.42 -4.06 -5.34 -7.16 -7.87 -12.21 -13.32 -15.47 -14.93 -14.56 -22.00 -23.09 -23.63 -25.62 -24.90 -24.90 -21.27 -20.73 -16.56 -14.75

GFSNGP_sfc_wetblb_117.txt.gz
Wetbulb
32.57 33.27 33.10 32.04 32.72 33.52 31.73 31.18 26.72 27.75 29.10 33.43 33.12 31.12 30.22 29.99 29.33 28.75 28.50 28.38 28.25 28.04 28.82 29.43 30.03 29.92 30.45 30.76 31.20 31.41 30.84 31.05 30.51 31.15 30.79 31.53 31.13 30.86 29.85 29.73 30.20 30.32 30.49 31.58
27.58 32.82 33.15 29.91 31.95 30.52 32.83 33.62 32.49 30.92 30.79 34.15 32.48 31.76 30.17 29.08 28.67 27.23 26.94 27.31 27.66 27.92 28.74 29.13 29.75 29.64 30.36 30.49 30.20 30.56 29.56 29.55 29.51 29.50 29.07 29.24 29.66 28.46 28.98 27.99 27.97 28.34 28.38 29.49
25.18 30.90 31.98 27.06 28.35 30.78 29.65 30.01 30.80 26.50 30.20 31.84 29.55 29.40 28.55 28.11 27.59 25.29 26.05 26.31 26.95 27.67 28.62 29.51 30.31 31.30 30.28 30.61 29.78 28.56 28.06 28.10 27.08 26.23 25.81 25.87 26.88 27.00 26.21 26.52 26.76 25.82 26.06 27.10
25.10 27.14 20.23 26.98 33.21 34.04 29.58 28.97 30.78 30.15 30.86 30.55 27.48 27.62 27.51 27.24 27.41 25.20 25.63 26.33 26.74 27.90 27.83 28.89 30.27 31.85 31.57 31.88 30.02 28.38 27.36 27.21 27.04 25.45 24.21 23.77 23.62 23.29 23.99 23.78 23.61 23.95 24.51 25.68
20.94 22.46 25.23 26.99 29.72 27.16 27.59 25.89 28.66 28.87 27.51 26.95 26.77 25.69 25.21 28.23 27.53 25.80 23.95 25.17 26.16 28.40 27.86 25.46 27.43 29.39 31.97 30.78 30.83 28.17 26.95 26.49 26.73 25.51 23.28 22.40 20.56 20.71 21.91 22.26 22.21 22.91 24.19 24.99
24.32 18.77 16.51 21.81 31.79 34.13 30.18 18.01 27.38 27.49 26.20 24.78 24.10 16.67 21.59 27.57 27.03 24.77 24.24 28.48 26.64 23.79 21.59 24.44 26.89 28.03 28.45 27.79 27.72 28.56 26.74 26.13 26.05 26.25 23.34 21.51 20.43 19.84 20.47 20.78 21.41 23.24 23.86 25.10
22.75 20.52 21.89 29.36 33.23 33.55 16.05 19.51 26.27 27.47 26.90 25.18 21.37 19.41 25.55 27.97 25.12 26.85 28.61 25.33 25.88 25.11 24.34 25.83 27.49 27.82 25.08 24.63 24.37 27.13 28.60 27.07 26.03 25.31 24.32 23.07 22.80 22.35 21.83 21.23 21.57 21.33 22.76 24.64
23.58 19.34 15.07 30.58 31.88 24.77 23.18 25.57 24.92 21.56 22.95 27.13 24.57 25.12 24.94 26.11 26.39 26.90 25.16 24.77 25.09 23.40 23.61 24.69 24.85 25.45 24.92 24.20 24.02 25.73 26.30 26.11 25.19 24.93 25.18 24.34 22.04 21.58 22.13 21.91 21.67 21.86 21.48 22.02
24.59 21.16 27.67 29.62 27.09 26.57 27.14 25.56 22.69 21.47 24.08 24.78 23.47 22.76 23.70 21.07 20.56 21.52 22.83 22.97 22.85 21.90 21.95 22.46 23.39 23.83 23.09 24.94 26.64 26.12 25.53 23.92 23.62 24.07 24.40 24.09 22.22 20.02 21.02 21.63 21.61 21.44 20.41 20.03
24.85 26.07 26.95 28.42 29.18 28.33 27.81 25.47 23.75 23.62 23.45 23.16 20.62 21.64 18.33 19.03 17.84 17.25 18.33 18.61 20.38 20.72 20.31 20.72 22.13 22.73 23.32 24.57 26.00 26.08 24.78 24.64 25.00 24.26 24.42 24.63 23.59 21.46 19.98 21.02 21.06 21.62 19.38 18.42
25.15 27.13 28.18 28.80 28.08 27.65 27.25 26.92 25.72 25.49 23.44 21.15 19.98 18.96 19.88 18.72 16.98 17.00 14.22 18.57 20.11 19.96 19.49 19.21 20.36 20.60 20.74 22.81 24.38 24.61 24.57 23.77 23.27 23.24 22.72 22.25 23.37 20.80 20.34 20.68 21.47 20.01 20.19 18.24
22.75 28.12 27.05 27.04 27.85 28.68 26.98 26.67 26.11 23.38 22.52 22.89 22.28 20.93 20.44 18.25 19.22 18.90 17.13 17.25 16.57 17.11 17.02 16.71 17.03 17.51 18.69 21.68 23.39 22.75 22.47 21.68 21.19 21.33 20.59 21.00 20.45 18.54 22.57 22.96 23.23 23.13 23.21 20.90
27.35 30.10 28.16 28.55 28.64 30.02 27.30 26.16 25.14 24.34 23.83 22.27 22.85 21.99 21.07 19.74 19.29 19.35 16.06 13.95 10.98 9.20 10.41 10.89 11.44 12.55 13.85 18.22 21.45 20.78 20.05 20.42 19.43 19.77 19.15 17.86 16.90 15.84 12.40 15.09 21.31 21.48 21.59 21.76
29.37 28.61 26.70 27.05 26.37 28.92 26.22 25.99 27.55 25.50 25.10 24.16 23.13 23.08 21.98 20.75 19.59 17.57 15.79 15.58 15.47 13.23 11.06 8.28 8.29 8.66 8.89 11.23 14.33 11.61 12.34 14.30 13.66 13.63 11.29 10.78 6.77 7.81 4.94 5.38 0.43 6.30 13.78 18.52
29.00 29.72 28.54 28.71 29.46 28.40 27.19 26.67 24.55 23.70 23.83 23.31 23.96 23.14 22.05 19.56 17.61 16.66 17.41 17.89 17.03 14.32 11.34 9.26 8.86 6.27 5.42 4.36 10.29 9.84 13.33 9.86 6.09 4.34 5.75 8.11 10.22 9.90 11.94 11.20 11.19 9.49 6.03 11.07
29.02 28.50 28.32 27.37 27.66 26.65 26.40 24.88 23.75 23.83 23.78 23.26 22.50 21.04 20.13 19.02 17.89 16.92 16.37 16.77 14.63 12.06 10.74 3.94 9.46 3.12 4.24 6.66 9.73 12.76 12.31 12.62 11.74 12.97 12.49 12.64 13.24 12.85 12.59 11.54 10.92 10.67 11.60 11.86
25.93 25.61 26.38 26.15 26.60 25.93 25.25 25.56 25.54 24.94 24.35 21.96 20.00 19.29 18.32 16.98 15.03 12.96 10.57 10.65 6.52 0.82 0.64 0.81 1.58 0.06 5.43 9.49 14.75 14.04 13.14 14.56 11.19 14.48 13.15 12.92 12.34 11.77 12.06 10.61 9.25 9.22 7.83 5.48
28.54 28.73 28.52 28.64 27.30 25.56 25.39 26.31 26.11 24.97 22.50 20.77 18.62 15.22 12.13 11.08 9.81 7.41 4.91 1.38 1.39 3.27 0.49 -0.20 -0.45 5.05 9.25 10.29 14.40 15.18 14.27 14.99 15.70 14.05 14.43 11.50 11.33 12.69 10.11 9.05 9.87 8.23 6.80 7.46
29.21 27.31 26.95 27.46 26.89 26.61 26.03 24.90 23.69 21.54 18.79 17.49 15.25 12.06 8.98 9.11 8.78 5.84 1.81 3.02 2.58 5.55 6.06 3.25 16.81 11.60 13.51 15.89 14.72 14.57 12.69 10.83 12.47 11.62 11.22 7.72 7.17 8.86 6.82 6.17 6.01 4.98 4.51 5.84
27.01 27.39 27.20 26.98 27.32 26.55 24.07 21.95 20.33 18.60 17.31 15.31 12.40 10.40 8.13 5.59 7.02 6.06 3.08 6.51 6.25 7.37 6.27 10.04 13.90 13.51 14.17 13.61 12.29 12.51 10.21 7.06 10.27 7.28 4.54 4.67 -0.20 -2.30 0.93 1.83 2.99 2.81 3.35 5.21
24.06 24.49 24.29 25.35 25.24 24.43 22.44 20.65 18.78 16.47 15.39 15.16 13.21 11.63 10.74 6.45 6.19 5.60 6.81 11.54 9.76 9.71 13.52 11.27 11.63 10.92 12.15 11.36 10.67 3.06 3.29 1.18 -0.04 -1.03 -5.73 -8.45 -8.27 -5.01 -5.94 -5.43 -4.13 -2.67 0.74 2.97
23.21 23.74 23.20 22.85 22.18 20.82 21.34 20.72 19.08 16.91 16.13 14.85 13.79 12.99 9.95 7.32 5.88 6.12 6.09 12.50 14.16 8.78 13.08 12.31 10.85 3.82 8.66 8.45 7.82 1.20 3.21 1.85 -1.66 -3.05 -5.37 -7.18 -7.36 -10.45 -11.72 -11.53 -10.46 -6.90 -3.44 -0.13
22.16 23.50 23.26 22.05 20.91 19.31 19.34 18.77 18.03 17.17 15.29 13.76 13.01 13.09 13.71 13.88 14.96 14.29 13.88 15.07 15.40 9.93 13.43 10.22 4.54 0.60 1.15 0.78 -2.36 -5.73 -5.02 -6.47 -8.45 -10.99 -12.62 -12.80 -15.16 -18.06 -17.88 -16.61 -14.80 -15.34 -11.72 -6.13
21.31 22.26 20.63 19.69 19.45 18.98 16.96 17.62 18.14 17.21 15.61 14.38 13.89 14.48 15.80 14.93 12.26 17.74 15.37 11.15 10.67 8.92 9.84 6.68 1.66 -0.49 -2.67 -4.83 -7.00 -7.38 -9.54 -14.07 -16.61 -17.88 -12.80 -16.43 -22.23 -22.96 -22.05 -24.41 -19.51 -17.52 -14.98 -11.93
20.48 20.15 19.79 19.76 20.03 19.57 18.53 18.90 17.71 16.62 16.19 15.79 15.83 16.16 18.26 19.07 13.87 12.80 12.68 9.27 11.68 10.35 5.40 -0.14 -1.02 -3.94 -6.12 -9.00 -8.48 -11.90 -16.79 -18.79 -20.42 -20.60 -22.23 -23.32 -24.59 -26.58 -27.31 -26.76 -26.04 -24.41 -18.06 -19.69
21.56 20.88 21.46 22.68 21.38 20.15 19.57 18.92 16.78 16.91 17.77 16.04 14.97 14.91 12.71 15.16 14.08 12.34 9.93 9.63 10.29 7.09 6.03 -0.61 -3.97 -7.57 -8.83 -8.83 -12.62 -16.43 -17.34 -14.43 -18.79 -20.78 -23.32 -24.22 -25.67 -24.77 -28.03 -25.67 -26.94 -25.31 -24.41 -22.59
22.46 22.02 21.76 20.69 20.80 20.59 19.90 18.84 16.81 16.73 17.18 15.85 13.80 4.78 11.56 11.05 11.22 11.76 10.36 10.26 8.64 6.84 3.53 -2.50 -5.41 -7.38 -9.03 -11.74 -14.25 -17.70 -18.79 -19.87 -20.60 -21.15 -27.31 -27.67 -28.39 -30.57 -30.75 -30.39 -30.39 -28.94 -28.94 -27.49

GFSNGP_sfc_wetblb_120.txt.gz
Wetbulb
31.92 32.77 33.41 31.40 31.69 32.71 33.03 32.83 28.52 29.33 28.74 32.85 34.99 32.64 29.12 28.32 28.16 28.08 27.53 27.34 26.98 27.64 28.73 29.15 29.36 29.59 30.22 29.54 29.44 29.45 28.68 28.03 27.32 28.65 28.53 28.68 28.51 27.89 28.29 27.84 27.92 28.28 28.95 30.23
27.96 32.08 33.10 30.30 31.55 31.64 32.75 33.79 32.76 31.49 29.96 35.35 33.47 31.01 28.41 27.82 27.35 26.30 26.63 27.18 27.14 28.09 28.37 28.73 29.48 29.56 29.56 28.72 28.33 28.51 27.26 26.69 26.57 26.46 26.03 25.49 25.75 25.68 25.07 25.01 25.78 26.75 27.37 28.07
24.76 29.18 28.01 26.74 29.74 30.13 29.26 29.55 31.35 29.26 31.52 31.04 28.95 29.01 28.26 27.81 28.00 26.14 26.63 26.92 27.16 27.52 28.19 29.34 30.06 30.38 29.73 29.07 29.41 28.12 27.46 27.10 26.10 25.70 24.57 23.97 23.69 23.24 22.87 22.83 23.72 25.28 26.02 26.54
25.73 27.47 20.06 26.48 30.64 32.31 29.53 30.38 31.24 30.77 30.78 30.76 29.88 29.35 28.71 29.07 26.60 25.52 25.87 26.24 27.29 27.62 27.95 28.72 28.91 30.78 30.43 29.99 28.85 27.60 26.64 26.28 25.94 24.98 23.76 22.91 22.18 21.09 20.99 21.08 21.23 23.36 24.49 24.83
23.07 22.62 25.19 26.00 28.89 25.91 25.18 25.20 28.91 29.58 29.57 27.30 26.87 26.83 26.11 29.16 26.98 23.50 23.54 27.06 27.30 27.56 26.68 25.34 26.56 28.85 29.18 29.03 29.11 26.73 25.93 25.18 25.59 24.54 22.13 21.38 19.63 18.86 20.14 19.74 20.43 21.41 24.54 23.81
24.09 16.96 14.17 21.55 29.80 32.79 29.62 20.22 27.98 29.08 27.41 25.32 26.13 22.13 18.68 26.15 26.17 24.99 23.96 24.91 24.05 23.68 24.21 25.24 26.56 28.03 26.95 25.88 26.66 25.68 25.17 24.99 25.32 25.00 22.26 20.40 20.01 19.69 20.52 14.81 19.62 21.19 21.09 23.34
22.81 20.55 21.97 27.45 31.47 32.26 18.08 21.07 29.60 29.56 28.11 25.89 21.31 19.83 22.46 24.46 22.80 24.01 24.70 24.44 24.76 24.19 22.58 24.06 25.98 24.60 21.25 22.95 23.72 25.54 26.84 25.80 24.94 24.65 23.57 22.07 20.02 19.79 19.93 18.32 19.63 19.37 18.92 19.73
24.20 20.48 14.81 30.71 31.04 24.63 24.88 25.86 26.31 25.78 27.23 23.21 25.02 25.54 24.10 22.47 24.93 23.78 22.98 23.41 23.29 22.03 22.43 23.78 24.18 25.31 22.82 20.39 21.41 25.15 25.04 25.39 24.25 23.77 24.50 23.12 19.70 20.37 20.86 21.32 19.48 17.43 17.57 17.49
23.12 20.29 25.30 29.00 28.05 27.67 27.63 24.46 22.24 23.32 24.71 25.33 24.10 23.86 24.20 23.85 21.72 19.05 19.77 21.82 22.78 21.56 21.78 21.98 22.44 22.65 22.11 24.49 26.44 26.19 25.06 23.13 23.46 24.19 24.36 21.86 19.95 18.63 19.31 19.78 19.18 16.92 16.01 15.86
22.78 23.86 25.90 28.19 28.09 27.64 26.88 25.07 23.79 25.23 25.44 25.36 22.59 19.48 17.75 18.53 18.04 13.52 15.61 18.98 20.15 20.25 20.30 20.08 21.61 22.67 22.98 24.11 24.84 25.11 23.66 23.22 23.16 22.83 22.28 21.53 20.98 20.27 18.99 18.34 18.09 17.11 15.08 14.57
23.83 26.64 28.23 28.67 28.44 27.03 25.13 24.70 23.81 23.97 24.07 22.23 20.44 19.05 19.58 17.78 16.39 15.64 13.17 16.18 19.72 19.52 19.15 18.74 19.86 20.32 20.71 22.70 23.71 22.98 22.11 22.17 21.66 21.50 21.18 20.02 18.89 19.29 18.97 19.48 19.88 17.30 15.79 14.97
23.85 28.83 27.36 26.62 27.40 27.50 24.83 23.74 23.39 21.92 21.70 22.49 21.73 19.78 19.14 17.61 18.59 17.37 14.87 16.43 16.41 17.13 16.82 16.72 17.89 17.47 18.60 21.39 23.02 21.80 20.52 20.40 20.33 19.94 19.20 18.81 17.77 16.51 21.52 21.80 22.05 21.82 21.75 19.61
27.03 29.90 28.47 28.63 28.17 27.84 25.32 24.36 24.36 23.37 22.55 20.89 21.24 20.61 19.71 18.51 17.55 18.14 14.97 13.54 10.24 9.10 10.06 11.37 10.89 11.78 13.34 19.02 20.83 19.53 18.67 19.04 17.81 18.02 17.01 15.81 14.77 13.55 10.75 14.15 19.56 20.10 20.50 20.55
29.25 28.71 26.76 27.37 26.43 27.62 25.83 25.15 26.30 23.69 23.63 22.66 21.63 21.58 20.55 18.89 17.75 15.66 14.41 14.37 13.81 11.73 9.25 6.42 9.65 7.17 6.97 11.08 13.54 10.34 11.04 12.47 10.78 10.86 9.50 8.29 1.33 2.06 -0.30 2.22 0.06 5.19 12.70 17.97
28.80 28.91 28.40 28.01 27.32 26.37 25.97 24.29 23.15 22.62 22.35 21.87 22.44 21.31 20.29 17.96 16.25 15.21 16.53 17.08 16.00 13.38 11.28 10.58 10.54 5.60 4.69 7.42 9.17 5.04 6.32 3.81 3.04 4.97 5.33 4.86 6.59 6.54 5.19 5.14 5.46 6.46 7.69 11.36
27.66 27.60 27.44 26.33 25.08 25.17 24.53 23.98 22.94 22.51 22.73 22.36 22.01 21.30 19.53 17.89 16.63 16.08 15.91 15.82 13.67 11.37 10.86 8.11 11.08 3.45 3.61 4.16 6.69 8.00 8.36 10.69 10.20 10.57 10.06 10.05 9.74 9.52 10.33 9.23 8.54 7.54 8.54 8.64
25.47 25.11 25.88 25.47 25.00 24.82 24.27 24.48 24.31 23.87 23.41 22.31 20.94 19.63 18.09 16.41 14.94 13.18 10.80 10.68 7.97 5.31 1.45 6.96 3.80 1.15 3.97 5.17 12.04 11.07 11.10 12.91 10.27 13.17 11.61 10.99 10.07 10.02 9.67 8.67 8.27 7.87 6.95 3.80
28.17 28.58 28.33 27.71 25.89 25.18 24.64 25.10 25.03 24.58 22.82 20.70 18.57 16.33 13.62 12.61 10.49 7.46 5.35 4.38 5.26 4.68 2.18 0.14 0.89 3.82 5.43 6.66 11.24 13.48 12.64 13.82 13.41 12.28 11.28 8.44 9.48 9.16 6.61 5.95 5.51 4.45 4.38 5.66
28.19 27.66 27.80 27.81 26.89 26.07 25.83 25.49 25.24 22.90 19.26 17.21 15.26 13.60 11.93 9.14 8.04 5.26 1.72 6.24 5.80 6.86 4.60 3.10 16.48 11.75 13.67 13.37 13.47 12.97 11.27 9.29 9.96 8.33 8.20 4.02 2.32 4.00 2.26 1.47 1.47 0.37 2.32 3.56
26.15 26.59 27.09 26.64 26.81 25.99 24.64 23.34 20.92 19.05 17.93 16.48 11.77 10.74 8.55 7.05 6.23 2.58 2.51 6.48 6.45 7.14 7.33 10.70 13.76 14.53 13.74 11.77 10.56 10.29 8.29 5.31 7.73 4.70 0.74 0.44 -6.67 -8.13 -5.32 -3.80 -2.22 -3.29 -6.28 -1.32
22.90 22.72 22.30 24.13 23.34 23.68 22.66 21.58 19.07 17.12 16.42 16.00 13.90 10.88 9.76 7.95 7.27 5.49 7.90 10.18 7.33 8.92 12.98 11.51 12.58 11.96 11.92 9.60 7.73 1.89 1.44 -1.33 -2.58 -4.11 -8.64 -13.90 -13.73 -11.38 -14.09 -15.17 -13.91 -12.11 -9.91 -5.93
17.64 19.22 19.88 23.20 22.32 20.28 21.34 20.76 19.27 17.27 16.54 15.35 13.40 12.29 10.83 9.35 8.33 7.75 6.54 12.55 13.42 9.07 12.60 12.42 11.56 7.42 7.98 6.12 5.82 0.23 1.21 -0.38 -4.54 -5.95 -10.09 -12.81 -17.34 -21.33 -22.96 -23.14 -20.97 -17.88 -16.62 -15.17
16.37 19.42 20.27 21.43 21.59 20.37 20.24 19.48 18.92 18.09 16.15 14.99 14.11 13.48 13.03 12.66 13.49 13.11 12.13 14.61 14.79 10.61 13.10 10.18 4.31 1.36 -0.52 -1.26 -4.01 -7.40 -8.48 -10.30 -12.08 -13.17 -17.88 -22.05 -23.69 -25.50 -23.69 -24.23 -23.87 -23.87 -21.33 -15.71
18.51 20.25 19.84 20.43 19.75 19.30 17.55 18.04 18.80 18.47 17.22 16.68 16.20 15.11 14.76 14.03 14.88 18.15 16.05 13.18 12.07 11.93 9.40 3.97 1.22 -0.56 -2.58 -5.43 -8.85 -11.74 -14.08 -18.07 -19.34 -21.33 -19.34 -22.96 -28.40 -28.58 -27.67 -30.03 -24.96 -24.59 -23.32 -22.42
19.16 19.68 19.64 20.08 20.20 19.77 19.03 19.00 17.91 17.23 16.84 16.56 16.59 16.88 17.99 18.81 15.18 13.83 13.76 11.47 12.08 9.68 4.59 -0.51 -1.46 -4.84 -5.45 -9.58 -12.46 -14.26 -20.42 -21.69 -23.87 -24.59 -25.86 -26.59 -27.67 -29.13 -30.76 -30.58 -30.58 -29.49 -28.40 -26.41
21.18 20.58 21.72 22.97 21.78 20.25 19.52 19.17 17.01 17.19 16.56 15.06 15.51 14.64 15.18 15.42 14.37 13.07 11.98 10.96 9.01 4.80 0.58 -6.11 -6.14 -5.81 -8.73 -10.15 -14.80 -19.15 -16.98 -15.55 -22.42 -23.87 -26.22 -26.59 -28.58 -26.77 -30.58 -28.95 -31.30 -30.21 -30.58 -30.39
22.41 22.23 21.62 20.74 21.05 20.57 19.90 19.31 17.48 16.86 17.69 16.91 14.40 13.77 12.85 12.13 11.58 11.26 9.90 8.47 5.96 2.92 -1.69 -3.64 -3.85 -5.65 -7.34 -13.92 -15.54 -15.36 -17.89 -22.78 -23.50 -22.78 -29.31 -29.85 -30.76 -32.93 -33.48 -33.11 -33.84 -31.84 -32.03 -32.21

GFSNGP_sfc_wetblb_126.txt.gz
Wetbulb
36.59 37.83 37.81 36.93 36.51 37.55 36.15 36.90 32.28 35.70 36.00 40.14 42.66 43.19 42.93 41.75 39.67 36.22 35.83 35.76 35.82 34.94 33.15 32.84 32.51 33.50 34.22 34.86 35.70 35.70 34.31 33.05 32.87 33.22 33.28 33.35 33.01 33.21 33.64 34.15 33.88 34.05 33.92 34.41
32.44 36.16 36.27 34.04 37.00 37.63 37.59 37.81 37.47 37.45 37.10 43.34 45.10 45.68 42.96 40.85 37.50 35.33 34.85 34.52 34.40 33.83 32.38 31.94 32.04 33.18 33.52 33.94 34.19 34.22 32.44 31.77 32.04 32.01 31.95 31.29 32.10 32.52 32.51 32.24 31.96 32.03 31.91 32.58
27.92 34.11 33.76 29.23 35.04 36.47 37.80 39.61 38.79 34.58 39.90 43.85 42.81 42.56 42.00 40.61 38.00 36.04 34.66 33.91 33.06 32.00 31.98 31.98 32.07 33.28 33.31 33.72 34.19 32.84 31.53 30.83 30.53 30.19 29.68 29.46 30.09 30.14 30.18 30.10 30.47 29.04 29.53 30.44
28.71 31.19 22.78 35.71 39.97 39.88 38.24 39.66 41.07 40.84 41.52 42.53 43.22 45.06 44.73 42.54 39.16 36.28 34.57 33.49 32.40 32.05 31.95 32.20 32.80 32.80 33.54 33.86 32.89 31.72 30.36 29.02 29.23 28.84 28.13 28.39 28.39 27.60 28.20 29.08 27.95 27.55 26.88 27.81
26.43 26.74 31.56 34.58 37.12 35.61 34.91 35.09 41.00 40.08 41.79 42.41 41.24 38.91 35.51 38.96 38.72 36.11 34.07 32.84 32.66 32.56 31.79 31.79 31.93 32.82 32.09 31.27 30.93 30.39 28.42 27.88 27.55 27.32 26.20 26.60 26.40 26.96 27.60 27.86 27.61 26.91 26.63 25.57
28.87 23.84 21.31 33.80 39.17 40.51 38.99 30.45 40.92 41.29 41.18 37.18 35.58 31.79 35.68 35.73 35.76 33.87 32.93 31.66 30.66 31.14 31.27 30.31 31.37 32.30 31.09 29.72 29.25 27.40 27.79 28.14 28.40 27.19 25.86 25.27 26.85 26.67 27.17 27.68 27.00 27.51 26.42 25.67
27.49 25.51 29.80 37.54 38.13 39.14 28.43 32.53 38.83 40.99 41.03 37.18 34.99 36.69 34.89 34.52 32.02 31.63 30.80 30.49 30.46 30.11 28.34 28.59 30.44 30.41 28.39 28.59 27.41 28.76 29.11 28.16 27.27 27.88 26.29 26.74 27.14 27.53 26.88 26.33 26.30 25.67 26.10 26.02
28.88 25.59 23.58 37.85 36.54 31.13 37.22 36.46 38.84 39.44 39.30 36.97 33.01 31.28 30.50 30.17 29.04 29.35 28.89 28.74 29.25 28.69 28.73 31.04 31.73 30.28 27.30 26.48 28.44 29.16 28.95 27.59 26.32 26.65 27.17 27.22 26.53 27.18 26.85 26.40 25.29 25.15 25.15 25.60
31.91 33.07 36.10 39.07 37.29 36.97 37.11 37.14 38.23 37.90 37.55 34.53 29.74 28.37 28.99 28.05 27.35 27.88 28.22 28.33 29.67 29.85 30.25 31.43 31.90 31.86 29.15 29.44 29.65 28.93 27.79 25.89 26.12 26.24 26.58 27.07 26.56 26.45 26.83 26.68 25.30 24.25 24.36 23.76
31.66 36.56 35.93 37.35 37.17 37.64 37.20 37.46 37.92 37.92 35.82 33.79 28.46 28.21 27.72 27.35 26.75 27.01 27.94 29.31 31.10 30.79 29.97 29.23 30.39 30.33 30.63 30.28 30.74 29.59 28.23 27.66 27.58 25.84 25.81 26.91 27.28 26.34 25.14 24.45 24.31 23.79 22.70 22.26
33.80 34.56 34.25 36.21 38.07 38.59 35.68 36.49 36.28 36.11 34.96 31.09 29.15 27.99 27.71 26.76 26.61 26.91 27.98 29.25 30.59 30.20 29.29 28.65 29.64 29.47 29.95 29.92 29.97 28.02 27.60 26.98 26.64 26.21 25.58 24.77 23.98 23.92 24.22 23.24 22.20 22.17 22.08 22.20
33.49 38.32 38.24 37.34 39.15 37.82 34.63 34.50 35.12 34.21 31.82 32.18 31.41 28.61 28.92 27.02 27.75 27.33 26.71 28.32 27.91 27.86 27.65 27.81 28.47 28.36 28.93 29.46 29.14 28.02 26.52 26.34 25.82 25.95 25.52 25.19 24.88 22.82 20.44 20.81 20.73 20.45 20.70 20.90
36.88 38.11 35.77 36.34 36.57 36.32 34.44 34.22 34.40 33.83 33.47 30.92 30.75 30.48 29.42 27.76 28.41 27.59 27.61 26.25 24.90 24.74 24.79 25.31 24.79 24.23 26.26 27.38 27.57 26.27 25.74 24.78 24.12 24.21 24.13 23.30 23.04 22.50 21.84 20.77 18.77 18.95 19.17 19.29
36.91 35.59 31.69 33.65 32.04 33.49 33.03 32.68 33.36 33.41 32.67 31.74 30.78 30.69 29.66 28.33 27.08 26.73 25.55 24.94 24.34 22.75 21.89 21.93 20.94 20.28 23.26 24.12 22.78 21.59 22.66 21.70 24.00 23.71 23.33 22.88 22.39 21.99 21.90 20.74 20.09 21.08 19.42 18.78
34.24 34.88 34.74 34.89 33.16 31.77 32.17 30.89 29.78 29.36 29.56 29.44 30.71 29.46 28.91 27.08 26.08 25.86 25.90 25.04 24.04 22.92 21.62 20.55 18.64 18.73 21.51 21.64 21.86 22.33 23.35 22.95 23.08 23.02 22.53 21.52 23.42 22.98 21.99 21.45 20.68 20.52 20.63 18.66
33.34 33.85 33.16 31.98 31.00 30.53 30.15 30.08 29.05 28.12 28.84 28.57 28.61 28.09 28.03 27.85 26.27 25.03 25.00 25.21 23.35 22.05 21.48 19.61 19.81 19.65 20.32 21.00 21.25 21.52 21.48 19.34 21.65 23.08 22.74 22.57 21.91 20.77 20.11 19.46 19.06 18.83 17.97 14.83
30.90 29.51 30.94 29.98 29.61 29.56 29.68 30.95 30.39 29.17 28.61 28.29 27.57 27.43 26.68 24.78 23.97 23.31 22.82 23.74 22.85 21.36 20.87 20.57 18.54 17.71 19.98 21.79 22.99 23.91 23.87 21.74 18.74 21.72 21.08 20.89 20.16 18.83 18.59 17.92 16.88 17.11 16.77 13.14
34.75 34.74 34.34 33.32 30.84 29.66 29.34 30.07 29.93 29.39 28.15 28.29 26.60 24.21 21.97 21.23 21.30 20.31 19.70 20.08 18.89 19.30 21.51 20.63 19.66 18.45 20.20 21.46 22.72 23.25 22.73 21.44 20.78 19.56 18.94 17.82 17.91 17.61 16.93 16.14 15.11 14.44 15.03 14.08
34.05 33.78 33.62 32.87 32.27 31.27 29.95 29.05 28.78 28.77 27.82 24.51 22.18 20.45 20.65 20.73 19.11 18.30 18.41 17.22 16.84 17.03 18.00 19.17 19.68 20.62 20.87 20.83 21.54 22.12 21.28 19.69 18.73 17.99 17.00 13.75 15.53 15.09 14.40 14.45 13.70 13.27 13.01 12.35
32.47 32.85 32.31 31.67 31.81 30.88 28.88 29.64 28.04 25.58 23.61 22.79 21.87 20.07 18.47 17.49 16.91 16.37 18.02 19.03 21.39 23.09 20.00 21.38 21.45 21.42 20.67 19.47 19.25 20.96 19.71 18.84 16.77 15.83 15.12 14.33 13.91 13.04 13.12 9.41 10.02 11.22 11.42 10.80
30.94 30.95 30.24 29.16 28.62 29.53 28.11 26.55 25.23 23.06 23.37 21.66 20.64 18.72 17.62 16.87 16.28 17.42 18.37 19.16 19.64 20.24 21.86 20.52 21.80 21.15 20.56 18.58 19.29 19.20 18.02 16.82 15.60 14.70 13.53 13.08 13.05 12.24 11.40 10.62 10.46 9.75 9.17 8.80
29.46 28.16 27.69 27.57 27.26 27.02 27.16 26.89 25.76 23.34 21.96 21.88 20.68 18.54 16.47 15.91 16.00 18.05 20.84 21.40 20.36 19.17 20.77 21.45 21.47 19.46 18.50 16.58 18.24 17.27 15.70 14.72 14.51 14.24 13.27 12.79 12.05 11.46 10.10 9.22 7.92 7.80 7.64 6.80
29.19 28.41 27.91 26.32 26.67 27.39 27.13 26.22 24.23 23.48 22.13 20.69 18.55 17.94 18.35 17.50 18.21 17.96 17.41 20.82 20.94 19.89 21.96 21.94 17.79 14.95 14.53 17.88 16.88 15.24 13.87 12.76 12.44 11.58 10.71 10.01 9.80 9.48 8.36 6.97 6.72 6.09 4.95 3.86
28.63 28.59 27.98 28.03 26.59 25.69 24.80 25.05 25.21 24.29 23.20 22.14 20.93 20.13 19.73 19.14 20.44 23.42 23.65 20.50 19.89 19.81 21.83 18.32 15.27 13.36 14.97 16.23 15.03 13.91 13.04 12.20 10.84 10.37 7.77 1.67 8.86 7.06 7.00 5.24 4.29 4.54 2.83 1.41
28.44 27.83 27.41 26.66 27.01 27.64 26.86 25.37 24.82 24.04 22.96 22.80 21.16 21.22 21.11 22.65 22.42 22.87 22.47 21.09 19.01 19.99 19.54 13.94 12.43 12.39 16.24 15.39 13.88 11.90 11.51 11.27 10.25 9.47 8.55 8.26 7.04 5.55 6.41 5.03 2.18 1.66 0.81 0.76
28.08 29.37 29.37 29.08 29.68 28.77 27.51 25.57 25.06 24.26 24.22 22.64 22.44 23.12 23.60 24.04 24.42 23.14 22.09 20.32 19.58 18.86 17.65 14.02 13.91 15.13 14.82 13.53 11.81 10.30 9.83 6.79 6.45 7.55 5.73 6.24 5.03 4.84 2.92 1.67 1.09 0.94 0.13 -0.56
28.70 28.39 28.42 27.77 27.80 27.52 27.14 26.65 26.01 24.60 24.88 23.86 21.99 23.11 23.37 23.40 22.77 21.44 20.16 19.93 19.34 18.86 16.64 16.48 14.71 14.12 13.99 11.81 10.05 8.84 8.68 8.32 5.38 6.41 6.48 6.01 4.25 4.38 1.64 1.30 1.16 0.15 -0.88 -2.24

GFSNGP_sfc_wetblb_129.txt.gz
Wetbulb
38.06 39.61 37.38 36.67 36.81 38.52 37.53 38.09 33.87 37.28 36.90 42.04 43.76 44.10 45.41 47.25 45.52 42.41 40.95 41.01 41.36 40.02 38.35 37.09 36.52 36.97 37.05 37.57 37.86 38.20 37.24 36.31 35.35 35.93 35.90 35.76 35.28 35.32 35.41 35.13 34.78 34.42 34.71 34.34
33.26 37.34 37.72 35.19 37.26 38.20 37.70 38.86 38.33 38.75 38.51 45.23 45.90 46.40 45.90 46.56 44.23 41.72 41.06 40.53 40.29 39.74 37.41 36.17 35.88 36.68 36.31 37.10 37.10 36.79 35.11 34.24 34.66 34.56 34.05 33.52 33.33 33.46 33.43 33.00 32.50 32.67 32.50 32.26
29.20 35.15 34.42 29.76 35.45 36.86 37.75 39.36 38.82 35.08 40.30 44.52 43.70 43.85 45.52 46.67 44.87 42.34 40.86 40.14 38.98 37.36 36.19 36.14 35.74 36.16 35.72 36.45 36.70 35.20 34.13 33.39 32.85 32.35 31.36 31.19 31.52 31.29 30.96 30.45 30.56 29.26 29.56 30.63
29.59 31.68 22.42 35.80 41.43 40.77 38.72 40.11 41.77 41.39 42.73 44.06 44.40 46.14 47.08 48.49 45.88 41.93 40.44 38.42 36.65 36.19 35.09 34.70 35.08 35.54 36.36 36.70 35.49 33.97 32.24 31.17 31.38 30.93 29.99 30.60 29.80 28.93 29.45 29.79 28.81 28.19 27.32 27.56
26.49 26.89 31.71 35.03 38.57 39.13 37.77 36.74 41.91 41.24 42.68 43.80 44.84 45.54 43.19 46.67 45.32 42.67 39.14 37.83 35.67 35.83 34.70 34.26 33.67 34.02 35.24 34.75 33.77 32.27 30.05 28.77 28.89 28.48 28.02 28.51 27.43 27.78 28.78 28.99 28.74 28.04 27.75 26.46
29.23 23.91 21.83 34.73 39.98 42.70 42.14 31.88 42.54 42.69 42.41 42.94 43.31 38.40 41.95 43.40 41.92 38.88 36.93 35.60 34.81 34.55 33.64 32.82 33.54 33.68 32.98 31.94 31.33 29.10 29.94 29.64 29.54 28.77 27.49 27.10 28.00 27.74 28.79 29.56 28.42 29.36 28.07 27.43
28.79 25.77 29.97 38.01 40.63 42.39 29.27 33.66 42.57 43.57 43.40 43.27 40.76 40.17 42.12 38.97 35.35 34.12 34.61 34.29 33.20 32.08 31.16 31.38 33.14 33.45 31.29 30.66 28.28 29.85 29.95 29.40 29.15 29.43 28.10 28.82 28.55 29.33 29.15 28.76 29.06 28.22 28.25 28.48
29.87 26.50 24.06 41.03 40.38 34.28 40.56 41.77 42.06 42.64 43.37 42.60 37.46 36.57 33.72 32.12 31.40 31.94 31.74 31.89 31.47 30.53 30.50 32.47 33.12 31.44 28.89 27.77 30.27 30.44 29.72 27.84 27.73 28.55 28.71 28.99 28.59 29.37 29.13 29.33 27.79 27.53 27.36 27.31
33.05 32.93 39.35 42.10 41.48 43.75 41.68 40.87 41.46 41.86 42.90 38.71 34.16 31.93 31.02 30.42 30.85 30.74 30.85 30.50 31.30 31.01 32.12 33.53 33.94 33.17 30.32 29.53 30.11 29.23 27.88 26.75 27.42 28.01 28.29 28.78 27.89 27.92 28.04 28.84 27.13 26.20 25.64 24.93
34.88 38.00 40.02 41.46 42.88 42.41 42.12 41.21 41.93 42.63 41.72 37.32 31.94 31.20 30.27 30.00 29.95 30.17 31.17 30.64 32.05 32.40 32.37 32.66 34.27 33.59 33.10 32.93 33.17 31.95 30.07 29.09 28.44 27.78 27.68 28.44 28.55 27.19 25.05 24.71 24.94 24.63 24.08 22.22
36.01 39.01 39.66 40.78 42.60 42.81 41.08 41.00 41.25 41.26 39.61 33.43 31.96 30.73 29.84 28.92 29.35 30.27 31.26 32.07 32.61 32.13 31.90 31.67 32.59 32.61 33.09 32.93 32.54 30.37 29.59 28.83 28.25 28.13 27.56 25.21 23.54 24.19 24.11 22.09 21.73 21.49 21.77 22.41
34.05 38.95 39.27 40.24 42.93 43.11 40.17 38.94 40.02 39.28 35.92 34.31 33.30 30.74 30.40 29.63 29.40 29.68 30.70 32.03 31.72 31.61 31.47 31.38 31.57 31.15 31.78 32.21 31.67 30.19 28.88 28.58 28.16 27.97 27.47 27.75 26.56 22.77 21.30 21.08 20.64 20.51 20.54 20.65
38.82 40.93 39.65 40.35 42.23 42.60 39.99 39.57 39.71 38.61 36.79 33.55 33.00 32.47 30.71 29.17 29.58 29.53 30.10 30.74 30.72 30.53 30.85 31.03 30.23 29.40 30.26 31.05 31.00 29.94 28.50 26.86 26.10 26.56 26.15 25.44 25.57 24.95 23.77 20.23 19.78 19.85 20.07 19.95
41.04 39.51 36.66 37.86 36.99 39.36 39.38 39.60 38.87 38.06 36.42 34.60 33.63 33.07 31.20 29.88 29.15 28.90 28.25 28.73 28.78 27.49 26.78 25.89 24.60 24.27 26.14 26.86 25.67 24.66 25.46 25.39 26.80 26.32 25.90 25.38 24.64 24.19 24.18 22.89 22.20 23.27 19.81 20.30
38.89 38.98 38.93 39.49 38.29 36.84 37.43 36.83 35.57 34.06 33.61 32.86 33.17 31.68 31.12 29.33 29.09 29.25 29.25 28.39 26.82 25.93 24.46 22.85 21.69 22.18 24.06 24.47 24.46 24.78 25.71 25.84 25.93 25.62 24.92 24.04 24.89 24.44 23.74 23.24 22.55 22.46 22.59 20.11
37.59 37.99 37.43 36.18 35.64 34.67 34.42 34.23 33.79 32.51 32.13 31.86 31.19 30.94 31.32 31.30 30.75 29.21 28.04 27.55 25.19 23.65 23.33 21.27 21.44 21.68 23.36 24.12 24.07 24.34 24.08 22.60 24.52 25.06 24.42 24.00 23.55 22.74 22.30 21.68 21.28 21.04 20.12 16.02
35.07 33.79 34.83 33.79 33.24 33.08 33.00 34.02 33.87 32.27 31.73 31.08 30.77 31.64 31.49 30.07 28.19 26.97 26.80 27.48 26.43 24.47 22.68 22.05 20.06 21.68 22.96 24.30 25.97 26.07 24.66 23.37 21.37 23.62 22.97 22.49 21.76 20.55 20.33 19.72 18.86 19.03 18.93 13.97
37.23 37.28 37.09 36.14 34.11 33.33 33.19 33.44 32.69 31.96 30.64 31.36 31.06 29.92 27.68 26.15 25.94 25.08 25.07 24.56 23.72 22.65 23.67 21.62 20.94 21.44 22.95 24.24 25.99 25.84 24.79 23.50 22.94 21.58 21.15 19.92 19.78 19.69 19.08 18.30 17.10 16.46 16.89 16.38
36.63 36.31 36.60 35.97 35.07 33.95 32.99 32.10 31.99 31.48 31.40 29.13 26.59 25.31 26.10 26.39 24.62 23.88 23.44 21.52 21.28 20.95 20.98 21.51 21.51 22.49 22.64 23.11 24.40 24.34 23.26 21.86 21.08 20.09 18.91 16.27 18.15 17.54 16.66 16.71 16.10 16.27 16.16 15.51
35.00 35.49 35.42 34.36 34.10 33.14 31.52 32.07 31.31 29.28 27.33 26.09 24.70 23.50 22.87 22.43 22.37 21.32 21.24 20.87 22.73 23.93 21.85 21.94 22.80 23.30 22.77 21.62 21.65 23.62 22.36 21.51 19.53 18.76 18.33 17.88 17.46 16.63 16.07 12.15 13.71 15.07 15.14 14.40
32.92 32.63 32.52 31.16 31.43 32.09 31.50 30.55 28.78 25.59 25.55 24.97 23.72 22.35 20.87 20.29 20.77 21.60 21.35 21.44 21.86 21.87 22.87 22.27 23.66 23.27 22.90 21.44 22.37 22.45 21.20 20.13 19.02 18.02 17.13 16.60 16.04 16.45 16.01 15.59 15.25 14.34 13.42 13.06
30.94 29.91 29.30 29.80 29.22 29.07 29.11 29.19 28.30 26.44 25.53 24.46 24.02 21.97 19.49 18.46 20.01 21.76 25.10 23.85 22.84 22.62 22.65 23.36 23.75 22.74 20.89 19.93 21.32 20.73 19.38 17.97 17.53 17.12 16.54 16.88 16.82 15.92 15.09 14.20 13.04 12.43 12.24 11.41
30.67 29.92 29.22 28.70 28.12 28.00 28.11 28.07 27.29 26.13 24.87 23.96 21.86 20.40 20.44 19.72 20.98 20.72 19.70 22.66 22.72 22.57 23.22 23.62 20.24 17.74 17.94 21.29 20.58 18.91 17.63 16.54 16.28 15.88 15.59 14.91 14.75 13.94 13.35 12.13 11.52 11.41 9.91 8.70
30.20 29.81 29.09 29.78 29.62 27.60 25.95 26.28 26.76 26.69 26.25 24.52 23.21 22.85 22.12 20.74 22.30 24.54 25.22 23.01 21.80 22.79 23.72 19.39 18.06 16.93 19.01 19.95 18.92 17.81 16.61 16.34 15.02 15.11 13.33 7.95 12.97 10.87 11.30 9.52 8.94 9.67 8.15 6.54
30.40 29.33 28.54 27.93 27.97 28.07 28.03 27.08 26.32 25.71 24.91 24.86 23.65 23.95 24.26 24.99 24.33 25.37 24.32 23.06 21.60 23.57 21.04 17.31 16.09 16.49 20.09 19.11 17.77 16.26 15.89 15.50 15.17 14.13 12.64 12.35 10.61 9.49 10.68 10.00 6.83 7.35 5.66 5.78
31.36 31.45 30.93 31.10 30.95 30.16 29.27 28.23 27.52 26.72 26.14 24.37 24.16 25.08 25.57 25.43 25.77 25.45 23.98 22.99 22.28 22.22 19.86 17.60 17.23 18.72 18.92 18.06 16.47 14.94 15.17 12.62 10.19 11.25 10.33 9.79 9.48 8.93 7.89 6.63 6.08 6.10 5.83 4.82
32.05 31.37 30.62 29.94 30.86 30.67 30.15 29.33 28.28 26.99 27.38 26.60 24.71 25.41 25.58 26.02 26.39 24.61 23.33 22.56 22.79 21.23 18.61 17.99 17.55 18.49 18.07 16.70 15.40 13.86 13.29 12.15 11.23 9.79 9.52 9.59 8.36 9.29 6.94 6.08 6.48 5.83 4.32 2.81

GFSNGP_sfc_wetblb_132.txt.gz
Wetbulb
37.14 37.77 37.77 36.83 37.30 38.02 36.29 37.08 33.00 36.18 36.86 41.27 44.10 44.63 44.77 45.98 46.29 45.02 43.17 43.30 43.47 42.19 39.78 37.72 37.51 37.70 37.84 37.69 37.97 38.34 36.55 35.74 34.93 35.07 34.79 34.47 33.95 33.52 33.32 32.32 32.13 32.56 31.68 29.44
32.26 36.21 36.59 34.55 36.20 37.38 36.88 36.95 36.82 37.92 37.94 44.93 46.10 46.56 44.66 44.74 45.89 43.86 43.22 43.11 42.92 42.22 38.90 36.92 36.88 36.75 37.07 37.46 37.02 36.86 34.85 33.90 34.14 33.33 32.54 31.91 32.02 31.52 31.02 30.08 29.23 29.01 29.28 27.66
27.16 33.57 33.64 28.96 34.06 35.87 37.68 39.37 38.40 33.86 39.37 43.56 42.73 43.72 44.30 44.92 46.11 44.09 43.15 42.60 41.96 40.31 38.40 37.18 37.07 37.25 36.55 36.61 36.45 34.71 33.46 32.91 31.93 31.41 30.29 29.81 30.21 29.73 28.75 27.81 27.82 26.76 26.31 27.03
28.22 30.81 21.56 34.45 40.80 39.86 38.00 39.25 40.28 40.12 41.21 42.64 43.44 45.18 46.51 47.91 45.51 44.33 43.32 41.84 40.96 38.48 36.84 36.49 36.65 36.58 37.22 36.57 34.71 32.82 31.22 30.62 30.47 30.14 29.62 28.86 28.38 28.29 28.24 28.15 26.58 25.72 24.54 24.44
26.79 27.13 30.82 34.00 37.79 37.03 36.72 35.90 41.50 40.28 42.02 42.74 43.78 44.82 43.77 47.03 47.63 45.01 42.59 40.32 36.54 37.08 35.64 35.19 35.12 36.16 36.22 34.65 33.06 30.71 28.81 28.18 28.19 28.31 27.13 27.05 24.99 26.27 27.41 27.85 26.61 25.09 25.10 24.01
29.52 23.56 21.15 33.39 38.94 41.99 41.17 29.56 40.80 42.26 41.88 42.19 42.49 37.82 41.48 42.93 41.28 38.36 37.00 36.55 35.19 34.64 34.20 33.65 33.60 35.48 34.19 32.54 31.01 29.42 28.99 28.36 28.29 27.91 25.67 22.49 26.22 25.10 27.59 28.24 27.06 27.61 25.06 23.71
27.38 25.25 28.94 37.37 39.47 41.22 27.83 31.11 42.20 43.14 43.20 42.73 40.71 40.17 38.88 37.32 35.55 35.37 35.45 34.17 34.09 33.11 31.87 32.11 33.71 33.62 30.59 29.31 27.46 29.07 29.82 29.50 28.66 28.35 28.25 28.20 27.31 27.42 26.93 26.45 26.33 27.44 26.33 23.49
28.78 25.26 22.64 40.08 39.82 33.37 39.13 44.00 42.85 43.29 43.65 38.92 36.74 34.53 32.74 32.85 32.49 32.61 32.11 32.47 32.06 30.93 30.98 32.23 32.17 30.78 27.98 26.37 28.81 29.38 28.20 27.81 27.02 28.09 28.24 28.60 27.67 27.98 27.86 27.82 24.72 24.44 24.50 22.77
31.16 31.81 39.96 41.57 40.51 42.30 44.64 42.44 43.02 43.16 42.12 38.79 33.14 31.64 31.80 31.14 31.17 31.24 31.35 31.24 31.89 31.06 30.83 32.01 32.34 31.10 27.80 28.51 29.32 28.31 27.16 24.56 26.16 27.69 28.52 27.95 26.92 25.99 25.86 25.90 24.61 23.71 21.81 20.30
34.03 37.36 38.70 41.02 43.72 44.20 43.46 42.08 43.23 43.40 40.80 36.51 32.01 31.64 30.78 30.87 30.47 30.44 30.77 30.66 31.20 31.61 31.42 31.22 32.39 31.96 30.47 30.24 29.94 28.61 27.09 27.20 27.59 26.86 26.51 26.74 25.14 23.07 21.40 21.02 21.29 21.45 20.72 17.96
35.07 37.69 39.94 41.69 43.06 44.11 43.30 42.64 42.20 42.87 38.53 34.05 32.33 31.04 30.67 29.84 30.12 30.28 30.60 30.89 32.29 32.08 31.91 31.66 32.93 32.27 32.30 32.17 32.20 30.06 28.67 27.16 25.91 25.69 23.20 21.72 22.12 21.81 19.92 19.67 20.08 17.94 18.60 18.71
32.48 39.52 38.92 40.11 42.61 41.69 42.98 40.16 41.32 40.03 35.36 34.54 32.90 30.99 30.75 30.03 30.56 30.76 30.81 31.94 31.92 32.14 31.54 31.31 32.02 31.47 32.16 32.80 31.51 29.50 27.57 26.90 26.91 26.26 25.19 22.08 20.36 19.14 22.38 21.42 21.56 21.38 20.77 19.13
39.23 42.04 40.65 41.54 42.70 44.21 42.58 40.81 41.28 40.08 36.54 33.47 33.04 32.11 30.71 29.74 30.66 31.33 31.83 31.79 31.69 30.81 30.93 30.08 28.04 25.93 29.46 30.70 30.38 28.92 26.90 26.07 25.66 25.83 24.87 24.25 23.94 21.34 17.66 19.00 21.06 20.87 21.28 20.66
41.69 40.76 37.82 39.15 38.31 41.25 41.78 41.37 41.07 39.36 37.08 34.73 33.42 32.32 30.55 29.85 30.56 30.62 30.99 31.16 29.78 27.03 26.01 25.48 24.44 23.42 24.80 25.19 24.59 23.93 25.68 25.69 25.50 25.04 24.46 23.94 23.18 22.24 21.66 20.67 17.51 17.12 20.08 19.62
40.24 40.87 40.04 41.08 40.11 39.07 40.18 39.64 37.34 34.96 34.14 33.08 33.23 30.99 30.42 28.98 28.59 29.81 30.39 29.26 28.13 26.18 24.35 23.16 22.00 21.45 23.40 23.30 24.16 24.46 25.09 24.93 24.73 24.11 23.44 22.32 23.41 22.72 21.90 20.87 19.74 19.25 18.46 15.14
39.91 39.51 39.17 37.54 37.01 36.51 36.84 36.36 34.87 33.17 32.83 32.49 31.42 30.73 30.47 30.19 29.89 29.27 28.83 28.12 26.03 23.94 23.21 21.24 21.34 22.05 23.72 24.35 24.14 24.15 23.74 21.94 23.45 23.30 23.12 22.86 22.33 21.44 20.71 19.79 18.85 18.35 14.35 11.77
36.23 34.92 36.28 35.26 34.87 34.42 34.38 35.40 34.82 33.11 32.36 31.66 31.15 31.52 30.74 30.23 29.01 27.40 26.20 26.14 25.36 23.60 22.11 21.44 20.35 21.36 22.01 23.24 24.16 23.35 22.74 23.33 19.65 23.12 21.88 21.30 20.66 19.33 19.09 17.94 16.65 16.24 11.98 10.47
38.88 38.54 38.42 37.08 34.76 33.55 33.68 34.29 33.64 32.58 31.36 31.86 31.25 30.08 29.28 27.41 25.52 24.71 24.72 24.16 22.47 21.82 21.91 21.34 21.39 21.37 22.07 23.84 25.71 24.57 22.45 22.38 22.52 20.82 20.31 19.24 18.70 18.82 17.89 16.80 15.91 15.14 14.81 11.38
37.65 37.05 37.02 36.32 35.58 34.63 33.61 32.54 31.95 31.63 30.89 30.06 28.53 27.22 27.27 26.44 25.44 24.15 23.85 21.67 20.92 19.74 19.43 20.34 22.67 22.42 23.27 23.99 24.65 23.92 22.32 21.07 20.20 19.32 17.50 14.23 16.98 16.40 15.43 15.14 14.82 14.61 13.79 13.43
35.32 36.03 35.51 34.17 33.92 32.56 31.02 30.89 29.98 27.50 26.81 26.53 26.35 26.02 24.63 24.39 24.16 22.86 22.44 21.52 22.52 22.41 20.90 21.38 22.43 22.65 22.59 21.15 22.21 22.80 21.86 20.52 19.25 17.92 17.54 17.05 16.39 15.50 11.18 9.22 12.38 12.86 12.27 11.90
32.62 31.63 30.56 31.11 30.70 31.07 30.83 28.92 25.72 24.64 25.37 25.43 25.00 23.67 23.20 22.94 22.70 21.83 21.11 21.05 21.25 21.81 22.27 21.55 22.86 22.14 21.56 20.52 21.54 22.34 21.41 19.31 17.49 15.52 15.44 14.71 13.38 14.73 13.48 13.12 12.80 11.50 10.70 10.03
30.23 30.31 30.41 30.23 29.69 29.48 29.96 29.00 27.51 25.70 24.93 25.10 24.57 22.83 21.22 20.90 21.46 21.74 24.17 21.63 22.03 22.10 21.79 22.72 23.09 21.61 20.45 19.94 21.22 21.10 19.89 18.49 17.58 17.21 16.42 16.27 15.40 14.33 13.19 11.60 9.29 9.23 8.69 8.09
29.47 29.11 29.48 29.06 28.47 28.28 29.16 28.54 27.30 26.50 24.67 23.61 21.54 21.10 21.10 21.09 22.08 21.63 21.27 22.59 22.92 22.46 22.85 23.32 19.68 18.50 17.93 21.54 20.71 19.19 17.90 17.16 16.62 16.24 15.60 14.60 13.94 12.41 11.46 9.72 8.74 7.93 6.41 5.77
28.80 28.61 28.94 29.35 28.50 27.53 25.96 26.85 26.84 26.28 25.61 23.65 22.24 21.84 21.99 21.51 22.90 25.11 24.49 23.08 22.56 22.42 21.39 18.91 18.17 17.88 19.58 20.32 18.97 17.87 16.63 16.49 15.72 14.93 11.98 10.63 11.94 8.48 8.76 6.40 5.24 5.92 4.82 2.73
29.24 28.81 28.56 27.42 27.08 27.05 26.81 26.62 26.36 26.07 24.41 24.02 23.15 23.67 23.48 24.60 24.12 24.58 23.39 22.82 22.07 21.82 19.78 16.80 16.77 16.46 20.14 19.36 18.31 16.65 16.70 15.93 15.42 14.09 11.66 11.90 10.66 7.74 8.05 7.32 3.82 5.16 2.63 1.50
29.27 28.83 29.20 30.07 30.16 29.54 27.99 27.08 25.97 25.44 25.33 23.49 23.82 24.83 25.76 25.85 26.04 24.17 23.45 22.10 22.27 20.30 18.28 16.83 17.21 18.88 19.45 18.57 16.90 16.12 15.99 11.21 12.14 12.79 11.82 10.79 9.52 8.64 6.99 5.52 3.66 2.45 1.99 0.73
32.38 31.59 30.43 30.11 31.13 30.29 29.24 28.50 27.71 26.05 26.77 25.23 23.85 25.47 25.96 26.17 25.63 23.46 22.45 21.73 22.56 20.13 17.85 17.78 17.63 19.53 18.93 17.00 15.95 15.26 14.27 11.07 10.79 10.25 10.15 9.88 8.80 8.10 6.17 3.84 3.49 2.98 0.17 -2.08

GFSNGP_sfc_wetblb_135.txt.gz
Wetbulb
35.46 35.70 36.69 35.92 36.73 37.60 36.23 36.31 31.36 34.06 35.03 38.73 40.95 43.10 43.98 44.41 43.95 42.78 41.10 41.50 41.40 37.26 35.13 35.01 35.19 34.88 35.05 35.14 37.25 37.11 35.68 32.56 31.22 31.24 31.27 31.15 30.08 29.48 28.67 27.88 27.95 28.37 25.90 25.34
29.83 34.30 34.41 31.84 35.35 36.40 36.66 37.14 36.39 35.97 34.64 41.90 43.82 44.97 44.30 44.81 44.81 43.72 40.97 41.60 41.98 37.87 35.51 35.32 35.36 34.41 35.81 36.15 34.93 34.17 32.07 31.08 31.27 30.44 30.05 29.02 28.50 27.79 26.96 26.05 25.76 26.14 24.73 24.33
25.24 31.63 31.01 26.49 31.80 33.49 35.90 37.77 37.09 32.44 36.92 41.10 40.62 41.88 42.65 44.20 44.68 42.12 41.77 41.71 41.19 36.27 35.39 35.07 34.76 35.31 35.37 34.25 33.87 32.23 31.08 30.54 30.04 29.16 27.86 27.57 27.94 26.80 25.63 24.61 24.61 23.35 23.70 23.43
26.42 28.46 19.25 31.71 37.91 37.54 36.21 37.32 38.74 39.36 39.47 40.14 40.49 42.75 43.94 43.71 43.28 42.38 41.75 41.65 39.35 36.25 35.10 34.29 34.62 35.68 34.90 33.42 31.97 30.63 28.94 29.20 29.59 28.25 26.56 26.43 26.05 24.11 22.87 23.81 19.49 19.51 20.86 21.30
21.62 22.86 28.25 31.44 35.60 34.09 32.86 33.84 38.70 37.54 38.74 40.21 40.76 42.43 40.28 43.17 43.15 42.66 41.71 39.18 36.41 35.79 34.21 33.95 33.77 35.71 33.21 30.87 29.85 28.59 26.97 26.82 27.21 26.50 24.68 24.07 17.41 17.09 18.84 23.34 20.82 20.41 20.56 19.15
22.98 20.20 19.42 29.06 37.14 40.45 38.87 26.52 37.38 38.61 38.26 38.52 38.30 30.24 32.71 37.57 39.04 36.07 35.99 35.12 33.16 33.19 33.82 33.66 33.92 33.89 31.72 29.62 28.23 26.53 26.43 26.65 26.85 25.90 21.11 14.04 14.67 16.39 19.13 20.98 24.01 22.15 19.88 17.51
24.54 23.71 27.44 34.19 37.99 39.77 26.06 25.97 38.37 39.66 38.74 38.04 34.03 34.74 35.01 34.60 33.65 33.92 33.95 33.42 33.23 33.29 32.42 32.28 32.79 30.57 28.04 26.85 25.97 27.67 28.46 27.60 26.76 26.14 24.62 23.11 21.03 19.25 18.57 18.81 24.35 21.35 18.06 16.93
26.94 24.29 21.32 38.23 38.05 31.33 34.39 37.92 37.69 38.79 37.22 34.27 33.10 32.95 32.36 32.60 32.13 32.48 32.20 32.40 32.16 31.62 31.75 33.20 31.74 29.34 25.63 25.13 27.22 27.36 27.08 26.09 24.19 24.87 26.84 26.52 22.34 22.95 24.40 21.24 20.71 19.95 16.50 14.70
29.53 27.16 34.55 37.79 36.52 38.44 39.57 38.55 38.32 37.87 36.25 34.07 31.81 31.47 31.68 30.98 31.11 31.11 31.07 31.05 31.56 31.30 31.16 31.78 30.78 28.91 26.58 27.52 27.03 26.29 24.87 19.07 23.13 26.09 26.06 25.17 23.60 21.49 20.98 20.84 20.12 18.46 17.12 12.03
28.78 32.16 34.88 37.00 39.23 40.44 40.25 39.21 39.62 39.34 34.67 33.56 31.86 31.67 30.77 30.74 30.39 30.15 30.28 30.10 31.01 30.80 30.10 29.72 30.01 29.14 28.47 28.09 27.75 26.40 24.81 24.83 24.80 24.25 23.37 21.51 21.21 20.49 18.98 18.09 18.47 18.50 16.00 11.86
31.20 34.03 36.72 37.66 39.25 39.89 39.99 39.29 38.80 36.97 34.59 33.28 32.23 31.13 30.67 29.75 29.77 29.75 29.94 30.15 31.13 29.96 29.41 29.29 29.97 28.84 28.94 28.88 27.75 25.89 25.67 24.80 23.03 22.21 21.21 20.58 19.34 17.48 18.81 16.01 18.40 16.78 13.51 12.35
28.36 36.82 36.12 36.35 40.57 41.16 39.44 37.86 36.73 34.04 32.46 33.47 32.59 30.72 30.58 29.64 29.91 29.79 29.19 30.19 29.85 29.32 29.19 29.03 29.28 28.36 28.85 29.34 28.68 26.93 24.36 23.45 22.56 20.73 20.20 19.22 19.16 18.00 22.32 21.94 22.28 21.72 20.94 15.75
34.28 40.51 39.12 39.13 40.22 40.47 39.58 39.54 37.06 34.42 33.34 31.45 32.20 31.26 30.66 29.35 29.92 30.46 30.03 30.31 28.32 28.00 25.83 24.14 24.28 23.56 26.59 29.12 28.24 26.34 23.83 24.39 24.00 22.54 19.57 18.12 18.04 17.74 13.78 18.07 22.02 21.95 21.30 21.28
39.11 38.63 34.52 36.32 33.49 38.12 39.01 38.80 37.64 34.86 33.63 31.93 31.64 31.52 30.43 29.64 30.37 30.14 30.04 28.67 26.36 24.78 23.83 23.37 23.16 22.07 22.85 25.20 24.03 22.01 22.69 23.52 22.00 20.81 19.95 18.82 16.25 16.96 14.63 14.09 11.64 8.74 17.86 17.62
38.87 39.31 37.31 38.05 37.39 36.47 37.22 36.21 33.81 32.80 32.28 31.67 31.45 29.96 29.69 29.13 29.55 30.14 28.20 26.86 25.78 24.03 22.52 22.46 21.66 20.82 21.20 24.27 23.32 22.68 22.87 20.59 18.93 16.92 15.68 14.51 13.85 13.81 15.34 15.45 14.43 12.45 8.12 8.71
38.90 37.80 36.96 35.67 34.85 34.87 35.34 33.81 31.40 31.33 31.40 30.33 28.90 28.86 29.53 29.98 29.81 28.22 26.80 25.72 23.91 21.63 22.19 21.04 20.91 20.58 22.24 22.68 21.85 21.92 21.54 19.46 19.29 19.10 17.53 17.38 17.20 16.51 16.06 15.10 13.83 9.08 5.14 4.24
33.07 32.09 33.19 32.35 31.39 31.40 31.91 32.75 32.76 31.84 30.94 29.70 29.13 29.31 28.52 28.90 27.98 26.45 25.91 25.80 23.33 21.89 21.91 21.16 20.10 20.70 21.10 21.92 22.97 21.91 20.87 21.29 18.99 20.05 19.13 17.81 16.28 15.45 15.09 13.69 12.90 9.51 4.39 3.80
36.11 35.68 35.12 33.13 30.95 30.11 30.15 30.90 30.62 31.04 30.58 30.29 29.67 28.12 27.03 26.58 24.56 23.70 23.18 22.02 21.11 20.42 20.41 20.83 21.10 21.24 21.18 21.18 22.26 21.50 20.11 20.37 19.97 18.48 17.99 15.97 16.55 16.59 14.59 13.67 13.57 11.41 9.18 6.26
35.40 34.16 33.42 33.39 31.68 30.17 29.37 28.85 28.98 29.38 29.31 28.94 28.28 26.09 26.16 24.12 22.89 22.13 21.80 20.69 19.02 17.78 18.20 20.10 22.94 20.98 21.72 21.94 23.37 21.50 20.27 18.98 18.20 16.73 14.92 11.68 13.28 13.65 10.98 10.11 9.75 8.33 9.74 8.69
30.62 30.98 30.59 30.00 30.23 29.58 27.42 25.75 27.29 26.42 26.71 25.87 25.12 23.87 21.98 22.25 22.41 21.56 21.53 20.09 20.23 19.84 19.55 20.60 22.18 22.46 22.06 21.56 21.93 20.49 19.17 16.88 16.32 13.39 12.28 13.42 10.31 5.29 5.65 8.46 9.23 4.41 1.64 1.90
28.24 27.44 26.36 26.67 27.93 28.29 25.11 20.18 23.83 20.54 19.59 24.87 23.25 22.17 21.65 21.68 22.23 21.88 20.85 19.89 19.75 19.95 20.68 21.07 21.55 20.74 19.81 18.49 20.02 18.32 16.47 14.32 12.30 11.35 10.88 9.02 9.22 11.20 7.32 3.93 5.07 4.47 1.80 -1.69
27.69 25.73 20.73 24.55 27.79 26.14 24.13 18.94 19.84 19.12 20.69 21.70 21.75 21.28 20.52 19.99 21.07 21.81 22.60 20.39 21.16 20.48 20.56 20.97 21.22 19.07 18.05 18.50 20.00 18.45 16.96 15.92 14.14 13.23 12.39 10.71 9.32 8.50 7.57 6.13 5.17 2.10 -2.23 -6.66
29.07 28.73 28.67 27.84 27.37 27.07 26.08 20.21 14.51 17.69 16.99 17.32 18.30 19.28 19.52 20.14 20.85 19.95 18.52 22.12 21.74 20.46 20.66 21.10 20.12 17.17 16.36 18.82 17.47 15.93 15.12 14.00 12.67 12.32 10.76 10.17 8.95 8.05 6.54 4.66 -0.17 -2.16 -3.87 -7.33
27.94 27.93 27.37 27.48 27.10 26.26 24.84 24.98 24.13 19.92 15.75 16.23 14.96 16.49 19.84 19.53 20.52 24.60 22.74 22.37 21.43 21.15 19.62 18.68 18.38 17.86 18.69 17.53 16.50 15.40 13.97 12.88 12.24 11.28 9.76 8.54 5.69 6.20 2.21 -2.85 -5.12 -5.07 -9.24 -9.25
27.54 27.40 27.08 26.28 26.19 25.69 26.02 26.01 25.04 23.25 21.38 20.72 20.40 20.78 21.18 22.40 20.40 21.74 22.03 21.88 21.04 18.58 18.32 16.48 17.19 18.55 18.18 16.69 15.25 12.63 11.91 11.05 9.79 7.10 6.86 7.18 4.58 2.22 3.12 0.42 -5.15 -8.14 -10.40 -11.13
27.67 27.05 27.22 27.80 27.56 26.79 26.33 26.02 24.12 23.08 22.77 19.45 19.98 20.08 18.86 20.33 22.27 21.78 21.27 21.25 18.49 17.92 15.29 14.69 15.39 16.20 15.47 14.20 12.17 10.43 9.08 7.93 10.28 8.60 6.97 6.03 4.85 4.16 1.55 0.73 -6.90 -9.89 -11.73 -12.63
28.68 26.73 27.38 28.40 28.68 27.45 26.58 26.33 23.70 23.20 23.61 21.85 20.52 21.56 21.65 21.23 21.00 19.89 19.81 19.81 17.75 15.81 13.75 14.42 14.58 16.63 15.68 13.07 11.02 11.01 8.10 7.88 7.03 7.04 5.97 4.95 3.77 2.81 1.75 -1.76 -5.83 -8.76 -9.98 -11.64